<?xml version='1.0' encoding='UTF-8'?><gpx version="1.1" creator="JPX - https://github.com/jenetics/jpx" xmlns="http://www.topografix.com/GPX/1/1"><trk><trkseg><trkpt lat="43.3758605" lon="11.78795"><ele>271.99999999999994</ele><time>2026-03-22T07:36:29.324Z</time></trkpt><trkpt lat="43.3759181" lon="11.7879979"><ele>272.0</ele><time>2026-03-22T07:36:38.35Z</time></trkpt><trkpt lat="43.3759814" lon="11.7879918"><ele>272.0</ele><time>2026-03-22T07:36:46.323Z</time></trkpt><trkpt lat="43.376055" lon="11.787955"><ele>272.0</ele><time>2026-03-22T07:47:24.261Z</time></trkpt><trkpt lat="43.37612" lon="11.78796"><ele>272.0</ele><time>2026-03-22T07:47:29.261Z</time></trkpt><trkpt lat="43.3761833" lon="11.7879617"><ele>271.99999999999994</ele><time>2026-03-22T07:47:34.26Z</time></trkpt><trkpt lat="43.3762167" lon="11.7878583"><ele>272.0</ele><time>2026-03-22T07:48:26.264Z</time></trkpt><trkpt lat="43.3762383" lon="11.7877233"><ele>272.2</ele><time>2026-03-22T07:48:29.26Z</time></trkpt><trkpt lat="43.37624" lon="11.7876167"><ele>272.4</ele><time>2026-03-22T07:48:31.263Z</time></trkpt><trkpt lat="43.3762133" lon="11.78752"><ele>272.6</ele><time>2026-03-22T07:48:33.263Z</time></trkpt><trkpt lat="43.3761333" lon="11.7874783"><ele>272.8</ele><time>2026-03-22T07:48:35.259Z</time></trkpt><trkpt lat="43.3760233" lon="11.7874567"><ele>273.0</ele><time>2026-03-22T07:48:37.261Z</time></trkpt><trkpt lat="43.3759017" lon="11.7874367"><ele>273.0</ele><time>2026-03-22T07:48:39.264Z</time></trkpt><trkpt lat="43.37578" lon="11.7874367"><ele>273.0</ele><time>2026-03-22T07:48:41.259Z</time></trkpt><trkpt lat="43.3756633" lon="11.7874383"><ele>273.0</ele><time>2026-03-22T07:48:43.26Z</time></trkpt><trkpt lat="43.3755633" lon="11.78744"><ele>273.0</ele><time>2026-03-22T07:48:45.256Z</time></trkpt><trkpt lat="43.37549" lon="11.78744"><ele>273.0</ele><time>2026-03-22T07:48:47.265Z</time></trkpt><trkpt lat="43.3754383" lon="11.7873483"><ele>273.4</ele><time>2026-03-22T07:50:11.261Z</time></trkpt><trkpt lat="43.3754317" lon="11.78719"><ele>273.8</ele><time>2026-03-22T07:50:13.261Z</time></trkpt><trkpt lat="43.3754333" lon="11.7870333"><ele>274.2</ele><time>2026-03-22T07:50:15.262Z</time></trkpt><trkpt lat="43.3754333" lon="11.786875"><ele>274.6</ele><time>2026-03-22T07:50:17.261Z</time></trkpt><trkpt lat="43.3754317" lon="11.7867367"><ele>275.0</ele><time>2026-03-22T07:50:19.26Z</time></trkpt><trkpt lat="43.375455" lon="11.78663"><ele>274.6666666666667</ele><time>2026-03-22T07:50:21.258Z</time></trkpt><trkpt lat="43.3755267" lon="11.78652"><ele>274.33333333333337</ele><time>2026-03-22T07:50:23.26Z</time></trkpt><trkpt lat="43.37558" lon="11.786455"><ele>274.0</ele><time>2026-03-22T07:50:24.263Z</time></trkpt><trkpt lat="43.3756467" lon="11.786385"><ele>273.6666666666667</ele><time>2026-03-22T07:50:25.259Z</time></trkpt><trkpt lat="43.3757183" lon="11.7863033"><ele>273.3333333333333</ele><time>2026-03-22T07:50:26.259Z</time></trkpt><trkpt lat="43.3757883" lon="11.7862183"><ele>273.0</ele><time>2026-03-22T07:50:27.259Z</time></trkpt><trkpt lat="43.3758667" lon="11.78613"><ele>273.0</ele><time>2026-03-22T07:50:28.258Z</time></trkpt><trkpt lat="43.37595" lon="11.7860367"><ele>273.0</ele><time>2026-03-22T07:50:29.26Z</time></trkpt><trkpt lat="43.3760333" lon="11.7859467"><ele>273.0</ele><time>2026-03-22T07:50:30.263Z</time></trkpt><trkpt lat="43.3761167" lon="11.7858533"><ele>273.0</ele><time>2026-03-22T07:50:31.262Z</time></trkpt><trkpt lat="43.3762" lon="11.7857583"><ele>273.0</ele><time>2026-03-22T07:50:32.263Z</time></trkpt><trkpt lat="43.3762867" lon="11.78566"><ele>274.25</ele><time>2026-03-22T07:50:33.261Z</time></trkpt><trkpt lat="43.3763783" lon="11.785555"><ele>275.5</ele><time>2026-03-22T07:50:34.261Z</time></trkpt><trkpt lat="43.3764667" lon="11.7854483"><ele>276.75</ele><time>2026-03-22T07:50:35.259Z</time></trkpt><trkpt lat="43.37655" lon="11.7853317"><ele>278.0</ele><time>2026-03-22T07:50:36.263Z</time></trkpt><trkpt lat="43.3766283" lon="11.7852083"><ele>277.75</ele><time>2026-03-22T07:50:37.262Z</time></trkpt><trkpt lat="43.376705" lon="11.7850783"><ele>277.5</ele><time>2026-03-22T07:50:38.264Z</time></trkpt><trkpt lat="43.3767783" lon="11.7849417"><ele>277.25</ele><time>2026-03-22T07:50:39.263Z</time></trkpt><trkpt lat="43.3768433" lon="11.784805"><ele>277.0</ele><time>2026-03-22T07:50:40.26Z</time></trkpt><trkpt lat="43.3769" lon="11.7846683"><ele>277.0</ele><time>2026-03-22T07:50:41.259Z</time></trkpt><trkpt lat="43.3769517" lon="11.7845317"><ele>277.0</ele><time>2026-03-22T07:50:42.259Z</time></trkpt><trkpt lat="43.3769967" lon="11.7843933"><ele>277.0</ele><time>2026-03-22T07:50:43.26Z</time></trkpt><trkpt lat="43.377045" lon="11.7842567"><ele>277.0</ele><time>2026-03-22T07:50:44.26Z</time></trkpt><trkpt lat="43.3770933" lon="11.7841183"><ele>277.0</ele><time>2026-03-22T07:50:45.26Z</time></trkpt><trkpt lat="43.3771417" lon="11.7839683"><ele>276.25</ele><time>2026-03-22T07:50:46.261Z</time></trkpt><trkpt lat="43.3771883" lon="11.7838183"><ele>275.5</ele><time>2026-03-22T07:50:47.26Z</time></trkpt><trkpt lat="43.3772433" lon="11.7836633"><ele>274.75</ele><time>2026-03-22T07:50:48.262Z</time></trkpt><trkpt lat="43.3772983" lon="11.7835117"><ele>274.0</ele><time>2026-03-22T07:50:49.26Z</time></trkpt><trkpt lat="43.3773533" lon="11.7833583"><ele>273.25</ele><time>2026-03-22T07:50:50.259Z</time></trkpt><trkpt lat="43.377405" lon="11.7832033"><ele>272.5</ele><time>2026-03-22T07:50:51.262Z</time></trkpt><trkpt lat="43.3774583" lon="11.783045"><ele>271.75</ele><time>2026-03-22T07:50:52.26Z</time></trkpt><trkpt lat="43.3775117" lon="11.7828867"><ele>271.0</ele><time>2026-03-22T07:50:53.259Z</time></trkpt><trkpt lat="43.3775683" lon="11.78273"><ele>270.5</ele><time>2026-03-22T07:50:54.26Z</time></trkpt><trkpt lat="43.3776233" lon="11.782575"><ele>270.0</ele><time>2026-03-22T07:50:55.261Z</time></trkpt><trkpt lat="43.377675" lon="11.7824233"><ele>269.5</ele><time>2026-03-22T07:50:56.258Z</time></trkpt><trkpt lat="43.377725" lon="11.7822767"><ele>269.0</ele><time>2026-03-22T07:50:57.261Z</time></trkpt><trkpt lat="43.377775" lon="11.7821333"><ele>269.0</ele><time>2026-03-22T07:50:58.261Z</time></trkpt><trkpt lat="43.3778233" lon="11.7819917"><ele>269.0</ele><time>2026-03-22T07:50:59.259Z</time></trkpt><trkpt lat="43.3778733" lon="11.7818483"><ele>269.0</ele><time>2026-03-22T07:51:00.257Z</time></trkpt><trkpt lat="43.3779217" lon="11.7817067"><ele>269.0</ele><time>2026-03-22T07:51:01.261Z</time></trkpt><trkpt lat="43.3779683" lon="11.7815633"><ele>268.75</ele><time>2026-03-22T07:51:02.26Z</time></trkpt><trkpt lat="43.3780167" lon="11.7814217"><ele>268.5</ele><time>2026-03-22T07:51:03.262Z</time></trkpt><trkpt lat="43.378065" lon="11.78128"><ele>268.25</ele><time>2026-03-22T07:51:04.26Z</time></trkpt><trkpt lat="43.3781133" lon="11.7811383"><ele>268.0</ele><time>2026-03-22T07:51:05.267Z</time></trkpt><trkpt lat="43.37816" lon="11.7809983"><ele>267.6</ele><time>2026-03-22T07:51:06.261Z</time></trkpt><trkpt lat="43.3782083" lon="11.78086"><ele>267.20000000000005</ele><time>2026-03-22T07:51:07.259Z</time></trkpt><trkpt lat="43.3782533" lon="11.7807233"><ele>266.8</ele><time>2026-03-22T07:51:08.259Z</time></trkpt><trkpt lat="43.3782967" lon="11.7805867"><ele>266.40000000000003</ele><time>2026-03-22T07:51:09.261Z</time></trkpt><trkpt lat="43.37834" lon="11.7804533"><ele>266.0</ele><time>2026-03-22T07:51:10.261Z</time></trkpt><trkpt lat="43.378385" lon="11.780325"><ele>266.0</ele><time>2026-03-22T07:51:11.257Z</time></trkpt><trkpt lat="43.3784283" lon="11.7801967"><ele>266.0</ele><time>2026-03-22T07:51:12.257Z</time></trkpt><trkpt lat="43.3784717" lon="11.7800617"><ele>266.0</ele><time>2026-03-22T07:51:13.262Z</time></trkpt><trkpt lat="43.3785183" lon="11.77993"><ele>266.0</ele><time>2026-03-22T07:51:14.26Z</time></trkpt><trkpt lat="43.3785633" lon="11.7797967"><ele>266.0</ele><time>2026-03-22T07:51:15.264Z</time></trkpt><trkpt lat="43.3786067" lon="11.779665"><ele>266.40000000000003</ele><time>2026-03-22T07:51:16.259Z</time></trkpt><trkpt lat="43.3786517" lon="11.7795333"><ele>266.8</ele><time>2026-03-22T07:51:17.262Z</time></trkpt><trkpt lat="43.3786967" lon="11.7793983"><ele>267.20000000000005</ele><time>2026-03-22T07:51:18.259Z</time></trkpt><trkpt lat="43.3787417" lon="11.7792617"><ele>267.6</ele><time>2026-03-22T07:51:19.263Z</time></trkpt><trkpt lat="43.3787867" lon="11.7791267"><ele>268.0</ele><time>2026-03-22T07:51:20.26Z</time></trkpt><trkpt lat="43.3788333" lon="11.7789933"><ele>268.6</ele><time>2026-03-22T07:51:21.259Z</time></trkpt><trkpt lat="43.3788767" lon="11.7788617"><ele>269.20000000000005</ele><time>2026-03-22T07:51:22.261Z</time></trkpt><trkpt lat="43.37892" lon="11.77873"><ele>269.8</ele><time>2026-03-22T07:51:23.26Z</time></trkpt><trkpt lat="43.3789633" lon="11.7786017"><ele>270.40000000000003</ele><time>2026-03-22T07:51:24.265Z</time></trkpt><trkpt lat="43.3790083" lon="11.7784717"><ele>271.0</ele><time>2026-03-22T07:51:25.258Z</time></trkpt><trkpt lat="43.3790533" lon="11.77834"><ele>271.6</ele><time>2026-03-22T07:51:26.259Z</time></trkpt><trkpt lat="43.3790967" lon="11.7782083"><ele>272.20000000000005</ele><time>2026-03-22T07:51:27.263Z</time></trkpt><trkpt lat="43.3791417" lon="11.778075"><ele>272.79999999999995</ele><time>2026-03-22T07:51:28.26Z</time></trkpt><trkpt lat="43.3791867" lon="11.7779433"><ele>273.4</ele><time>2026-03-22T07:51:29.262Z</time></trkpt><trkpt lat="43.37923" lon="11.777815"><ele>274.0</ele><time>2026-03-22T07:51:30.258Z</time></trkpt><trkpt lat="43.3792733" lon="11.7776817"><ele>274.4</ele><time>2026-03-22T07:51:31.257Z</time></trkpt><trkpt lat="43.3793183" lon="11.7775483"><ele>274.79999999999995</ele><time>2026-03-22T07:51:32.258Z</time></trkpt><trkpt lat="43.3793633" lon="11.7774133"><ele>275.20000000000005</ele><time>2026-03-22T07:51:33.262Z</time></trkpt><trkpt lat="43.3794083" lon="11.7772767"><ele>275.6</ele><time>2026-03-22T07:51:34.261Z</time></trkpt><trkpt lat="43.379455" lon="11.7771367"><ele>276.0</ele><time>2026-03-22T07:51:35.26Z</time></trkpt><trkpt lat="43.3795017" lon="11.7769967"><ele>276.0</ele><time>2026-03-22T07:51:36.259Z</time></trkpt><trkpt lat="43.3795483" lon="11.7768583"><ele>276.0</ele><time>2026-03-22T07:51:37.258Z</time></trkpt><trkpt lat="43.3795933" lon="11.7767167"><ele>276.0</ele><time>2026-03-22T07:51:38.257Z</time></trkpt><trkpt lat="43.37964" lon="11.776575"><ele>276.0</ele><time>2026-03-22T07:51:39.259Z</time></trkpt><trkpt lat="43.3796867" lon="11.7764333"><ele>276.0</ele><time>2026-03-22T07:51:40.258Z</time></trkpt><trkpt lat="43.3797317" lon="11.7762917"><ele>276.25</ele><time>2026-03-22T07:51:41.259Z</time></trkpt><trkpt lat="43.3797783" lon="11.7761483"><ele>276.5</ele><time>2026-03-22T07:51:42.26Z</time></trkpt><trkpt lat="43.3798217" lon="11.7760017"><ele>276.75</ele><time>2026-03-22T07:51:43.265Z</time></trkpt><trkpt lat="43.37987" lon="11.7758567"><ele>277.0</ele><time>2026-03-22T07:51:44.262Z</time></trkpt><trkpt lat="43.3799183" lon="11.7757083"><ele>277.0</ele><time>2026-03-22T07:51:45.264Z</time></trkpt><trkpt lat="43.379965" lon="11.7755617"><ele>277.0</ele><time>2026-03-22T07:51:46.261Z</time></trkpt><trkpt lat="43.3800133" lon="11.7754167"><ele>277.0</ele><time>2026-03-22T07:51:47.258Z</time></trkpt><trkpt lat="43.3800633" lon="11.7752733"><ele>277.0</ele><time>2026-03-22T07:51:48.26Z</time></trkpt><trkpt lat="43.3801133" lon="11.7751367"><ele>277.2</ele><time>2026-03-22T07:51:49.262Z</time></trkpt><trkpt lat="43.3801583" lon="11.775"><ele>277.4</ele><time>2026-03-22T07:51:50.265Z</time></trkpt><trkpt lat="43.3802033" lon="11.77486"><ele>277.6</ele><time>2026-03-22T07:51:51.261Z</time></trkpt><trkpt lat="43.3802467" lon="11.77472"><ele>277.8</ele><time>2026-03-22T07:51:52.266Z</time></trkpt><trkpt lat="43.3802917" lon="11.7745817"><ele>278.0</ele><time>2026-03-22T07:51:53.262Z</time></trkpt><trkpt lat="43.3803367" lon="11.774445"><ele>278.2</ele><time>2026-03-22T07:51:54.262Z</time></trkpt><trkpt lat="43.3803783" lon="11.7743117"><ele>278.4</ele><time>2026-03-22T07:51:55.258Z</time></trkpt><trkpt lat="43.3804167" lon="11.7741867"><ele>278.59999999999997</ele><time>2026-03-22T07:51:56.267Z</time></trkpt><trkpt lat="43.3804533" lon="11.7740717"><ele>278.8</ele><time>2026-03-22T07:51:57.264Z</time></trkpt><trkpt lat="43.3804883" lon="11.7739633"><ele>279.0</ele><time>2026-03-22T07:51:58.261Z</time></trkpt><trkpt lat="43.38052" lon="11.77386"><ele>279.0</ele><time>2026-03-22T07:51:59.263Z</time></trkpt><trkpt lat="43.38055" lon="11.773765"><ele>279.0</ele><time>2026-03-22T07:52:00.267Z</time></trkpt><trkpt lat="43.3805767" lon="11.773675"><ele>279.0</ele><time>2026-03-22T07:52:01.259Z</time></trkpt><trkpt lat="43.3806067" lon="11.7735883"><ele>279.0</ele><time>2026-03-22T07:52:02.26Z</time></trkpt><trkpt lat="43.3806383" lon="11.773505"><ele>279.0</ele><time>2026-03-22T07:52:03.26Z</time></trkpt><trkpt lat="43.3806717" lon="11.77343"><ele>279.0</ele><time>2026-03-22T07:52:04.259Z</time></trkpt><trkpt lat="43.38074" lon="11.7732833"><ele>279.1666666666667</ele><time>2026-03-22T07:52:06.264Z</time></trkpt><trkpt lat="43.3807717" lon="11.7731983"><ele>279.3333333333333</ele><time>2026-03-22T07:52:07.258Z</time></trkpt><trkpt lat="43.3808017" lon="11.7731067"><ele>279.5</ele><time>2026-03-22T07:52:08.259Z</time></trkpt><trkpt lat="43.3808317" lon="11.7730033"><ele>279.66666666666663</ele><time>2026-03-22T07:52:09.259Z</time></trkpt><trkpt lat="43.3808617" lon="11.7728917"><ele>279.8333333333333</ele><time>2026-03-22T07:52:10.258Z</time></trkpt><trkpt lat="43.3808983" lon="11.77278"><ele>280.0</ele><time>2026-03-22T07:52:11.261Z</time></trkpt><trkpt lat="43.3809417" lon="11.7726667"><ele>280.2</ele><time>2026-03-22T07:52:12.259Z</time></trkpt><trkpt lat="43.3809867" lon="11.7725517"><ele>280.4</ele><time>2026-03-22T07:52:13.258Z</time></trkpt><trkpt lat="43.381035" lon="11.7724383"><ele>280.6</ele><time>2026-03-22T07:52:14.26Z</time></trkpt><trkpt lat="43.3810817" lon="11.772325"><ele>280.8</ele><time>2026-03-22T07:52:15.259Z</time></trkpt><trkpt lat="43.3811267" lon="11.7722067"><ele>281.0</ele><time>2026-03-22T07:52:16.259Z</time></trkpt><trkpt lat="43.38117" lon="11.7720917"><ele>281.0</ele><time>2026-03-22T07:52:17.259Z</time></trkpt><trkpt lat="43.3812167" lon="11.771975"><ele>281.0</ele><time>2026-03-22T07:52:18.266Z</time></trkpt><trkpt lat="43.381265" lon="11.7718583"><ele>281.0</ele><time>2026-03-22T07:52:19.26Z</time></trkpt><trkpt lat="43.3813133" lon="11.7717367"><ele>281.0</ele><time>2026-03-22T07:52:20.263Z</time></trkpt><trkpt lat="43.3813633" lon="11.7716167"><ele>281.0</ele><time>2026-03-22T07:52:21.262Z</time></trkpt><trkpt lat="43.3814133" lon="11.7714933"><ele>280.6</ele><time>2026-03-22T07:52:22.266Z</time></trkpt><trkpt lat="43.381465" lon="11.7713683"><ele>280.20000000000005</ele><time>2026-03-22T07:52:23.259Z</time></trkpt><trkpt lat="43.381515" lon="11.7712417"><ele>279.79999999999995</ele><time>2026-03-22T07:52:24.259Z</time></trkpt><trkpt lat="43.3815667" lon="11.771115"><ele>279.4</ele><time>2026-03-22T07:52:25.262Z</time></trkpt><trkpt lat="43.3816183" lon="11.7709867"><ele>279.0</ele><time>2026-03-22T07:52:26.26Z</time></trkpt><trkpt lat="43.3816717" lon="11.7708567"><ele>278.8</ele><time>2026-03-22T07:52:27.262Z</time></trkpt><trkpt lat="43.3817267" lon="11.7707267"><ele>278.59999999999997</ele><time>2026-03-22T07:52:28.264Z</time></trkpt><trkpt lat="43.38178" lon="11.7705983"><ele>278.4</ele><time>2026-03-22T07:52:29.259Z</time></trkpt><trkpt lat="43.3818333" lon="11.770465"><ele>278.2</ele><time>2026-03-22T07:52:30.257Z</time></trkpt><trkpt lat="43.3818883" lon="11.7703317"><ele>278.0</ele><time>2026-03-22T07:52:31.261Z</time></trkpt><trkpt lat="43.381945" lon="11.7702017"><ele>277.8</ele><time>2026-03-22T07:52:32.26Z</time></trkpt><trkpt lat="43.382" lon="11.77007"><ele>277.6</ele><time>2026-03-22T07:52:33.261Z</time></trkpt><trkpt lat="43.3820567" lon="11.769935"><ele>277.4</ele><time>2026-03-22T07:52:34.258Z</time></trkpt><trkpt lat="43.3821117" lon="11.7698017"><ele>277.2</ele><time>2026-03-22T07:52:35.261Z</time></trkpt><trkpt lat="43.38217" lon="11.7696717"><ele>277.0</ele><time>2026-03-22T07:52:36.26Z</time></trkpt><trkpt lat="43.3822317" lon="11.7695433"><ele>277.5</ele><time>2026-03-22T07:52:37.261Z</time></trkpt><trkpt lat="43.3823033" lon="11.7694217"><ele>278.0</ele><time>2026-03-22T07:52:38.261Z</time></trkpt><trkpt lat="43.3823817" lon="11.7693083"><ele>278.5</ele><time>2026-03-22T07:52:39.261Z</time></trkpt><trkpt lat="43.3824683" lon="11.7692083"><ele>279.0</ele><time>2026-03-22T07:52:40.26Z</time></trkpt><trkpt lat="43.3826517" lon="11.7690267"><ele>279.0</ele><time>2026-03-22T07:52:42.26Z</time></trkpt><trkpt lat="43.382745" lon="11.768935"><ele>279.0</ele><time>2026-03-22T07:52:43.261Z</time></trkpt><trkpt lat="43.3828383" lon="11.76884"><ele>279.0</ele><time>2026-03-22T07:52:44.258Z</time></trkpt><trkpt lat="43.38293" lon="11.768745"><ele>279.0</ele><time>2026-03-22T07:52:45.259Z</time></trkpt><trkpt lat="43.3830233" lon="11.76865"><ele>279.5</ele><time>2026-03-22T07:52:46.261Z</time></trkpt><trkpt lat="43.3831167" lon="11.7685533"><ele>280.0</ele><time>2026-03-22T07:52:47.263Z</time></trkpt><trkpt lat="43.3832117" lon="11.7684583"><ele>280.5</ele><time>2026-03-22T07:52:48.263Z</time></trkpt><trkpt lat="43.3833083" lon="11.768365"><ele>281.0</ele><time>2026-03-22T07:52:49.261Z</time></trkpt><trkpt lat="43.3834033" lon="11.76827"><ele>281.25</ele><time>2026-03-22T07:52:50.26Z</time></trkpt><trkpt lat="43.3834967" lon="11.768175"><ele>281.5</ele><time>2026-03-22T07:52:51.264Z</time></trkpt><trkpt lat="43.3835917" lon="11.7680767"><ele>281.75</ele><time>2026-03-22T07:52:52.262Z</time></trkpt><trkpt lat="43.3836883" lon="11.7679783"><ele>282.0</ele><time>2026-03-22T07:52:53.26Z</time></trkpt><trkpt lat="43.383785" lon="11.7678783"><ele>281.5</ele><time>2026-03-22T07:52:54.26Z</time></trkpt><trkpt lat="43.3838833" lon="11.7677767"><ele>281.0</ele><time>2026-03-22T07:52:55.263Z</time></trkpt><trkpt lat="43.3839833" lon="11.767675"><ele>280.5</ele><time>2026-03-22T07:52:56.263Z</time></trkpt><trkpt lat="43.3840833" lon="11.7675717"><ele>280.0</ele><time>2026-03-22T07:52:57.264Z</time></trkpt><trkpt lat="43.384185" lon="11.7674667"><ele>280.0</ele><time>2026-03-22T07:52:58.263Z</time></trkpt><trkpt lat="43.3842883" lon="11.7673567"><ele>280.0</ele><time>2026-03-22T07:52:59.26Z</time></trkpt><trkpt lat="43.38439" lon="11.7672483"><ele>280.0</ele><time>2026-03-22T07:53:00.262Z</time></trkpt><trkpt lat="43.384495" lon="11.7671367"><ele>280.0</ele><time>2026-03-22T07:53:01.259Z</time></trkpt><trkpt lat="43.3846" lon="11.7670283"><ele>279.75</ele><time>2026-03-22T07:53:02.258Z</time></trkpt><trkpt lat="43.3847033" lon="11.7669217"><ele>279.5</ele><time>2026-03-22T07:53:03.261Z</time></trkpt><trkpt lat="43.384805" lon="11.7668183"><ele>279.25</ele><time>2026-03-22T07:53:04.257Z</time></trkpt><trkpt lat="43.3849083" lon="11.7667117"><ele>279.0</ele><time>2026-03-22T07:53:05.257Z</time></trkpt><trkpt lat="43.3850117" lon="11.766605"><ele>279.0</ele><time>2026-03-22T07:53:06.258Z</time></trkpt><trkpt lat="43.3851133" lon="11.7665"><ele>279.0</ele><time>2026-03-22T07:53:07.26Z</time></trkpt><trkpt lat="43.3852117" lon="11.766395"><ele>279.0</ele><time>2026-03-22T07:53:08.258Z</time></trkpt><trkpt lat="43.3853117" lon="11.76629"><ele>279.0</ele><time>2026-03-22T07:53:09.258Z</time></trkpt><trkpt lat="43.3854117" lon="11.7661833"><ele>279.0</ele><time>2026-03-22T07:53:10.26Z</time></trkpt><trkpt lat="43.3855133" lon="11.766075"><ele>279.0</ele><time>2026-03-22T07:53:11.259Z</time></trkpt><trkpt lat="43.3856167" lon="11.7659683"><ele>279.0</ele><time>2026-03-22T07:53:12.258Z</time></trkpt><trkpt lat="43.3857183" lon="11.76586"><ele>279.0</ele><time>2026-03-22T07:53:13.26Z</time></trkpt><trkpt lat="43.3858217" lon="11.7657533"><ele>279.0</ele><time>2026-03-22T07:53:14.258Z</time></trkpt><trkpt lat="43.385925" lon="11.7656467"><ele>279.0</ele><time>2026-03-22T07:53:15.261Z</time></trkpt><trkpt lat="43.3860267" lon="11.76554"><ele>279.0</ele><time>2026-03-22T07:53:16.261Z</time></trkpt><trkpt lat="43.386125" lon="11.76543"><ele>279.0</ele><time>2026-03-22T07:53:17.259Z</time></trkpt><trkpt lat="43.38622" lon="11.7653183"><ele>279.0</ele><time>2026-03-22T07:53:18.259Z</time></trkpt><trkpt lat="43.3863083" lon="11.7651983"><ele>279.0</ele><time>2026-03-22T07:53:19.265Z</time></trkpt><trkpt lat="43.3863933" lon="11.7650733"><ele>279.0</ele><time>2026-03-22T07:53:20.265Z</time></trkpt><trkpt lat="43.3864767" lon="11.7649433"><ele>279.0</ele><time>2026-03-22T07:53:21.261Z</time></trkpt><trkpt lat="43.3865617" lon="11.7648117"><ele>279.25</ele><time>2026-03-22T07:53:22.259Z</time></trkpt><trkpt lat="43.386645" lon="11.7646817"><ele>279.5</ele><time>2026-03-22T07:53:23.26Z</time></trkpt><trkpt lat="43.38673" lon="11.7645433"><ele>279.75</ele><time>2026-03-22T07:53:24.259Z</time></trkpt><trkpt lat="43.3868133" lon="11.7644117"><ele>280.0</ele><time>2026-03-22T07:53:25.262Z</time></trkpt><trkpt lat="43.3868967" lon="11.7642817"><ele>280.0</ele><time>2026-03-22T07:53:26.259Z</time></trkpt><trkpt lat="43.38698" lon="11.7641517"><ele>280.0</ele><time>2026-03-22T07:53:27.26Z</time></trkpt><trkpt lat="43.3870667" lon="11.76402"><ele>280.0</ele><time>2026-03-22T07:53:28.258Z</time></trkpt><trkpt lat="43.3871517" lon="11.7638883"><ele>280.0</ele><time>2026-03-22T07:53:29.262Z</time></trkpt><trkpt lat="43.3872367" lon="11.763755"><ele>279.5</ele><time>2026-03-22T07:53:30.261Z</time></trkpt><trkpt lat="43.3873233" lon="11.7636217"><ele>279.0</ele><time>2026-03-22T07:53:31.258Z</time></trkpt><trkpt lat="43.3874083" lon="11.763485"><ele>278.5</ele><time>2026-03-22T07:53:32.258Z</time></trkpt><trkpt lat="43.387495" lon="11.7633483"><ele>278.0</ele><time>2026-03-22T07:53:33.258Z</time></trkpt><trkpt lat="43.3875817" lon="11.7632133"><ele>278.0</ele><time>2026-03-22T07:53:34.262Z</time></trkpt><trkpt lat="43.38767" lon="11.7630783"><ele>278.0</ele><time>2026-03-22T07:53:35.259Z</time></trkpt><trkpt lat="43.387755" lon="11.7629433"><ele>278.0</ele><time>2026-03-22T07:53:36.258Z</time></trkpt><trkpt lat="43.3878417" lon="11.7628067"><ele>278.0</ele><time>2026-03-22T07:53:37.258Z</time></trkpt><trkpt lat="43.38793" lon="11.7626683"><ele>277.5</ele><time>2026-03-22T07:53:38.264Z</time></trkpt><trkpt lat="43.3880183" lon="11.7625317"><ele>277.0</ele><time>2026-03-22T07:53:39.265Z</time></trkpt><trkpt lat="43.3881067" lon="11.7623933"><ele>276.5</ele><time>2026-03-22T07:53:40.258Z</time></trkpt><trkpt lat="43.388195" lon="11.7622567"><ele>276.0</ele><time>2026-03-22T07:53:41.263Z</time></trkpt><trkpt lat="43.38828" lon="11.7621233"><ele>276.0</ele><time>2026-03-22T07:53:42.259Z</time></trkpt><trkpt lat="43.388365" lon="11.7619917"><ele>276.0</ele><time>2026-03-22T07:53:43.257Z</time></trkpt><trkpt lat="43.3884483" lon="11.76186"><ele>276.0</ele><time>2026-03-22T07:53:44.258Z</time></trkpt><trkpt lat="43.388535" lon="11.7617283"><ele>276.0</ele><time>2026-03-22T07:53:45.261Z</time></trkpt><trkpt lat="43.3886233" lon="11.761595"><ele>276.25</ele><time>2026-03-22T07:53:46.26Z</time></trkpt><trkpt lat="43.38871" lon="11.761465"><ele>276.5</ele><time>2026-03-22T07:53:47.263Z</time></trkpt><trkpt lat="43.3887933" lon="11.7613333"><ele>276.75</ele><time>2026-03-22T07:53:48.26Z</time></trkpt><trkpt lat="43.3888767" lon="11.7612017"><ele>277.0</ele><time>2026-03-22T07:53:49.259Z</time></trkpt><trkpt lat="43.38896" lon="11.7610717"><ele>277.75</ele><time>2026-03-22T07:53:50.26Z</time></trkpt><trkpt lat="43.3890433" lon="11.7609417"><ele>278.5</ele><time>2026-03-22T07:53:51.261Z</time></trkpt><trkpt lat="43.3891283" lon="11.7608133"><ele>279.25</ele><time>2026-03-22T07:53:52.261Z</time></trkpt><trkpt lat="43.38921" lon="11.7606867"><ele>280.0</ele><time>2026-03-22T07:53:53.258Z</time></trkpt><trkpt lat="43.3892917" lon="11.76056"><ele>280.0</ele><time>2026-03-22T07:53:54.258Z</time></trkpt><trkpt lat="43.3893733" lon="11.7604333"><ele>280.0</ele><time>2026-03-22T07:53:55.258Z</time></trkpt><trkpt lat="43.38945" lon="11.7603133"><ele>280.0</ele><time>2026-03-22T07:53:56.262Z</time></trkpt><trkpt lat="43.3895217" lon="11.760205"><ele>280.0</ele><time>2026-03-22T07:53:57.258Z</time></trkpt><trkpt lat="43.3895883" lon="11.7601033"><ele>280.0</ele><time>2026-03-22T07:53:58.257Z</time></trkpt><trkpt lat="43.3896483" lon="11.7600067"><ele>280.0</ele><time>2026-03-22T07:53:59.261Z</time></trkpt><trkpt lat="43.3897033" lon="11.7599183"><ele>280.0</ele><time>2026-03-22T07:54:00.258Z</time></trkpt><trkpt lat="43.389755" lon="11.7598383"><ele>280.0</ele><time>2026-03-22T07:54:01.258Z</time></trkpt><trkpt lat="43.3898017" lon="11.759765"><ele>280.0</ele><time>2026-03-22T07:54:02.257Z</time></trkpt><trkpt lat="43.389845" lon="11.7596967"><ele>280.0</ele><time>2026-03-22T07:54:03.259Z</time></trkpt><trkpt lat="43.3899267" lon="11.7595767"><ele>280.0</ele><time>2026-03-22T07:54:05.261Z</time></trkpt><trkpt lat="43.3899917" lon="11.75945"><ele>280.3333333333333</ele><time>2026-03-22T07:54:07.26Z</time></trkpt><trkpt lat="43.38998" lon="11.7592933"><ele>280.66666666666663</ele><time>2026-03-22T07:54:09.258Z</time></trkpt><trkpt lat="43.3899467" lon="11.7592083"><ele>281.0</ele><time>2026-03-22T07:54:10.258Z</time></trkpt><trkpt lat="43.389905" lon="11.7591217"><ele>281.3333333333333</ele><time>2026-03-22T07:54:11.259Z</time></trkpt><trkpt lat="43.38986" lon="11.75903"><ele>281.6666666666667</ele><time>2026-03-22T07:54:12.26Z</time></trkpt><trkpt lat="43.389815" lon="11.7589383"><ele>282.0</ele><time>2026-03-22T07:54:13.263Z</time></trkpt><trkpt lat="43.38977" lon="11.7588433"><ele>282.0</ele><time>2026-03-22T07:54:14.26Z</time></trkpt><trkpt lat="43.38972" lon="11.7587467"><ele>282.0</ele><time>2026-03-22T07:54:15.259Z</time></trkpt><trkpt lat="43.3896683" lon="11.758645"><ele>282.0</ele><time>2026-03-22T07:54:16.257Z</time></trkpt><trkpt lat="43.3896167" lon="11.7585417"><ele>282.0</ele><time>2026-03-22T07:54:17.26Z</time></trkpt><trkpt lat="43.3895617" lon="11.758435"><ele>282.0</ele><time>2026-03-22T07:54:18.259Z</time></trkpt><trkpt lat="43.3895067" lon="11.7583267"><ele>282.4</ele><time>2026-03-22T07:54:19.266Z</time></trkpt><trkpt lat="43.3894517" lon="11.75822"><ele>282.79999999999995</ele><time>2026-03-22T07:54:20.267Z</time></trkpt><trkpt lat="43.3893983" lon="11.7581133"><ele>283.2</ele><time>2026-03-22T07:54:21.265Z</time></trkpt><trkpt lat="43.3893467" lon="11.7580033"><ele>283.59999999999997</ele><time>2026-03-22T07:54:22.261Z</time></trkpt><trkpt lat="43.389295" lon="11.7578933"><ele>284.0</ele><time>2026-03-22T07:54:23.258Z</time></trkpt><trkpt lat="43.38924" lon="11.7577783"><ele>284.0</ele><time>2026-03-22T07:54:24.259Z</time></trkpt><trkpt lat="43.38919" lon="11.757655"><ele>284.0</ele><time>2026-03-22T07:54:25.26Z</time></trkpt><trkpt lat="43.38915" lon="11.7575233"><ele>284.0</ele><time>2026-03-22T07:54:26.26Z</time></trkpt><trkpt lat="43.3891183" lon="11.7573867"><ele>284.0</ele><time>2026-03-22T07:54:27.262Z</time></trkpt><trkpt lat="43.3890967" lon="11.7572517"><ele>284.0</ele><time>2026-03-22T07:54:28.257Z</time></trkpt><trkpt lat="43.3890833" lon="11.7571133"><ele>284.0</ele><time>2026-03-22T07:54:29.26Z</time></trkpt><trkpt lat="43.389075" lon="11.7569783"><ele>284.0</ele><time>2026-03-22T07:54:30.262Z</time></trkpt><trkpt lat="43.3890717" lon="11.7568467"><ele>284.0</ele><time>2026-03-22T07:54:31.259Z</time></trkpt><trkpt lat="43.3890717" lon="11.756715"><ele>284.0</ele><time>2026-03-22T07:54:32.261Z</time></trkpt><trkpt lat="43.3890717" lon="11.7565817"><ele>284.0</ele><time>2026-03-22T07:54:33.261Z</time></trkpt><trkpt lat="43.389075" lon="11.7564483"><ele>284.2</ele><time>2026-03-22T07:54:34.262Z</time></trkpt><trkpt lat="43.3890767" lon="11.7563117"><ele>284.4</ele><time>2026-03-22T07:54:35.261Z</time></trkpt><trkpt lat="43.3890817" lon="11.756175"><ele>284.6</ele><time>2026-03-22T07:54:36.261Z</time></trkpt><trkpt lat="43.3890933" lon="11.7560433"><ele>284.8</ele><time>2026-03-22T07:54:37.26Z</time></trkpt><trkpt lat="43.3891167" lon="11.7559183"><ele>285.0</ele><time>2026-03-22T07:54:38.266Z</time></trkpt><trkpt lat="43.389145" lon="11.755805"><ele>285.0</ele><time>2026-03-22T07:54:39.267Z</time></trkpt><trkpt lat="43.3891717" lon="11.7557067"><ele>285.0</ele><time>2026-03-22T07:54:40.261Z</time></trkpt><trkpt lat="43.389195" lon="11.75556"><ele>285.0</ele><time>2026-03-22T07:54:42.26Z</time></trkpt><trkpt lat="43.3891817" lon="11.7554583"><ele>285.0</ele><time>2026-03-22T07:54:44.261Z</time></trkpt><trkpt lat="43.38911" lon="11.7553433"><ele>285.0</ele><time>2026-03-22T07:54:46.262Z</time></trkpt><trkpt lat="43.3890467" lon="11.7553067"><ele>285.0</ele><time>2026-03-22T07:54:47.26Z</time></trkpt><trkpt lat="43.38897" lon="11.7552633"><ele>285.0</ele><time>2026-03-22T07:54:48.257Z</time></trkpt><trkpt lat="43.38889" lon="11.7552083"><ele>285.0</ele><time>2026-03-22T07:54:49.261Z</time></trkpt><trkpt lat="43.3888017" lon="11.7551417"><ele>285.0</ele><time>2026-03-22T07:54:50.258Z</time></trkpt><trkpt lat="43.3886233" lon="11.7549867"><ele>285.0</ele><time>2026-03-22T07:54:52.258Z</time></trkpt><trkpt lat="43.3885267" lon="11.7549033"><ele>285.0</ele><time>2026-03-22T07:54:53.26Z</time></trkpt><trkpt lat="43.3884267" lon="11.754815"><ele>285.0</ele><time>2026-03-22T07:54:54.258Z</time></trkpt><trkpt lat="43.3883217" lon="11.7547233"><ele>285.0</ele><time>2026-03-22T07:54:55.257Z</time></trkpt><trkpt lat="43.3882167" lon="11.7546317"><ele>285.0</ele><time>2026-03-22T07:54:56.264Z</time></trkpt><trkpt lat="43.3881083" lon="11.7545383"><ele>285.25</ele><time>2026-03-22T07:54:57.264Z</time></trkpt><trkpt lat="43.388" lon="11.7544467"><ele>285.5</ele><time>2026-03-22T07:54:58.259Z</time></trkpt><trkpt lat="43.3878967" lon="11.7543583"><ele>285.75</ele><time>2026-03-22T07:54:59.259Z</time></trkpt><trkpt lat="43.3877917" lon="11.75427"><ele>286.0</ele><time>2026-03-22T07:55:00.257Z</time></trkpt><trkpt lat="43.3876883" lon="11.75418"><ele>286.0</ele><time>2026-03-22T07:55:01.262Z</time></trkpt><trkpt lat="43.3875917" lon="11.75409"><ele>286.0</ele><time>2026-03-22T07:55:02.261Z</time></trkpt><trkpt lat="43.3875017" lon="11.754"><ele>286.0</ele><time>2026-03-22T07:55:03.266Z</time></trkpt><trkpt lat="43.387415" lon="11.7539117"><ele>286.0</ele><time>2026-03-22T07:55:04.259Z</time></trkpt><trkpt lat="43.387335" lon="11.7538133"><ele>286.0</ele><time>2026-03-22T07:55:05.261Z</time></trkpt><trkpt lat="43.3872633" lon="11.753705"><ele>286.0</ele><time>2026-03-22T07:55:06.258Z</time></trkpt><trkpt lat="43.387195" lon="11.7535783"><ele>286.0</ele><time>2026-03-22T07:55:07.261Z</time></trkpt><trkpt lat="43.3871283" lon="11.7534433"><ele>286.0</ele><time>2026-03-22T07:55:08.265Z</time></trkpt><trkpt lat="43.3870617" lon="11.7533083"><ele>286.0</ele><time>2026-03-22T07:55:09.259Z</time></trkpt><trkpt lat="43.3869967" lon="11.7531733"><ele>285.40000000000003</ele><time>2026-03-22T07:55:10.261Z</time></trkpt><trkpt lat="43.386935" lon="11.7530417"><ele>284.8</ele><time>2026-03-22T07:55:11.258Z</time></trkpt><trkpt lat="43.3868717" lon="11.7529117"><ele>284.20000000000005</ele><time>2026-03-22T07:55:12.263Z</time></trkpt><trkpt lat="43.3868083" lon="11.752785"><ele>283.6</ele><time>2026-03-22T07:55:13.258Z</time></trkpt><trkpt lat="43.3867417" lon="11.752665"><ele>283.0</ele><time>2026-03-22T07:55:14.257Z</time></trkpt><trkpt lat="43.3866833" lon="11.7525483"><ele>282.2</ele><time>2026-03-22T07:55:15.261Z</time></trkpt><trkpt lat="43.3866217" lon="11.7524333"><ele>281.4</ele><time>2026-03-22T07:55:16.257Z</time></trkpt><trkpt lat="43.3865583" lon="11.7523183"><ele>280.59999999999997</ele><time>2026-03-22T07:55:17.258Z</time></trkpt><trkpt lat="43.386495" lon="11.7522"><ele>279.8</ele><time>2026-03-22T07:55:18.258Z</time></trkpt><trkpt lat="43.3864317" lon="11.75208"><ele>279.0</ele><time>2026-03-22T07:55:19.258Z</time></trkpt><trkpt lat="43.386365" lon="11.7519583"><ele>277.75</ele><time>2026-03-22T07:55:20.26Z</time></trkpt><trkpt lat="43.3862983" lon="11.751825"><ele>276.5</ele><time>2026-03-22T07:55:21.259Z</time></trkpt><trkpt lat="43.38623" lon="11.7516917"><ele>275.25</ele><time>2026-03-22T07:55:22.258Z</time></trkpt><trkpt lat="43.38616" lon="11.7515517"><ele>274.0</ele><time>2026-03-22T07:55:23.259Z</time></trkpt><trkpt lat="43.3860883" lon="11.7514167"><ele>274.0</ele><time>2026-03-22T07:55:24.259Z</time></trkpt><trkpt lat="43.38602" lon="11.7512867"><ele>274.0</ele><time>2026-03-22T07:55:25.258Z</time></trkpt><trkpt lat="43.3859567" lon="11.751165"><ele>274.0</ele><time>2026-03-22T07:55:26.26Z</time></trkpt><trkpt lat="43.3858983" lon="11.7510517"><ele>274.0</ele><time>2026-03-22T07:55:27.265Z</time></trkpt><trkpt lat="43.3858417" lon="11.7509433"><ele>274.0</ele><time>2026-03-22T07:55:28.258Z</time></trkpt><trkpt lat="43.3857867" lon="11.7508367"><ele>273.66666666666663</ele><time>2026-03-22T07:55:29.261Z</time></trkpt><trkpt lat="43.385735" lon="11.7507283"><ele>273.3333333333333</ele><time>2026-03-22T07:55:30.258Z</time></trkpt><trkpt lat="43.385685" lon="11.7506267"><ele>273.0</ele><time>2026-03-22T07:55:31.259Z</time></trkpt><trkpt lat="43.38564" lon="11.75053"><ele>272.6666666666667</ele><time>2026-03-22T07:55:32.257Z</time></trkpt><trkpt lat="43.3855967" lon="11.75044"><ele>272.33333333333337</ele><time>2026-03-22T07:55:33.259Z</time></trkpt><trkpt lat="43.3855517" lon="11.7503567"><ele>272.0</ele><time>2026-03-22T07:55:34.26Z</time></trkpt><trkpt lat="43.38551" lon="11.7502783"><ele>272.0</ele><time>2026-03-22T07:55:35.26Z</time></trkpt><trkpt lat="43.3854733" lon="11.7502067"><ele>272.0</ele><time>2026-03-22T07:55:36.258Z</time></trkpt><trkpt lat="43.38541" lon="11.7500833"><ele>272.0</ele><time>2026-03-22T07:55:38.261Z</time></trkpt><trkpt lat="43.3854533" lon="11.7499617"><ele>272.0</ele><time>2026-03-22T07:55:41.258Z</time></trkpt><trkpt lat="43.3855567" lon="11.7499"><ele>272.0</ele><time>2026-03-22T07:55:43.261Z</time></trkpt><trkpt lat="43.3856183" lon="11.7498567"><ele>272.0</ele><time>2026-03-22T07:55:44.262Z</time></trkpt><trkpt lat="43.3856867" lon="11.7498117"><ele>272.0</ele><time>2026-03-22T07:55:45.259Z</time></trkpt><trkpt lat="43.3857617" lon="11.7497617"><ele>272.0</ele><time>2026-03-22T07:55:46.258Z</time></trkpt><trkpt lat="43.38584" lon="11.7497117"><ele>272.0</ele><time>2026-03-22T07:55:47.261Z</time></trkpt><trkpt lat="43.38592" lon="11.74966"><ele>272.0</ele><time>2026-03-22T07:55:48.26Z</time></trkpt><trkpt lat="43.3860067" lon="11.7496117"><ele>272.0</ele><time>2026-03-22T07:55:49.26Z</time></trkpt><trkpt lat="43.3860983" lon="11.749565"><ele>272.0</ele><time>2026-03-22T07:55:50.258Z</time></trkpt><trkpt lat="43.386195" lon="11.74952"><ele>272.0</ele><time>2026-03-22T07:55:51.259Z</time></trkpt><trkpt lat="43.3862933" lon="11.7494733"><ele>272.0</ele><time>2026-03-22T07:55:52.258Z</time></trkpt><trkpt lat="43.3863933" lon="11.7494267"><ele>272.0</ele><time>2026-03-22T07:55:53.262Z</time></trkpt><trkpt lat="43.386495" lon="11.749385"><ele>272.0</ele><time>2026-03-22T07:55:54.261Z</time></trkpt><trkpt lat="43.3865967" lon="11.749345"><ele>272.2</ele><time>2026-03-22T07:55:55.261Z</time></trkpt><trkpt lat="43.3866967" lon="11.7493017"><ele>272.4</ele><time>2026-03-22T07:55:56.259Z</time></trkpt><trkpt lat="43.3867967" lon="11.7492517"><ele>272.6</ele><time>2026-03-22T07:55:57.269Z</time></trkpt><trkpt lat="43.3868967" lon="11.749195"><ele>272.8</ele><time>2026-03-22T07:55:58.258Z</time></trkpt><trkpt lat="43.3869967" lon="11.7491367"><ele>273.0</ele><time>2026-03-22T07:55:59.261Z</time></trkpt><trkpt lat="43.3870967" lon="11.74908"><ele>273.0</ele><time>2026-03-22T07:56:00.257Z</time></trkpt><trkpt lat="43.3871983" lon="11.7490217"><ele>273.0</ele><time>2026-03-22T07:56:01.263Z</time></trkpt><trkpt lat="43.3873" lon="11.7489667"><ele>273.0</ele><time>2026-03-22T07:56:02.265Z</time></trkpt><trkpt lat="43.3874" lon="11.7489183"><ele>273.0</ele><time>2026-03-22T07:56:03.26Z</time></trkpt><trkpt lat="43.3875017" lon="11.7488717"><ele>273.0</ele><time>2026-03-22T07:56:04.258Z</time></trkpt><trkpt lat="43.3876033" lon="11.7488283"><ele>273.0</ele><time>2026-03-22T07:56:05.259Z</time></trkpt><trkpt lat="43.3877067" lon="11.74878"><ele>273.0</ele><time>2026-03-22T07:56:06.261Z</time></trkpt><trkpt lat="43.38781" lon="11.7487317"><ele>273.0</ele><time>2026-03-22T07:56:07.258Z</time></trkpt><trkpt lat="43.3879117" lon="11.7486867"><ele>273.0</ele><time>2026-03-22T07:56:08.259Z</time></trkpt><trkpt lat="43.388015" lon="11.7486367"><ele>273.0</ele><time>2026-03-22T07:56:09.259Z</time></trkpt><trkpt lat="43.38812" lon="11.748585"><ele>273.4</ele><time>2026-03-22T07:56:10.259Z</time></trkpt><trkpt lat="43.3882267" lon="11.7485383"><ele>273.8</ele><time>2026-03-22T07:56:11.258Z</time></trkpt><trkpt lat="43.3883317" lon="11.748495"><ele>274.2</ele><time>2026-03-22T07:56:12.264Z</time></trkpt><trkpt lat="43.388435" lon="11.74846"><ele>274.6</ele><time>2026-03-22T07:56:13.258Z</time></trkpt><trkpt lat="43.3885417" lon="11.7484267"><ele>275.0</ele><time>2026-03-22T07:56:14.259Z</time></trkpt><trkpt lat="43.38865" lon="11.7484"><ele>275.0</ele><time>2026-03-22T07:56:15.261Z</time></trkpt><trkpt lat="43.388755" lon="11.7483767"><ele>275.0</ele><time>2026-03-22T07:56:16.262Z</time></trkpt><trkpt lat="43.3888567" lon="11.7483567"><ele>275.0</ele><time>2026-03-22T07:56:17.258Z</time></trkpt><trkpt lat="43.3889583" lon="11.7483367"><ele>275.0</ele><time>2026-03-22T07:56:18.262Z</time></trkpt><trkpt lat="43.3890567" lon="11.7483183"><ele>275.0</ele><time>2026-03-22T07:56:19.261Z</time></trkpt><trkpt lat="43.3891567" lon="11.7482933"><ele>275.5</ele><time>2026-03-22T07:56:20.26Z</time></trkpt><trkpt lat="43.3892633" lon="11.74826"><ele>276.0</ele><time>2026-03-22T07:56:21.257Z</time></trkpt><trkpt lat="43.3893717" lon="11.74821"><ele>276.5</ele><time>2026-03-22T07:56:22.267Z</time></trkpt><trkpt lat="43.389485" lon="11.74816"><ele>277.0</ele><time>2026-03-22T07:56:23.26Z</time></trkpt><trkpt lat="43.3895983" lon="11.7481167"><ele>276.5</ele><time>2026-03-22T07:56:24.258Z</time></trkpt><trkpt lat="43.3897133" lon="11.7480733"><ele>276.0</ele><time>2026-03-22T07:56:25.258Z</time></trkpt><trkpt lat="43.3898267" lon="11.74803"><ele>275.5</ele><time>2026-03-22T07:56:26.258Z</time></trkpt><trkpt lat="43.3899367" lon="11.7479917"><ele>275.0</ele><time>2026-03-22T07:56:27.26Z</time></trkpt><trkpt lat="43.3900467" lon="11.74795"><ele>275.0</ele><time>2026-03-22T07:56:28.26Z</time></trkpt><trkpt lat="43.3901567" lon="11.7479117"><ele>275.0</ele><time>2026-03-22T07:56:29.258Z</time></trkpt><trkpt lat="43.390265" lon="11.7478717"><ele>275.0</ele><time>2026-03-22T07:56:30.259Z</time></trkpt><trkpt lat="43.390375" lon="11.7478317"><ele>275.0</ele><time>2026-03-22T07:56:31.26Z</time></trkpt><trkpt lat="43.3904833" lon="11.7477917"><ele>274.75</ele><time>2026-03-22T07:56:32.265Z</time></trkpt><trkpt lat="43.390595" lon="11.7477517"><ele>274.5</ele><time>2026-03-22T07:56:33.259Z</time></trkpt><trkpt lat="43.3907067" lon="11.7477083"><ele>274.25</ele><time>2026-03-22T07:56:34.261Z</time></trkpt><trkpt lat="43.3908167" lon="11.7476717"><ele>274.0</ele><time>2026-03-22T07:56:35.259Z</time></trkpt><trkpt lat="43.3909267" lon="11.7476367"><ele>274.5</ele><time>2026-03-22T07:56:36.258Z</time></trkpt><trkpt lat="43.3910367" lon="11.7476033"><ele>275.0</ele><time>2026-03-22T07:56:37.259Z</time></trkpt><trkpt lat="43.3911483" lon="11.747575"><ele>275.5</ele><time>2026-03-22T07:56:38.258Z</time></trkpt><trkpt lat="43.3912633" lon="11.74755"><ele>276.0</ele><time>2026-03-22T07:56:39.259Z</time></trkpt><trkpt lat="43.3913767" lon="11.7475317"><ele>276.25</ele><time>2026-03-22T07:56:40.259Z</time></trkpt><trkpt lat="43.39149" lon="11.7475167"><ele>276.5</ele><time>2026-03-22T07:56:41.261Z</time></trkpt><trkpt lat="43.3916033" lon="11.7474983"><ele>276.75</ele><time>2026-03-22T07:56:42.259Z</time></trkpt><trkpt lat="43.3917183" lon="11.7474783"><ele>277.0</ele><time>2026-03-22T07:56:43.266Z</time></trkpt><trkpt lat="43.39183" lon="11.7474567"><ele>277.0</ele><time>2026-03-22T07:56:44.259Z</time></trkpt><trkpt lat="43.39194" lon="11.7474283"><ele>277.0</ele><time>2026-03-22T07:56:45.266Z</time></trkpt><trkpt lat="43.3920517" lon="11.7473967"><ele>277.0</ele><time>2026-03-22T07:56:46.265Z</time></trkpt><trkpt lat="43.3921633" lon="11.7473633"><ele>277.0</ele><time>2026-03-22T07:56:47.258Z</time></trkpt><trkpt lat="43.3922767" lon="11.7473283"><ele>277.5</ele><time>2026-03-22T07:56:48.258Z</time></trkpt><trkpt lat="43.3923917" lon="11.747295"><ele>278.0</ele><time>2026-03-22T07:56:49.267Z</time></trkpt><trkpt lat="43.39251" lon="11.747265"><ele>278.5</ele><time>2026-03-22T07:56:50.258Z</time></trkpt><trkpt lat="43.3926267" lon="11.7472383"><ele>279.0</ele><time>2026-03-22T07:56:51.261Z</time></trkpt><trkpt lat="43.392745" lon="11.747215"><ele>279.0</ele><time>2026-03-22T07:56:52.263Z</time></trkpt><trkpt lat="43.3928617" lon="11.7471933"><ele>279.0</ele><time>2026-03-22T07:56:53.26Z</time></trkpt><trkpt lat="43.39298" lon="11.7471667"><ele>279.0</ele><time>2026-03-22T07:56:54.259Z</time></trkpt><trkpt lat="43.3930983" lon="11.74714"><ele>279.0</ele><time>2026-03-22T07:56:55.26Z</time></trkpt><trkpt lat="43.393215" lon="11.7471183"><ele>278.5</ele><time>2026-03-22T07:56:56.258Z</time></trkpt><trkpt lat="43.3933317" lon="11.7470933"><ele>278.0</ele><time>2026-03-22T07:56:57.262Z</time></trkpt><trkpt lat="43.3934467" lon="11.7470667"><ele>277.5</ele><time>2026-03-22T07:56:58.26Z</time></trkpt><trkpt lat="43.3935583" lon="11.7470333"><ele>277.0</ele><time>2026-03-22T07:56:59.26Z</time></trkpt><trkpt lat="43.3936683" lon="11.746995"><ele>277.25</ele><time>2026-03-22T07:57:00.259Z</time></trkpt><trkpt lat="43.3938783" lon="11.7469167"><ele>277.5</ele><time>2026-03-22T07:57:02.259Z</time></trkpt><trkpt lat="43.39398" lon="11.746875"><ele>277.75</ele><time>2026-03-22T07:57:03.26Z</time></trkpt><trkpt lat="43.3940783" lon="11.746835"><ele>278.0</ele><time>2026-03-22T07:57:04.258Z</time></trkpt><trkpt lat="43.3941733" lon="11.7467967"><ele>278.2</ele><time>2026-03-22T07:57:05.259Z</time></trkpt><trkpt lat="43.39427" lon="11.7467583"><ele>278.4</ele><time>2026-03-22T07:57:06.262Z</time></trkpt><trkpt lat="43.3943667" lon="11.74672"><ele>278.59999999999997</ele><time>2026-03-22T07:57:07.262Z</time></trkpt><trkpt lat="43.394465" lon="11.7466817"><ele>278.8</ele><time>2026-03-22T07:57:08.257Z</time></trkpt><trkpt lat="43.3945567" lon="11.7466467"><ele>279.0</ele><time>2026-03-22T07:57:09.26Z</time></trkpt><trkpt lat="43.39464" lon="11.7466117"><ele>279.1666666666667</ele><time>2026-03-22T07:57:10.256Z</time></trkpt><trkpt lat="43.3947183" lon="11.7465833"><ele>279.3333333333333</ele><time>2026-03-22T07:57:11.264Z</time></trkpt><trkpt lat="43.3947917" lon="11.74656"><ele>279.5</ele><time>2026-03-22T07:57:12.26Z</time></trkpt><trkpt lat="43.3948617" lon="11.7465367"><ele>279.66666666666663</ele><time>2026-03-22T07:57:13.257Z</time></trkpt><trkpt lat="43.3949333" lon="11.7465117"><ele>279.8333333333333</ele><time>2026-03-22T07:57:14.262Z</time></trkpt><trkpt lat="43.3950067" lon="11.74648"><ele>280.0</ele><time>2026-03-22T07:57:15.258Z</time></trkpt><trkpt lat="43.395085" lon="11.7464383"><ele>280.0</ele><time>2026-03-22T07:57:16.257Z</time></trkpt><trkpt lat="43.39517" lon="11.746395"><ele>280.0</ele><time>2026-03-22T07:57:17.258Z</time></trkpt><trkpt lat="43.39526" lon="11.7463483"><ele>280.0</ele><time>2026-03-22T07:57:18.261Z</time></trkpt><trkpt lat="43.3953517" lon="11.746305"><ele>280.0</ele><time>2026-03-22T07:57:19.257Z</time></trkpt><trkpt lat="43.3954467" lon="11.7462583"><ele>280.0</ele><time>2026-03-22T07:57:20.261Z</time></trkpt><trkpt lat="43.395545" lon="11.7462133"><ele>280.0</ele><time>2026-03-22T07:57:21.263Z</time></trkpt><trkpt lat="43.3956467" lon="11.7461683"><ele>280.0</ele><time>2026-03-22T07:57:22.261Z</time></trkpt><trkpt lat="43.39575" lon="11.7461217"><ele>280.0</ele><time>2026-03-22T07:57:23.261Z</time></trkpt><trkpt lat="43.3958517" lon="11.7460733"><ele>280.0</ele><time>2026-03-22T07:57:24.258Z</time></trkpt><trkpt lat="43.3959567" lon="11.746025"><ele>280.0</ele><time>2026-03-22T07:57:25.257Z</time></trkpt><trkpt lat="43.39606" lon="11.7459767"><ele>280.0</ele><time>2026-03-22T07:57:26.258Z</time></trkpt><trkpt lat="43.3961633" lon="11.745925"><ele>280.0</ele><time>2026-03-22T07:57:27.262Z</time></trkpt><trkpt lat="43.39627" lon="11.7458717"><ele>280.0</ele><time>2026-03-22T07:57:28.259Z</time></trkpt><trkpt lat="43.3963783" lon="11.7458217"><ele>280.0</ele><time>2026-03-22T07:57:29.257Z</time></trkpt><trkpt lat="43.3964883" lon="11.74577"><ele>280.25</ele><time>2026-03-22T07:57:30.26Z</time></trkpt><trkpt lat="43.3965983" lon="11.7457183"><ele>280.5</ele><time>2026-03-22T07:57:31.257Z</time></trkpt><trkpt lat="43.39671" lon="11.745665"><ele>280.75</ele><time>2026-03-22T07:57:32.26Z</time></trkpt><trkpt lat="43.3968217" lon="11.74561"><ele>281.0</ele><time>2026-03-22T07:57:33.261Z</time></trkpt><trkpt lat="43.3969333" lon="11.7455567"><ele>281.0</ele><time>2026-03-22T07:57:34.259Z</time></trkpt><trkpt lat="43.3970433" lon="11.745505"><ele>281.0</ele><time>2026-03-22T07:57:35.258Z</time></trkpt><trkpt lat="43.3971517" lon="11.745455"><ele>281.0</ele><time>2026-03-22T07:57:36.26Z</time></trkpt><trkpt lat="43.39726" lon="11.7454033"><ele>281.0</ele><time>2026-03-22T07:57:37.261Z</time></trkpt><trkpt lat="43.3973633" lon="11.7453533"><ele>281.0</ele><time>2026-03-22T07:57:38.259Z</time></trkpt><trkpt lat="43.39746" lon="11.7453083"><ele>281.0</ele><time>2026-03-22T07:57:39.259Z</time></trkpt><trkpt lat="43.39755" lon="11.745265"><ele>281.0</ele><time>2026-03-22T07:57:40.265Z</time></trkpt><trkpt lat="43.397635" lon="11.745225"><ele>281.0</ele><time>2026-03-22T07:57:41.263Z</time></trkpt><trkpt lat="43.3977167" lon="11.7451867"><ele>281.0</ele><time>2026-03-22T07:57:42.262Z</time></trkpt><trkpt lat="43.3977967" lon="11.74515"><ele>281.0</ele><time>2026-03-22T07:57:43.265Z</time></trkpt><trkpt lat="43.3978767" lon="11.7451117"><ele>281.0</ele><time>2026-03-22T07:57:44.263Z</time></trkpt><trkpt lat="43.397955" lon="11.7450717"><ele>281.0</ele><time>2026-03-22T07:57:45.261Z</time></trkpt><trkpt lat="43.398035" lon="11.7450333"><ele>281.0</ele><time>2026-03-22T07:57:46.262Z</time></trkpt><trkpt lat="43.3981133" lon="11.7449917"><ele>281.0</ele><time>2026-03-22T07:57:47.262Z</time></trkpt><trkpt lat="43.3981883" lon="11.7449483"><ele>281.0</ele><time>2026-03-22T07:57:48.262Z</time></trkpt><trkpt lat="43.39826" lon="11.7449067"><ele>281.1666666666667</ele><time>2026-03-22T07:57:49.261Z</time></trkpt><trkpt lat="43.3983317" lon="11.7448633"><ele>281.33333333333337</ele><time>2026-03-22T07:57:50.261Z</time></trkpt><trkpt lat="43.3984033" lon="11.7448233"><ele>281.5</ele><time>2026-03-22T07:57:51.26Z</time></trkpt><trkpt lat="43.3984767" lon="11.7447833"><ele>281.6666666666667</ele><time>2026-03-22T07:57:52.262Z</time></trkpt><trkpt lat="43.3985483" lon="11.7447417"><ele>281.8333333333333</ele><time>2026-03-22T07:57:53.259Z</time></trkpt><trkpt lat="43.3986167" lon="11.7447033"><ele>282.0</ele><time>2026-03-22T07:57:54.264Z</time></trkpt><trkpt lat="43.3986833" lon="11.7446633"><ele>282.0</ele><time>2026-03-22T07:57:55.259Z</time></trkpt><trkpt lat="43.3987467" lon="11.7446267"><ele>282.0</ele><time>2026-03-22T07:57:56.259Z</time></trkpt><trkpt lat="43.3988067" lon="11.7445917"><ele>282.0</ele><time>2026-03-22T07:57:57.261Z</time></trkpt><trkpt lat="43.39892" lon="11.7445183"><ele>282.0</ele><time>2026-03-22T07:57:59.258Z</time></trkpt><trkpt lat="43.3989767" lon="11.7444783"><ele>282.0</ele><time>2026-03-22T07:58:00.261Z</time></trkpt><trkpt lat="43.3990333" lon="11.7444367"><ele>282.0</ele><time>2026-03-22T07:58:01.259Z</time></trkpt><trkpt lat="43.399095" lon="11.7444017"><ele>282.14285714285717</ele><time>2026-03-22T07:58:02.255Z</time></trkpt><trkpt lat="43.3991533" lon="11.7443667"><ele>282.2857142857143</ele><time>2026-03-22T07:58:03.26Z</time></trkpt><trkpt lat="43.399215" lon="11.7443283"><ele>282.42857142857144</ele><time>2026-03-22T07:58:04.26Z</time></trkpt><trkpt lat="43.39928" lon="11.7442917"><ele>282.57142857142856</ele><time>2026-03-22T07:58:05.256Z</time></trkpt><trkpt lat="43.3993433" lon="11.7442567"><ele>282.7142857142857</ele><time>2026-03-22T07:58:06.26Z</time></trkpt><trkpt lat="43.3994117" lon="11.7442167"><ele>282.8571428571429</ele><time>2026-03-22T07:58:07.258Z</time></trkpt><trkpt lat="43.3994833" lon="11.7441783"><ele>283.0</ele><time>2026-03-22T07:58:08.258Z</time></trkpt><trkpt lat="43.3995567" lon="11.7441367"><ele>283.0</ele><time>2026-03-22T07:58:09.263Z</time></trkpt><trkpt lat="43.3996333" lon="11.7440883"><ele>283.0</ele><time>2026-03-22T07:58:10.259Z</time></trkpt><trkpt lat="43.3997117" lon="11.74404"><ele>283.0</ele><time>2026-03-22T07:58:11.261Z</time></trkpt><trkpt lat="43.3997917" lon="11.743995"><ele>283.0</ele><time>2026-03-22T07:58:12.258Z</time></trkpt><trkpt lat="43.399875" lon="11.7439517"><ele>283.0</ele><time>2026-03-22T07:58:13.26Z</time></trkpt><trkpt lat="43.3999617" lon="11.74391"><ele>283.0</ele><time>2026-03-22T07:58:14.259Z</time></trkpt><trkpt lat="43.4000517" lon="11.7438667"><ele>283.0</ele><time>2026-03-22T07:58:15.262Z</time></trkpt><trkpt lat="43.4001417" lon="11.7438183"><ele>283.0</ele><time>2026-03-22T07:58:16.259Z</time></trkpt><trkpt lat="43.4002367" lon="11.74377"><ele>283.0</ele><time>2026-03-22T07:58:17.258Z</time></trkpt><trkpt lat="43.40033" lon="11.7437217"><ele>283.0</ele><time>2026-03-22T07:58:18.259Z</time></trkpt><trkpt lat="43.4004217" lon="11.7436717"><ele>283.0</ele><time>2026-03-22T07:58:19.257Z</time></trkpt><trkpt lat="43.4005183" lon="11.7436267"><ele>283.2</ele><time>2026-03-22T07:58:20.259Z</time></trkpt><trkpt lat="43.4006133" lon="11.7435817"><ele>283.4</ele><time>2026-03-22T07:58:21.268Z</time></trkpt><trkpt lat="43.4007083" lon="11.7435283"><ele>283.59999999999997</ele><time>2026-03-22T07:58:22.26Z</time></trkpt><trkpt lat="43.4007983" lon="11.7434717"><ele>283.8</ele><time>2026-03-22T07:58:23.258Z</time></trkpt><trkpt lat="43.4008917" lon="11.7434217"><ele>284.0</ele><time>2026-03-22T07:58:24.257Z</time></trkpt><trkpt lat="43.4009867" lon="11.7433767"><ele>284.0</ele><time>2026-03-22T07:58:25.261Z</time></trkpt><trkpt lat="43.4010833" lon="11.7433267"><ele>284.0</ele><time>2026-03-22T07:58:26.26Z</time></trkpt><trkpt lat="43.40118" lon="11.7432717"><ele>284.0</ele><time>2026-03-22T07:58:27.263Z</time></trkpt><trkpt lat="43.401275" lon="11.743215"><ele>284.0</ele><time>2026-03-22T07:58:28.258Z</time></trkpt><trkpt lat="43.40137" lon="11.7431517"><ele>284.0</ele><time>2026-03-22T07:58:29.261Z</time></trkpt><trkpt lat="43.4014633" lon="11.7430817"><ele>284.0</ele><time>2026-03-22T07:58:30.259Z</time></trkpt><trkpt lat="43.4015567" lon="11.74301"><ele>284.0</ele><time>2026-03-22T07:58:31.264Z</time></trkpt><trkpt lat="43.4016483" lon="11.7429483"><ele>284.0</ele><time>2026-03-22T07:58:32.262Z</time></trkpt><trkpt lat="43.4017417" lon="11.7428883"><ele>284.0</ele><time>2026-03-22T07:58:33.259Z</time></trkpt><trkpt lat="43.4018367" lon="11.7428267"><ele>284.0</ele><time>2026-03-22T07:58:34.263Z</time></trkpt><trkpt lat="43.4019317" lon="11.742765"><ele>284.2</ele><time>2026-03-22T07:58:35.266Z</time></trkpt><trkpt lat="43.4020267" lon="11.7427033"><ele>284.4</ele><time>2026-03-22T07:58:36.265Z</time></trkpt><trkpt lat="43.4021183" lon="11.7426433"><ele>284.6</ele><time>2026-03-22T07:58:37.261Z</time></trkpt><trkpt lat="43.4022117" lon="11.742585"><ele>284.8</ele><time>2026-03-22T07:58:38.266Z</time></trkpt><trkpt lat="43.4023067" lon="11.74252"><ele>285.0</ele><time>2026-03-22T07:58:39.265Z</time></trkpt><trkpt lat="43.4024067" lon="11.7424617"><ele>285.2</ele><time>2026-03-22T07:58:40.264Z</time></trkpt><trkpt lat="43.4025017" lon="11.7424017"><ele>285.4</ele><time>2026-03-22T07:58:41.258Z</time></trkpt><trkpt lat="43.4025967" lon="11.7423417"><ele>285.6</ele><time>2026-03-22T07:58:42.261Z</time></trkpt><trkpt lat="43.4026917" lon="11.7422833"><ele>285.8</ele><time>2026-03-22T07:58:43.262Z</time></trkpt><trkpt lat="43.402785" lon="11.742225"><ele>286.0</ele><time>2026-03-22T07:58:44.263Z</time></trkpt><trkpt lat="43.4028783" lon="11.74217"><ele>286.0</ele><time>2026-03-22T07:58:45.264Z</time></trkpt><trkpt lat="43.4029683" lon="11.742115"><ele>286.0</ele><time>2026-03-22T07:58:46.26Z</time></trkpt><trkpt lat="43.4030583" lon="11.742055"><ele>286.0</ele><time>2026-03-22T07:58:47.261Z</time></trkpt><trkpt lat="43.4031483" lon="11.7419933"><ele>286.0</ele><time>2026-03-22T07:58:48.261Z</time></trkpt><trkpt lat="43.403235" lon="11.7419267"><ele>286.0</ele><time>2026-03-22T07:58:49.264Z</time></trkpt><trkpt lat="43.4033217" lon="11.7418583"><ele>286.2</ele><time>2026-03-22T07:58:50.261Z</time></trkpt><trkpt lat="43.4034067" lon="11.7417883"><ele>286.40000000000003</ele><time>2026-03-22T07:58:51.26Z</time></trkpt><trkpt lat="43.4034917" lon="11.74172"><ele>286.6</ele><time>2026-03-22T07:58:52.264Z</time></trkpt><trkpt lat="43.4035767" lon="11.7416483"><ele>286.8</ele><time>2026-03-22T07:58:53.26Z</time></trkpt><trkpt lat="43.4036617" lon="11.74157"><ele>287.0</ele><time>2026-03-22T07:58:54.26Z</time></trkpt><trkpt lat="43.4037433" lon="11.7414867"><ele>287.0</ele><time>2026-03-22T07:58:55.26Z</time></trkpt><trkpt lat="43.4038233" lon="11.7414017"><ele>287.0</ele><time>2026-03-22T07:58:56.258Z</time></trkpt><trkpt lat="43.4039033" lon="11.7413167"><ele>287.0</ele><time>2026-03-22T07:58:57.262Z</time></trkpt><trkpt lat="43.4039833" lon="11.74124"><ele>287.0</ele><time>2026-03-22T07:58:58.262Z</time></trkpt><trkpt lat="43.4040617" lon="11.74117"><ele>287.0</ele><time>2026-03-22T07:58:59.26Z</time></trkpt><trkpt lat="43.4041433" lon="11.741105"><ele>287.1666666666667</ele><time>2026-03-22T07:59:00.259Z</time></trkpt><trkpt lat="43.404225" lon="11.7410417"><ele>287.33333333333337</ele><time>2026-03-22T07:59:01.264Z</time></trkpt><trkpt lat="43.4043017" lon="11.740985"><ele>287.5</ele><time>2026-03-22T07:59:02.257Z</time></trkpt><trkpt lat="43.4043733" lon="11.740935"><ele>287.6666666666667</ele><time>2026-03-22T07:59:03.263Z</time></trkpt><trkpt lat="43.4044417" lon="11.7408883"><ele>287.8333333333333</ele><time>2026-03-22T07:59:04.258Z</time></trkpt><trkpt lat="43.4045" lon="11.74084"><ele>288.0</ele><time>2026-03-22T07:59:05.26Z</time></trkpt><trkpt lat="43.4045683" lon="11.7407067"><ele>288.0</ele><time>2026-03-22T07:59:07.264Z</time></trkpt><trkpt lat="43.4045817" lon="11.7405367"><ele>288.0</ele><time>2026-03-22T07:59:09.259Z</time></trkpt><trkpt lat="43.4046033" lon="11.7404383"><ele>288.0</ele><time>2026-03-22T07:59:10.265Z</time></trkpt><trkpt lat="43.4046283" lon="11.7403333"><ele>288.0</ele><time>2026-03-22T07:59:11.257Z</time></trkpt><trkpt lat="43.4046533" lon="11.7402233"><ele>288.0</ele><time>2026-03-22T07:59:12.258Z</time></trkpt><trkpt lat="43.404675" lon="11.740105"><ele>288.1666666666667</ele><time>2026-03-22T07:59:13.258Z</time></trkpt><trkpt lat="43.4046883" lon="11.739985"><ele>288.3333333333333</ele><time>2026-03-22T07:59:14.258Z</time></trkpt><trkpt lat="43.4046917" lon="11.7398617"><ele>288.5</ele><time>2026-03-22T07:59:15.259Z</time></trkpt><trkpt lat="43.4046883" lon="11.7397417"><ele>288.66666666666663</ele><time>2026-03-22T07:59:16.261Z</time></trkpt><trkpt lat="43.4046767" lon="11.7396267"><ele>288.8333333333333</ele><time>2026-03-22T07:59:17.26Z</time></trkpt><trkpt lat="43.4046617" lon="11.7395167"><ele>289.0</ele><time>2026-03-22T07:59:18.261Z</time></trkpt><trkpt lat="43.4046467" lon="11.739405"><ele>289.16666666666663</ele><time>2026-03-22T07:59:19.261Z</time></trkpt><trkpt lat="43.4046483" lon="11.7392967"><ele>289.3333333333333</ele><time>2026-03-22T07:59:20.26Z</time></trkpt><trkpt lat="43.4046667" lon="11.739185"><ele>289.5</ele><time>2026-03-22T07:59:21.261Z</time></trkpt><trkpt lat="43.4046967" lon="11.73908"><ele>289.6666666666667</ele><time>2026-03-22T07:59:22.262Z</time></trkpt><trkpt lat="43.4047367" lon="11.738975"><ele>289.83333333333337</ele><time>2026-03-22T07:59:23.26Z</time></trkpt><trkpt lat="43.4047817" lon="11.73887"><ele>290.0</ele><time>2026-03-22T07:59:24.261Z</time></trkpt><trkpt lat="43.4048233" lon="11.73877"><ele>290.0</ele><time>2026-03-22T07:59:25.259Z</time></trkpt><trkpt lat="43.4048633" lon="11.73867"><ele>290.0</ele><time>2026-03-22T07:59:26.261Z</time></trkpt><trkpt lat="43.4049" lon="11.7385767"><ele>290.0</ele><time>2026-03-22T07:59:27.26Z</time></trkpt><trkpt lat="43.4049367" lon="11.7384933"><ele>290.0</ele><time>2026-03-22T07:59:28.259Z</time></trkpt><trkpt lat="43.4049717" lon="11.7384167"><ele>290.0</ele><time>2026-03-22T07:59:29.258Z</time></trkpt><trkpt lat="43.4050067" lon="11.7383433"><ele>290.0</ele><time>2026-03-22T07:59:30.259Z</time></trkpt><trkpt lat="43.405075" lon="11.7382017"><ele>290.5</ele><time>2026-03-22T07:59:32.262Z</time></trkpt><trkpt lat="43.4051133" lon="11.7381183"><ele>291.0</ele><time>2026-03-22T07:59:33.264Z</time></trkpt><trkpt lat="43.4051583" lon="11.7380317"><ele>291.5</ele><time>2026-03-22T07:59:34.259Z</time></trkpt><trkpt lat="43.4052067" lon="11.7379433"><ele>292.0</ele><time>2026-03-22T07:59:35.258Z</time></trkpt><trkpt lat="43.405255" lon="11.7378483"><ele>292.5</ele><time>2026-03-22T07:59:36.264Z</time></trkpt><trkpt lat="43.405305" lon="11.737755"><ele>293.0</ele><time>2026-03-22T07:59:37.261Z</time></trkpt><trkpt lat="43.4053583" lon="11.7376617"><ele>293.5</ele><time>2026-03-22T07:59:38.259Z</time></trkpt><trkpt lat="43.4054133" lon="11.737565"><ele>294.0</ele><time>2026-03-22T07:59:39.259Z</time></trkpt><trkpt lat="43.40547" lon="11.7374717"><ele>294.5</ele><time>2026-03-22T07:59:40.257Z</time></trkpt><trkpt lat="43.4055283" lon="11.7373867"><ele>295.0</ele><time>2026-03-22T07:59:41.262Z</time></trkpt><trkpt lat="43.405585" lon="11.7373"><ele>295.5</ele><time>2026-03-22T07:59:42.26Z</time></trkpt><trkpt lat="43.40564" lon="11.737215"><ele>296.0</ele><time>2026-03-22T07:59:43.26Z</time></trkpt><trkpt lat="43.4056967" lon="11.7371317"><ele>296.0</ele><time>2026-03-22T07:59:44.258Z</time></trkpt><trkpt lat="43.4057533" lon="11.7370533"><ele>296.0</ele><time>2026-03-22T07:59:45.262Z</time></trkpt><trkpt lat="43.405805" lon="11.7369733"><ele>296.0</ele><time>2026-03-22T07:59:46.258Z</time></trkpt><trkpt lat="43.4058417" lon="11.7368933"><ele>296.0</ele><time>2026-03-22T07:59:47.266Z</time></trkpt><trkpt lat="43.4058533" lon="11.7368033"><ele>296.0</ele><time>2026-03-22T07:59:48.26Z</time></trkpt><trkpt lat="43.40584" lon="11.73671"><ele>296.0</ele><time>2026-03-22T07:59:49.258Z</time></trkpt><trkpt lat="43.4058183" lon="11.736605"><ele>296.0</ele><time>2026-03-22T07:59:50.262Z</time></trkpt><trkpt lat="43.4057933" lon="11.736495"><ele>296.1666666666667</ele><time>2026-03-22T07:59:51.259Z</time></trkpt><trkpt lat="43.405775" lon="11.736385"><ele>296.33333333333337</ele><time>2026-03-22T07:59:52.263Z</time></trkpt><trkpt lat="43.40576" lon="11.736275"><ele>296.5</ele><time>2026-03-22T07:59:53.26Z</time></trkpt><trkpt lat="43.4057417" lon="11.736165"><ele>296.6666666666667</ele><time>2026-03-22T07:59:54.262Z</time></trkpt><trkpt lat="43.4057217" lon="11.7360483"><ele>296.8333333333333</ele><time>2026-03-22T07:59:55.262Z</time></trkpt><trkpt lat="43.405705" lon="11.7359283"><ele>297.0</ele><time>2026-03-22T07:59:56.261Z</time></trkpt><trkpt lat="43.4056917" lon="11.7358083"><ele>297.4</ele><time>2026-03-22T07:59:57.26Z</time></trkpt><trkpt lat="43.4056767" lon="11.7356883"><ele>297.79999999999995</ele><time>2026-03-22T07:59:58.26Z</time></trkpt><trkpt lat="43.4056583" lon="11.735565"><ele>298.2</ele><time>2026-03-22T07:59:59.26Z</time></trkpt><trkpt lat="43.4056417" lon="11.73544"><ele>298.59999999999997</ele><time>2026-03-22T08:00:00.259Z</time></trkpt><trkpt lat="43.4056267" lon="11.7353133"><ele>299.0</ele><time>2026-03-22T08:00:01.257Z</time></trkpt><trkpt lat="43.4056117" lon="11.7351867"><ele>300.0</ele><time>2026-03-22T08:00:02.26Z</time></trkpt><trkpt lat="43.4055967" lon="11.7350633"><ele>301.0</ele><time>2026-03-22T08:00:03.267Z</time></trkpt><trkpt lat="43.4055767" lon="11.7349433"><ele>302.0</ele><time>2026-03-22T08:00:04.265Z</time></trkpt><trkpt lat="43.4055567" lon="11.734825"><ele>303.0</ele><time>2026-03-22T08:00:05.26Z</time></trkpt><trkpt lat="43.4055467" lon="11.73471"><ele>304.0</ele><time>2026-03-22T08:00:06.261Z</time></trkpt><trkpt lat="43.40553" lon="11.7345867"><ele>305.0</ele><time>2026-03-22T08:00:07.264Z</time></trkpt><trkpt lat="43.405515" lon="11.7344667"><ele>305.6666666666667</ele><time>2026-03-22T08:00:08.259Z</time></trkpt><trkpt lat="43.4054967" lon="11.7343467"><ele>306.33333333333337</ele><time>2026-03-22T08:00:09.26Z</time></trkpt><trkpt lat="43.4054783" lon="11.7342267"><ele>307.0</ele><time>2026-03-22T08:00:10.26Z</time></trkpt><trkpt lat="43.40546" lon="11.734105"><ele>307.6666666666667</ele><time>2026-03-22T08:00:11.26Z</time></trkpt><trkpt lat="43.4054433" lon="11.733985"><ele>308.3333333333333</ele><time>2026-03-22T08:00:12.264Z</time></trkpt><trkpt lat="43.405425" lon="11.7338633"><ele>309.0</ele><time>2026-03-22T08:00:13.258Z</time></trkpt><trkpt lat="43.4054033" lon="11.7337367"><ele>309.8</ele><time>2026-03-22T08:00:14.258Z</time></trkpt><trkpt lat="43.40538" lon="11.7336067"><ele>310.59999999999997</ele><time>2026-03-22T08:00:15.258Z</time></trkpt><trkpt lat="43.4053617" lon="11.7334783"><ele>311.4</ele><time>2026-03-22T08:00:16.258Z</time></trkpt><trkpt lat="43.4053417" lon="11.73335"><ele>312.2</ele><time>2026-03-22T08:00:17.259Z</time></trkpt><trkpt lat="43.4053267" lon="11.733225"><ele>313.0</ele><time>2026-03-22T08:00:18.258Z</time></trkpt><trkpt lat="43.405315" lon="11.7331"><ele>314.0</ele><time>2026-03-22T08:00:19.26Z</time></trkpt><trkpt lat="43.4053" lon="11.732975"><ele>315.0</ele><time>2026-03-22T08:00:20.259Z</time></trkpt><trkpt lat="43.4052833" lon="11.7328517"><ele>316.0</ele><time>2026-03-22T08:00:21.261Z</time></trkpt><trkpt lat="43.4052667" lon="11.732725"><ele>317.0</ele><time>2026-03-22T08:00:22.259Z</time></trkpt><trkpt lat="43.4052517" lon="11.7326017"><ele>318.0</ele><time>2026-03-22T08:00:23.258Z</time></trkpt><trkpt lat="43.405245" lon="11.7324817"><ele>319.5</ele><time>2026-03-22T08:00:24.259Z</time></trkpt><trkpt lat="43.4052383" lon="11.7323633"><ele>321.0</ele><time>2026-03-22T08:00:25.259Z</time></trkpt><trkpt lat="43.4052317" lon="11.7322483"><ele>322.5</ele><time>2026-03-22T08:00:26.259Z</time></trkpt><trkpt lat="43.4052233" lon="11.732135"><ele>324.0</ele><time>2026-03-22T08:00:27.261Z</time></trkpt><trkpt lat="43.4052083" lon="11.7320217"><ele>325.5</ele><time>2026-03-22T08:00:28.259Z</time></trkpt><trkpt lat="43.40519" lon="11.731905"><ele>327.0</ele><time>2026-03-22T08:00:29.259Z</time></trkpt><trkpt lat="43.405165" lon="11.731795"><ele>328.20000000000005</ele><time>2026-03-22T08:00:30.258Z</time></trkpt><trkpt lat="43.40514" lon="11.7316983"><ele>329.4</ele><time>2026-03-22T08:00:31.262Z</time></trkpt><trkpt lat="43.4051033" lon="11.7316133"><ele>330.6</ele><time>2026-03-22T08:00:32.263Z</time></trkpt><trkpt lat="43.4050333" lon="11.7314867"><ele>331.79999999999995</ele><time>2026-03-22T08:00:34.261Z</time></trkpt><trkpt lat="43.4049433" lon="11.7314117"><ele>333.0</ele><time>2026-03-22T08:00:36.26Z</time></trkpt><trkpt lat="43.4048383" lon="11.7313833"><ele>333.0</ele><time>2026-03-22T08:00:38.258Z</time></trkpt><trkpt lat="43.4047483" lon="11.7313667"><ele>333.0</ele><time>2026-03-22T08:00:40.26Z</time></trkpt><trkpt lat="43.4047017" lon="11.7312617"><ele>333.0</ele><time>2026-03-22T08:00:42.261Z</time></trkpt><trkpt lat="43.404675" lon="11.7310933"><ele>333.0</ele><time>2026-03-22T08:00:44.26Z</time></trkpt><trkpt lat="43.4046683" lon="11.730995"><ele>333.0</ele><time>2026-03-22T08:00:45.259Z</time></trkpt><trkpt lat="43.40466" lon="11.73089"><ele>334.0</ele><time>2026-03-22T08:00:46.262Z</time></trkpt><trkpt lat="43.404645" lon="11.7307833"><ele>335.0</ele><time>2026-03-22T08:00:47.259Z</time></trkpt><trkpt lat="43.4046483" lon="11.7306783"><ele>336.0</ele><time>2026-03-22T08:00:48.262Z</time></trkpt><trkpt lat="43.40466" lon="11.7305817"><ele>337.0</ele><time>2026-03-22T08:00:49.262Z</time></trkpt><trkpt lat="43.4046817" lon="11.7305"><ele>338.0</ele><time>2026-03-22T08:00:50.262Z</time></trkpt><trkpt lat="43.4047" lon="11.7304117"><ele>339.0</ele><time>2026-03-22T08:00:51.26Z</time></trkpt><trkpt lat="43.4047167" lon="11.73032"><ele>340.0</ele><time>2026-03-22T08:00:52.257Z</time></trkpt><trkpt lat="43.4047317" lon="11.7302217"><ele>341.6</ele><time>2026-03-22T08:00:53.256Z</time></trkpt><trkpt lat="43.4047383" lon="11.730135"><ele>343.2</ele><time>2026-03-22T08:00:54.257Z</time></trkpt><trkpt lat="43.4047383" lon="11.730045"><ele>344.79999999999995</ele><time>2026-03-22T08:00:55.264Z</time></trkpt><trkpt lat="43.404765" lon="11.729885"><ele>346.4</ele><time>2026-03-22T08:00:57.26Z</time></trkpt><trkpt lat="43.404795" lon="11.7297283"><ele>348.0</ele><time>2026-03-22T08:00:59.257Z</time></trkpt><trkpt lat="43.40479" lon="11.7295883"><ele>348.0</ele><time>2026-03-22T08:01:01.261Z</time></trkpt><trkpt lat="43.40479" lon="11.7294717"><ele>348.0</ele><time>2026-03-22T08:01:03.262Z</time></trkpt><trkpt lat="43.4048067" lon="11.729355"><ele>348.0</ele><time>2026-03-22T08:01:05.26Z</time></trkpt><trkpt lat="43.4048317" lon="11.7292033"><ele>348.0</ele><time>2026-03-22T08:01:07.263Z</time></trkpt><trkpt lat="43.4048467" lon="11.7291033"><ele>348.0</ele><time>2026-03-22T08:01:08.264Z</time></trkpt><trkpt lat="43.4048617" lon="11.729005"><ele>348.0</ele><time>2026-03-22T08:01:09.26Z</time></trkpt><trkpt lat="43.4048767" lon="11.7289117"><ele>350.5</ele><time>2026-03-22T08:01:10.259Z</time></trkpt><trkpt lat="43.4048867" lon="11.72879"><ele>353.0</ele><time>2026-03-22T08:01:12.26Z</time></trkpt><trkpt lat="43.4048317" lon="11.7288683"><ele>355.5</ele><time>2026-03-22T08:01:19.26Z</time></trkpt><trkpt lat="43.4047833" lon="11.7289733"><ele>358.0</ele><time>2026-03-22T08:01:22.262Z</time></trkpt><trkpt lat="43.4047383" lon="11.7290783"><ele>360.5</ele><time>2026-03-22T08:01:24.261Z</time></trkpt><trkpt lat="43.4046967" lon="11.7291817"><ele>363.0</ele><time>2026-03-22T08:01:26.263Z</time></trkpt><trkpt lat="43.40468" lon="11.7292833"><ele>362.99999999999994</ele><time>2026-03-22T08:01:28.263Z</time></trkpt><trkpt lat="43.4046683" lon="11.7293783"><ele>363.0</ele><time>2026-03-22T08:01:30.259Z</time></trkpt><trkpt lat="43.4046317" lon="11.7294683"><ele>363.0</ele><time>2026-03-22T08:01:32.258Z</time></trkpt><trkpt lat="43.404595" lon="11.7295517"><ele>363.0</ele><time>2026-03-22T08:01:34.26Z</time></trkpt><trkpt lat="43.4045533" lon="11.7296317"><ele>363.0</ele><time>2026-03-22T08:01:36.259Z</time></trkpt><trkpt lat="43.4045183" lon="11.729715"><ele>362.99999999999994</ele><time>2026-03-22T08:01:38.26Z</time></trkpt><trkpt lat="43.404475" lon="11.7297967"><ele>363.0</ele><time>2026-03-22T08:01:40.26Z</time></trkpt><trkpt lat="43.404415" lon="11.7298633"><ele>362.1428571428571</ele><time>2026-03-22T08:01:43.26Z</time></trkpt><trkpt lat="43.4043533" lon="11.729905"><ele>361.2857142857143</ele><time>2026-03-22T08:02:19.26Z</time></trkpt><trkpt lat="43.4042917" lon="11.7298483"><ele>360.42857142857144</ele><time>2026-03-22T08:02:22.26Z</time></trkpt><trkpt lat="43.404275" lon="11.7297633"><ele>359.57142857142856</ele><time>2026-03-22T08:02:25.259Z</time></trkpt><trkpt lat="43.4042883" lon="11.7296567"><ele>358.7142857142857</ele><time>2026-03-22T08:02:28.263Z</time></trkpt><trkpt lat="43.4042933" lon="11.72957"><ele>357.85714285714283</ele><time>2026-03-22T08:02:30.261Z</time></trkpt><trkpt lat="43.4043067" lon="11.7294633"><ele>357.0</ele><time>2026-03-22T08:02:32.263Z</time></trkpt><trkpt lat="43.4043567" lon="11.7293633"><ele>360.1666666666667</ele><time>2026-03-22T08:02:34.261Z</time></trkpt><trkpt lat="43.4043983" lon="11.7292683"><ele>363.3333333333333</ele><time>2026-03-22T08:02:36.261Z</time></trkpt><trkpt lat="43.40442" lon="11.7291683"><ele>366.5</ele><time>2026-03-22T08:02:38.26Z</time></trkpt><trkpt lat="43.4043417" lon="11.7291583"><ele>369.66666666666663</ele><time>2026-03-22T08:02:41.258Z</time></trkpt><trkpt lat="43.404255" lon="11.729135"><ele>372.8333333333333</ele><time>2026-03-22T08:02:43.261Z</time></trkpt><trkpt lat="43.4041517" lon="11.7291"><ele>376.0</ele><time>2026-03-22T08:02:45.262Z</time></trkpt><trkpt lat="43.40408" lon="11.7290883"><ele>376.0</ele><time>2026-03-22T08:02:46.259Z</time></trkpt><trkpt lat="43.4040117" lon="11.7290683"><ele>376.0</ele><time>2026-03-22T08:02:47.259Z</time></trkpt><trkpt lat="43.4039033" lon="11.7290333"><ele>376.0</ele><time>2026-03-22T08:02:49.255Z</time></trkpt><trkpt lat="43.4037867" lon="11.728975"><ele>376.0</ele><time>2026-03-22T08:02:51.263Z</time></trkpt><trkpt lat="43.40369" lon="11.7289167"><ele>376.0</ele><time>2026-03-22T08:02:53.259Z</time></trkpt><trkpt lat="43.4036283" lon="11.7288533"><ele>376.5</ele><time>2026-03-22T08:02:55.26Z</time></trkpt><trkpt lat="43.403575" lon="11.7287733"><ele>377.0</ele><time>2026-03-22T08:02:57.259Z</time></trkpt><trkpt lat="43.4035517" lon="11.7286683"><ele>377.5</ele><time>2026-03-22T08:02:59.26Z</time></trkpt><trkpt lat="43.4035383" lon="11.7285733"><ele>378.0</ele><time>2026-03-22T08:03:01.264Z</time></trkpt><trkpt lat="43.4035633" lon="11.7284467"><ele>378.5</ele><time>2026-03-22T08:03:04.264Z</time></trkpt><trkpt lat="43.4036" lon="11.7283683"><ele>379.0</ele><time>2026-03-22T08:03:06.261Z</time></trkpt><trkpt lat="43.40362" lon="11.72828"><ele>381.8333333333333</ele><time>2026-03-22T08:03:08.26Z</time></trkpt><trkpt lat="43.4036167" lon="11.7281717"><ele>384.66666666666663</ele><time>2026-03-22T08:03:10.26Z</time></trkpt><trkpt lat="43.4035983" lon="11.7280483"><ele>387.5</ele><time>2026-03-22T08:03:12.259Z</time></trkpt><trkpt lat="43.4036" lon="11.7279367"><ele>390.3333333333333</ele><time>2026-03-22T08:03:14.261Z</time></trkpt><trkpt lat="43.4036" lon="11.7278183"><ele>393.1666666666667</ele><time>2026-03-22T08:03:16.26Z</time></trkpt><trkpt lat="43.403595" lon="11.7277"><ele>396.0</ele><time>2026-03-22T08:03:18.264Z</time></trkpt><trkpt lat="43.403585" lon="11.7275917"><ele>398.5</ele><time>2026-03-22T08:03:20.26Z</time></trkpt><trkpt lat="43.4035883" lon="11.7274817"><ele>401.0</ele><time>2026-03-22T08:03:22.26Z</time></trkpt><trkpt lat="43.4035783" lon="11.7273633"><ele>403.5</ele><time>2026-03-22T08:03:24.26Z</time></trkpt><trkpt lat="43.4035417" lon="11.7272617"><ele>406.0</ele><time>2026-03-22T08:03:26.264Z</time></trkpt><trkpt lat="43.4034633" lon="11.7272017"><ele>408.5</ele><time>2026-03-22T08:03:28.259Z</time></trkpt><trkpt lat="43.4033833" lon="11.727175"><ele>411.0</ele><time>2026-03-22T08:03:30.26Z</time></trkpt><trkpt lat="43.4032867" lon="11.7271433"><ele>411.0</ele><time>2026-03-22T08:03:32.26Z</time></trkpt><trkpt lat="43.40321" lon="11.7271417"><ele>411.0</ele><time>2026-03-22T08:03:34.261Z</time></trkpt><trkpt lat="43.4031367" lon="11.72722"><ele>411.0</ele><time>2026-03-22T08:03:36.262Z</time></trkpt><trkpt lat="43.4030767" lon="11.7273433"><ele>411.0</ele><time>2026-03-22T08:03:38.264Z</time></trkpt><trkpt lat="43.403025" lon="11.7274683"><ele>411.0</ele><time>2026-03-22T08:03:40.262Z</time></trkpt><trkpt lat="43.402945" lon="11.7275483"><ele>411.8</ele><time>2026-03-22T08:03:42.26Z</time></trkpt><trkpt lat="43.40283" lon="11.7275767"><ele>412.6</ele><time>2026-03-22T08:03:44.26Z</time></trkpt><trkpt lat="43.4027533" lon="11.7275583"><ele>413.4</ele><time>2026-03-22T08:03:46.266Z</time></trkpt><trkpt lat="43.4026933" lon="11.7275"><ele>414.2</ele><time>2026-03-22T08:03:48.259Z</time></trkpt><trkpt lat="43.4026317" lon="11.72743"><ele>415.0</ele><time>2026-03-22T08:03:50.26Z</time></trkpt><trkpt lat="43.4025633" lon="11.7273133"><ele>415.0</ele><time>2026-03-22T08:03:52.263Z</time></trkpt><trkpt lat="43.4025167" lon="11.7271883"><ele>415.0</ele><time>2026-03-22T08:03:54.258Z</time></trkpt><trkpt lat="43.4024683" lon="11.7270667"><ele>415.0</ele><time>2026-03-22T08:03:56.258Z</time></trkpt><trkpt lat="43.40242" lon="11.7269367"><ele>415.0</ele><time>2026-03-22T08:03:58.261Z</time></trkpt><trkpt lat="43.4023533" lon="11.7267933"><ele>415.0</ele><time>2026-03-22T08:04:00.258Z</time></trkpt><trkpt lat="43.402305" lon="11.7266467"><ele>417.6</ele><time>2026-03-22T08:04:02.26Z</time></trkpt><trkpt lat="43.4022853" lon="11.7265014"><ele>420.2</ele><time>2026-03-22T08:04:04.259Z</time></trkpt><trkpt lat="43.4022576" lon="11.7263576"><ele>422.79999999999995</ele><time>2026-03-22T08:04:06.26Z</time></trkpt><trkpt lat="43.4022183" lon="11.7262496"><ele>425.4</ele><time>2026-03-22T08:04:08.26Z</time></trkpt><trkpt lat="43.4022041" lon="11.7261175"><ele>428.0</ele><time>2026-03-22T08:04:10.261Z</time></trkpt><trkpt lat="43.4021547" lon="11.7259875"><ele>430.5</ele><time>2026-03-22T08:04:12.264Z</time></trkpt><trkpt lat="43.402096" lon="11.7258643"><ele>433.0</ele><time>2026-03-22T08:04:14.259Z</time></trkpt><trkpt lat="43.4020445" lon="11.7257334"><ele>435.5</ele><time>2026-03-22T08:04:16.26Z</time></trkpt><trkpt lat="43.4019969" lon="11.7255835"><ele>438.0</ele><time>2026-03-22T08:04:18.26Z</time></trkpt><trkpt lat="43.4019113" lon="11.7254768"><ele>438.0</ele><time>2026-03-22T08:04:20.261Z</time></trkpt><trkpt lat="43.4018132" lon="11.7253474"><ele>437.99999999999994</ele><time>2026-03-22T08:04:22.261Z</time></trkpt><trkpt lat="43.4017583" lon="11.7252754"><ele>437.99999999999994</ele><time>2026-03-22T08:04:23.258Z</time></trkpt><trkpt lat="43.4017039" lon="11.7252045"><ele>438.0</ele><time>2026-03-22T08:04:24.26Z</time></trkpt><trkpt lat="43.4016533" lon="11.725142"><ele>438.0</ele><time>2026-03-22T08:04:25.261Z</time></trkpt><trkpt lat="43.401566" lon="11.7250493"><ele>439.1666666666667</ele><time>2026-03-22T08:04:27.26Z</time></trkpt><trkpt lat="43.4015167" lon="11.7249767"><ele>440.33333333333337</ele><time>2026-03-22T08:04:29.262Z</time></trkpt><trkpt lat="43.4014283" lon="11.7249233"><ele>441.5</ele><time>2026-03-22T08:04:46.26Z</time></trkpt><trkpt lat="43.40131" lon="11.72495"><ele>442.6666666666667</ele><time>2026-03-22T08:04:48.263Z</time></trkpt><trkpt lat="43.401235" lon="11.724965"><ele>443.83333333333337</ele><time>2026-03-22T08:04:49.263Z</time></trkpt><trkpt lat="43.4011583" lon="11.7249767"><ele>445.0</ele><time>2026-03-22T08:04:50.26Z</time></trkpt><trkpt lat="43.4010833" lon="11.7249867"><ele>445.00000000000006</ele><time>2026-03-22T08:04:51.259Z</time></trkpt><trkpt lat="43.4010083" lon="11.724995"><ele>445.0</ele><time>2026-03-22T08:04:52.259Z</time></trkpt><trkpt lat="43.4009283" lon="11.725"><ele>445.0</ele><time>2026-03-22T08:04:53.259Z</time></trkpt><trkpt lat="43.4008383" lon="11.7250033"><ele>445.0</ele><time>2026-03-22T08:04:54.261Z</time></trkpt><trkpt lat="43.4007417" lon="11.7250067"><ele>445.00000000000006</ele><time>2026-03-22T08:04:55.26Z</time></trkpt><trkpt lat="43.4006417" lon="11.72501"><ele>445.0</ele><time>2026-03-22T08:04:56.258Z</time></trkpt><trkpt lat="43.4005333" lon="11.7250183"><ele>445.0</ele><time>2026-03-22T08:04:57.259Z</time></trkpt><trkpt lat="43.4004217" lon="11.7250317"><ele>445.0</ele><time>2026-03-22T08:04:58.26Z</time></trkpt><trkpt lat="43.4003133" lon="11.72505"><ele>445.0</ele><time>2026-03-22T08:04:59.26Z</time></trkpt><trkpt lat="43.40021" lon="11.7250717"><ele>445.0</ele><time>2026-03-22T08:05:00.262Z</time></trkpt><trkpt lat="43.400115" lon="11.7250983"><ele>445.0</ele><time>2026-03-22T08:05:01.26Z</time></trkpt><trkpt lat="43.4000333" lon="11.72513"><ele>445.00000000000006</ele><time>2026-03-22T08:05:02.262Z</time></trkpt><trkpt lat="43.3999583" lon="11.7251617"><ele>445.0</ele><time>2026-03-22T08:05:03.263Z</time></trkpt><trkpt lat="43.3998933" lon="11.72518"><ele>445.0</ele><time>2026-03-22T08:05:04.262Z</time></trkpt><trkpt lat="43.399805" lon="11.725155"><ele>445.0</ele><time>2026-03-22T08:05:06.262Z</time></trkpt><trkpt lat="43.3997917" lon="11.725025"><ele>445.00000000000006</ele><time>2026-03-22T08:05:08.262Z</time></trkpt><trkpt lat="43.3998217" lon="11.72494"><ele>445.0</ele><time>2026-03-22T08:05:09.261Z</time></trkpt><trkpt lat="43.3998567" lon="11.7248633"><ele>445.0</ele><time>2026-03-22T08:05:10.258Z</time></trkpt><trkpt lat="43.3999067" lon="11.7247817"><ele>445.0</ele><time>2026-03-22T08:05:11.261Z</time></trkpt><trkpt lat="43.3999583" lon="11.7247067"><ele>445.0</ele><time>2026-03-22T08:05:12.262Z</time></trkpt><trkpt lat="43.4000133" lon="11.7246417"><ele>445.0</ele><time>2026-03-22T08:05:13.26Z</time></trkpt><trkpt lat="43.40008" lon="11.7246067"><ele>445.0</ele><time>2026-03-22T08:05:14.26Z</time></trkpt><trkpt lat="43.4001467" lon="11.7246"><ele>445.0</ele><time>2026-03-22T08:05:15.262Z</time></trkpt><trkpt lat="43.4002117" lon="11.7246083"><ele>445.0</ele><time>2026-03-22T08:05:16.259Z</time></trkpt><trkpt lat="43.400325" lon="11.7246133"><ele>445.00000000000006</ele><time>2026-03-22T08:05:18.259Z</time></trkpt><trkpt lat="43.4004417" lon="11.7245517"><ele>445.0</ele><time>2026-03-22T08:05:20.26Z</time></trkpt><trkpt lat="43.400505" lon="11.72452"><ele>445.0</ele><time>2026-03-22T08:05:21.26Z</time></trkpt><trkpt lat="43.4005817" lon="11.7245017"><ele>445.0</ele><time>2026-03-22T08:05:22.262Z</time></trkpt><trkpt lat="43.40067" lon="11.724495"><ele>445.00000000000006</ele><time>2026-03-22T08:05:23.257Z</time></trkpt><trkpt lat="43.4007567" lon="11.7244833"><ele>445.0</ele><time>2026-03-22T08:05:24.26Z</time></trkpt><trkpt lat="43.4008417" lon="11.724465"><ele>445.00000000000006</ele><time>2026-03-22T08:05:25.262Z</time></trkpt><trkpt lat="43.4009233" lon="11.7244467"><ele>445.0</ele><time>2026-03-22T08:05:26.262Z</time></trkpt><trkpt lat="43.401005" lon="11.72443"><ele>445.0</ele><time>2026-03-22T08:05:27.259Z</time></trkpt><trkpt lat="43.4010733" lon="11.724415"><ele>445.0</ele><time>2026-03-22T08:05:28.258Z</time></trkpt><trkpt lat="43.4011783" lon="11.7243583"><ele>445.00000000000006</ele><time>2026-03-22T08:05:30.261Z</time></trkpt><trkpt lat="43.4012383" lon="11.7243267"><ele>445.0</ele><time>2026-03-22T08:05:31.261Z</time></trkpt><trkpt lat="43.4012983" lon="11.7242933"><ele>446.42857142857144</ele><time>2026-03-22T08:05:32.259Z</time></trkpt><trkpt lat="43.4013583" lon="11.72426"><ele>447.85714285714283</ele><time>2026-03-22T08:05:33.261Z</time></trkpt><trkpt lat="43.4014117" lon="11.7242117"><ele>449.2857142857143</ele><time>2026-03-22T08:05:34.261Z</time></trkpt><trkpt lat="43.4014583" lon="11.7241533"><ele>450.7142857142857</ele><time>2026-03-22T08:05:35.26Z</time></trkpt><trkpt lat="43.40151" lon="11.7240883"><ele>452.1428571428571</ele><time>2026-03-22T08:05:37.262Z</time></trkpt><trkpt lat="43.4015867" lon="11.724015"><ele>453.57142857142856</ele><time>2026-03-22T08:05:43.26Z</time></trkpt><trkpt lat="43.4016367" lon="11.723955"><ele>455.0</ele><time>2026-03-22T08:05:44.261Z</time></trkpt><trkpt lat="43.4016883" lon="11.7238833"><ele>454.99999999999994</ele><time>2026-03-22T08:05:45.26Z</time></trkpt><trkpt lat="43.4017433" lon="11.7238083"><ele>455.0</ele><time>2026-03-22T08:05:46.26Z</time></trkpt><trkpt lat="43.4018067" lon="11.7237333"><ele>455.0</ele><time>2026-03-22T08:05:47.259Z</time></trkpt><trkpt lat="43.4018717" lon="11.7236633"><ele>455.0</ele><time>2026-03-22T08:05:48.259Z</time></trkpt><trkpt lat="43.4019367" lon="11.7235967"><ele>454.99999999999994</ele><time>2026-03-22T08:05:49.262Z</time></trkpt><trkpt lat="43.4020067" lon="11.723515"><ele>455.0</ele><time>2026-03-22T08:05:50.262Z</time></trkpt><trkpt lat="43.40207" lon="11.7234733"><ele>455.8</ele><time>2026-03-22T08:05:51.263Z</time></trkpt><trkpt lat="43.4022017" lon="11.72349"><ele>456.6</ele><time>2026-03-22T08:05:53.262Z</time></trkpt><trkpt lat="43.40228" lon="11.7235233"><ele>457.4</ele><time>2026-03-22T08:05:54.262Z</time></trkpt><trkpt lat="43.4023617" lon="11.72358"><ele>458.2</ele><time>2026-03-22T08:05:55.259Z</time></trkpt><trkpt lat="43.4024433" lon="11.7236383"><ele>459.0</ele><time>2026-03-22T08:05:56.26Z</time></trkpt><trkpt lat="43.4025217" lon="11.72369"><ele>459.0</ele><time>2026-03-22T08:05:57.263Z</time></trkpt><trkpt lat="43.4025983" lon="11.7237483"><ele>459.0</ele><time>2026-03-22T08:05:58.261Z</time></trkpt><trkpt lat="43.402665" lon="11.72379"><ele>459.0</ele><time>2026-03-22T08:05:59.262Z</time></trkpt><trkpt lat="43.4027617" lon="11.7238067"><ele>459.0</ele><time>2026-03-22T08:06:01.261Z</time></trkpt><trkpt lat="43.4028183" lon="11.7237133"><ele>459.0</ele><time>2026-03-22T08:06:03.263Z</time></trkpt><trkpt lat="43.4027917" lon="11.7236"><ele>459.0</ele><time>2026-03-22T08:06:04.264Z</time></trkpt><trkpt lat="43.4027667" lon="11.72351"><ele>459.0</ele><time>2026-03-22T08:06:05.26Z</time></trkpt><trkpt lat="43.402715" lon="11.7234017"><ele>459.0</ele><time>2026-03-22T08:06:06.259Z</time></trkpt><trkpt lat="43.4026367" lon="11.7232833"><ele>459.0</ele><time>2026-03-22T08:06:07.26Z</time></trkpt><trkpt lat="43.4025833" lon="11.7231733"><ele>459.0</ele><time>2026-03-22T08:06:08.262Z</time></trkpt><trkpt lat="43.4025183" lon="11.72304"><ele>459.0</ele><time>2026-03-22T08:06:09.258Z</time></trkpt><trkpt lat="43.4024833" lon="11.7229433"><ele>459.0</ele><time>2026-03-22T08:06:10.257Z</time></trkpt><trkpt lat="43.4024567" lon="11.72284"><ele>459.0</ele><time>2026-03-22T08:06:11.264Z</time></trkpt><trkpt lat="43.402425" lon="11.7227267"><ele>459.0</ele><time>2026-03-22T08:06:12.259Z</time></trkpt><trkpt lat="43.4023933" lon="11.7226067"><ele>459.0</ele><time>2026-03-22T08:06:13.258Z</time></trkpt><trkpt lat="43.4023667" lon="11.72247"><ele>459.0</ele><time>2026-03-22T08:06:14.26Z</time></trkpt><trkpt lat="43.402345" lon="11.7223583"><ele>459.0</ele><time>2026-03-22T08:06:15.259Z</time></trkpt><trkpt lat="43.4023383" lon="11.72226"><ele>458.7142857142857</ele><time>2026-03-22T08:06:16.262Z</time></trkpt><trkpt lat="43.4023517" lon="11.7221667"><ele>458.42857142857144</ele><time>2026-03-22T08:06:17.262Z</time></trkpt><trkpt lat="43.4023817" lon="11.72208"><ele>458.14285714285717</ele><time>2026-03-22T08:06:18.259Z</time></trkpt><trkpt lat="43.402425" lon="11.7220167"><ele>457.8571428571429</ele><time>2026-03-22T08:06:19.266Z</time></trkpt><trkpt lat="43.40248" lon="11.7219683"><ele>457.57142857142856</ele><time>2026-03-22T08:06:20.264Z</time></trkpt><trkpt lat="43.4025517" lon="11.7219367"><ele>457.28571428571433</ele><time>2026-03-22T08:06:21.259Z</time></trkpt><trkpt lat="43.40263" lon="11.7219067"><ele>457.00000000000006</ele><time>2026-03-22T08:06:22.26Z</time></trkpt><trkpt lat="43.4027117" lon="11.72187"><ele>456.1666666666667</ele><time>2026-03-22T08:06:23.264Z</time></trkpt><trkpt lat="43.4027883" lon="11.7218367"><ele>455.33333333333337</ele><time>2026-03-22T08:06:24.265Z</time></trkpt><trkpt lat="43.4028583" lon="11.7217967"><ele>454.5</ele><time>2026-03-22T08:06:25.259Z</time></trkpt><trkpt lat="43.402925" lon="11.7217483"><ele>453.66666666666663</ele><time>2026-03-22T08:06:26.268Z</time></trkpt><trkpt lat="43.402985" lon="11.7217"><ele>452.8333333333333</ele><time>2026-03-22T08:06:27.262Z</time></trkpt><trkpt lat="43.40305" lon="11.721605"><ele>452.0</ele><time>2026-03-22T08:06:29.258Z</time></trkpt><trkpt lat="43.4030333" lon="11.7215017"><ele>452.0</ele><time>2026-03-22T08:06:31.261Z</time></trkpt><trkpt lat="43.402975" lon="11.7214517"><ele>452.00000000000006</ele><time>2026-03-22T08:06:32.264Z</time></trkpt><trkpt lat="43.4029033" lon="11.72137"><ele>452.00000000000006</ele><time>2026-03-22T08:06:33.262Z</time></trkpt><trkpt lat="43.4028183" lon="11.721295"><ele>452.0</ele><time>2026-03-22T08:06:34.26Z</time></trkpt><trkpt lat="43.4027367" lon="11.72121"><ele>452.0</ele><time>2026-03-22T08:06:35.259Z</time></trkpt><trkpt lat="43.4026617" lon="11.7211233"><ele>453.40000000000003</ele><time>2026-03-22T08:06:36.259Z</time></trkpt><trkpt lat="43.4025917" lon="11.7210333"><ele>454.80000000000007</ele><time>2026-03-22T08:06:37.259Z</time></trkpt><trkpt lat="43.4025267" lon="11.72095"><ele>456.2</ele><time>2026-03-22T08:06:38.259Z</time></trkpt><trkpt lat="43.40246" lon="11.7208733"><ele>457.6</ele><time>2026-03-22T08:06:39.26Z</time></trkpt><trkpt lat="43.4023883" lon="11.7208"><ele>459.0</ele><time>2026-03-22T08:06:40.258Z</time></trkpt><trkpt lat="43.402305" lon="11.7207233"><ele>459.0</ele><time>2026-03-22T08:06:41.259Z</time></trkpt><trkpt lat="43.402215" lon="11.7206383"><ele>459.0</ele><time>2026-03-22T08:06:42.26Z</time></trkpt><trkpt lat="43.4021267" lon="11.72055"><ele>459.0</ele><time>2026-03-22T08:06:43.263Z</time></trkpt><trkpt lat="43.4020467" lon="11.720455"><ele>459.0</ele><time>2026-03-22T08:06:44.26Z</time></trkpt><trkpt lat="43.40198" lon="11.7203633"><ele>459.0</ele><time>2026-03-22T08:06:45.26Z</time></trkpt><trkpt lat="43.401915" lon="11.7202733"><ele>457.6666666666667</ele><time>2026-03-22T08:06:46.26Z</time></trkpt><trkpt lat="43.40186" lon="11.72019"><ele>456.33333333333337</ele><time>2026-03-22T08:06:47.259Z</time></trkpt><trkpt lat="43.40181" lon="11.720115"><ele>455.0</ele><time>2026-03-22T08:06:48.262Z</time></trkpt><trkpt lat="43.4017633" lon="11.7200567"><ele>453.6666666666667</ele><time>2026-03-22T08:06:49.259Z</time></trkpt><trkpt lat="43.401685" lon="11.71996"><ele>452.33333333333337</ele><time>2026-03-22T08:06:51.261Z</time></trkpt><trkpt lat="43.40162" lon="11.7198633"><ele>451.0</ele><time>2026-03-22T08:06:53.259Z</time></trkpt><trkpt lat="43.4015333" lon="11.7197517"><ele>451.00000000000006</ele><time>2026-03-22T08:06:55.258Z</time></trkpt><trkpt lat="43.4014467" lon="11.7196333"><ele>451.0</ele><time>2026-03-22T08:06:57.261Z</time></trkpt><trkpt lat="43.4013967" lon="11.71957"><ele>451.0</ele><time>2026-03-22T08:06:58.263Z</time></trkpt><trkpt lat="43.4013467" lon="11.7195"><ele>451.0</ele><time>2026-03-22T08:06:59.259Z</time></trkpt><trkpt lat="43.4012983" lon="11.7194333"><ele>451.00000000000006</ele><time>2026-03-22T08:07:00.26Z</time></trkpt><trkpt lat="43.4012517" lon="11.71937"><ele>451.0</ele><time>2026-03-22T08:07:01.258Z</time></trkpt><trkpt lat="43.4012033" lon="11.71931"><ele>451.2857142857143</ele><time>2026-03-22T08:07:02.265Z</time></trkpt><trkpt lat="43.4011533" lon="11.7192567"><ele>451.57142857142856</ele><time>2026-03-22T08:07:03.258Z</time></trkpt><trkpt lat="43.4010967" lon="11.719205"><ele>451.85714285714283</ele><time>2026-03-22T08:07:04.26Z</time></trkpt><trkpt lat="43.4010333" lon="11.71916"><ele>452.1428571428571</ele><time>2026-03-22T08:07:05.257Z</time></trkpt><trkpt lat="43.4009683" lon="11.7191183"><ele>452.42857142857144</ele><time>2026-03-22T08:07:06.259Z</time></trkpt><trkpt lat="43.4008933" lon="11.7190767"><ele>452.71428571428567</ele><time>2026-03-22T08:07:07.261Z</time></trkpt><trkpt lat="43.4008167" lon="11.719035"><ele>452.99999999999994</ele><time>2026-03-22T08:07:08.258Z</time></trkpt><trkpt lat="43.4007417" lon="11.718995"><ele>453.0</ele><time>2026-03-22T08:07:09.262Z</time></trkpt><trkpt lat="43.400665" lon="11.718955"><ele>453.0</ele><time>2026-03-22T08:07:10.258Z</time></trkpt><trkpt lat="43.4005917" lon="11.71891"><ele>453.0</ele><time>2026-03-22T08:07:11.257Z</time></trkpt><trkpt lat="43.4005183" lon="11.71886"><ele>453.0</ele><time>2026-03-22T08:07:12.262Z</time></trkpt><trkpt lat="43.4004483" lon="11.718805"><ele>453.0</ele><time>2026-03-22T08:07:13.261Z</time></trkpt><trkpt lat="43.4003817" lon="11.7187467"><ele>453.0</ele><time>2026-03-22T08:07:14.261Z</time></trkpt><trkpt lat="43.4003167" lon="11.7186883"><ele>452.5</ele><time>2026-03-22T08:07:15.261Z</time></trkpt><trkpt lat="43.4002517" lon="11.7186283"><ele>452.0</ele><time>2026-03-22T08:07:16.262Z</time></trkpt><trkpt lat="43.4001867" lon="11.718565"><ele>451.5</ele><time>2026-03-22T08:07:17.261Z</time></trkpt><trkpt lat="43.4001217" lon="11.7185033"><ele>451.0</ele><time>2026-03-22T08:07:18.268Z</time></trkpt><trkpt lat="43.4000583" lon="11.71844"><ele>450.5</ele><time>2026-03-22T08:07:19.261Z</time></trkpt><trkpt lat="43.3999933" lon="11.71837"><ele>450.0</ele><time>2026-03-22T08:07:20.261Z</time></trkpt><trkpt lat="43.3999283" lon="11.7182967"><ele>449.6666666666667</ele><time>2026-03-22T08:07:21.261Z</time></trkpt><trkpt lat="43.39986" lon="11.7182233"><ele>449.33333333333337</ele><time>2026-03-22T08:07:22.262Z</time></trkpt><trkpt lat="43.3997883" lon="11.7181567"><ele>449.0</ele><time>2026-03-22T08:07:23.261Z</time></trkpt><trkpt lat="43.3997133" lon="11.7180983"><ele>448.6666666666667</ele><time>2026-03-22T08:07:24.261Z</time></trkpt><trkpt lat="43.3996383" lon="11.7180483"><ele>448.33333333333337</ele><time>2026-03-22T08:07:25.262Z</time></trkpt><trkpt lat="43.3995567" lon="11.71801"><ele>448.0</ele><time>2026-03-22T08:07:26.261Z</time></trkpt><trkpt lat="43.3994733" lon="11.7179767"><ele>448.0</ele><time>2026-03-22T08:07:27.264Z</time></trkpt><trkpt lat="43.39939" lon="11.717945"><ele>447.99999999999994</ele><time>2026-03-22T08:07:28.261Z</time></trkpt><trkpt lat="43.399305" lon="11.7179117"><ele>447.99999999999994</ele><time>2026-03-22T08:07:29.259Z</time></trkpt><trkpt lat="43.399215" lon="11.7178733"><ele>448.0</ele><time>2026-03-22T08:07:30.259Z</time></trkpt><trkpt lat="43.3991267" lon="11.717835"><ele>448.0</ele><time>2026-03-22T08:07:31.258Z</time></trkpt><trkpt lat="43.39904" lon="11.7177983"><ele>448.0</ele><time>2026-03-22T08:07:32.261Z</time></trkpt><trkpt lat="43.3989517" lon="11.7177617"><ele>447.99999999999994</ele><time>2026-03-22T08:07:33.259Z</time></trkpt><trkpt lat="43.3988633" lon="11.7177217"><ele>447.99999999999994</ele><time>2026-03-22T08:07:34.261Z</time></trkpt><trkpt lat="43.3987683" lon="11.7176817"><ele>448.0</ele><time>2026-03-22T08:07:35.26Z</time></trkpt><trkpt lat="43.3986733" lon="11.7176433"><ele>448.0</ele><time>2026-03-22T08:07:36.258Z</time></trkpt><trkpt lat="43.39858" lon="11.7176067"><ele>448.50000000000006</ele><time>2026-03-22T08:07:37.261Z</time></trkpt><trkpt lat="43.398495" lon="11.71757"><ele>449.0</ele><time>2026-03-22T08:07:38.262Z</time></trkpt><trkpt lat="43.398415" lon="11.717535"><ele>449.5</ele><time>2026-03-22T08:07:39.263Z</time></trkpt><trkpt lat="43.3983367" lon="11.7174933"><ele>450.0</ele><time>2026-03-22T08:07:40.26Z</time></trkpt><trkpt lat="43.3982617" lon="11.7174483"><ele>450.50000000000006</ele><time>2026-03-22T08:07:41.26Z</time></trkpt><trkpt lat="43.3981783" lon="11.7174033"><ele>451.0</ele><time>2026-03-22T08:07:42.261Z</time></trkpt><trkpt lat="43.3980883" lon="11.71736"><ele>450.1666666666667</ele><time>2026-03-22T08:07:43.261Z</time></trkpt><trkpt lat="43.3979967" lon="11.7173267"><ele>449.33333333333337</ele><time>2026-03-22T08:07:44.262Z</time></trkpt><trkpt lat="43.3979067" lon="11.7173083"><ele>448.5</ele><time>2026-03-22T08:07:45.261Z</time></trkpt><trkpt lat="43.3978167" lon="11.7172967"><ele>447.66666666666663</ele><time>2026-03-22T08:07:46.258Z</time></trkpt><trkpt lat="43.3977317" lon="11.71729"><ele>446.8333333333333</ele><time>2026-03-22T08:07:47.259Z</time></trkpt><trkpt lat="43.397655" lon="11.7172917"><ele>446.0</ele><time>2026-03-22T08:07:48.259Z</time></trkpt><trkpt lat="43.3975833" lon="11.7173"><ele>445.99999999999994</ele><time>2026-03-22T08:07:49.26Z</time></trkpt><trkpt lat="43.39752" lon="11.717315"><ele>446.0</ele><time>2026-03-22T08:07:50.26Z</time></trkpt><trkpt lat="43.3974483" lon="11.71739"><ele>446.0</ele><time>2026-03-22T08:07:52.266Z</time></trkpt><trkpt lat="43.3974383" lon="11.7175167"><ele>446.0</ele><time>2026-03-22T08:07:54.261Z</time></trkpt><trkpt lat="43.3974617" lon="11.7176267"><ele>445.99999999999994</ele><time>2026-03-22T08:07:56.258Z</time></trkpt><trkpt lat="43.3974917" lon="11.7177267"><ele>446.0</ele><time>2026-03-22T08:07:58.258Z</time></trkpt><trkpt lat="43.3975283" lon="11.7178533"><ele>444.4</ele><time>2026-03-22T08:08:00.261Z</time></trkpt><trkpt lat="43.3975167" lon="11.7179717"><ele>442.8</ele><time>2026-03-22T08:08:02.261Z</time></trkpt><trkpt lat="43.397405" lon="11.7180217"><ele>441.19999999999993</ele><time>2026-03-22T08:08:04.259Z</time></trkpt><trkpt lat="43.3973283" lon="11.7180317"><ele>439.59999999999997</ele><time>2026-03-22T08:08:05.258Z</time></trkpt><trkpt lat="43.3972367" lon="11.7180417"><ele>438.0</ele><time>2026-03-22T08:08:06.261Z</time></trkpt><trkpt lat="43.3971433" lon="11.7180583"><ele>438.0</ele><time>2026-03-22T08:08:07.262Z</time></trkpt><trkpt lat="43.39705" lon="11.7180783"><ele>437.99999999999994</ele><time>2026-03-22T08:08:08.259Z</time></trkpt><trkpt lat="43.3969617" lon="11.7181033"><ele>437.99999999999994</ele><time>2026-03-22T08:08:09.261Z</time></trkpt><trkpt lat="43.3968733" lon="11.7181267"><ele>438.0</ele><time>2026-03-22T08:08:10.265Z</time></trkpt><trkpt lat="43.3967783" lon="11.7181517"><ele>438.0</ele><time>2026-03-22T08:08:11.259Z</time></trkpt><trkpt lat="43.3966817" lon="11.7181833"><ele>438.0</ele><time>2026-03-22T08:08:12.265Z</time></trkpt><trkpt lat="43.3965917" lon="11.7182083"><ele>438.0</ele><time>2026-03-22T08:08:13.259Z</time></trkpt><trkpt lat="43.3965017" lon="11.7182233"><ele>438.0</ele><time>2026-03-22T08:08:14.262Z</time></trkpt><trkpt lat="43.3964217" lon="11.7182383"><ele>438.0</ele><time>2026-03-22T08:08:15.263Z</time></trkpt><trkpt lat="43.39635" lon="11.7182483"><ele>438.0</ele><time>2026-03-22T08:08:16.258Z</time></trkpt><trkpt lat="43.3962817" lon="11.7182617"><ele>438.0</ele><time>2026-03-22T08:08:17.257Z</time></trkpt><trkpt lat="43.3962117" lon="11.71827"><ele>437.8333333333333</ele><time>2026-03-22T08:08:18.264Z</time></trkpt><trkpt lat="43.39614" lon="11.7182767"><ele>437.66666666666663</ele><time>2026-03-22T08:08:19.26Z</time></trkpt><trkpt lat="43.3960617" lon="11.71828"><ele>437.5</ele><time>2026-03-22T08:08:20.26Z</time></trkpt><trkpt lat="43.39597" lon="11.718265"><ele>437.3333333333333</ele><time>2026-03-22T08:08:21.261Z</time></trkpt><trkpt lat="43.3958817" lon="11.7182417"><ele>437.16666666666663</ele><time>2026-03-22T08:08:22.262Z</time></trkpt><trkpt lat="43.395795" lon="11.7182167"><ele>437.0</ele><time>2026-03-22T08:08:23.263Z</time></trkpt><trkpt lat="43.3957167" lon="11.718195"><ele>436.99999999999994</ele><time>2026-03-22T08:08:24.262Z</time></trkpt><trkpt lat="43.395645" lon="11.71818"><ele>437.0</ele><time>2026-03-22T08:08:25.263Z</time></trkpt><trkpt lat="43.3955817" lon="11.7181667"><ele>437.0</ele><time>2026-03-22T08:08:26.259Z</time></trkpt><trkpt lat="43.3954633" lon="11.7181333"><ele>437.0</ele><time>2026-03-22T08:08:28.264Z</time></trkpt><trkpt lat="43.3954" lon="11.7181133"><ele>436.99999999999994</ele><time>2026-03-22T08:08:29.259Z</time></trkpt><trkpt lat="43.3953233" lon="11.7181033"><ele>437.0</ele><time>2026-03-22T08:08:30.259Z</time></trkpt><trkpt lat="43.395235" lon="11.7180933"><ele>435.6</ele><time>2026-03-22T08:08:31.259Z</time></trkpt><trkpt lat="43.3951317" lon="11.7180883"><ele>434.20000000000005</ele><time>2026-03-22T08:08:32.261Z</time></trkpt><trkpt lat="43.3950283" lon="11.718085"><ele>432.8</ele><time>2026-03-22T08:08:33.262Z</time></trkpt><trkpt lat="43.3949367" lon="11.7180833"><ele>431.4</ele><time>2026-03-22T08:08:34.261Z</time></trkpt><trkpt lat="43.394855" lon="11.7180933"><ele>430.0</ele><time>2026-03-22T08:08:35.259Z</time></trkpt><trkpt lat="43.394785" lon="11.718105"><ele>430.0</ele><time>2026-03-22T08:08:36.264Z</time></trkpt><trkpt lat="43.3947167" lon="11.7180983"><ele>430.0</ele><time>2026-03-22T08:08:37.265Z</time></trkpt><trkpt lat="43.39465" lon="11.718085"><ele>430.0</ele><time>2026-03-22T08:08:38.263Z</time></trkpt><trkpt lat="43.3945333" lon="11.7180683"><ele>430.0</ele><time>2026-03-22T08:08:40.262Z</time></trkpt><trkpt lat="43.3944133" lon="11.71804"><ele>430.0</ele><time>2026-03-22T08:08:42.261Z</time></trkpt><trkpt lat="43.394305" lon="11.7179783"><ele>428.85714285714283</ele><time>2026-03-22T08:08:44.261Z</time></trkpt><trkpt lat="43.394245" lon="11.717945"><ele>427.7142857142857</ele><time>2026-03-22T08:08:45.264Z</time></trkpt><trkpt lat="43.3941833" lon="11.7179267"><ele>426.57142857142856</ele><time>2026-03-22T08:08:46.259Z</time></trkpt><trkpt lat="43.3940617" lon="11.7179033"><ele>425.42857142857144</ele><time>2026-03-22T08:08:48.261Z</time></trkpt><trkpt lat="43.3939967" lon="11.7178783"><ele>424.28571428571433</ele><time>2026-03-22T08:08:49.263Z</time></trkpt><trkpt lat="43.3939317" lon="11.717855"><ele>423.14285714285717</ele><time>2026-03-22T08:08:50.26Z</time></trkpt><trkpt lat="43.39387" lon="11.717835"><ele>422.0</ele><time>2026-03-22T08:08:51.262Z</time></trkpt><trkpt lat="43.3937467" lon="11.7177883"><ele>420.8</ele><time>2026-03-22T08:08:53.262Z</time></trkpt><trkpt lat="43.3936833" lon="11.71776"><ele>419.6</ele><time>2026-03-22T08:08:54.257Z</time></trkpt><trkpt lat="43.39357" lon="11.7177083"><ele>418.40000000000003</ele><time>2026-03-22T08:08:56.26Z</time></trkpt><trkpt lat="43.3934583" lon="11.717705"><ele>417.20000000000005</ele><time>2026-03-22T08:08:58.26Z</time></trkpt><trkpt lat="43.39339" lon="11.7177283"><ele>416.0</ele><time>2026-03-22T08:08:59.259Z</time></trkpt><trkpt lat="43.3932883" lon="11.71774"><ele>416.4</ele><time>2026-03-22T08:09:01.261Z</time></trkpt><trkpt lat="43.393205" lon="11.7176983"><ele>416.8</ele><time>2026-03-22T08:09:03.261Z</time></trkpt><trkpt lat="43.3931067" lon="11.7176983"><ele>417.2</ele><time>2026-03-22T08:09:05.258Z</time></trkpt><trkpt lat="43.3929833" lon="11.7177033"><ele>417.59999999999997</ele><time>2026-03-22T08:09:07.258Z</time></trkpt><trkpt lat="43.3929167" lon="11.7177183"><ele>418.0</ele><time>2026-03-22T08:09:08.258Z</time></trkpt><trkpt lat="43.39284" lon="11.7177433"><ele>418.0</ele><time>2026-03-22T08:09:09.259Z</time></trkpt><trkpt lat="43.392765" lon="11.7177667"><ele>418.0</ele><time>2026-03-22T08:09:10.26Z</time></trkpt><trkpt lat="43.3926967" lon="11.7177833"><ele>418.0</ele><time>2026-03-22T08:09:11.259Z</time></trkpt><trkpt lat="43.3925867" lon="11.7178233"><ele>418.0</ele><time>2026-03-22T08:09:13.26Z</time></trkpt><trkpt lat="43.3924867" lon="11.7178467"><ele>418.0</ele><time>2026-03-22T08:09:15.26Z</time></trkpt><trkpt lat="43.3923967" lon="11.7179"><ele>418.00000000000006</ele><time>2026-03-22T08:09:17.258Z</time></trkpt><trkpt lat="43.3923317" lon="11.71797"><ele>418.0</ele><time>2026-03-22T08:09:19.26Z</time></trkpt><trkpt lat="43.3923083" lon="11.71806"><ele>418.0</ele><time>2026-03-22T08:09:21.266Z</time></trkpt><trkpt lat="43.392295" lon="11.7181733"><ele>418.0</ele><time>2026-03-22T08:09:29.26Z</time></trkpt><trkpt lat="43.392175" lon="11.7181967"><ele>418.00000000000006</ele><time>2026-03-22T08:09:31.258Z</time></trkpt><trkpt lat="43.3921133" lon="11.7182183"><ele>418.0</ele><time>2026-03-22T08:09:32.259Z</time></trkpt><trkpt lat="43.3920433" lon="11.718235"><ele>417.33333333333337</ele><time>2026-03-22T08:09:33.263Z</time></trkpt><trkpt lat="43.3919733" lon="11.7182483"><ele>416.6666666666667</ele><time>2026-03-22T08:09:34.261Z</time></trkpt><trkpt lat="43.39191" lon="11.71826"><ele>416.0</ele><time>2026-03-22T08:09:35.258Z</time></trkpt><trkpt lat="43.39182" lon="11.718285"><ele>415.33333333333337</ele><time>2026-03-22T08:09:37.261Z</time></trkpt><trkpt lat="43.39176" lon="11.718355"><ele>414.6666666666667</ele><time>2026-03-22T08:09:41.261Z</time></trkpt><trkpt lat="43.3917583" lon="11.71849"><ele>414.0</ele><time>2026-03-22T08:09:44.259Z</time></trkpt><trkpt lat="43.3918067" lon="11.7186067"><ele>414.0</ele><time>2026-03-22T08:09:46.26Z</time></trkpt><trkpt lat="43.3918167" lon="11.7187117"><ele>414.0</ele><time>2026-03-22T08:09:48.26Z</time></trkpt><trkpt lat="43.3917933" lon="11.718865"><ele>414.0</ele><time>2026-03-22T08:09:50.262Z</time></trkpt><trkpt lat="43.3917517" lon="11.7189483"><ele>414.0</ele><time>2026-03-22T08:09:51.263Z</time></trkpt><trkpt lat="43.3917133" lon="11.71902"><ele>414.0</ele><time>2026-03-22T08:09:52.261Z</time></trkpt><trkpt lat="43.3916533" lon="11.7191567"><ele>414.0</ele><time>2026-03-22T08:09:54.259Z</time></trkpt><trkpt lat="43.3916183" lon="11.7192783"><ele>414.0</ele><time>2026-03-22T08:09:56.258Z</time></trkpt><trkpt lat="43.3915717" lon="11.7193733"><ele>414.0</ele><time>2026-03-22T08:09:58.26Z</time></trkpt><trkpt lat="43.3915217" lon="11.7194417"><ele>414.0</ele><time>2026-03-22T08:10:00.258Z</time></trkpt><trkpt lat="43.3914117" lon="11.719505"><ele>414.0</ele><time>2026-03-22T08:10:02.26Z</time></trkpt><trkpt lat="43.39132" lon="11.7195517"><ele>414.0</ele><time>2026-03-22T08:10:03.259Z</time></trkpt><trkpt lat="43.3912033" lon="11.7196117"><ele>412.4</ele><time>2026-03-22T08:10:04.258Z</time></trkpt><trkpt lat="43.3910967" lon="11.71966"><ele>410.79999999999995</ele><time>2026-03-22T08:10:05.26Z</time></trkpt><trkpt lat="43.3910033" lon="11.7197"><ele>409.20000000000005</ele><time>2026-03-22T08:10:06.26Z</time></trkpt><trkpt lat="43.3909233" lon="11.719745"><ele>407.6</ele><time>2026-03-22T08:10:07.263Z</time></trkpt><trkpt lat="43.3908567" lon="11.71977"><ele>406.0</ele><time>2026-03-22T08:10:08.257Z</time></trkpt><trkpt lat="43.39075" lon="11.7197867"><ele>406.0</ele><time>2026-03-22T08:10:10.26Z</time></trkpt><trkpt lat="43.39065" lon="11.7197317"><ele>406.0</ele><time>2026-03-22T08:10:12.265Z</time></trkpt><trkpt lat="43.3905683" lon="11.7196233"><ele>406.0</ele><time>2026-03-22T08:10:14.261Z</time></trkpt><trkpt lat="43.3904933" lon="11.7194933"><ele>406.0</ele><time>2026-03-22T08:10:16.259Z</time></trkpt><trkpt lat="43.3904517" lon="11.7194083"><ele>406.0</ele><time>2026-03-22T08:10:17.259Z</time></trkpt><trkpt lat="43.3904033" lon="11.719305"><ele>407.33333333333337</ele><time>2026-03-22T08:10:18.261Z</time></trkpt><trkpt lat="43.3903483" lon="11.7191983"><ele>408.6666666666667</ele><time>2026-03-22T08:10:19.259Z</time></trkpt><trkpt lat="43.3903" lon="11.7191067"><ele>410.0</ele><time>2026-03-22T08:10:20.266Z</time></trkpt><trkpt lat="43.3902517" lon="11.71901"><ele>411.33333333333337</ele><time>2026-03-22T08:10:21.261Z</time></trkpt><trkpt lat="43.3902" lon="11.7189133"><ele>412.6666666666667</ele><time>2026-03-22T08:10:22.265Z</time></trkpt><trkpt lat="43.3901583" lon="11.718835"><ele>414.0</ele><time>2026-03-22T08:10:23.262Z</time></trkpt><trkpt lat="43.3901067" lon="11.7187"><ele>414.0</ele><time>2026-03-22T08:10:25.26Z</time></trkpt><trkpt lat="43.3901217" lon="11.71859"><ele>414.0</ele><time>2026-03-22T08:10:27.261Z</time></trkpt><trkpt lat="43.3901833" lon="11.718475"><ele>414.0</ele><time>2026-03-22T08:10:29.261Z</time></trkpt><trkpt lat="43.390205" lon="11.7183367"><ele>414.0</ele><time>2026-03-22T08:10:31.258Z</time></trkpt><trkpt lat="43.3901967" lon="11.7182417"><ele>414.0</ele><time>2026-03-22T08:10:32.26Z</time></trkpt><trkpt lat="43.3901867" lon="11.7181283"><ele>414.0</ele><time>2026-03-22T08:10:33.259Z</time></trkpt><trkpt lat="43.3901717" lon="11.7180117"><ele>414.79999999999995</ele><time>2026-03-22T08:10:34.262Z</time></trkpt><trkpt lat="43.390155" lon="11.7179117"><ele>415.59999999999997</ele><time>2026-03-22T08:10:35.259Z</time></trkpt><trkpt lat="43.390135" lon="11.717825"><ele>416.4</ele><time>2026-03-22T08:10:36.26Z</time></trkpt><trkpt lat="43.390145" lon="11.7176867"><ele>417.2</ele><time>2026-03-22T08:10:38.26Z</time></trkpt><trkpt lat="43.3902433" lon="11.71759"><ele>418.0</ele><time>2026-03-22T08:10:40.261Z</time></trkpt><trkpt lat="43.390355" lon="11.717545"><ele>418.4</ele><time>2026-03-22T08:10:42.261Z</time></trkpt><trkpt lat="43.3904767" lon="11.7175517"><ele>418.79999999999995</ele><time>2026-03-22T08:10:44.259Z</time></trkpt><trkpt lat="43.3905983" lon="11.7175483"><ele>419.2</ele><time>2026-03-22T08:10:46.259Z</time></trkpt><trkpt lat="43.39068" lon="11.7175467"><ele>419.6</ele><time>2026-03-22T08:10:47.265Z</time></trkpt><trkpt lat="43.3907633" lon="11.7175333"><ele>420.0</ele><time>2026-03-22T08:10:48.261Z</time></trkpt><trkpt lat="43.3908383" lon="11.717515"><ele>420.8333333333333</ele><time>2026-03-22T08:10:49.264Z</time></trkpt><trkpt lat="43.3909117" lon="11.71749"><ele>421.66666666666663</ele><time>2026-03-22T08:10:50.259Z</time></trkpt><trkpt lat="43.390995" lon="11.7174383"><ele>422.5</ele><time>2026-03-22T08:10:51.263Z</time></trkpt><trkpt lat="43.3910683" lon="11.717375"><ele>423.3333333333333</ele><time>2026-03-22T08:10:52.263Z</time></trkpt><trkpt lat="43.3911317" lon="11.7173167"><ele>424.16666666666663</ele><time>2026-03-22T08:10:53.258Z</time></trkpt><trkpt lat="43.3911933" lon="11.7172667"><ele>425.0</ele><time>2026-03-22T08:10:54.259Z</time></trkpt><trkpt lat="43.3912533" lon="11.7172267"><ele>425.0</ele><time>2026-03-22T08:10:55.258Z</time></trkpt><trkpt lat="43.3913383" lon="11.7171383"><ele>425.0</ele><time>2026-03-22T08:10:57.261Z</time></trkpt><trkpt lat="43.3913883" lon="11.7170533"><ele>425.0</ele><time>2026-03-22T08:10:59.261Z</time></trkpt><trkpt lat="43.39147" lon="11.7170167"><ele>425.0</ele><time>2026-03-22T08:11:01.259Z</time></trkpt><trkpt lat="43.39159" lon="11.7169467"><ele>425.0</ele><time>2026-03-22T08:11:03.261Z</time></trkpt><trkpt lat="43.3916533" lon="11.7168967"><ele>424.8333333333333</ele><time>2026-03-22T08:11:04.258Z</time></trkpt><trkpt lat="43.391715" lon="11.7168367"><ele>424.66666666666663</ele><time>2026-03-22T08:11:05.258Z</time></trkpt><trkpt lat="43.39178" lon="11.7167817"><ele>424.5</ele><time>2026-03-22T08:11:06.258Z</time></trkpt><trkpt lat="43.391845" lon="11.7167333"><ele>424.33333333333337</ele><time>2026-03-22T08:11:07.259Z</time></trkpt><trkpt lat="43.3919033" lon="11.7166883"><ele>424.1666666666667</ele><time>2026-03-22T08:11:08.258Z</time></trkpt><trkpt lat="43.392005" lon="11.7166483"><ele>424.0</ele><time>2026-03-22T08:11:10.261Z</time></trkpt><trkpt lat="43.3921083" lon="11.7167217"><ele>425.33333333333337</ele><time>2026-03-22T08:11:12.258Z</time></trkpt><trkpt lat="43.39218" lon="11.716765"><ele>426.6666666666667</ele><time>2026-03-22T08:11:14.262Z</time></trkpt><trkpt lat="43.3922417" lon="11.7167367"><ele>428.0</ele><time>2026-03-22T08:11:16.259Z</time></trkpt><trkpt lat="43.3923033" lon="11.7165883"><ele>429.33333333333337</ele><time>2026-03-22T08:11:18.261Z</time></trkpt><trkpt lat="43.392335" lon="11.71649"><ele>430.6666666666667</ele><time>2026-03-22T08:11:19.264Z</time></trkpt><trkpt lat="43.3923717" lon="11.7163867"><ele>432.0</ele><time>2026-03-22T08:11:20.259Z</time></trkpt><trkpt lat="43.3924167" lon="11.71629"><ele>432.0</ele><time>2026-03-22T08:11:21.26Z</time></trkpt><trkpt lat="43.39247" lon="11.7162"><ele>432.0</ele><time>2026-03-22T08:11:22.261Z</time></trkpt><trkpt lat="43.3925333" lon="11.716125"><ele>432.0</ele><time>2026-03-22T08:11:23.266Z</time></trkpt><trkpt lat="43.3926033" lon="11.716045"><ele>432.0</ele><time>2026-03-22T08:11:24.26Z</time></trkpt><trkpt lat="43.3926683" lon="11.7159617"><ele>432.0</ele><time>2026-03-22T08:11:25.266Z</time></trkpt><trkpt lat="43.3927233" lon="11.7158733"><ele>432.0</ele><time>2026-03-22T08:11:26.26Z</time></trkpt><trkpt lat="43.3927617" lon="11.7157683"><ele>431.0</ele><time>2026-03-22T08:11:27.263Z</time></trkpt><trkpt lat="43.392785" lon="11.7156483"><ele>430.00000000000006</ele><time>2026-03-22T08:11:28.258Z</time></trkpt><trkpt lat="43.392795" lon="11.7155233"><ele>429.00000000000006</ele><time>2026-03-22T08:11:29.265Z</time></trkpt><trkpt lat="43.39279" lon="11.715385"><ele>428.0</ele><time>2026-03-22T08:11:30.258Z</time></trkpt><trkpt lat="43.3927683" lon="11.7152383"><ele>427.0</ele><time>2026-03-22T08:11:31.258Z</time></trkpt><trkpt lat="43.3927467" lon="11.7150933"><ele>427.00000000000006</ele><time>2026-03-22T08:11:32.259Z</time></trkpt><trkpt lat="43.3927267" lon="11.71496"><ele>427.0</ele><time>2026-03-22T08:11:33.262Z</time></trkpt><trkpt lat="43.3927167" lon="11.7148433"><ele>427.0</ele><time>2026-03-22T08:11:34.26Z</time></trkpt><trkpt lat="43.3927183" lon="11.7147333"><ele>427.0</ele><time>2026-03-22T08:11:35.259Z</time></trkpt><trkpt lat="43.3927367" lon="11.714625"><ele>427.00000000000006</ele><time>2026-03-22T08:11:36.259Z</time></trkpt><trkpt lat="43.3927533" lon="11.7145283"><ele>427.0</ele><time>2026-03-22T08:11:37.259Z</time></trkpt><trkpt lat="43.392765" lon="11.71444"><ele>427.40000000000003</ele><time>2026-03-22T08:11:38.264Z</time></trkpt><trkpt lat="43.3927783" lon="11.7143383"><ele>427.80000000000007</ele><time>2026-03-22T08:11:39.262Z</time></trkpt><trkpt lat="43.39278" lon="11.714215"><ele>428.2</ele><time>2026-03-22T08:11:41.259Z</time></trkpt><trkpt lat="43.3927517" lon="11.71409"><ele>428.6</ele><time>2026-03-22T08:11:44.261Z</time></trkpt><trkpt lat="43.39269" lon="11.7139867"><ele>429.0</ele><time>2026-03-22T08:11:46.259Z</time></trkpt><trkpt lat="43.3926117" lon="11.7138767"><ele>429.0</ele><time>2026-03-22T08:11:48.261Z</time></trkpt><trkpt lat="43.3925433" lon="11.7138033"><ele>429.0</ele><time>2026-03-22T08:11:50.259Z</time></trkpt><trkpt lat="43.3924867" lon="11.7137567"><ele>429.0</ele><time>2026-03-22T08:11:53.259Z</time></trkpt><trkpt lat="43.3924167" lon="11.7136817"><ele>429.0</ele><time>2026-03-22T08:12:04.259Z</time></trkpt><trkpt lat="43.3923283" lon="11.713585"><ele>429.0</ele><time>2026-03-22T08:12:06.263Z</time></trkpt><trkpt lat="43.39224" lon="11.713475"><ele>429.2</ele><time>2026-03-22T08:12:08.258Z</time></trkpt><trkpt lat="43.392155" lon="11.7133617"><ele>429.4</ele><time>2026-03-22T08:12:10.262Z</time></trkpt><trkpt lat="43.392075" lon="11.713235"><ele>429.6</ele><time>2026-03-22T08:12:12.265Z</time></trkpt><trkpt lat="43.3919983" lon="11.7131083"><ele>429.8</ele><time>2026-03-22T08:12:14.26Z</time></trkpt><trkpt lat="43.39195" lon="11.71304"><ele>430.0</ele><time>2026-03-22T08:12:15.261Z</time></trkpt><trkpt lat="43.3918983" lon="11.7129733"><ele>430.0</ele><time>2026-03-22T08:12:16.261Z</time></trkpt><trkpt lat="43.39185" lon="11.712905"><ele>430.0</ele><time>2026-03-22T08:12:17.261Z</time></trkpt><trkpt lat="43.3918017" lon="11.7128383"><ele>430.0</ele><time>2026-03-22T08:12:18.261Z</time></trkpt><trkpt lat="43.3917517" lon="11.7127767"><ele>430.0</ele><time>2026-03-22T08:12:19.262Z</time></trkpt><trkpt lat="43.391705" lon="11.7127083"><ele>430.0</ele><time>2026-03-22T08:12:20.26Z</time></trkpt><trkpt lat="43.3916533" lon="11.7126417"><ele>430.0</ele><time>2026-03-22T08:12:21.264Z</time></trkpt><trkpt lat="43.3916017" lon="11.71258"><ele>430.0</ele><time>2026-03-22T08:12:22.258Z</time></trkpt><trkpt lat="43.3915433" lon="11.71252"><ele>430.00000000000006</ele><time>2026-03-22T08:12:23.259Z</time></trkpt><trkpt lat="43.39148" lon="11.71246"><ele>430.0</ele><time>2026-03-22T08:12:24.26Z</time></trkpt><trkpt lat="43.3914117" lon="11.7123933"><ele>430.0</ele><time>2026-03-22T08:12:25.258Z</time></trkpt><trkpt lat="43.3913433" lon="11.712325"><ele>430.0</ele><time>2026-03-22T08:12:26.258Z</time></trkpt><trkpt lat="43.39127" lon="11.7122667"><ele>430.00000000000006</ele><time>2026-03-22T08:12:27.26Z</time></trkpt><trkpt lat="43.3911983" lon="11.712215"><ele>430.0</ele><time>2026-03-22T08:12:28.259Z</time></trkpt><trkpt lat="43.3911317" lon="11.7121683"><ele>429.6666666666667</ele><time>2026-03-22T08:12:29.258Z</time></trkpt><trkpt lat="43.3910617" lon="11.71213"><ele>429.33333333333337</ele><time>2026-03-22T08:12:30.257Z</time></trkpt><trkpt lat="43.391" lon="11.7120883"><ele>429.0</ele><time>2026-03-22T08:12:31.258Z</time></trkpt><trkpt lat="43.390935" lon="11.712035"><ele>428.66666666666663</ele><time>2026-03-22T08:12:32.259Z</time></trkpt><trkpt lat="43.3908717" lon="11.7119783"><ele>428.3333333333333</ele><time>2026-03-22T08:12:33.258Z</time></trkpt><trkpt lat="43.3908" lon="11.71192"><ele>428.0</ele><time>2026-03-22T08:12:34.258Z</time></trkpt><trkpt lat="43.39073" lon="11.7118617"><ele>427.8333333333333</ele><time>2026-03-22T08:12:35.259Z</time></trkpt><trkpt lat="43.3906583" lon="11.7117983"><ele>427.66666666666663</ele><time>2026-03-22T08:12:36.262Z</time></trkpt><trkpt lat="43.3905867" lon="11.7117383"><ele>427.5</ele><time>2026-03-22T08:12:37.26Z</time></trkpt><trkpt lat="43.3905067" lon="11.7116833"><ele>427.33333333333337</ele><time>2026-03-22T08:12:38.264Z</time></trkpt><trkpt lat="43.390425" lon="11.7116417"><ele>427.1666666666667</ele><time>2026-03-22T08:12:39.26Z</time></trkpt><trkpt lat="43.3903417" lon="11.7116267"><ele>427.0</ele><time>2026-03-22T08:12:40.258Z</time></trkpt><trkpt lat="43.390255" lon="11.7116367"><ele>426.40000000000003</ele><time>2026-03-22T08:12:41.258Z</time></trkpt><trkpt lat="43.3901717" lon="11.7116617"><ele>425.80000000000007</ele><time>2026-03-22T08:12:42.259Z</time></trkpt><trkpt lat="43.39009" lon="11.71168"><ele>425.2</ele><time>2026-03-22T08:12:43.261Z</time></trkpt><trkpt lat="43.3899983" lon="11.7116833"><ele>424.6</ele><time>2026-03-22T08:12:44.263Z</time></trkpt><trkpt lat="43.3899017" lon="11.7116633"><ele>424.0</ele><time>2026-03-22T08:12:45.259Z</time></trkpt><trkpt lat="43.38981" lon="11.71163"><ele>424.0</ele><time>2026-03-22T08:12:46.258Z</time></trkpt><trkpt lat="43.38972" lon="11.7115817"><ele>424.0</ele><time>2026-03-22T08:12:47.258Z</time></trkpt><trkpt lat="43.3896317" lon="11.7115233"><ele>424.0</ele><time>2026-03-22T08:12:48.26Z</time></trkpt><trkpt lat="43.3895417" lon="11.711455"><ele>424.0</ele><time>2026-03-22T08:12:49.262Z</time></trkpt><trkpt lat="43.3894483" lon="11.7113933"><ele>424.0</ele><time>2026-03-22T08:12:50.26Z</time></trkpt><trkpt lat="43.3893667" lon="11.711335"><ele>425.0</ele><time>2026-03-22T08:12:51.268Z</time></trkpt><trkpt lat="43.3892867" lon="11.71127"><ele>426.0</ele><time>2026-03-22T08:12:52.258Z</time></trkpt><trkpt lat="43.3892117" lon="11.7111933"><ele>427.0</ele><time>2026-03-22T08:12:53.258Z</time></trkpt><trkpt lat="43.3891383" lon="11.711115"><ele>428.0</ele><time>2026-03-22T08:12:54.262Z</time></trkpt><trkpt lat="43.3890667" lon="11.7110317"><ele>429.0</ele><time>2026-03-22T08:12:55.261Z</time></trkpt><trkpt lat="43.3889967" lon="11.7109567"><ele>429.0</ele><time>2026-03-22T08:12:56.26Z</time></trkpt><trkpt lat="43.38893" lon="11.710885"><ele>429.0</ele><time>2026-03-22T08:12:57.262Z</time></trkpt><trkpt lat="43.388865" lon="11.7108117"><ele>429.0</ele><time>2026-03-22T08:12:58.259Z</time></trkpt><trkpt lat="43.3888017" lon="11.71074"><ele>429.0</ele><time>2026-03-22T08:12:59.258Z</time></trkpt><trkpt lat="43.38874" lon="11.710675"><ele>429.0</ele><time>2026-03-22T08:13:00.259Z</time></trkpt><trkpt lat="43.3886867" lon="11.7106183"><ele>429.0</ele><time>2026-03-22T08:13:01.264Z</time></trkpt><trkpt lat="43.38863" lon="11.7104817"><ele>427.3333333333333</ele><time>2026-03-22T08:13:03.259Z</time></trkpt><trkpt lat="43.388615" lon="11.710375"><ele>425.66666666666663</ele><time>2026-03-22T08:13:04.259Z</time></trkpt><trkpt lat="43.38858" lon="11.7102733"><ele>424.0</ele><time>2026-03-22T08:13:05.26Z</time></trkpt><trkpt lat="43.3885267" lon="11.7101833"><ele>422.3333333333333</ele><time>2026-03-22T08:13:06.26Z</time></trkpt><trkpt lat="43.388455" lon="11.7101067"><ele>420.66666666666663</ele><time>2026-03-22T08:13:07.26Z</time></trkpt><trkpt lat="43.3883817" lon="11.7100283"><ele>419.0</ele><time>2026-03-22T08:13:08.258Z</time></trkpt><trkpt lat="43.3883183" lon="11.709935"><ele>419.0</ele><time>2026-03-22T08:13:09.26Z</time></trkpt><trkpt lat="43.3882633" lon="11.7098317"><ele>419.0</ele><time>2026-03-22T08:13:10.263Z</time></trkpt><trkpt lat="43.3882033" lon="11.7097283"><ele>419.0</ele><time>2026-03-22T08:13:11.261Z</time></trkpt><trkpt lat="43.3881333" lon="11.7096433"><ele>419.0</ele><time>2026-03-22T08:13:12.26Z</time></trkpt><trkpt lat="43.38805" lon="11.70958"><ele>419.0</ele><time>2026-03-22T08:13:13.258Z</time></trkpt><trkpt lat="43.38797" lon="11.7095317"><ele>417.49999999999994</ele><time>2026-03-22T08:13:14.259Z</time></trkpt><trkpt lat="43.3878867" lon="11.70949"><ele>416.0</ele><time>2026-03-22T08:13:15.265Z</time></trkpt><trkpt lat="43.387805" lon="11.70945"><ele>414.5</ele><time>2026-03-22T08:13:16.261Z</time></trkpt><trkpt lat="43.3877167" lon="11.7094233"><ele>413.0</ele><time>2026-03-22T08:13:17.26Z</time></trkpt><trkpt lat="43.38763" lon="11.70941"><ele>411.49999999999994</ele><time>2026-03-22T08:13:18.261Z</time></trkpt><trkpt lat="43.38754" lon="11.7094117"><ele>410.0</ele><time>2026-03-22T08:13:19.258Z</time></trkpt><trkpt lat="43.387445" lon="11.7094233"><ele>410.0</ele><time>2026-03-22T08:13:20.26Z</time></trkpt><trkpt lat="43.3873367" lon="11.7094417"><ele>410.0</ele><time>2026-03-22T08:13:21.261Z</time></trkpt><trkpt lat="43.3872317" lon="11.7094533"><ele>410.0</ele><time>2026-03-22T08:13:22.26Z</time></trkpt><trkpt lat="43.3871217" lon="11.70946"><ele>410.0</ele><time>2026-03-22T08:13:23.262Z</time></trkpt><trkpt lat="43.38701" lon="11.7094533"><ele>410.0</ele><time>2026-03-22T08:13:24.261Z</time></trkpt><trkpt lat="43.3868967" lon="11.7094317"><ele>411.5</ele><time>2026-03-22T08:13:25.264Z</time></trkpt><trkpt lat="43.38678" lon="11.70939"><ele>413.0</ele><time>2026-03-22T08:13:26.256Z</time></trkpt><trkpt lat="43.38666" lon="11.7093267"><ele>414.5</ele><time>2026-03-22T08:13:27.262Z</time></trkpt><trkpt lat="43.386535" lon="11.7092583"><ele>416.0</ele><time>2026-03-22T08:13:28.259Z</time></trkpt><trkpt lat="43.3863967" lon="11.709195"><ele>416.25</ele><time>2026-03-22T08:13:29.255Z</time></trkpt><trkpt lat="43.3862633" lon="11.7091417"><ele>416.5</ele><time>2026-03-22T08:13:30.255Z</time></trkpt><trkpt lat="43.386135" lon="11.7090883"><ele>416.75</ele><time>2026-03-22T08:13:31.258Z</time></trkpt><trkpt lat="43.3860183" lon="11.7090383"><ele>417.0</ele><time>2026-03-22T08:13:32.256Z</time></trkpt><trkpt lat="43.38591" lon="11.7089883"><ele>417.0</ele><time>2026-03-22T08:13:33.257Z</time></trkpt><trkpt lat="43.38582" lon="11.7089283"><ele>417.0</ele><time>2026-03-22T08:13:34.256Z</time></trkpt><trkpt lat="43.3857283" lon="11.708865"><ele>417.0</ele><time>2026-03-22T08:13:35.258Z</time></trkpt><trkpt lat="43.385635" lon="11.7088067"><ele>417.0</ele><time>2026-03-22T08:13:36.257Z</time></trkpt><trkpt lat="43.3855467" lon="11.7087533"><ele>417.0</ele><time>2026-03-22T08:13:37.257Z</time></trkpt><trkpt lat="43.3854583" lon="11.7087133"><ele>417.0</ele><time>2026-03-22T08:13:38.256Z</time></trkpt><trkpt lat="43.3853633" lon="11.7086867"><ele>417.0</ele><time>2026-03-22T08:13:39.256Z</time></trkpt><trkpt lat="43.3852683" lon="11.7086767"><ele>417.0</ele><time>2026-03-22T08:13:40.259Z</time></trkpt><trkpt lat="43.3851683" lon="11.7086783"><ele>417.0</ele><time>2026-03-22T08:13:41.258Z</time></trkpt><trkpt lat="43.3850733" lon="11.708695"><ele>417.0</ele><time>2026-03-22T08:13:42.258Z</time></trkpt><trkpt lat="43.384975" lon="11.7087217"><ele>417.0</ele><time>2026-03-22T08:13:43.258Z</time></trkpt><trkpt lat="43.384885" lon="11.708755"><ele>417.0</ele><time>2026-03-22T08:13:44.259Z</time></trkpt><trkpt lat="43.3848" lon="11.70879"><ele>417.0</ele><time>2026-03-22T08:13:45.259Z</time></trkpt><trkpt lat="43.3847267" lon="11.7088183"><ele>417.0</ele><time>2026-03-22T08:13:46.259Z</time></trkpt><trkpt lat="43.3846567" lon="11.7088317"><ele>417.0</ele><time>2026-03-22T08:13:47.258Z</time></trkpt><trkpt lat="43.3845883" lon="11.7088217"><ele>417.0</ele><time>2026-03-22T08:13:48.259Z</time></trkpt><trkpt lat="43.38452" lon="11.7087867"><ele>416.5</ele><time>2026-03-22T08:13:49.26Z</time></trkpt><trkpt lat="43.3844533" lon="11.708735"><ele>416.0</ele><time>2026-03-22T08:13:50.26Z</time></trkpt><trkpt lat="43.38439" lon="11.7086867"><ele>415.5</ele><time>2026-03-22T08:13:51.258Z</time></trkpt><trkpt lat="43.38433" lon="11.70864"><ele>415.0</ele><time>2026-03-22T08:13:52.256Z</time></trkpt><trkpt lat="43.3842717" lon="11.708595"><ele>414.5</ele><time>2026-03-22T08:13:53.258Z</time></trkpt><trkpt lat="43.3841917" lon="11.7085"><ele>414.0</ele><time>2026-03-22T08:13:55.257Z</time></trkpt><trkpt lat="43.384155" lon="11.7083883"><ele>414.4</ele><time>2026-03-22T08:13:57.26Z</time></trkpt><trkpt lat="43.3841617" lon="11.7082467"><ele>414.79999999999995</ele><time>2026-03-22T08:13:59.257Z</time></trkpt><trkpt lat="43.3841867" lon="11.7080917"><ele>415.20000000000005</ele><time>2026-03-22T08:14:01.258Z</time></trkpt><trkpt lat="43.3842033" lon="11.70796"><ele>415.6</ele><time>2026-03-22T08:14:03.26Z</time></trkpt><trkpt lat="43.384225" lon="11.70785"><ele>416.0</ele><time>2026-03-22T08:14:05.26Z</time></trkpt><trkpt lat="43.38426" lon="11.7077267"><ele>416.0</ele><time>2026-03-22T08:14:07.264Z</time></trkpt><trkpt lat="43.3843117" lon="11.707595"><ele>416.0</ele><time>2026-03-22T08:14:09.263Z</time></trkpt><trkpt lat="43.3844017" lon="11.7075233"><ele>416.0</ele><time>2026-03-22T08:14:11.259Z</time></trkpt><trkpt lat="43.3844983" lon="11.7075067"><ele>416.0</ele><time>2026-03-22T08:14:13.257Z</time></trkpt><trkpt lat="43.3845233" lon="11.70742"><ele>416.0</ele><time>2026-03-22T08:14:15.259Z</time></trkpt><trkpt lat="43.3844717" lon="11.707325"><ele>415.99999999999994</ele><time>2026-03-22T08:14:17.262Z</time></trkpt><trkpt lat="43.3843983" lon="11.707275"><ele>416.0</ele><time>2026-03-22T08:14:19.259Z</time></trkpt><trkpt lat="43.3843217" lon="11.7072283"><ele>416.0</ele><time>2026-03-22T08:14:21.26Z</time></trkpt><trkpt lat="43.3842383" lon="11.7072167"><ele>416.0</ele><time>2026-03-22T08:14:23.258Z</time></trkpt><trkpt lat="43.3841433" lon="11.7072733"><ele>415.99999999999994</ele><time>2026-03-22T08:14:25.261Z</time></trkpt><trkpt lat="43.38407" lon="11.7072933"><ele>416.0</ele><time>2026-03-22T08:14:27.259Z</time></trkpt><trkpt lat="43.3840667" lon="11.707195"><ele>416.0</ele><time>2026-03-22T08:14:29.259Z</time></trkpt><trkpt lat="43.38413" lon="11.707105"><ele>416.0</ele><time>2026-03-22T08:14:31.259Z</time></trkpt><trkpt lat="43.3841867" lon="11.707"><ele>416.0</ele><time>2026-03-22T08:14:33.259Z</time></trkpt><trkpt lat="43.38426" lon="11.706925"><ele>416.0</ele><time>2026-03-22T08:14:35.26Z</time></trkpt><trkpt lat="43.3843383" lon="11.706875"><ele>416.0</ele><time>2026-03-22T08:14:37.259Z</time></trkpt><trkpt lat="43.3844267" lon="11.70682"><ele>412.49999999999994</ele><time>2026-03-22T08:14:39.262Z</time></trkpt><trkpt lat="43.3845267" lon="11.7067567"><ele>409.0</ele><time>2026-03-22T08:14:41.259Z</time></trkpt><trkpt lat="43.3846117" lon="11.70672"><ele>405.5</ele><time>2026-03-22T08:14:43.256Z</time></trkpt><trkpt lat="43.38469" lon="11.7066933"><ele>402.0</ele><time>2026-03-22T08:14:45.258Z</time></trkpt><trkpt lat="43.3847383" lon="11.7066083"><ele>398.49999999999994</ele><time>2026-03-22T08:14:47.259Z</time></trkpt><trkpt lat="43.3847333" lon="11.7064867"><ele>395.0</ele><time>2026-03-22T08:14:49.257Z</time></trkpt><trkpt lat="43.3847267" lon="11.7063633"><ele>393.8333333333333</ele><time>2026-03-22T08:14:51.263Z</time></trkpt><trkpt lat="43.3847567" lon="11.706255"><ele>392.66666666666663</ele><time>2026-03-22T08:14:53.26Z</time></trkpt><trkpt lat="43.3848183" lon="11.7061817"><ele>391.5</ele><time>2026-03-22T08:14:55.26Z</time></trkpt><trkpt lat="43.3848567" lon="11.7060683"><ele>390.33333333333337</ele><time>2026-03-22T08:14:57.258Z</time></trkpt><trkpt lat="43.3848" lon="11.7059633"><ele>389.1666666666667</ele><time>2026-03-22T08:14:59.259Z</time></trkpt><trkpt lat="43.3847217" lon="11.705885"><ele>388.0</ele><time>2026-03-22T08:15:01.262Z</time></trkpt><trkpt lat="43.3847117" lon="11.705765"><ele>385.59999999999997</ele><time>2026-03-22T08:15:03.263Z</time></trkpt><trkpt lat="43.3847817" lon="11.7056733"><ele>383.2</ele><time>2026-03-22T08:15:05.258Z</time></trkpt><trkpt lat="43.38488" lon="11.7056883"><ele>380.8</ele><time>2026-03-22T08:15:07.261Z</time></trkpt><trkpt lat="43.3849633" lon="11.7056433"><ele>378.4</ele><time>2026-03-22T08:15:09.261Z</time></trkpt><trkpt lat="43.3849667" lon="11.705505"><ele>376.0</ele><time>2026-03-22T08:15:11.26Z</time></trkpt><trkpt lat="43.3849033" lon="11.70536"><ele>374.16666666666663</ele><time>2026-03-22T08:15:13.261Z</time></trkpt><trkpt lat="43.3848483" lon="11.7052417"><ele>372.3333333333333</ele><time>2026-03-22T08:15:15.259Z</time></trkpt><trkpt lat="43.38484" lon="11.7051317"><ele>370.5</ele><time>2026-03-22T08:15:17.257Z</time></trkpt><trkpt lat="43.3848983" lon="11.7050683"><ele>368.6666666666667</ele><time>2026-03-22T08:15:19.259Z</time></trkpt><trkpt lat="43.38498" lon="11.7050633"><ele>366.83333333333337</ele><time>2026-03-22T08:15:21.261Z</time></trkpt><trkpt lat="43.3850417" lon="11.705025"><ele>365.0</ele><time>2026-03-22T08:15:23.264Z</time></trkpt><trkpt lat="43.3850867" lon="11.7049567"><ele>365.0</ele><time>2026-03-22T08:15:25.26Z</time></trkpt><trkpt lat="43.3851317" lon="11.7048667"><ele>365.0</ele><time>2026-03-22T08:15:27.262Z</time></trkpt><trkpt lat="43.385175" lon="11.704775"><ele>365.0</ele><time>2026-03-22T08:15:29.26Z</time></trkpt><trkpt lat="43.385205" lon="11.7046883"><ele>365.0</ele><time>2026-03-22T08:15:31.258Z</time></trkpt><trkpt lat="43.3852533" lon="11.70455"><ele>365.0</ele><time>2026-03-22T08:15:34.259Z</time></trkpt><trkpt lat="43.38529" lon="11.704425"><ele>365.0</ele><time>2026-03-22T08:15:36.259Z</time></trkpt><trkpt lat="43.385315" lon="11.7042867"><ele>361.4</ele><time>2026-03-22T08:15:38.259Z</time></trkpt><trkpt lat="43.3852967" lon="11.70414"><ele>357.8</ele><time>2026-03-22T08:15:40.261Z</time></trkpt><trkpt lat="43.385215" lon="11.704025"><ele>354.20000000000005</ele><time>2026-03-22T08:15:42.256Z</time></trkpt><trkpt lat="43.3851033" lon="11.703975"><ele>350.6</ele><time>2026-03-22T08:15:44.259Z</time></trkpt><trkpt lat="43.3850233" lon="11.7038967"><ele>347.0</ele><time>2026-03-22T08:15:46.258Z</time></trkpt><trkpt lat="43.38505" lon="11.70378"><ele>347.0</ele><time>2026-03-22T08:15:48.258Z</time></trkpt><trkpt lat="43.3851317" lon="11.70371"><ele>347.0</ele><time>2026-03-22T08:15:50.259Z</time></trkpt><trkpt lat="43.385215" lon="11.7037033"><ele>347.0</ele><time>2026-03-22T08:15:52.261Z</time></trkpt><trkpt lat="43.3853133" lon="11.7037317"><ele>347.0</ele><time>2026-03-22T08:15:54.26Z</time></trkpt><trkpt lat="43.3854033" lon="11.7037167"><ele>347.0</ele><time>2026-03-22T08:15:56.263Z</time></trkpt><trkpt lat="43.3854317" lon="11.7036317"><ele>347.0</ele><time>2026-03-22T08:15:58.26Z</time></trkpt><trkpt lat="43.385365" lon="11.7035533"><ele>344.33333333333337</ele><time>2026-03-22T08:16:00.258Z</time></trkpt><trkpt lat="43.3853133" lon="11.7034617"><ele>341.6666666666667</ele><time>2026-03-22T08:16:02.26Z</time></trkpt><trkpt lat="43.3852617" lon="11.70338"><ele>339.0</ele><time>2026-03-22T08:16:04.259Z</time></trkpt><trkpt lat="43.3852083" lon="11.7033183"><ele>336.3333333333333</ele><time>2026-03-22T08:16:06.258Z</time></trkpt><trkpt lat="43.3851617" lon="11.7032583"><ele>333.66666666666663</ele><time>2026-03-22T08:16:08.258Z</time></trkpt><trkpt lat="43.3850917" lon="11.703205"><ele>331.0</ele><time>2026-03-22T08:16:10.259Z</time></trkpt><trkpt lat="43.3850017" lon="11.703165"><ele>331.0</ele><time>2026-03-22T08:16:12.259Z</time></trkpt><trkpt lat="43.3849183" lon="11.7031567"><ele>331.0</ele><time>2026-03-22T08:16:14.257Z</time></trkpt><trkpt lat="43.38487" lon="11.703095"><ele>331.0</ele><time>2026-03-22T08:16:16.263Z</time></trkpt><trkpt lat="43.3848917" lon="11.7030033"><ele>331.0</ele><time>2026-03-22T08:16:18.258Z</time></trkpt><trkpt lat="43.38495" lon="11.702935"><ele>331.0</ele><time>2026-03-22T08:16:21.262Z</time></trkpt><trkpt lat="43.3850167" lon="11.7028933"><ele>331.0</ele><time>2026-03-22T08:16:24.261Z</time></trkpt><trkpt lat="43.38509" lon="11.7028633"><ele>331.0</ele><time>2026-03-22T08:16:26.263Z</time></trkpt><trkpt lat="43.38518" lon="11.702845"><ele>331.0</ele><time>2026-03-22T08:16:28.261Z</time></trkpt><trkpt lat="43.38526" lon="11.7028483"><ele>331.0</ele><time>2026-03-22T08:16:30.258Z</time></trkpt><trkpt lat="43.3853417" lon="11.7028617"><ele>331.0</ele><time>2026-03-22T08:16:32.258Z</time></trkpt><trkpt lat="43.3854267" lon="11.7028767"><ele>331.0</ele><time>2026-03-22T08:16:34.256Z</time></trkpt><trkpt lat="43.3855267" lon="11.7028667"><ele>331.0</ele><time>2026-03-22T08:16:36.26Z</time></trkpt><trkpt lat="43.38562" lon="11.7028917"><ele>331.0</ele><time>2026-03-22T08:16:38.26Z</time></trkpt><trkpt lat="43.38569" lon="11.702935"><ele>329.8333333333333</ele><time>2026-03-22T08:16:40.256Z</time></trkpt><trkpt lat="43.3857483" lon="11.7030267"><ele>328.66666666666663</ele><time>2026-03-22T08:16:50.261Z</time></trkpt><trkpt lat="43.3858167" lon="11.70306"><ele>327.5</ele><time>2026-03-22T08:16:52.262Z</time></trkpt><trkpt lat="43.3859083" lon="11.7030917"><ele>326.3333333333333</ele><time>2026-03-22T08:16:54.262Z</time></trkpt><trkpt lat="43.3859817" lon="11.7031217"><ele>325.1666666666667</ele><time>2026-03-22T08:16:56.262Z</time></trkpt><trkpt lat="43.386045" lon="11.7031417"><ele>324.0</ele><time>2026-03-22T08:17:00.259Z</time></trkpt><trkpt lat="43.386115" lon="11.7031617"><ele>324.0</ele><time>2026-03-22T08:17:17.263Z</time></trkpt><trkpt lat="43.386195" lon="11.7031783"><ele>324.0</ele><time>2026-03-22T08:17:20.263Z</time></trkpt><trkpt lat="43.3862867" lon="11.703245"><ele>324.0</ele><time>2026-03-22T08:17:48.258Z</time></trkpt><trkpt lat="43.38635" lon="11.7033283"><ele>324.0</ele><time>2026-03-22T08:17:50.258Z</time></trkpt><trkpt lat="43.3864517" lon="11.70338"><ele>324.0</ele><time>2026-03-22T08:17:52.259Z</time></trkpt><trkpt lat="43.3865183" lon="11.7033917"><ele>324.0</ele><time>2026-03-22T08:17:53.259Z</time></trkpt><trkpt lat="43.3866317" lon="11.70343"><ele>323.6</ele><time>2026-03-22T08:17:55.259Z</time></trkpt><trkpt lat="43.38672" lon="11.7034383"><ele>323.2</ele><time>2026-03-22T08:17:57.259Z</time></trkpt><trkpt lat="43.386815" lon="11.70343"><ele>322.8</ele><time>2026-03-22T08:18:00.262Z</time></trkpt><trkpt lat="43.3869533" lon="11.7034133"><ele>322.40000000000003</ele><time>2026-03-22T08:18:02.258Z</time></trkpt><trkpt lat="43.3870483" lon="11.7034033"><ele>322.0</ele><time>2026-03-22T08:18:03.26Z</time></trkpt><trkpt lat="43.3871333" lon="11.7033933"><ele>322.16666666666663</ele><time>2026-03-22T08:18:04.26Z</time></trkpt><trkpt lat="43.38721" lon="11.7033883"><ele>322.3333333333333</ele><time>2026-03-22T08:18:05.259Z</time></trkpt><trkpt lat="43.3872783" lon="11.70339"><ele>322.5</ele><time>2026-03-22T08:18:06.261Z</time></trkpt><trkpt lat="43.3873933" lon="11.7033867"><ele>322.6666666666667</ele><time>2026-03-22T08:18:08.258Z</time></trkpt><trkpt lat="43.3875033" lon="11.7033517"><ele>322.83333333333337</ele><time>2026-03-22T08:18:10.261Z</time></trkpt><trkpt lat="43.3875667" lon="11.7033383"><ele>323.0</ele><time>2026-03-22T08:18:11.257Z</time></trkpt><trkpt lat="43.3876733" lon="11.703345"><ele>323.0</ele><time>2026-03-22T08:18:13.261Z</time></trkpt><trkpt lat="43.3877583" lon="11.7034"><ele>323.0</ele><time>2026-03-22T08:18:15.261Z</time></trkpt><trkpt lat="43.3878283" lon="11.7034533"><ele>323.0</ele><time>2026-03-22T08:18:17.259Z</time></trkpt><trkpt lat="43.3879033" lon="11.7035217"><ele>323.0</ele><time>2026-03-22T08:18:19.257Z</time></trkpt><trkpt lat="43.38798" lon="11.7036017"><ele>323.0</ele><time>2026-03-22T08:18:21.258Z</time></trkpt><trkpt lat="43.3880533" lon="11.7036883"><ele>324.6666666666667</ele><time>2026-03-22T08:18:23.259Z</time></trkpt><trkpt lat="43.388155" lon="11.7037433"><ele>326.33333333333337</ele><time>2026-03-22T08:18:25.262Z</time></trkpt><trkpt lat="43.3882167" lon="11.7037633"><ele>328.0</ele><time>2026-03-22T08:18:26.26Z</time></trkpt><trkpt lat="43.388285" lon="11.7038"><ele>329.6666666666667</ele><time>2026-03-22T08:18:27.261Z</time></trkpt><trkpt lat="43.3883533" lon="11.70384"><ele>331.3333333333333</ele><time>2026-03-22T08:18:28.258Z</time></trkpt><trkpt lat="43.3884283" lon="11.7038883"><ele>333.0</ele><time>2026-03-22T08:18:29.268Z</time></trkpt><trkpt lat="43.3885017" lon="11.70393"><ele>333.0</ele><time>2026-03-22T08:18:30.256Z</time></trkpt><trkpt lat="43.38857" lon="11.703965"><ele>333.0</ele><time>2026-03-22T08:18:31.259Z</time></trkpt><trkpt lat="43.3886333" lon="11.7039917"><ele>333.0</ele><time>2026-03-22T08:18:32.26Z</time></trkpt><trkpt lat="43.38875" lon="11.70402"><ele>333.0</ele><time>2026-03-22T08:18:34.256Z</time></trkpt><trkpt lat="43.3888217" lon="11.7040333"><ele>333.0</ele><time>2026-03-22T08:18:35.259Z</time></trkpt><trkpt lat="43.3889033" lon="11.7040517"><ele>333.0</ele><time>2026-03-22T08:18:36.259Z</time></trkpt><trkpt lat="43.3889967" lon="11.7040583"><ele>332.2</ele><time>2026-03-22T08:18:37.258Z</time></trkpt><trkpt lat="43.3890867" lon="11.7040583"><ele>331.4</ele><time>2026-03-22T08:18:38.259Z</time></trkpt><trkpt lat="43.3891617" lon="11.7040583"><ele>330.59999999999997</ele><time>2026-03-22T08:18:39.258Z</time></trkpt><trkpt lat="43.3892717" lon="11.7040967"><ele>329.79999999999995</ele><time>2026-03-22T08:18:41.257Z</time></trkpt><trkpt lat="43.3893767" lon="11.7042083"><ele>329.0</ele><time>2026-03-22T08:18:43.259Z</time></trkpt><trkpt lat="43.3894333" lon="11.7042633"><ele>329.0</ele><time>2026-03-22T08:18:44.258Z</time></trkpt><trkpt lat="43.3895333" lon="11.7043183"><ele>329.0</ele><time>2026-03-22T08:18:46.257Z</time></trkpt><trkpt lat="43.38964" lon="11.70438"><ele>329.0</ele><time>2026-03-22T08:18:48.259Z</time></trkpt><trkpt lat="43.3897067" lon="11.7044233"><ele>329.0</ele><time>2026-03-22T08:18:49.26Z</time></trkpt><trkpt lat="43.389775" lon="11.7044733"><ele>329.0</ele><time>2026-03-22T08:18:50.26Z</time></trkpt><trkpt lat="43.3898483" lon="11.7045283"><ele>330.5</ele><time>2026-03-22T08:18:51.258Z</time></trkpt><trkpt lat="43.389925" lon="11.7045817"><ele>332.0</ele><time>2026-03-22T08:18:52.261Z</time></trkpt><trkpt lat="43.3899967" lon="11.7046333"><ele>333.5</ele><time>2026-03-22T08:18:53.256Z</time></trkpt><trkpt lat="43.3900583" lon="11.7046833"><ele>335.0</ele><time>2026-03-22T08:18:54.26Z</time></trkpt><trkpt lat="43.390115" lon="11.70473"><ele>336.5</ele><time>2026-03-22T08:18:55.262Z</time></trkpt><trkpt lat="43.3902067" lon="11.7048033"><ele>338.0</ele><time>2026-03-22T08:18:57.259Z</time></trkpt><trkpt lat="43.3902883" lon="11.7049067"><ele>338.0</ele><time>2026-03-22T08:18:59.261Z</time></trkpt><trkpt lat="43.3903367" lon="11.70497"><ele>338.0</ele><time>2026-03-22T08:19:00.261Z</time></trkpt><trkpt lat="43.3903983" lon="11.7050283"><ele>338.0</ele><time>2026-03-22T08:19:01.262Z</time></trkpt><trkpt lat="43.390455" lon="11.7050767"><ele>338.0</ele><time>2026-03-22T08:19:02.261Z</time></trkpt><trkpt lat="43.3905417" lon="11.7051583"><ele>338.0</ele><time>2026-03-22T08:19:04.258Z</time></trkpt><trkpt lat="43.3906317" lon="11.7052017"><ele>338.0</ele><time>2026-03-22T08:19:06.26Z</time></trkpt><trkpt lat="43.3907167" lon="11.7052333"><ele>340.2</ele><time>2026-03-22T08:19:08.256Z</time></trkpt><trkpt lat="43.390785" lon="11.7052467"><ele>342.4</ele><time>2026-03-22T08:19:11.26Z</time></trkpt><trkpt lat="43.390885" lon="11.7053567"><ele>344.59999999999997</ele><time>2026-03-22T08:20:00.263Z</time></trkpt><trkpt lat="43.3909783" lon="11.7054633"><ele>346.79999999999995</ele><time>2026-03-22T08:20:02.258Z</time></trkpt><trkpt lat="43.391045" lon="11.7055333"><ele>349.0</ele><time>2026-03-22T08:20:03.258Z</time></trkpt><trkpt lat="43.39111" lon="11.7055967"><ele>349.0</ele><time>2026-03-22T08:20:04.26Z</time></trkpt><trkpt lat="43.391175" lon="11.7056583"><ele>349.0</ele><time>2026-03-22T08:20:05.258Z</time></trkpt><trkpt lat="43.3912283" lon="11.705705"><ele>349.0</ele><time>2026-03-22T08:20:06.26Z</time></trkpt><trkpt lat="43.391335" lon="11.7057467"><ele>349.0</ele><time>2026-03-22T08:20:08.263Z</time></trkpt><trkpt lat="43.3914567" lon="11.7057683"><ele>349.0</ele><time>2026-03-22T08:20:10.26Z</time></trkpt><trkpt lat="43.3915183" lon="11.7058017"><ele>349.0</ele><time>2026-03-22T08:20:11.258Z</time></trkpt><trkpt lat="43.39162" lon="11.7058917"><ele>349.0</ele><time>2026-03-22T08:20:13.259Z</time></trkpt><trkpt lat="43.3916967" lon="11.7060167"><ele>349.0</ele><time>2026-03-22T08:20:15.261Z</time></trkpt><trkpt lat="43.3917333" lon="11.7061733"><ele>349.0</ele><time>2026-03-22T08:20:17.257Z</time></trkpt><trkpt lat="43.391745" lon="11.7063467"><ele>349.0</ele><time>2026-03-22T08:20:19.261Z</time></trkpt><trkpt lat="43.39176" lon="11.706445"><ele>349.0</ele><time>2026-03-22T08:20:20.258Z</time></trkpt><trkpt lat="43.3917733" lon="11.70654"><ele>349.0</ele><time>2026-03-22T08:20:21.261Z</time></trkpt><trkpt lat="43.391785" lon="11.7066317"><ele>349.0</ele><time>2026-03-22T08:20:22.259Z</time></trkpt><trkpt lat="43.391805" lon="11.70678"><ele>349.0</ele><time>2026-03-22T08:20:24.258Z</time></trkpt><trkpt lat="43.39185" lon="11.70691"><ele>349.0</ele><time>2026-03-22T08:20:26.259Z</time></trkpt><trkpt lat="43.3918817" lon="11.706985"><ele>349.0</ele><time>2026-03-22T08:20:27.257Z</time></trkpt><trkpt lat="43.391925" lon="11.7070733"><ele>349.0</ele><time>2026-03-22T08:20:28.259Z</time></trkpt><trkpt lat="43.3919767" lon="11.7071683"><ele>348.0</ele><time>2026-03-22T08:20:29.258Z</time></trkpt><trkpt lat="43.39202" lon="11.7072583"><ele>347.0</ele><time>2026-03-22T08:20:30.262Z</time></trkpt><trkpt lat="43.3920567" lon="11.70734"><ele>346.0</ele><time>2026-03-22T08:20:31.259Z</time></trkpt><trkpt lat="43.3921133" lon="11.70744"><ele>345.0</ele><time>2026-03-22T08:20:33.259Z</time></trkpt><trkpt lat="43.3921383" lon="11.70754"><ele>344.0</ele><time>2026-03-22T08:20:46.257Z</time></trkpt><trkpt lat="43.3922" lon="11.7076483"><ele>343.0</ele><time>2026-03-22T08:20:49.258Z</time></trkpt><trkpt lat="43.3922833" lon="11.70774"><ele>344.0</ele><time>2026-03-22T08:20:51.261Z</time></trkpt><trkpt lat="43.3923617" lon="11.7077983"><ele>345.0</ele><time>2026-03-22T08:20:52.257Z</time></trkpt><trkpt lat="43.3924383" lon="11.7078433"><ele>346.0</ele><time>2026-03-22T08:20:53.26Z</time></trkpt><trkpt lat="43.3925083" lon="11.707875"><ele>347.0</ele><time>2026-03-22T08:20:54.261Z</time></trkpt><trkpt lat="43.3925733" lon="11.7079"><ele>348.0</ele><time>2026-03-22T08:20:55.261Z</time></trkpt><trkpt lat="43.3926783" lon="11.7079467"><ele>349.0</ele><time>2026-03-22T08:20:57.257Z</time></trkpt><trkpt lat="43.3927383" lon="11.7079783"><ele>349.0</ele><time>2026-03-22T08:20:59.262Z</time></trkpt><trkpt lat="43.3928183" lon="11.7080533"><ele>349.0</ele><time>2026-03-22T08:21:25.26Z</time></trkpt><trkpt lat="43.3928983" lon="11.7080533"><ele>349.0</ele><time>2026-03-22T08:21:28.259Z</time></trkpt><trkpt lat="43.392948" lon="11.7081344"><ele>349.0</ele><time>2026-03-22T08:21:34.364Z</time></trkpt><trkpt lat="43.3929767" lon="11.7082167"><ele>349.0</ele><time>2026-03-22T08:21:37.259Z</time></trkpt><trkpt lat="43.393035" lon="11.7083067"><ele>349.0</ele><time>2026-03-22T08:21:43.259Z</time></trkpt><trkpt lat="43.39313" lon="11.7083267"><ele>348.16666666666663</ele><time>2026-03-22T08:21:45.259Z</time></trkpt><trkpt lat="43.3932183" lon="11.7083517"><ele>347.3333333333333</ele><time>2026-03-22T08:21:47.263Z</time></trkpt><trkpt lat="43.3933" lon="11.70838"><ele>346.5</ele><time>2026-03-22T08:21:49.258Z</time></trkpt><trkpt lat="43.3933767" lon="11.708385"><ele>345.6666666666667</ele><time>2026-03-22T08:21:51.259Z</time></trkpt><trkpt lat="43.3934367" lon="11.70843"><ele>344.83333333333337</ele><time>2026-03-22T08:24:00.26Z</time></trkpt><trkpt lat="43.39347" lon="11.708355"><ele>344.0</ele><time>2026-03-22T08:31:40.259Z</time></trkpt><trkpt lat="43.3935667" lon="11.7083383"><ele>344.0</ele><time>2026-03-22T08:31:42.26Z</time></trkpt><trkpt lat="43.3936367" lon="11.7083233"><ele>344.0</ele><time>2026-03-22T08:31:43.262Z</time></trkpt><trkpt lat="43.3937633" lon="11.7082783"><ele>344.0</ele><time>2026-03-22T08:31:44.262Z</time></trkpt><trkpt lat="43.3938983" lon="11.7082167"><ele>344.0</ele><time>2026-03-22T08:31:45.264Z</time></trkpt><trkpt lat="43.39402" lon="11.70816"><ele>345.75</ele><time>2026-03-22T08:31:46.262Z</time></trkpt><trkpt lat="43.3941317" lon="11.7081217"><ele>347.5</ele><time>2026-03-22T08:31:47.26Z</time></trkpt><trkpt lat="43.3942433" lon="11.7080783"><ele>349.25</ele><time>2026-03-22T08:31:48.266Z</time></trkpt><trkpt lat="43.39435" lon="11.7080433"><ele>351.0</ele><time>2026-03-22T08:31:49.261Z</time></trkpt><trkpt lat="43.394465" lon="11.7080133"><ele>351.0</ele><time>2026-03-22T08:31:50.258Z</time></trkpt><trkpt lat="43.394575" lon="11.7079883"><ele>351.0</ele><time>2026-03-22T08:31:51.26Z</time></trkpt><trkpt lat="43.3946817" lon="11.7079633"><ele>351.0</ele><time>2026-03-22T08:31:52.259Z</time></trkpt><trkpt lat="43.394785" lon="11.707945"><ele>351.0</ele><time>2026-03-22T08:31:53.262Z</time></trkpt><trkpt lat="43.394885" lon="11.7079267"><ele>351.0</ele><time>2026-03-22T08:31:54.261Z</time></trkpt><trkpt lat="43.3949817" lon="11.7079033"><ele>351.0</ele><time>2026-03-22T08:31:55.262Z</time></trkpt><trkpt lat="43.39508" lon="11.7078817"><ele>351.0</ele><time>2026-03-22T08:31:56.262Z</time></trkpt><trkpt lat="43.3951783" lon="11.7078433"><ele>351.0</ele><time>2026-03-22T08:31:57.264Z</time></trkpt><trkpt lat="43.3952717" lon="11.7078033"><ele>351.0</ele><time>2026-03-22T08:31:58.26Z</time></trkpt><trkpt lat="43.3953567" lon="11.7077617"><ele>351.0</ele><time>2026-03-22T08:31:59.26Z</time></trkpt><trkpt lat="43.395425" lon="11.707725"><ele>351.0</ele><time>2026-03-22T08:32:00.26Z</time></trkpt><trkpt lat="43.395485" lon="11.707685"><ele>351.0</ele><time>2026-03-22T08:32:01.263Z</time></trkpt><trkpt lat="43.3955883" lon="11.7076117"><ele>351.0</ele><time>2026-03-22T08:32:03.264Z</time></trkpt><trkpt lat="43.3956833" lon="11.7075317"><ele>351.0</ele><time>2026-03-22T08:32:05.263Z</time></trkpt><trkpt lat="43.395795" lon="11.7074683"><ele>351.0</ele><time>2026-03-22T08:32:07.261Z</time></trkpt><trkpt lat="43.3959233" lon="11.70745"><ele>351.5</ele><time>2026-03-22T08:32:09.26Z</time></trkpt><trkpt lat="43.3959983" lon="11.70745"><ele>352.0</ele><time>2026-03-22T08:32:10.263Z</time></trkpt><trkpt lat="43.3960833" lon="11.707455"><ele>352.5</ele><time>2026-03-22T08:32:11.261Z</time></trkpt><trkpt lat="43.3961667" lon="11.7074567"><ele>353.0</ele><time>2026-03-22T08:32:12.26Z</time></trkpt><trkpt lat="43.3962517" lon="11.707475"><ele>353.5</ele><time>2026-03-22T08:32:13.262Z</time></trkpt><trkpt lat="43.39634" lon="11.7074983"><ele>354.0</ele><time>2026-03-22T08:32:14.26Z</time></trkpt><trkpt lat="43.3964283" lon="11.70754"><ele>354.6666666666667</ele><time>2026-03-22T08:32:15.271Z</time></trkpt><trkpt lat="43.3965133" lon="11.7076"><ele>355.3333333333333</ele><time>2026-03-22T08:32:16.26Z</time></trkpt><trkpt lat="43.3965967" lon="11.7076633"><ele>356.0</ele><time>2026-03-22T08:32:17.259Z</time></trkpt><trkpt lat="43.3966733" lon="11.7077167"><ele>356.66666666666663</ele><time>2026-03-22T08:32:18.261Z</time></trkpt><trkpt lat="43.3967467" lon="11.7077733"><ele>357.3333333333333</ele><time>2026-03-22T08:32:19.262Z</time></trkpt><trkpt lat="43.3968183" lon="11.7078117"><ele>358.0</ele><time>2026-03-22T08:32:20.262Z</time></trkpt><trkpt lat="43.3968867" lon="11.7078433"><ele>359.3333333333333</ele><time>2026-03-22T08:32:21.261Z</time></trkpt><trkpt lat="43.3969517" lon="11.7078733"><ele>360.66666666666663</ele><time>2026-03-22T08:32:22.259Z</time></trkpt><trkpt lat="43.39706" lon="11.7079033"><ele>362.0</ele><time>2026-03-22T08:32:24.26Z</time></trkpt><trkpt lat="43.3971283" lon="11.7079267"><ele>363.3333333333333</ele><time>2026-03-22T08:32:26.265Z</time></trkpt><trkpt lat="43.3971967" lon="11.707945"><ele>364.6666666666667</ele><time>2026-03-22T08:32:28.262Z</time></trkpt><trkpt lat="43.397275" lon="11.7079783"><ele>366.0</ele><time>2026-03-22T08:32:30.263Z</time></trkpt><trkpt lat="43.397355" lon="11.7080433"><ele>366.0</ele><time>2026-03-22T08:32:32.262Z</time></trkpt><trkpt lat="43.3974567" lon="11.7080867"><ele>366.0</ele><time>2026-03-22T08:32:34.263Z</time></trkpt><trkpt lat="43.397525" lon="11.7080883"><ele>366.0</ele><time>2026-03-22T08:32:36.261Z</time></trkpt><trkpt lat="43.3976083" lon="11.7080833"><ele>366.0</ele><time>2026-03-22T08:32:43.265Z</time></trkpt><trkpt lat="43.3976933" lon="11.7080617"><ele>366.0</ele><time>2026-03-22T08:32:46.265Z</time></trkpt><trkpt lat="43.3977617" lon="11.7080383"><ele>366.0</ele><time>2026-03-22T08:32:48.262Z</time></trkpt><trkpt lat="43.3978317" lon="11.7080233"><ele>366.0</ele><time>2026-03-22T08:32:50.259Z</time></trkpt><trkpt lat="43.3979133" lon="11.7080167"><ele>366.0</ele><time>2026-03-22T08:32:52.257Z</time></trkpt><trkpt lat="43.3980383" lon="11.7080417"><ele>366.0</ele><time>2026-03-22T08:32:54.258Z</time></trkpt><trkpt lat="43.398115" lon="11.70805"><ele>366.0</ele><time>2026-03-22T08:32:55.258Z</time></trkpt><trkpt lat="43.39821" lon="11.7080567"><ele>366.0</ele><time>2026-03-22T08:32:56.258Z</time></trkpt><trkpt lat="43.398305" lon="11.70806"><ele>365.8</ele><time>2026-03-22T08:32:57.258Z</time></trkpt><trkpt lat="43.3983983" lon="11.7080583"><ele>365.6</ele><time>2026-03-22T08:32:58.259Z</time></trkpt><trkpt lat="43.3984933" lon="11.7080633"><ele>365.4</ele><time>2026-03-22T08:32:59.261Z</time></trkpt><trkpt lat="43.3985867" lon="11.7080717"><ele>365.2</ele><time>2026-03-22T08:33:00.263Z</time></trkpt><trkpt lat="43.3986767" lon="11.70809"><ele>365.0</ele><time>2026-03-22T08:33:01.26Z</time></trkpt><trkpt lat="43.3987667" lon="11.7081267"><ele>364.83333333333337</ele><time>2026-03-22T08:33:02.263Z</time></trkpt><trkpt lat="43.3988483" lon="11.7081733"><ele>364.6666666666667</ele><time>2026-03-22T08:33:03.26Z</time></trkpt><trkpt lat="43.3989233" lon="11.7082133"><ele>364.5</ele><time>2026-03-22T08:33:04.26Z</time></trkpt><trkpt lat="43.3989967" lon="11.70826"><ele>364.3333333333333</ele><time>2026-03-22T08:33:05.258Z</time></trkpt><trkpt lat="43.399075" lon="11.70831"><ele>364.16666666666663</ele><time>2026-03-22T08:33:06.259Z</time></trkpt><trkpt lat="43.3991517" lon="11.70836"><ele>364.0</ele><time>2026-03-22T08:33:07.26Z</time></trkpt><trkpt lat="43.39923" lon="11.708415"><ele>364.0</ele><time>2026-03-22T08:33:08.259Z</time></trkpt><trkpt lat="43.3993083" lon="11.7084583"><ele>364.0</ele><time>2026-03-22T08:33:09.26Z</time></trkpt><trkpt lat="43.399385" lon="11.7084917"><ele>364.0</ele><time>2026-03-22T08:33:10.261Z</time></trkpt><trkpt lat="43.3994533" lon="11.70852"><ele>364.0</ele><time>2026-03-22T08:33:11.261Z</time></trkpt><trkpt lat="43.3995283" lon="11.7085433"><ele>364.0</ele><time>2026-03-22T08:33:12.258Z</time></trkpt><trkpt lat="43.39963" lon="11.7085367"><ele>364.0</ele><time>2026-03-22T08:33:13.261Z</time></trkpt><trkpt lat="43.3997183" lon="11.7085417"><ele>364.79999999999995</ele><time>2026-03-22T08:33:14.26Z</time></trkpt><trkpt lat="43.399815" lon="11.7085583"><ele>365.59999999999997</ele><time>2026-03-22T08:33:15.261Z</time></trkpt><trkpt lat="43.39992" lon="11.7085683"><ele>366.4</ele><time>2026-03-22T08:33:16.264Z</time></trkpt><trkpt lat="43.4000183" lon="11.7085733"><ele>367.2</ele><time>2026-03-22T08:33:17.261Z</time></trkpt><trkpt lat="43.4001033" lon="11.7085717"><ele>368.0</ele><time>2026-03-22T08:33:18.263Z</time></trkpt><trkpt lat="43.4001717" lon="11.7085683"><ele>368.83333333333337</ele><time>2026-03-22T08:33:19.259Z</time></trkpt><trkpt lat="43.40025" lon="11.70858"><ele>369.6666666666667</ele><time>2026-03-22T08:33:21.261Z</time></trkpt><trkpt lat="43.4003233" lon="11.70861"><ele>370.5</ele><time>2026-03-22T08:33:53.261Z</time></trkpt><trkpt lat="43.400415" lon="11.7086117"><ele>371.3333333333333</ele><time>2026-03-22T08:33:55.26Z</time></trkpt><trkpt lat="43.4004817" lon="11.7085917"><ele>372.16666666666663</ele><time>2026-03-22T08:33:56.259Z</time></trkpt><trkpt lat="43.40055" lon="11.708565"><ele>373.0</ele><time>2026-03-22T08:33:57.258Z</time></trkpt><trkpt lat="43.4006167" lon="11.7085383"><ele>373.0</ele><time>2026-03-22T08:33:58.257Z</time></trkpt><trkpt lat="43.4006783" lon="11.7085167"><ele>373.0</ele><time>2026-03-22T08:33:59.257Z</time></trkpt><trkpt lat="43.4007433" lon="11.7084917"><ele>373.0</ele><time>2026-03-22T08:34:00.26Z</time></trkpt><trkpt lat="43.4008133" lon="11.708465"><ele>373.0</ele><time>2026-03-22T08:34:01.26Z</time></trkpt><trkpt lat="43.40088" lon="11.7084417"><ele>373.0</ele><time>2026-03-22T08:34:02.257Z</time></trkpt><trkpt lat="43.4009483" lon="11.7084183"><ele>373.0</ele><time>2026-03-22T08:34:03.258Z</time></trkpt><trkpt lat="43.4010167" lon="11.708395"><ele>373.0</ele><time>2026-03-22T08:34:04.257Z</time></trkpt><trkpt lat="43.4011367" lon="11.7083667"><ele>373.0</ele><time>2026-03-22T08:34:06.258Z</time></trkpt><trkpt lat="43.401265" lon="11.70832"><ele>373.0</ele><time>2026-03-22T08:34:08.26Z</time></trkpt><trkpt lat="43.40134" lon="11.7082917"><ele>373.0</ele><time>2026-03-22T08:34:09.261Z</time></trkpt><trkpt lat="43.4014167" lon="11.7082567"><ele>373.0</ele><time>2026-03-22T08:34:10.258Z</time></trkpt><trkpt lat="43.4014833" lon="11.70822"><ele>373.0</ele><time>2026-03-22T08:34:11.257Z</time></trkpt><trkpt lat="43.4015417" lon="11.7081733"><ele>373.0</ele><time>2026-03-22T08:34:12.258Z</time></trkpt><trkpt lat="43.4015967" lon="11.70813"><ele>374.4</ele><time>2026-03-22T08:34:13.259Z</time></trkpt><trkpt lat="43.4016983" lon="11.7080417"><ele>375.79999999999995</ele><time>2026-03-22T08:34:15.258Z</time></trkpt><trkpt lat="43.40179" lon="11.707945"><ele>377.2</ele><time>2026-03-22T08:34:17.26Z</time></trkpt><trkpt lat="43.4018733" lon="11.7078667"><ele>378.6</ele><time>2026-03-22T08:34:19.26Z</time></trkpt><trkpt lat="43.401925" lon="11.7077533"><ele>380.0</ele><time>2026-03-22T08:34:21.263Z</time></trkpt><trkpt lat="43.40197" lon="11.70764"><ele>380.33333333333337</ele><time>2026-03-22T08:34:23.26Z</time></trkpt><trkpt lat="43.40202" lon="11.7075633"><ele>380.6666666666667</ele><time>2026-03-22T08:34:25.261Z</time></trkpt><trkpt lat="43.402075" lon="11.707505"><ele>381.0</ele><time>2026-03-22T08:34:27.264Z</time></trkpt><trkpt lat="43.40217" lon="11.7074483"><ele>381.3333333333333</ele><time>2026-03-22T08:34:29.26Z</time></trkpt><trkpt lat="43.40223" lon="11.70742"><ele>381.66666666666663</ele><time>2026-03-22T08:34:30.261Z</time></trkpt><trkpt lat="43.4022917" lon="11.70738"><ele>382.0</ele><time>2026-03-22T08:34:31.263Z</time></trkpt><trkpt lat="43.402385" lon="11.707305"><ele>382.0</ele><time>2026-03-22T08:34:33.263Z</time></trkpt><trkpt lat="43.4024483" lon="11.707315"><ele>382.0</ele><time>2026-03-22T08:34:35.263Z</time></trkpt><trkpt lat="43.40251" lon="11.7073533"><ele>382.0</ele><time>2026-03-22T08:34:37.262Z</time></trkpt><trkpt lat="43.4026083" lon="11.707345"><ele>382.0</ele><time>2026-03-22T08:34:39.263Z</time></trkpt><trkpt lat="43.402685" lon="11.7073133"><ele>382.0</ele><time>2026-03-22T08:34:40.259Z</time></trkpt><trkpt lat="43.4027767" lon="11.7072817"><ele>382.0</ele><time>2026-03-22T08:34:41.259Z</time></trkpt><trkpt lat="43.4028517" lon="11.7072717"><ele>382.0</ele><time>2026-03-22T08:34:42.259Z</time></trkpt><trkpt lat="43.402925" lon="11.7072533"><ele>382.0</ele><time>2026-03-22T08:34:43.258Z</time></trkpt><trkpt lat="43.4029883" lon="11.7072283"><ele>382.0</ele><time>2026-03-22T08:34:44.26Z</time></trkpt><trkpt lat="43.4030467" lon="11.7071933"><ele>382.0</ele><time>2026-03-22T08:34:45.263Z</time></trkpt><trkpt lat="43.4031767" lon="11.7071983"><ele>382.0</ele><time>2026-03-22T08:34:47.261Z</time></trkpt><trkpt lat="43.40325" lon="11.7072167"><ele>382.0</ele><time>2026-03-22T08:34:48.257Z</time></trkpt><trkpt lat="43.4033167" lon="11.707225"><ele>383.20000000000005</ele><time>2026-03-22T08:34:49.259Z</time></trkpt><trkpt lat="43.4034317" lon="11.7072117"><ele>384.4</ele><time>2026-03-22T08:34:51.265Z</time></trkpt><trkpt lat="43.40352" lon="11.7071483"><ele>385.6</ele><time>2026-03-22T08:34:53.263Z</time></trkpt><trkpt lat="43.403605" lon="11.7070283"><ele>386.79999999999995</ele><time>2026-03-22T08:34:55.261Z</time></trkpt><trkpt lat="43.40364" lon="11.7069333"><ele>388.0</ele><time>2026-03-22T08:34:56.259Z</time></trkpt><trkpt lat="43.40366" lon="11.7068217"><ele>388.00000000000006</ele><time>2026-03-22T08:34:57.257Z</time></trkpt><trkpt lat="43.4036633" lon="11.7067017"><ele>388.0</ele><time>2026-03-22T08:34:58.259Z</time></trkpt><trkpt lat="43.40366" lon="11.706595"><ele>388.0</ele><time>2026-03-22T08:34:59.26Z</time></trkpt><trkpt lat="43.403655" lon="11.7064467"><ele>388.0</ele><time>2026-03-22T08:35:01.261Z</time></trkpt><trkpt lat="43.4037183" lon="11.706395"><ele>388.00000000000006</ele><time>2026-03-22T08:35:38.258Z</time></trkpt><trkpt lat="43.403805" lon="11.7063967"><ele>388.0</ele><time>2026-03-22T08:35:41.261Z</time></trkpt><trkpt lat="43.4038967" lon="11.7064317"><ele>387.4</ele><time>2026-03-22T08:35:44.261Z</time></trkpt><trkpt lat="43.4039683" lon="11.7064783"><ele>386.79999999999995</ele><time>2026-03-22T08:35:46.26Z</time></trkpt><trkpt lat="43.4040617" lon="11.7065583"><ele>386.2</ele><time>2026-03-22T08:35:48.26Z</time></trkpt><trkpt lat="43.4041517" lon="11.706675"><ele>385.6</ele><time>2026-03-22T08:35:50.263Z</time></trkpt><trkpt lat="43.404245" lon="11.7067133"><ele>385.0</ele><time>2026-03-22T08:35:52.261Z</time></trkpt><trkpt lat="43.4043317" lon="11.7066617"><ele>385.00000000000006</ele><time>2026-03-22T08:35:54.258Z</time></trkpt><trkpt lat="43.4043767" lon="11.7065783"><ele>385.0</ele><time>2026-03-22T08:35:56.26Z</time></trkpt><trkpt lat="43.4044217" lon="11.7064833"><ele>385.0</ele><time>2026-03-22T08:35:58.26Z</time></trkpt><trkpt lat="43.4044733" lon="11.706375"><ele>385.0</ele><time>2026-03-22T08:36:00.257Z</time></trkpt><trkpt lat="43.40455" lon="11.7063317"><ele>385.00000000000006</ele><time>2026-03-22T08:36:03.262Z</time></trkpt><trkpt lat="43.4046483" lon="11.70635"><ele>385.0</ele><time>2026-03-22T08:36:05.259Z</time></trkpt><trkpt lat="43.4047717" lon="11.7063933"><ele>387.1666666666667</ele><time>2026-03-22T08:36:07.26Z</time></trkpt><trkpt lat="43.4048667" lon="11.706405"><ele>389.33333333333337</ele><time>2026-03-22T08:36:08.26Z</time></trkpt><trkpt lat="43.404955" lon="11.7064167"><ele>391.5</ele><time>2026-03-22T08:36:09.26Z</time></trkpt><trkpt lat="43.4050383" lon="11.7064117"><ele>393.66666666666663</ele><time>2026-03-22T08:36:10.264Z</time></trkpt><trkpt lat="43.40512" lon="11.7063883"><ele>395.8333333333333</ele><time>2026-03-22T08:36:11.264Z</time></trkpt><trkpt lat="43.4051883" lon="11.7063467"><ele>398.0</ele><time>2026-03-22T08:36:12.263Z</time></trkpt><trkpt lat="43.4052467" lon="11.7062917"><ele>397.99999999999994</ele><time>2026-03-22T08:36:13.26Z</time></trkpt><trkpt lat="43.4053067" lon="11.7062333"><ele>398.0</ele><time>2026-03-22T08:36:14.262Z</time></trkpt><trkpt lat="43.405365" lon="11.7061867"><ele>398.0</ele><time>2026-03-22T08:36:15.261Z</time></trkpt><trkpt lat="43.405465" lon="11.70613"><ele>398.0</ele><time>2026-03-22T08:36:17.26Z</time></trkpt><trkpt lat="43.405545" lon="11.7060933"><ele>397.99999999999994</ele><time>2026-03-22T08:36:19.26Z</time></trkpt><trkpt lat="43.405635" lon="11.70608"><ele>398.0</ele><time>2026-03-22T08:36:21.259Z</time></trkpt><trkpt lat="43.405735" lon="11.706145"><ele>398.3333333333333</ele><time>2026-03-22T08:36:23.259Z</time></trkpt><trkpt lat="43.4058217" lon="11.706225"><ele>398.66666666666663</ele><time>2026-03-22T08:36:25.261Z</time></trkpt><trkpt lat="43.4059067" lon="11.70627"><ele>399.0</ele><time>2026-03-22T08:36:27.265Z</time></trkpt><trkpt lat="43.4059717" lon="11.7062667"><ele>399.33333333333337</ele><time>2026-03-22T08:36:29.268Z</time></trkpt><trkpt lat="43.40606" lon="11.7062"><ele>399.6666666666667</ele><time>2026-03-22T08:36:31.258Z</time></trkpt><trkpt lat="43.40611" lon="11.7061433"><ele>400.0</ele><time>2026-03-22T08:36:32.259Z</time></trkpt><trkpt lat="43.406195" lon="11.7060367"><ele>400.0</ele><time>2026-03-22T08:36:34.265Z</time></trkpt><trkpt lat="43.40629" lon="11.7059383"><ele>400.0</ele><time>2026-03-22T08:36:36.263Z</time></trkpt><trkpt lat="43.4063717" lon="11.7058717"><ele>400.0</ele><time>2026-03-22T08:36:38.261Z</time></trkpt><trkpt lat="43.4064467" lon="11.7058867"><ele>400.0</ele><time>2026-03-22T08:36:41.262Z</time></trkpt><trkpt lat="43.406515" lon="11.7058983"><ele>400.0</ele><time>2026-03-22T08:36:43.262Z</time></trkpt><trkpt lat="43.4066417" lon="11.7058983"><ele>400.4</ele><time>2026-03-22T08:36:45.259Z</time></trkpt><trkpt lat="43.4067117" lon="11.7058983"><ele>400.8</ele><time>2026-03-22T08:36:46.26Z</time></trkpt><trkpt lat="43.406825" lon="11.7059"><ele>401.20000000000005</ele><time>2026-03-22T08:36:48.262Z</time></trkpt><trkpt lat="43.4069167" lon="11.7058767"><ele>401.6</ele><time>2026-03-22T08:36:50.262Z</time></trkpt><trkpt lat="43.40701" lon="11.7058"><ele>402.0</ele><time>2026-03-22T08:36:52.262Z</time></trkpt><trkpt lat="43.4070833" lon="11.7057617"><ele>402.0</ele><time>2026-03-22T08:36:54.258Z</time></trkpt><trkpt lat="43.4071517" lon="11.705825"><ele>402.0</ele><time>2026-03-22T08:36:57.259Z</time></trkpt><trkpt lat="43.407215" lon="11.7058067"><ele>402.0</ele><time>2026-03-22T08:37:14.261Z</time></trkpt><trkpt lat="43.4073167" lon="11.705765"><ele>402.0</ele><time>2026-03-22T08:37:21.261Z</time></trkpt><trkpt lat="43.4073667" lon="11.7056983"><ele>402.0</ele><time>2026-03-22T08:37:33.259Z</time></trkpt><trkpt lat="43.4073767" lon="11.705605"><ele>402.0</ele><time>2026-03-22T08:37:38.26Z</time></trkpt><trkpt lat="43.40742" lon="11.7055417"><ele>402.5</ele><time>2026-03-22T08:37:40.261Z</time></trkpt><trkpt lat="43.40748" lon="11.705575"><ele>403.0</ele><time>2026-03-22T08:37:44.26Z</time></trkpt><trkpt lat="43.40751" lon="11.7056667"><ele>403.5</ele><time>2026-03-22T08:37:55.26Z</time></trkpt><trkpt lat="43.4075983" lon="11.7056483"><ele>404.0</ele><time>2026-03-22T08:37:58.259Z</time></trkpt><trkpt lat="43.407665" lon="11.7056017"><ele>404.5</ele><time>2026-03-22T08:38:00.261Z</time></trkpt><trkpt lat="43.4077267" lon="11.70552"><ele>405.0</ele><time>2026-03-22T08:38:02.262Z</time></trkpt><trkpt lat="43.4077667" lon="11.7054"><ele>405.0</ele><time>2026-03-22T08:38:04.259Z</time></trkpt><trkpt lat="43.4078" lon="11.7053217"><ele>405.0</ele><time>2026-03-22T08:38:05.26Z</time></trkpt><trkpt lat="43.40784" lon="11.7052467"><ele>405.0</ele><time>2026-03-22T08:38:06.258Z</time></trkpt><trkpt lat="43.4079417" lon="11.70516"><ele>405.0</ele><time>2026-03-22T08:38:08.259Z</time></trkpt><trkpt lat="43.4080333" lon="11.70511"><ele>405.0</ele><time>2026-03-22T08:38:10.262Z</time></trkpt><trkpt lat="43.40812" lon="11.7050667"><ele>405.0</ele><time>2026-03-22T08:38:12.258Z</time></trkpt><trkpt lat="43.4082133" lon="11.705005"><ele>408.3333333333333</ele><time>2026-03-22T08:38:14.256Z</time></trkpt><trkpt lat="43.408295" lon="11.7049033"><ele>411.66666666666663</ele><time>2026-03-22T08:38:16.255Z</time></trkpt><trkpt lat="43.4083917" lon="11.7048167"><ele>415.0</ele><time>2026-03-22T08:38:18.259Z</time></trkpt><trkpt lat="43.408455" lon="11.7047933"><ele>418.3333333333333</ele><time>2026-03-22T08:38:19.261Z</time></trkpt><trkpt lat="43.4085267" lon="11.7047733"><ele>421.66666666666663</ele><time>2026-03-22T08:38:20.257Z</time></trkpt><trkpt lat="43.4085883" lon="11.7047483"><ele>425.0</ele><time>2026-03-22T08:38:21.262Z</time></trkpt><trkpt lat="43.4087" lon="11.7046983"><ele>425.0</ele><time>2026-03-22T08:38:23.258Z</time></trkpt><trkpt lat="43.40881" lon="11.70468"><ele>425.0</ele><time>2026-03-22T08:38:25.26Z</time></trkpt><trkpt lat="43.4088733" lon="11.7046983"><ele>425.0</ele><time>2026-03-22T08:38:26.262Z</time></trkpt><trkpt lat="43.4089767" lon="11.7047483"><ele>425.0</ele><time>2026-03-22T08:38:28.26Z</time></trkpt><trkpt lat="43.4090717" lon="11.704755"><ele>425.0</ele><time>2026-03-22T08:38:30.259Z</time></trkpt><trkpt lat="43.40917" lon="11.704735"><ele>428.0</ele><time>2026-03-22T08:38:32.265Z</time></trkpt><trkpt lat="43.4092283" lon="11.70464"><ele>431.0</ele><time>2026-03-22T08:38:34.258Z</time></trkpt><trkpt lat="43.409245" lon="11.7044767"><ele>434.0</ele><time>2026-03-22T08:38:36.261Z</time></trkpt><trkpt lat="43.4092567" lon="11.70438"><ele>437.0</ele><time>2026-03-22T08:38:37.259Z</time></trkpt><trkpt lat="43.4092767" lon="11.704295"><ele>440.0</ele><time>2026-03-22T08:38:38.26Z</time></trkpt><trkpt lat="43.4093367" lon="11.7041667"><ele>440.99999999999994</ele><time>2026-03-22T08:38:40.256Z</time></trkpt><trkpt lat="43.4094233" lon="11.70409"><ele>442.0</ele><time>2026-03-22T08:38:42.257Z</time></trkpt><trkpt lat="43.4094833" lon="11.7040533"><ele>443.0</ele><time>2026-03-22T08:38:43.26Z</time></trkpt><trkpt lat="43.4095417" lon="11.7040067"><ele>444.0</ele><time>2026-03-22T08:38:44.256Z</time></trkpt><trkpt lat="43.4095933" lon="11.7039433"><ele>444.99999999999994</ele><time>2026-03-22T08:38:45.257Z</time></trkpt><trkpt lat="43.4096667" lon="11.7038317"><ele>446.0</ele><time>2026-03-22T08:38:47.258Z</time></trkpt><trkpt lat="43.4097483" lon="11.7037417"><ele>449.4</ele><time>2026-03-22T08:38:49.258Z</time></trkpt><trkpt lat="43.4098483" lon="11.703645"><ele>452.8</ele><time>2026-03-22T08:38:51.259Z</time></trkpt><trkpt lat="43.40993" lon="11.703535"><ele>456.19999999999993</ele><time>2026-03-22T08:38:53.259Z</time></trkpt><trkpt lat="43.41" lon="11.7034467"><ele>459.59999999999997</ele><time>2026-03-22T08:38:55.261Z</time></trkpt><trkpt lat="43.410075" lon="11.7033567"><ele>463.0</ele><time>2026-03-22T08:38:57.264Z</time></trkpt><trkpt lat="43.4101533" lon="11.7033117"><ele>464.4</ele><time>2026-03-22T08:38:59.259Z</time></trkpt><trkpt lat="43.4102783" lon="11.703365"><ele>465.79999999999995</ele><time>2026-03-22T08:39:01.258Z</time></trkpt><trkpt lat="43.41036" lon="11.7034133"><ele>467.2</ele><time>2026-03-22T08:39:02.259Z</time></trkpt><trkpt lat="43.410435" lon="11.7034667"><ele>468.6</ele><time>2026-03-22T08:39:03.26Z</time></trkpt><trkpt lat="43.4105083" lon="11.703525"><ele>470.0</ele><time>2026-03-22T08:39:04.258Z</time></trkpt><trkpt lat="43.4105833" lon="11.7035817"><ele>471.99999999999994</ele><time>2026-03-22T08:39:05.257Z</time></trkpt><trkpt lat="43.4106617" lon="11.70363"><ele>474.0</ele><time>2026-03-22T08:39:06.263Z</time></trkpt><trkpt lat="43.4107367" lon="11.7036717"><ele>476.0</ele><time>2026-03-22T08:39:07.264Z</time></trkpt><trkpt lat="43.4108083" lon="11.703705"><ele>478.0</ele><time>2026-03-22T08:39:08.261Z</time></trkpt><trkpt lat="43.4108717" lon="11.7037283"><ele>479.99999999999994</ele><time>2026-03-22T08:39:09.256Z</time></trkpt><trkpt lat="43.4109417" lon="11.70373"><ele>482.0</ele><time>2026-03-22T08:39:10.258Z</time></trkpt><trkpt lat="43.4110517" lon="11.70372"><ele>482.0</ele><time>2026-03-22T08:39:12.261Z</time></trkpt><trkpt lat="43.4111683" lon="11.7037267"><ele>482.0</ele><time>2026-03-22T08:39:14.266Z</time></trkpt><trkpt lat="43.4112833" lon="11.7037617"><ele>482.0</ele><time>2026-03-22T08:39:16.264Z</time></trkpt><trkpt lat="43.4113933" lon="11.703795"><ele>482.0</ele><time>2026-03-22T08:39:18.262Z</time></trkpt><trkpt lat="43.4115167" lon="11.70383"><ele>484.99999999999994</ele><time>2026-03-22T08:39:20.259Z</time></trkpt><trkpt lat="43.4115833" lon="11.70385"><ele>488.0</ele><time>2026-03-22T08:39:21.26Z</time></trkpt><trkpt lat="43.4116533" lon="11.7038567"><ele>491.0</ele><time>2026-03-22T08:39:22.261Z</time></trkpt><trkpt lat="43.41177" lon="11.7038467"><ele>494.0</ele><time>2026-03-22T08:39:24.26Z</time></trkpt><trkpt lat="43.4118483" lon="11.703815"><ele>496.99999999999994</ele><time>2026-03-22T08:39:26.262Z</time></trkpt><trkpt lat="43.411915" lon="11.7037883"><ele>500.0</ele><time>2026-03-22T08:39:29.263Z</time></trkpt><trkpt lat="43.411995" lon="11.70384"><ele>500.0</ele><time>2026-03-22T08:39:31.26Z</time></trkpt><trkpt lat="43.4120683" lon="11.7039483"><ele>500.0</ele><time>2026-03-22T08:39:33.259Z</time></trkpt><trkpt lat="43.41213" lon="11.70404"><ele>500.0</ele><time>2026-03-22T08:39:35.264Z</time></trkpt><trkpt lat="43.4121833" lon="11.7041017"><ele>500.0</ele><time>2026-03-22T08:39:37.259Z</time></trkpt><trkpt lat="43.4121083" lon="11.7039767"><ele>500.0</ele><time>2026-03-22T08:50:47.26Z</time></trkpt><trkpt lat="43.4120517" lon="11.70392"><ele>500.0</ele><time>2026-03-22T08:50:48.259Z</time></trkpt><trkpt lat="43.4119917" lon="11.7038667"><ele>500.0</ele><time>2026-03-22T08:50:49.26Z</time></trkpt><trkpt lat="43.4119333" lon="11.7038233"><ele>500.0</ele><time>2026-03-22T08:50:50.26Z</time></trkpt><trkpt lat="43.41187" lon="11.7037917"><ele>500.0</ele><time>2026-03-22T08:50:51.264Z</time></trkpt><trkpt lat="43.4118067" lon="11.7037583"><ele>500.0</ele><time>2026-03-22T08:50:52.26Z</time></trkpt><trkpt lat="43.41175" lon="11.703715"><ele>500.0</ele><time>2026-03-22T08:50:53.261Z</time></trkpt><trkpt lat="43.4117" lon="11.70366"><ele>500.0</ele><time>2026-03-22T08:50:54.266Z</time></trkpt><trkpt lat="43.4116467" lon="11.7036033"><ele>499.0</ele><time>2026-03-22T08:50:55.266Z</time></trkpt><trkpt lat="43.4115967" lon="11.703535"><ele>498.0</ele><time>2026-03-22T08:50:56.261Z</time></trkpt><trkpt lat="43.4115533" lon="11.703465"><ele>497.0</ele><time>2026-03-22T08:50:57.259Z</time></trkpt><trkpt lat="43.4115017" lon="11.7034083"><ele>496.0</ele><time>2026-03-22T08:50:58.258Z</time></trkpt><trkpt lat="43.4114367" lon="11.7033633"><ele>495.0</ele><time>2026-03-22T08:50:59.263Z</time></trkpt><trkpt lat="43.411375" lon="11.703325"><ele>494.0</ele><time>2026-03-22T08:51:00.26Z</time></trkpt><trkpt lat="43.41132" lon="11.70328"><ele>493.0</ele><time>2026-03-22T08:51:01.258Z</time></trkpt><trkpt lat="43.4112267" lon="11.70316"><ele>493.0</ele><time>2026-03-22T08:51:03.261Z</time></trkpt><trkpt lat="43.4111883" lon="11.7030817"><ele>492.99999999999994</ele><time>2026-03-22T08:51:04.26Z</time></trkpt><trkpt lat="43.4111583" lon="11.7029917"><ele>492.99999999999994</ele><time>2026-03-22T08:51:05.26Z</time></trkpt><trkpt lat="43.4111367" lon="11.7028983"><ele>493.0</ele><time>2026-03-22T08:51:06.259Z</time></trkpt><trkpt lat="43.4110983" lon="11.702735"><ele>493.0</ele><time>2026-03-22T08:51:08.258Z</time></trkpt><trkpt lat="43.4110517" lon="11.7025767"><ele>494.00000000000006</ele><time>2026-03-22T08:51:10.264Z</time></trkpt><trkpt lat="43.411" lon="11.7024083"><ele>495.0</ele><time>2026-03-22T08:51:12.259Z</time></trkpt><trkpt lat="43.4109817" lon="11.7023067"><ele>496.0</ele><time>2026-03-22T08:51:13.259Z</time></trkpt><trkpt lat="43.4109833" lon="11.702205"><ele>497.0</ele><time>2026-03-22T08:51:14.259Z</time></trkpt><trkpt lat="43.4109983" lon="11.7021"><ele>498.00000000000006</ele><time>2026-03-22T08:51:15.259Z</time></trkpt><trkpt lat="43.4110267" lon="11.7020117"><ele>499.0</ele><time>2026-03-22T08:51:16.26Z</time></trkpt><trkpt lat="43.4110467" lon="11.70192"><ele>499.50000000000006</ele><time>2026-03-22T08:51:17.26Z</time></trkpt><trkpt lat="43.411055" lon="11.7018217"><ele>500.0</ele><time>2026-03-22T08:51:18.258Z</time></trkpt><trkpt lat="43.4110517" lon="11.7017117"><ele>500.5</ele><time>2026-03-22T08:51:19.26Z</time></trkpt><trkpt lat="43.4110367" lon="11.7016017"><ele>501.0</ele><time>2026-03-22T08:51:20.263Z</time></trkpt><trkpt lat="43.4110233" lon="11.7014983"><ele>501.50000000000006</ele><time>2026-03-22T08:51:21.263Z</time></trkpt><trkpt lat="43.4110167" lon="11.7013967"><ele>502.0</ele><time>2026-03-22T08:51:22.259Z</time></trkpt><trkpt lat="43.411" lon="11.7013033"><ele>501.99999999999994</ele><time>2026-03-22T08:51:23.262Z</time></trkpt><trkpt lat="43.410985" lon="11.70121"><ele>502.0</ele><time>2026-03-22T08:51:24.256Z</time></trkpt><trkpt lat="43.4109633" lon="11.7011167"><ele>501.99999999999994</ele><time>2026-03-22T08:51:25.262Z</time></trkpt><trkpt lat="43.4109467" lon="11.7010267"><ele>501.99999999999994</ele><time>2026-03-22T08:51:26.26Z</time></trkpt><trkpt lat="43.41093" lon="11.7009333"><ele>502.0</ele><time>2026-03-22T08:51:27.259Z</time></trkpt><trkpt lat="43.410915" lon="11.700835"><ele>501.99999999999994</ele><time>2026-03-22T08:51:28.26Z</time></trkpt><trkpt lat="43.4109017" lon="11.700735"><ele>501.99999999999994</ele><time>2026-03-22T08:51:29.262Z</time></trkpt><trkpt lat="43.4108883" lon="11.7006417"><ele>503.33333333333337</ele><time>2026-03-22T08:51:30.259Z</time></trkpt><trkpt lat="43.4108717" lon="11.7005517"><ele>504.6666666666667</ele><time>2026-03-22T08:51:31.259Z</time></trkpt><trkpt lat="43.4108517" lon="11.7004683"><ele>506.0</ele><time>2026-03-22T08:51:32.259Z</time></trkpt><trkpt lat="43.4107833" lon="11.7003317"><ele>507.33333333333337</ele><time>2026-03-22T08:51:34.259Z</time></trkpt><trkpt lat="43.4107283" lon="11.70028"><ele>508.6666666666667</ele><time>2026-03-22T08:51:35.259Z</time></trkpt><trkpt lat="43.4106317" lon="11.7001717"><ele>510.0</ele><time>2026-03-22T08:51:37.261Z</time></trkpt><trkpt lat="43.41056" lon="11.7000433"><ele>511.0</ele><time>2026-03-22T08:51:39.261Z</time></trkpt><trkpt lat="43.4105367" lon="11.6998867"><ele>512.0</ele><time>2026-03-22T08:51:41.259Z</time></trkpt><trkpt lat="43.4105467" lon="11.6997917"><ele>513.0</ele><time>2026-03-22T08:51:42.257Z</time></trkpt><trkpt lat="43.41056" lon="11.6997"><ele>514.0</ele><time>2026-03-22T08:51:43.258Z</time></trkpt><trkpt lat="43.410595" lon="11.6995417"><ele>515.0</ele><time>2026-03-22T08:51:45.26Z</time></trkpt><trkpt lat="43.4106317" lon="11.6993833"><ele>515.0</ele><time>2026-03-22T08:51:47.259Z</time></trkpt><trkpt lat="43.410665" lon="11.6992967"><ele>515.0</ele><time>2026-03-22T08:51:48.261Z</time></trkpt><trkpt lat="43.4107" lon="11.699215"><ele>515.0</ele><time>2026-03-22T08:51:49.263Z</time></trkpt><trkpt lat="43.4107167" lon="11.6990667"><ele>515.0</ele><time>2026-03-22T08:51:51.261Z</time></trkpt><trkpt lat="43.4106483" lon="11.6989333"><ele>515.0</ele><time>2026-03-22T08:51:53.261Z</time></trkpt><trkpt lat="43.4105883" lon="11.698885"><ele>515.0</ele><time>2026-03-22T08:51:54.26Z</time></trkpt><trkpt lat="43.410535" lon="11.6988367"><ele>510.2</ele><time>2026-03-22T08:51:55.261Z</time></trkpt><trkpt lat="43.4104833" lon="11.6987833"><ele>505.4</ele><time>2026-03-22T08:51:56.261Z</time></trkpt><trkpt lat="43.4103967" lon="11.6987033"><ele>500.6</ele><time>2026-03-22T08:51:58.259Z</time></trkpt><trkpt lat="43.410315" lon="11.6987183"><ele>495.8</ele><time>2026-03-22T08:52:00.26Z</time></trkpt><trkpt lat="43.410215" lon="11.69879"><ele>491.0</ele><time>2026-03-22T08:52:02.261Z</time></trkpt><trkpt lat="43.4101117" lon="11.6988767"><ele>490.99999999999994</ele><time>2026-03-22T08:52:04.26Z</time></trkpt><trkpt lat="43.41005" lon="11.6989183"><ele>491.0</ele><time>2026-03-22T08:52:05.259Z</time></trkpt><trkpt lat="43.4099817" lon="11.6989467"><ele>491.0</ele><time>2026-03-22T08:52:06.257Z</time></trkpt><trkpt lat="43.4099133" lon="11.698955"><ele>491.0</ele><time>2026-03-22T08:52:07.258Z</time></trkpt><trkpt lat="43.4097967" lon="11.6989183"><ele>490.99999999999994</ele><time>2026-03-22T08:52:09.26Z</time></trkpt><trkpt lat="43.4097133" lon="11.6988133"><ele>491.0</ele><time>2026-03-22T08:52:11.26Z</time></trkpt><trkpt lat="43.4096833" lon="11.69873"><ele>490.3333333333333</ele><time>2026-03-22T08:52:12.264Z</time></trkpt><trkpt lat="43.4096583" lon="11.6986417"><ele>489.66666666666663</ele><time>2026-03-22T08:52:13.258Z</time></trkpt><trkpt lat="43.4096317" lon="11.698555"><ele>489.0</ele><time>2026-03-22T08:52:14.26Z</time></trkpt><trkpt lat="43.4096033" lon="11.6984667"><ele>488.33333333333337</ele><time>2026-03-22T08:52:15.262Z</time></trkpt><trkpt lat="43.4095767" lon="11.698385"><ele>487.6666666666667</ele><time>2026-03-22T08:52:16.258Z</time></trkpt><trkpt lat="43.40955" lon="11.6983033"><ele>487.0</ele><time>2026-03-22T08:52:17.261Z</time></trkpt><trkpt lat="43.4094983" lon="11.6981517"><ele>487.00000000000006</ele><time>2026-03-22T08:52:19.258Z</time></trkpt><trkpt lat="43.40944" lon="11.6980567"><ele>487.0</ele><time>2026-03-22T08:52:21.259Z</time></trkpt><trkpt lat="43.4093633" lon="11.6980683"><ele>487.0</ele><time>2026-03-22T08:52:23.26Z</time></trkpt><trkpt lat="43.4092833" lon="11.698125"><ele>487.0</ele><time>2026-03-22T08:52:25.263Z</time></trkpt><trkpt lat="43.409215" lon="11.6981667"><ele>487.00000000000006</ele><time>2026-03-22T08:52:27.261Z</time></trkpt><trkpt lat="43.4091267" lon="11.6981483"><ele>487.0</ele><time>2026-03-22T08:52:29.26Z</time></trkpt><trkpt lat="43.40904" lon="11.6981183"><ele>487.0</ele><time>2026-03-22T08:52:31.259Z</time></trkpt><trkpt lat="43.4089467" lon="11.6981667"><ele>487.00000000000006</ele><time>2026-03-22T08:52:33.258Z</time></trkpt><trkpt lat="43.4088583" lon="11.69823"><ele>487.00000000000006</ele><time>2026-03-22T08:52:35.259Z</time></trkpt><trkpt lat="43.4087917" lon="11.6982317"><ele>487.0</ele><time>2026-03-22T08:52:37.264Z</time></trkpt><trkpt lat="43.4087067" lon="11.6981967"><ele>487.0</ele><time>2026-03-22T08:52:39.26Z</time></trkpt><trkpt lat="43.408605" lon="11.6981667"><ele>486.8</ele><time>2026-03-22T08:52:41.258Z</time></trkpt><trkpt lat="43.408495" lon="11.6981483"><ele>486.6</ele><time>2026-03-22T08:52:43.262Z</time></trkpt><trkpt lat="43.4084033" lon="11.698115"><ele>486.40000000000003</ele><time>2026-03-22T08:52:45.26Z</time></trkpt><trkpt lat="43.408335" lon="11.6980233"><ele>486.20000000000005</ele><time>2026-03-22T08:52:47.257Z</time></trkpt><trkpt lat="43.4082667" lon="11.697925"><ele>486.0</ele><time>2026-03-22T08:52:49.258Z</time></trkpt><trkpt lat="43.408145" lon="11.697865"><ele>486.0</ele><time>2026-03-22T08:52:51.258Z</time></trkpt><trkpt lat="43.408075" lon="11.697855"><ele>486.0</ele><time>2026-03-22T08:52:52.26Z</time></trkpt><trkpt lat="43.408" lon="11.69785"><ele>486.0</ele><time>2026-03-22T08:52:53.26Z</time></trkpt><trkpt lat="43.4079367" lon="11.6978333"><ele>486.0</ele><time>2026-03-22T08:52:54.258Z</time></trkpt><trkpt lat="43.407875" lon="11.6977917"><ele>486.0</ele><time>2026-03-22T08:52:55.262Z</time></trkpt><trkpt lat="43.4078167" lon="11.6977383"><ele>486.0</ele><time>2026-03-22T08:52:56.264Z</time></trkpt><trkpt lat="43.4077883" lon="11.6976583"><ele>486.0</ele><time>2026-03-22T08:52:57.262Z</time></trkpt><trkpt lat="43.4077367" lon="11.6975367"><ele>487.3333333333333</ele><time>2026-03-22T08:52:59.26Z</time></trkpt><trkpt lat="43.4076733" lon="11.69752"><ele>488.66666666666663</ele><time>2026-03-22T08:53:01.259Z</time></trkpt><trkpt lat="43.4076" lon="11.6975433"><ele>490.0</ele><time>2026-03-22T08:53:03.269Z</time></trkpt><trkpt lat="43.4075317" lon="11.6975833"><ele>491.3333333333333</ele><time>2026-03-22T08:53:05.261Z</time></trkpt><trkpt lat="43.4074433" lon="11.6976533"><ele>492.66666666666663</ele><time>2026-03-22T08:53:08.257Z</time></trkpt><trkpt lat="43.4073633" lon="11.6977217"><ele>494.0</ele><time>2026-03-22T08:53:10.26Z</time></trkpt><trkpt lat="43.4072967" lon="11.69778"><ele>493.99999999999994</ele><time>2026-03-22T08:53:12.26Z</time></trkpt><trkpt lat="43.4072417" lon="11.6978283"><ele>494.0</ele><time>2026-03-22T08:53:14.263Z</time></trkpt><trkpt lat="43.4071717" lon="11.69789"><ele>494.0</ele><time>2026-03-22T08:53:16.259Z</time></trkpt><trkpt lat="43.407075" lon="11.69797"><ele>494.0</ele><time>2026-03-22T08:53:18.261Z</time></trkpt><trkpt lat="43.4070117" lon="11.69802"><ele>493.99999999999994</ele><time>2026-03-22T08:53:19.261Z</time></trkpt><trkpt lat="43.4069583" lon="11.6980867"><ele>494.0</ele><time>2026-03-22T08:53:20.261Z</time></trkpt><trkpt lat="43.4069167" lon="11.6981633"><ele>494.8333333333333</ele><time>2026-03-22T08:53:21.262Z</time></trkpt><trkpt lat="43.40688" lon="11.6982483"><ele>495.66666666666663</ele><time>2026-03-22T08:53:22.258Z</time></trkpt><trkpt lat="43.406845" lon="11.6983283"><ele>496.5</ele><time>2026-03-22T08:53:23.261Z</time></trkpt><trkpt lat="43.4068017" lon="11.6984067"><ele>497.33333333333337</ele><time>2026-03-22T08:53:24.259Z</time></trkpt><trkpt lat="43.4067367" lon="11.6984883"><ele>498.1666666666667</ele><time>2026-03-22T08:53:25.26Z</time></trkpt><trkpt lat="43.4066767" lon="11.6985633"><ele>499.0</ele><time>2026-03-22T08:53:26.259Z</time></trkpt><trkpt lat="43.40662" lon="11.6986233"><ele>499.0</ele><time>2026-03-22T08:53:27.266Z</time></trkpt><trkpt lat="43.4065283" lon="11.6986783"><ele>499.0</ele><time>2026-03-22T08:53:29.26Z</time></trkpt><trkpt lat="43.4064233" lon="11.698625"><ele>499.0</ele><time>2026-03-22T08:53:31.264Z</time></trkpt><trkpt lat="43.40635" lon="11.6985183"><ele>499.0</ele><time>2026-03-22T08:53:33.263Z</time></trkpt><trkpt lat="43.40629" lon="11.6983817"><ele>499.0</ele><time>2026-03-22T08:53:35.261Z</time></trkpt><trkpt lat="43.4062233" lon="11.6982767"><ele>503.83333333333337</ele><time>2026-03-22T08:53:37.265Z</time></trkpt><trkpt lat="43.4061367" lon="11.69829"><ele>508.6666666666667</ele><time>2026-03-22T08:53:39.266Z</time></trkpt><trkpt lat="43.406075" lon="11.6983167"><ele>513.5</ele><time>2026-03-22T08:53:40.264Z</time></trkpt><trkpt lat="43.4060067" lon="11.698345"><ele>518.3333333333334</ele><time>2026-03-22T08:53:41.261Z</time></trkpt><trkpt lat="43.4059383" lon="11.6983617"><ele>523.1666666666666</ele><time>2026-03-22T08:53:42.261Z</time></trkpt><trkpt lat="43.405835" lon="11.6983183"><ele>528.0</ele><time>2026-03-22T08:53:44.263Z</time></trkpt><trkpt lat="43.4057667" lon="11.6982767"><ele>528.0</ele><time>2026-03-22T08:53:45.261Z</time></trkpt><trkpt lat="43.4056717" lon="11.6982317"><ele>528.0</ele><time>2026-03-22T08:53:46.258Z</time></trkpt><trkpt lat="43.4055883" lon="11.69819"><ele>528.0</ele><time>2026-03-22T08:53:47.26Z</time></trkpt><trkpt lat="43.4055267" lon="11.6981583"><ele>528.0</ele><time>2026-03-22T08:53:48.261Z</time></trkpt><trkpt lat="43.405435" lon="11.6980633"><ele>528.0</ele><time>2026-03-22T08:53:50.258Z</time></trkpt><trkpt lat="43.4053883" lon="11.6980017"><ele>528.0</ele><time>2026-03-22T08:53:51.262Z</time></trkpt><trkpt lat="43.4053233" lon="11.6979117"><ele>530.0</ele><time>2026-03-22T08:53:53.261Z</time></trkpt><trkpt lat="43.4052533" lon="11.697865"><ele>532.0</ele><time>2026-03-22T08:53:58.26Z</time></trkpt><trkpt lat="43.4052583" lon="11.697975"><ele>534.0</ele><time>2026-03-22T08:54:02.258Z</time></trkpt><trkpt lat="43.40527" lon="11.6980617"><ele>536.0</ele><time>2026-03-22T08:54:03.264Z</time></trkpt><trkpt lat="43.4052817" lon="11.6981533"><ele>538.0</ele><time>2026-03-22T08:54:04.257Z</time></trkpt><trkpt lat="43.4053" lon="11.69825"><ele>540.0</ele><time>2026-03-22T08:54:05.259Z</time></trkpt><trkpt lat="43.405325" lon="11.6983517"><ele>542.0</ele><time>2026-03-22T08:54:06.259Z</time></trkpt><trkpt lat="43.405355" lon="11.69845"><ele>542.0</ele><time>2026-03-22T08:54:07.259Z</time></trkpt><trkpt lat="43.4053833" lon="11.698545"><ele>542.0</ele><time>2026-03-22T08:54:08.259Z</time></trkpt><trkpt lat="43.40542" lon="11.6986633"><ele>542.0</ele><time>2026-03-22T08:54:09.259Z</time></trkpt><trkpt lat="43.4054633" lon="11.6987717"><ele>542.0</ele><time>2026-03-22T08:54:10.259Z</time></trkpt><trkpt lat="43.4055117" lon="11.69888"><ele>542.0</ele><time>2026-03-22T08:54:11.259Z</time></trkpt><trkpt lat="43.405555" lon="11.698975"><ele>542.0</ele><time>2026-03-22T08:54:12.261Z</time></trkpt><trkpt lat="43.40559" lon="11.6990617"><ele>539.0</ele><time>2026-03-22T08:54:13.258Z</time></trkpt><trkpt lat="43.4056567" lon="11.699205"><ele>536.0</ele><time>2026-03-22T08:54:15.259Z</time></trkpt><trkpt lat="43.4057" lon="11.6993433"><ele>533.0</ele><time>2026-03-22T08:54:17.257Z</time></trkpt><trkpt lat="43.4056667" lon="11.699465"><ele>530.0</ele><time>2026-03-22T08:54:19.259Z</time></trkpt><trkpt lat="43.4055667" lon="11.6995467"><ele>527.0</ele><time>2026-03-22T08:54:34.261Z</time></trkpt><trkpt lat="43.4054683" lon="11.6995633"><ele>526.8000000000001</ele><time>2026-03-22T08:54:36.258Z</time></trkpt><trkpt lat="43.4053617" lon="11.6995367"><ele>526.6</ele><time>2026-03-22T08:54:38.258Z</time></trkpt><trkpt lat="43.4052683" lon="11.6994617"><ele>526.4000000000001</ele><time>2026-03-22T08:54:40.261Z</time></trkpt><trkpt lat="43.40522" lon="11.6993433"><ele>526.2</ele><time>2026-03-22T08:54:42.259Z</time></trkpt><trkpt lat="43.4051883" lon="11.69919"><ele>526.0</ele><time>2026-03-22T08:54:44.261Z</time></trkpt><trkpt lat="43.4051617" lon="11.6990367"><ele>528.8</ele><time>2026-03-22T08:54:46.263Z</time></trkpt><trkpt lat="43.4051133" lon="11.6988983"><ele>531.6</ele><time>2026-03-22T08:54:48.261Z</time></trkpt><trkpt lat="43.4050317" lon="11.6987817"><ele>534.4</ele><time>2026-03-22T08:54:50.258Z</time></trkpt><trkpt lat="43.40494" lon="11.6986583"><ele>537.2</ele><time>2026-03-22T08:54:52.262Z</time></trkpt><trkpt lat="43.4048933" lon="11.6985933"><ele>540.0</ele><time>2026-03-22T08:54:53.257Z</time></trkpt><trkpt lat="43.4048483" lon="11.6985267"><ele>540.0</ele><time>2026-03-22T08:54:54.26Z</time></trkpt><trkpt lat="43.4048083" lon="11.6984533"><ele>540.0</ele><time>2026-03-22T08:54:55.26Z</time></trkpt><trkpt lat="43.4047683" lon="11.69838"><ele>540.0</ele><time>2026-03-22T08:54:56.257Z</time></trkpt><trkpt lat="43.4046967" lon="11.6982417"><ele>540.0</ele><time>2026-03-22T08:54:58.259Z</time></trkpt><trkpt lat="43.40462" lon="11.6981017"><ele>540.0</ele><time>2026-03-22T08:55:00.262Z</time></trkpt><trkpt lat="43.4045767" lon="11.6980283"><ele>540.0</ele><time>2026-03-22T08:55:01.266Z</time></trkpt><trkpt lat="43.40453" lon="11.6979633"><ele>540.0</ele><time>2026-03-22T08:55:02.26Z</time></trkpt><trkpt lat="43.4044817" lon="11.6979"><ele>540.0</ele><time>2026-03-22T08:55:03.259Z</time></trkpt><trkpt lat="43.4044333" lon="11.6978367"><ele>540.0</ele><time>2026-03-22T08:55:04.259Z</time></trkpt><trkpt lat="43.404385" lon="11.69778"><ele>540.0</ele><time>2026-03-22T08:55:05.26Z</time></trkpt><trkpt lat="43.4043367" lon="11.6977233"><ele>540.0</ele><time>2026-03-22T08:55:06.263Z</time></trkpt><trkpt lat="43.4042467" lon="11.6976017"><ele>541.1428571428571</ele><time>2026-03-22T08:55:08.259Z</time></trkpt><trkpt lat="43.4042033" lon="11.6975317"><ele>542.2857142857142</ele><time>2026-03-22T08:55:09.258Z</time></trkpt><trkpt lat="43.404155" lon="11.6974617"><ele>543.4285714285714</ele><time>2026-03-22T08:55:10.259Z</time></trkpt><trkpt lat="43.40411" lon="11.6973967"><ele>544.5714285714286</ele><time>2026-03-22T08:55:11.259Z</time></trkpt><trkpt lat="43.4040617" lon="11.6973367"><ele>545.7142857142858</ele><time>2026-03-22T08:55:12.258Z</time></trkpt><trkpt lat="43.4040133" lon="11.6972783"><ele>546.8571428571429</ele><time>2026-03-22T08:55:13.26Z</time></trkpt><trkpt lat="43.40396" lon="11.6972217"><ele>548.0</ele><time>2026-03-22T08:55:14.261Z</time></trkpt><trkpt lat="43.4038983" lon="11.6971883"><ele>548.0000000000001</ele><time>2026-03-22T08:55:15.262Z</time></trkpt><trkpt lat="43.4038317" lon="11.6971717"><ele>548.0</ele><time>2026-03-22T08:55:16.259Z</time></trkpt><trkpt lat="43.4037633" lon="11.69716"><ele>548.0</ele><time>2026-03-22T08:55:17.262Z</time></trkpt><trkpt lat="43.4036917" lon="11.6971467"><ele>548.0</ele><time>2026-03-22T08:55:18.259Z</time></trkpt><trkpt lat="43.4036183" lon="11.6971367"><ele>548.0</ele><time>2026-03-22T08:55:19.258Z</time></trkpt><trkpt lat="43.4035367" lon="11.6971467"><ele>548.0000000000001</ele><time>2026-03-22T08:55:20.258Z</time></trkpt><trkpt lat="43.4034667" lon="11.69716"><ele>548.0</ele><time>2026-03-22T08:55:21.261Z</time></trkpt><trkpt lat="43.403395" lon="11.6971567"><ele>548.8333333333333</ele><time>2026-03-22T08:55:22.26Z</time></trkpt><trkpt lat="43.403285" lon="11.6970883"><ele>549.6666666666666</ele><time>2026-03-22T08:55:24.259Z</time></trkpt><trkpt lat="43.403235" lon="11.6970183"><ele>550.5</ele><time>2026-03-22T08:55:25.258Z</time></trkpt><trkpt lat="43.403185" lon="11.6969433"><ele>551.3333333333334</ele><time>2026-03-22T08:55:26.257Z</time></trkpt><trkpt lat="43.403155" lon="11.6968567"><ele>552.1666666666667</ele><time>2026-03-22T08:55:27.26Z</time></trkpt><trkpt lat="43.40314" lon="11.696765"><ele>553.0</ele><time>2026-03-22T08:55:28.259Z</time></trkpt><trkpt lat="43.4031267" lon="11.6966717"><ele>555.1666666666667</ele><time>2026-03-22T08:55:29.262Z</time></trkpt><trkpt lat="43.4031017" lon="11.6965883"><ele>557.3333333333334</ele><time>2026-03-22T08:55:30.26Z</time></trkpt><trkpt lat="43.4030567" lon="11.6965083"><ele>559.5</ele><time>2026-03-22T08:55:31.262Z</time></trkpt><trkpt lat="43.403" lon="11.6964267"><ele>561.6666666666666</ele><time>2026-03-22T08:55:32.257Z</time></trkpt><trkpt lat="43.4029383" lon="11.6963483"><ele>563.8333333333333</ele><time>2026-03-22T08:55:33.259Z</time></trkpt><trkpt lat="43.402875" lon="11.696265"><ele>566.0</ele><time>2026-03-22T08:55:34.259Z</time></trkpt><trkpt lat="43.4028133" lon="11.6961733"><ele>567.6</ele><time>2026-03-22T08:55:35.26Z</time></trkpt><trkpt lat="43.402745" lon="11.6960717"><ele>569.2</ele><time>2026-03-22T08:55:36.259Z</time></trkpt><trkpt lat="43.4026733" lon="11.6959667"><ele>570.8</ele><time>2026-03-22T08:55:37.26Z</time></trkpt><trkpt lat="43.4026033" lon="11.6958567"><ele>572.4</ele><time>2026-03-22T08:55:38.258Z</time></trkpt><trkpt lat="43.4025333" lon="11.6957467"><ele>574.0</ele><time>2026-03-22T08:55:39.258Z</time></trkpt><trkpt lat="43.4024617" lon="11.6956417"><ele>574.0</ele><time>2026-03-22T08:55:40.258Z</time></trkpt><trkpt lat="43.402385" lon="11.695555"><ele>574.0</ele><time>2026-03-22T08:55:41.259Z</time></trkpt><trkpt lat="43.4022983" lon="11.6954817"><ele>574.0</ele><time>2026-03-22T08:55:42.258Z</time></trkpt><trkpt lat="43.4022017" lon="11.6954133"><ele>574.0</ele><time>2026-03-22T08:55:43.266Z</time></trkpt><trkpt lat="43.4021" lon="11.6953483"><ele>574.0</ele><time>2026-03-22T08:55:44.257Z</time></trkpt><trkpt lat="43.4019967" lon="11.6952817"><ele>575.4</ele><time>2026-03-22T08:55:45.259Z</time></trkpt><trkpt lat="43.4018933" lon="11.695215"><ele>576.8</ele><time>2026-03-22T08:55:46.259Z</time></trkpt><trkpt lat="43.4017967" lon="11.6951483"><ele>578.2</ele><time>2026-03-22T08:55:47.259Z</time></trkpt><trkpt lat="43.40171" lon="11.6950867"><ele>579.6</ele><time>2026-03-22T08:55:48.257Z</time></trkpt><trkpt lat="43.40164" lon="11.6950233"><ele>581.0</ele><time>2026-03-22T08:55:49.26Z</time></trkpt><trkpt lat="43.4015717" lon="11.6949517"><ele>581.0</ele><time>2026-03-22T08:55:50.259Z</time></trkpt><trkpt lat="43.4015017" lon="11.6948583"><ele>581.0</ele><time>2026-03-22T08:55:51.26Z</time></trkpt><trkpt lat="43.4014333" lon="11.694755"><ele>581.0</ele><time>2026-03-22T08:55:52.258Z</time></trkpt><trkpt lat="43.4013617" lon="11.6946483"><ele>581.0</ele><time>2026-03-22T08:55:53.258Z</time></trkpt><trkpt lat="43.4012933" lon="11.6945417"><ele>581.0</ele><time>2026-03-22T08:55:54.258Z</time></trkpt><trkpt lat="43.4012333" lon="11.6944417"><ele>581.1666666666666</ele><time>2026-03-22T08:55:55.262Z</time></trkpt><trkpt lat="43.40118" lon="11.6943467"><ele>581.3333333333333</ele><time>2026-03-22T08:55:56.259Z</time></trkpt><trkpt lat="43.4011367" lon="11.6942583"><ele>581.5</ele><time>2026-03-22T08:55:57.264Z</time></trkpt><trkpt lat="43.4011" lon="11.694175"><ele>581.6666666666666</ele><time>2026-03-22T08:55:58.26Z</time></trkpt><trkpt lat="43.40107" lon="11.694095"><ele>581.8333333333334</ele><time>2026-03-22T08:55:59.258Z</time></trkpt><trkpt lat="43.401015" lon="11.6939533"><ele>582.0</ele><time>2026-03-22T08:56:01.26Z</time></trkpt><trkpt lat="43.4009767" lon="11.6938383"><ele>582.0</ele><time>2026-03-22T08:56:03.263Z</time></trkpt><trkpt lat="43.400945" lon="11.6937317"><ele>582.0</ele><time>2026-03-22T08:56:06.26Z</time></trkpt><trkpt lat="43.4008633" lon="11.6936817"><ele>582.0</ele><time>2026-03-22T08:56:25.26Z</time></trkpt><trkpt lat="43.4007433" lon="11.693715"><ele>582.0</ele><time>2026-03-22T08:56:27.35Z</time></trkpt><trkpt lat="43.400675" lon="11.69373"><ele>582.0</ele><time>2026-03-22T08:56:28.261Z</time></trkpt><trkpt lat="43.4005983" lon="11.69373"><ele>582.0</ele><time>2026-03-22T08:56:29.258Z</time></trkpt><trkpt lat="43.4005117" lon="11.6937133"><ele>581.6</ele><time>2026-03-22T08:56:30.259Z</time></trkpt><trkpt lat="43.40042" lon="11.693685"><ele>581.2</ele><time>2026-03-22T08:56:31.259Z</time></trkpt><trkpt lat="43.4003267" lon="11.6936483"><ele>580.8</ele><time>2026-03-22T08:56:32.261Z</time></trkpt><trkpt lat="43.4002367" lon="11.6936067"><ele>580.4</ele><time>2026-03-22T08:56:33.261Z</time></trkpt><trkpt lat="43.4001433" lon="11.6935683"><ele>580.0</ele><time>2026-03-22T08:56:34.259Z</time></trkpt><trkpt lat="43.4000533" lon="11.6935283"><ele>580.0</ele><time>2026-03-22T08:56:35.261Z</time></trkpt><trkpt lat="43.3999683" lon="11.6934967"><ele>580.0</ele><time>2026-03-22T08:56:36.262Z</time></trkpt><trkpt lat="43.399885" lon="11.693485"><ele>580.0</ele><time>2026-03-22T08:56:37.26Z</time></trkpt><trkpt lat="43.3998067" lon="11.6935"><ele>580.0</ele><time>2026-03-22T08:56:38.263Z</time></trkpt><trkpt lat="43.3997483" lon="11.6935483"><ele>580.0</ele><time>2026-03-22T08:56:39.258Z</time></trkpt><trkpt lat="43.3997017" lon="11.69362"><ele>580.0</ele><time>2026-03-22T08:56:40.259Z</time></trkpt><trkpt lat="43.3996533" lon="11.6937133"><ele>579.6</ele><time>2026-03-22T08:56:41.261Z</time></trkpt><trkpt lat="43.3995933" lon="11.6938083"><ele>579.2</ele><time>2026-03-22T08:56:42.258Z</time></trkpt><trkpt lat="43.3995133" lon="11.693885"><ele>578.8</ele><time>2026-03-22T08:56:43.259Z</time></trkpt><trkpt lat="43.39942" lon="11.6939333"><ele>578.4</ele><time>2026-03-22T08:56:44.261Z</time></trkpt><trkpt lat="43.3993167" lon="11.69396"><ele>578.0</ele><time>2026-03-22T08:56:45.261Z</time></trkpt><trkpt lat="43.399215" lon="11.6939783"><ele>578.0</ele><time>2026-03-22T08:56:46.258Z</time></trkpt><trkpt lat="43.399115" lon="11.6939933"><ele>578.0</ele><time>2026-03-22T08:56:47.26Z</time></trkpt><trkpt lat="43.39902" lon="11.6940133"><ele>578.0</ele><time>2026-03-22T08:56:48.259Z</time></trkpt><trkpt lat="43.3989283" lon="11.6940317"><ele>578.0</ele><time>2026-03-22T08:56:49.26Z</time></trkpt><trkpt lat="43.398835" lon="11.69405"><ele>578.0</ele><time>2026-03-22T08:56:50.26Z</time></trkpt><trkpt lat="43.3987417" lon="11.694065"><ele>577.1999999999999</ele><time>2026-03-22T08:56:51.26Z</time></trkpt><trkpt lat="43.3986533" lon="11.6940717"><ele>576.4</ele><time>2026-03-22T08:56:52.26Z</time></trkpt><trkpt lat="43.398565" lon="11.69406"><ele>575.5999999999999</ele><time>2026-03-22T08:56:53.259Z</time></trkpt><trkpt lat="43.398475" lon="11.694025"><ele>574.8</ele><time>2026-03-22T08:56:54.258Z</time></trkpt><trkpt lat="43.3983883" lon="11.6939667"><ele>574.0</ele><time>2026-03-22T08:56:55.256Z</time></trkpt><trkpt lat="43.3983083" lon="11.6938917"><ele>574.0</ele><time>2026-03-22T08:56:56.258Z</time></trkpt><trkpt lat="43.3982367" lon="11.693805"><ele>574.0</ele><time>2026-03-22T08:56:57.264Z</time></trkpt><trkpt lat="43.39817" lon="11.6937117"><ele>574.0</ele><time>2026-03-22T08:56:58.263Z</time></trkpt><trkpt lat="43.398105" lon="11.69362"><ele>574.0</ele><time>2026-03-22T08:56:59.26Z</time></trkpt><trkpt lat="43.3980417" lon="11.6935317"><ele>574.0</ele><time>2026-03-22T08:57:00.259Z</time></trkpt><trkpt lat="43.3979817" lon="11.6934433"><ele>573.1666666666667</ele><time>2026-03-22T08:57:01.26Z</time></trkpt><trkpt lat="43.397925" lon="11.693355"><ele>572.3333333333334</ele><time>2026-03-22T08:57:02.262Z</time></trkpt><trkpt lat="43.397865" lon="11.6932633"><ele>571.5</ele><time>2026-03-22T08:57:03.259Z</time></trkpt><trkpt lat="43.397805" lon="11.6931683"><ele>570.6666666666666</ele><time>2026-03-22T08:57:04.259Z</time></trkpt><trkpt lat="43.397745" lon="11.6930767"><ele>569.8333333333333</ele><time>2026-03-22T08:57:05.255Z</time></trkpt><trkpt lat="43.3976833" lon="11.692985"><ele>569.0</ele><time>2026-03-22T08:57:06.264Z</time></trkpt><trkpt lat="43.39762" lon="11.6928917"><ele>569.0</ele><time>2026-03-22T08:57:07.259Z</time></trkpt><trkpt lat="43.3975583" lon="11.6928"><ele>569.0</ele><time>2026-03-22T08:57:08.262Z</time></trkpt><trkpt lat="43.3974917" lon="11.692715"><ele>569.0</ele><time>2026-03-22T08:57:09.261Z</time></trkpt><trkpt lat="43.3974217" lon="11.69263"><ele>569.0</ele><time>2026-03-22T08:57:10.257Z</time></trkpt><trkpt lat="43.3973533" lon="11.6925517"><ele>569.0</ele><time>2026-03-22T08:57:11.262Z</time></trkpt><trkpt lat="43.3972783" lon="11.6924733"><ele>568.8</ele><time>2026-03-22T08:57:12.263Z</time></trkpt><trkpt lat="43.3972" lon="11.6923917"><ele>568.5999999999999</ele><time>2026-03-22T08:57:13.268Z</time></trkpt><trkpt lat="43.39712" lon="11.692305"><ele>568.4</ele><time>2026-03-22T08:57:14.261Z</time></trkpt><trkpt lat="43.3970417" lon="11.69221"><ele>568.1999999999999</ele><time>2026-03-22T08:57:15.266Z</time></trkpt><trkpt lat="43.3969683" lon="11.6921083"><ele>568.0</ele><time>2026-03-22T08:57:16.26Z</time></trkpt><trkpt lat="43.3969" lon="11.692"><ele>567.6</ele><time>2026-03-22T08:57:17.257Z</time></trkpt><trkpt lat="43.3968383" lon="11.6918883"><ele>567.1999999999999</ele><time>2026-03-22T08:57:18.258Z</time></trkpt><trkpt lat="43.3967783" lon="11.6917767"><ele>566.8</ele><time>2026-03-22T08:57:19.258Z</time></trkpt><trkpt lat="43.3967217" lon="11.6916667"><ele>566.4</ele><time>2026-03-22T08:57:20.262Z</time></trkpt><trkpt lat="43.3966633" lon="11.6915567"><ele>566.0</ele><time>2026-03-22T08:57:21.261Z</time></trkpt><trkpt lat="43.396605" lon="11.69145"><ele>566.0</ele><time>2026-03-22T08:57:22.26Z</time></trkpt><trkpt lat="43.39655" lon="11.6913417"><ele>566.0</ele><time>2026-03-22T08:57:23.26Z</time></trkpt><trkpt lat="43.3964983" lon="11.691235"><ele>566.0</ele><time>2026-03-22T08:57:24.259Z</time></trkpt><trkpt lat="43.3964467" lon="11.6911333"><ele>566.0</ele><time>2026-03-22T08:57:25.262Z</time></trkpt><trkpt lat="43.3963933" lon="11.6910333"><ele>566.0</ele><time>2026-03-22T08:57:26.259Z</time></trkpt><trkpt lat="43.3963417" lon="11.6909367"><ele>565.0</ele><time>2026-03-22T08:57:27.259Z</time></trkpt><trkpt lat="43.396295" lon="11.6908467"><ele>564.0</ele><time>2026-03-22T08:57:28.26Z</time></trkpt><trkpt lat="43.39625" lon="11.6907617"><ele>563.0</ele><time>2026-03-22T08:57:29.257Z</time></trkpt><trkpt lat="43.3962083" lon="11.6906817"><ele>562.0</ele><time>2026-03-22T08:57:30.258Z</time></trkpt><trkpt lat="43.3961383" lon="11.69055"><ele>561.0</ele><time>2026-03-22T08:57:32.259Z</time></trkpt><trkpt lat="43.39606" lon="11.69043"><ele>561.0</ele><time>2026-03-22T08:57:34.259Z</time></trkpt><trkpt lat="43.3959517" lon="11.69034"><ele>561.0</ele><time>2026-03-22T08:57:36.26Z</time></trkpt><trkpt lat="43.3958883" lon="11.6903167"><ele>561.0</ele><time>2026-03-22T08:57:37.259Z</time></trkpt><trkpt lat="43.39582" lon="11.6903083"><ele>561.0</ele><time>2026-03-22T08:57:38.262Z</time></trkpt><trkpt lat="43.3957467" lon="11.6903117"><ele>561.0</ele><time>2026-03-22T08:57:39.264Z</time></trkpt><trkpt lat="43.39567" lon="11.6903233"><ele>561.0</ele><time>2026-03-22T08:57:40.259Z</time></trkpt><trkpt lat="43.3955917" lon="11.6903433"><ele>561.0</ele><time>2026-03-22T08:57:41.258Z</time></trkpt><trkpt lat="43.39551" lon="11.6903667"><ele>561.0</ele><time>2026-03-22T08:57:42.265Z</time></trkpt><trkpt lat="43.3954383" lon="11.6903967"><ele>561.0</ele><time>2026-03-22T08:57:43.264Z</time></trkpt><trkpt lat="43.3953683" lon="11.6904283"><ele>561.0</ele><time>2026-03-22T08:57:44.261Z</time></trkpt><trkpt lat="43.3953" lon="11.6904633"><ele>561.0</ele><time>2026-03-22T08:57:45.261Z</time></trkpt><trkpt lat="43.3952367" lon="11.6904983"><ele>561.0</ele><time>2026-03-22T08:57:46.258Z</time></trkpt><trkpt lat="43.3951733" lon="11.6905333"><ele>561.0</ele><time>2026-03-22T08:57:47.261Z</time></trkpt><trkpt lat="43.3951117" lon="11.690565"><ele>559.0</ele><time>2026-03-22T08:57:48.261Z</time></trkpt><trkpt lat="43.3950533" lon="11.6905983"><ele>557.0</ele><time>2026-03-22T08:57:49.257Z</time></trkpt><trkpt lat="43.39495" lon="11.6906567"><ele>555.0</ele><time>2026-03-22T08:57:51.261Z</time></trkpt><trkpt lat="43.3948867" lon="11.690665"><ele>553.0</ele><time>2026-03-22T08:57:53.259Z</time></trkpt><trkpt lat="43.3948817" lon="11.690565"><ele>551.0</ele><time>2026-03-22T08:57:56.264Z</time></trkpt><trkpt lat="43.3949383" lon="11.690475"><ele>549.0</ele><time>2026-03-22T08:57:58.259Z</time></trkpt><trkpt lat="43.39499" lon="11.6904083"><ele>549.0</ele><time>2026-03-22T08:57:59.258Z</time></trkpt><trkpt lat="43.3950567" lon="11.6903267"><ele>549.0</ele><time>2026-03-22T08:58:00.263Z</time></trkpt><trkpt lat="43.3951233" lon="11.6902483"><ele>549.0</ele><time>2026-03-22T08:58:01.259Z</time></trkpt><trkpt lat="43.3951983" lon="11.69017"><ele>549.0</ele><time>2026-03-22T08:58:02.259Z</time></trkpt><trkpt lat="43.395265" lon="11.690095"><ele>549.0</ele><time>2026-03-22T08:58:03.259Z</time></trkpt><trkpt lat="43.3953317" lon="11.690025"><ele>549.0</ele><time>2026-03-22T08:58:04.258Z</time></trkpt><trkpt lat="43.395395" lon="11.6899567"><ele>549.5</ele><time>2026-03-22T08:58:05.261Z</time></trkpt><trkpt lat="43.3954567" lon="11.6898917"><ele>550.0</ele><time>2026-03-22T08:58:06.26Z</time></trkpt><trkpt lat="43.395515" lon="11.6898367"><ele>550.5</ele><time>2026-03-22T08:58:07.261Z</time></trkpt><trkpt lat="43.3955967" lon="11.689755"><ele>551.0</ele><time>2026-03-22T08:58:09.258Z</time></trkpt><trkpt lat="43.3956133" lon="11.6896283"><ele>551.5</ele><time>2026-03-22T08:58:12.258Z</time></trkpt><trkpt lat="43.395625" lon="11.689505"><ele>552.0</ele><time>2026-03-22T08:58:14.262Z</time></trkpt><trkpt lat="43.39567" lon="11.6894167"><ele>548.6</ele><time>2026-03-22T08:58:16.259Z</time></trkpt><trkpt lat="43.3957817" lon="11.68939"><ele>545.2</ele><time>2026-03-22T08:58:18.258Z</time></trkpt><trkpt lat="43.3958467" lon="11.6893867"><ele>541.8</ele><time>2026-03-22T08:58:19.264Z</time></trkpt><trkpt lat="43.3959583" lon="11.6893833"><ele>538.4</ele><time>2026-03-22T08:58:21.258Z</time></trkpt><trkpt lat="43.3960717" lon="11.6893767"><ele>535.0</ele><time>2026-03-22T08:58:23.26Z</time></trkpt><trkpt lat="43.3961367" lon="11.68937"><ele>535.0</ele><time>2026-03-22T08:58:24.26Z</time></trkpt><trkpt lat="43.3962067" lon="11.68936"><ele>535.0</ele><time>2026-03-22T08:58:25.259Z</time></trkpt><trkpt lat="43.3962783" lon="11.6893617"><ele>535.0</ele><time>2026-03-22T08:58:26.257Z</time></trkpt><trkpt lat="43.39635" lon="11.6893733"><ele>535.0</ele><time>2026-03-22T08:58:27.261Z</time></trkpt><trkpt lat="43.396415" lon="11.689395"><ele>535.0</ele><time>2026-03-22T08:58:28.259Z</time></trkpt><trkpt lat="43.3965233" lon="11.6894633"><ele>535.0</ele><time>2026-03-22T08:58:30.258Z</time></trkpt><trkpt lat="43.3966133" lon="11.689535"><ele>536.8</ele><time>2026-03-22T08:58:32.261Z</time></trkpt><trkpt lat="43.39669" lon="11.6895817"><ele>538.6</ele><time>2026-03-22T08:58:34.258Z</time></trkpt><trkpt lat="43.3967617" lon="11.6896383"><ele>540.4</ele><time>2026-03-22T08:58:36.258Z</time></trkpt><trkpt lat="43.396835" lon="11.6896467"><ele>542.2</ele><time>2026-03-22T08:58:38.257Z</time></trkpt><trkpt lat="43.39693" lon="11.6895883"><ele>544.0</ele><time>2026-03-22T08:58:40.261Z</time></trkpt><trkpt lat="43.3970233" lon="11.68951"><ele>544.0</ele><time>2026-03-22T08:58:42.258Z</time></trkpt><trkpt lat="43.3970917" lon="11.6894433"><ele>544.0</ele><time>2026-03-22T08:58:44.261Z</time></trkpt><trkpt lat="43.3971733" lon="11.6893967"><ele>544.0</ele><time>2026-03-22T08:58:46.261Z</time></trkpt><trkpt lat="43.3972767" lon="11.6893833"><ele>544.0</ele><time>2026-03-22T08:58:48.257Z</time></trkpt><trkpt lat="43.39734" lon="11.689395"><ele>544.0</ele><time>2026-03-22T08:58:49.26Z</time></trkpt><trkpt lat="43.397445" lon="11.6894367"><ele>544.0</ele><time>2026-03-22T08:58:51.26Z</time></trkpt><trkpt lat="43.3975283" lon="11.6894833"><ele>542.8</ele><time>2026-03-22T08:58:53.263Z</time></trkpt><trkpt lat="43.3975983" lon="11.6895267"><ele>541.5999999999999</ele><time>2026-03-22T08:58:55.263Z</time></trkpt><trkpt lat="43.397695" lon="11.6895767"><ele>540.4</ele><time>2026-03-22T08:58:57.259Z</time></trkpt><trkpt lat="43.3977883" lon="11.6896133"><ele>539.1999999999999</ele><time>2026-03-22T08:58:59.259Z</time></trkpt><trkpt lat="43.3978767" lon="11.6896483"><ele>538.0</ele><time>2026-03-22T08:59:01.257Z</time></trkpt><trkpt lat="43.3979567" lon="11.68972"><ele>534.6666666666667</ele><time>2026-03-22T08:59:03.259Z</time></trkpt><trkpt lat="43.3980383" lon="11.6897917"><ele>531.3333333333334</ele><time>2026-03-22T08:59:05.258Z</time></trkpt><trkpt lat="43.39814" lon="11.6898883"><ele>528.0</ele><time>2026-03-22T08:59:07.257Z</time></trkpt><trkpt lat="43.3981933" lon="11.689945"><ele>524.6666666666666</ele><time>2026-03-22T08:59:08.258Z</time></trkpt><trkpt lat="43.3982417" lon="11.69001"><ele>521.3333333333333</ele><time>2026-03-22T08:59:09.256Z</time></trkpt><trkpt lat="43.3982883" lon="11.69007"><ele>518.0</ele><time>2026-03-22T08:59:10.259Z</time></trkpt><trkpt lat="43.3983867" lon="11.6901617"><ele>518.0</ele><time>2026-03-22T08:59:12.257Z</time></trkpt><trkpt lat="43.3984783" lon="11.6902333"><ele>518.0</ele><time>2026-03-22T08:59:14.257Z</time></trkpt><trkpt lat="43.398555" lon="11.69025"><ele>518.0</ele><time>2026-03-22T08:59:16.26Z</time></trkpt><trkpt lat="43.3986367" lon="11.69019"><ele>518.0</ele><time>2026-03-22T08:59:18.261Z</time></trkpt><trkpt lat="43.398695" lon="11.690155"><ele>518.0</ele><time>2026-03-22T08:59:19.264Z</time></trkpt><trkpt lat="43.3988217" lon="11.690105"><ele>519.1666666666666</ele><time>2026-03-22T08:59:21.258Z</time></trkpt><trkpt lat="43.3988983" lon="11.6900817"><ele>520.3333333333333</ele><time>2026-03-22T08:59:22.258Z</time></trkpt><trkpt lat="43.3989683" lon="11.6900567"><ele>521.5</ele><time>2026-03-22T08:59:23.261Z</time></trkpt><trkpt lat="43.3990633" lon="11.6899933"><ele>522.6666666666666</ele><time>2026-03-22T08:59:25.257Z</time></trkpt><trkpt lat="43.3990717" lon="11.68986"><ele>523.8333333333334</ele><time>2026-03-22T08:59:27.259Z</time></trkpt><trkpt lat="43.39904" lon="11.6897567"><ele>525.0</ele><time>2026-03-22T08:59:28.262Z</time></trkpt><trkpt lat="43.3990267" lon="11.6896717"><ele>525.0</ele><time>2026-03-22T08:59:29.263Z</time></trkpt><trkpt lat="43.3990033" lon="11.6895833"><ele>525.0</ele><time>2026-03-22T08:59:30.258Z</time></trkpt><trkpt lat="43.3989833" lon="11.689495"><ele>525.0</ele><time>2026-03-22T08:59:31.262Z</time></trkpt><trkpt lat="43.3989767" lon="11.6894017"><ele>525.0</ele><time>2026-03-22T08:59:32.26Z</time></trkpt><trkpt lat="43.3989833" lon="11.689315"><ele>525.0</ele><time>2026-03-22T08:59:33.26Z</time></trkpt><trkpt lat="43.39902" lon="11.6891683"><ele>525.0</ele><time>2026-03-22T08:59:35.259Z</time></trkpt><trkpt lat="43.399065" lon="11.689105"><ele>525.0</ele><time>2026-03-22T08:59:36.258Z</time></trkpt><trkpt lat="43.3991117" lon="11.689045"><ele>524.4285714285714</ele><time>2026-03-22T08:59:37.257Z</time></trkpt><trkpt lat="43.39916" lon="11.6889867"><ele>523.8571428571429</ele><time>2026-03-22T08:59:38.258Z</time></trkpt><trkpt lat="43.3992133" lon="11.6889317"><ele>523.2857142857142</ele><time>2026-03-22T08:59:39.257Z</time></trkpt><trkpt lat="43.39928" lon="11.688875"><ele>522.7142857142858</ele><time>2026-03-22T08:59:40.257Z</time></trkpt><trkpt lat="43.3993383" lon="11.6888167"><ele>522.1428571428571</ele><time>2026-03-22T08:59:41.261Z</time></trkpt><trkpt lat="43.3993933" lon="11.6887533"><ele>521.5714285714286</ele><time>2026-03-22T08:59:42.259Z</time></trkpt><trkpt lat="43.3994433" lon="11.6886867"><ele>521.0</ele><time>2026-03-22T08:59:43.259Z</time></trkpt><trkpt lat="43.399505" lon="11.6886317"><ele>520.3333333333333</ele><time>2026-03-22T08:59:44.257Z</time></trkpt><trkpt lat="43.399575" lon="11.688575"><ele>519.6666666666666</ele><time>2026-03-22T08:59:45.258Z</time></trkpt><trkpt lat="43.399645" lon="11.688515"><ele>519.0</ele><time>2026-03-22T08:59:46.258Z</time></trkpt><trkpt lat="43.3997083" lon="11.6884517"><ele>518.3333333333334</ele><time>2026-03-22T08:59:47.26Z</time></trkpt><trkpt lat="43.39977" lon="11.68839"><ele>517.6666666666667</ele><time>2026-03-22T08:59:48.258Z</time></trkpt><trkpt lat="43.3998267" lon="11.6883317"><ele>517.0</ele><time>2026-03-22T08:59:49.258Z</time></trkpt><trkpt lat="43.3998767" lon="11.6882717"><ele>520.6</ele><time>2026-03-22T08:59:50.263Z</time></trkpt><trkpt lat="43.39998" lon="11.6881583"><ele>524.2</ele><time>2026-03-22T08:59:52.258Z</time></trkpt><trkpt lat="43.4000333" lon="11.6880933"><ele>527.8</ele><time>2026-03-22T08:59:53.257Z</time></trkpt><trkpt lat="43.4000817" lon="11.6880233"><ele>531.4</ele><time>2026-03-22T08:59:54.26Z</time></trkpt><trkpt lat="43.4001433" lon="11.6878933"><ele>535.0</ele><time>2026-03-22T08:59:56.259Z</time></trkpt><trkpt lat="43.4001583" lon="11.6877933"><ele>535.4</ele><time>2026-03-22T08:59:58.257Z</time></trkpt><trkpt lat="43.4000717" lon="11.687745"><ele>535.8</ele><time>2026-03-22T09:00:00.256Z</time></trkpt><trkpt lat="43.4000033" lon="11.6877283"><ele>536.2</ele><time>2026-03-22T09:00:01.255Z</time></trkpt><trkpt lat="43.3999117" lon="11.68773"><ele>536.6</ele><time>2026-03-22T09:00:02.257Z</time></trkpt><trkpt lat="43.399795" lon="11.6877"><ele>537.0</ele><time>2026-03-22T09:00:03.258Z</time></trkpt><trkpt lat="43.3996733" lon="11.6876783"><ele>535.2</ele><time>2026-03-22T09:00:04.257Z</time></trkpt><trkpt lat="43.3995683" lon="11.6876533"><ele>533.4000000000001</ele><time>2026-03-22T09:00:05.256Z</time></trkpt><trkpt lat="43.3994683" lon="11.6876333"><ele>531.5999999999999</ele><time>2026-03-22T09:00:06.259Z</time></trkpt><trkpt lat="43.399375" lon="11.687615"><ele>529.8</ele><time>2026-03-22T09:00:07.261Z</time></trkpt><trkpt lat="43.399295" lon="11.6875967"><ele>528.0</ele><time>2026-03-22T09:00:08.262Z</time></trkpt><trkpt lat="43.3992217" lon="11.6875733"><ele>528.0</ele><time>2026-03-22T09:00:09.257Z</time></trkpt><trkpt lat="43.3991333" lon="11.6875217"><ele>528.0</ele><time>2026-03-22T09:00:11.259Z</time></trkpt><trkpt lat="43.3990817" lon="11.6874133"><ele>528.0</ele><time>2026-03-22T09:00:18.259Z</time></trkpt><trkpt lat="43.3990617" lon="11.6873183"><ele>528.0</ele><time>2026-03-22T09:00:20.258Z</time></trkpt><trkpt lat="43.3990933" lon="11.6871933"><ele>528.0</ele><time>2026-03-22T09:00:23.257Z</time></trkpt><trkpt lat="43.3991333" lon="11.6871183"><ele>528.0</ele><time>2026-03-22T09:00:25.258Z</time></trkpt><trkpt lat="43.39918" lon="11.6870267"><ele>528.0</ele><time>2026-03-22T09:00:28.258Z</time></trkpt><trkpt lat="43.3992117" lon="11.68694"><ele>528.0</ele><time>2026-03-22T09:00:31.259Z</time></trkpt><trkpt lat="43.3991517" lon="11.6870417"><ele>528.0</ele><time>2026-03-22T09:00:47.257Z</time></trkpt><trkpt lat="43.3990917" lon="11.6871267"><ele>528.0</ele><time>2026-03-22T09:00:49.259Z</time></trkpt><trkpt lat="43.3990433" lon="11.687215"><ele>528.0</ele><time>2026-03-22T09:00:51.262Z</time></trkpt><trkpt lat="43.399045" lon="11.6873367"><ele>528.0</ele><time>2026-03-22T09:00:53.261Z</time></trkpt><trkpt lat="43.399065" lon="11.687425"><ele>528.0</ele><time>2026-03-22T09:00:55.261Z</time></trkpt><trkpt lat="43.3991267" lon="11.6874633"><ele>528.0</ele><time>2026-03-22T09:01:00.262Z</time></trkpt><trkpt lat="43.3992067" lon="11.6874367"><ele>528.0</ele><time>2026-03-22T09:01:02.262Z</time></trkpt><trkpt lat="43.39929" lon="11.687395"><ele>528.0</ele><time>2026-03-22T09:01:04.26Z</time></trkpt><trkpt lat="43.39938" lon="11.6873617"><ele>528.0</ele><time>2026-03-22T09:01:06.263Z</time></trkpt><trkpt lat="43.3994783" lon="11.6873483"><ele>528.0</ele><time>2026-03-22T09:01:08.261Z</time></trkpt><trkpt lat="43.399575" lon="11.6873233"><ele>529.8</ele><time>2026-03-22T09:01:10.26Z</time></trkpt><trkpt lat="43.3996767" lon="11.6872967"><ele>531.5999999999999</ele><time>2026-03-22T09:01:12.261Z</time></trkpt><trkpt lat="43.3997683" lon="11.6872367"><ele>533.4000000000001</ele><time>2026-03-22T09:01:14.26Z</time></trkpt><trkpt lat="43.3998683" lon="11.6871517"><ele>535.2</ele><time>2026-03-22T09:01:16.259Z</time></trkpt><trkpt lat="43.3999233" lon="11.6870967"><ele>537.0</ele><time>2026-03-22T09:01:17.257Z</time></trkpt><trkpt lat="43.39998" lon="11.6870367"><ele>536.9999999999999</ele><time>2026-03-22T09:01:18.278Z</time></trkpt><trkpt lat="43.4000333" lon="11.6869883"><ele>537.0</ele><time>2026-03-22T09:01:19.259Z</time></trkpt><trkpt lat="43.400085" lon="11.6869267"><ele>537.0</ele><time>2026-03-22T09:01:20.259Z</time></trkpt><trkpt lat="43.4001317" lon="11.6868583"><ele>537.0</ele><time>2026-03-22T09:01:21.26Z</time></trkpt><trkpt lat="43.4001817" lon="11.6867917"><ele>537.0</ele><time>2026-03-22T09:01:22.259Z</time></trkpt><trkpt lat="43.4002417" lon="11.6867233"><ele>536.9999999999999</ele><time>2026-03-22T09:01:23.258Z</time></trkpt><trkpt lat="43.400315" lon="11.686665"><ele>537.0</ele><time>2026-03-22T09:01:24.262Z</time></trkpt><trkpt lat="43.40039" lon="11.68663"><ele>538.2</ele><time>2026-03-22T09:01:25.263Z</time></trkpt><trkpt lat="43.40047" lon="11.6865983"><ele>539.4000000000001</ele><time>2026-03-22T09:01:26.259Z</time></trkpt><trkpt lat="43.4005633" lon="11.6865617"><ele>540.5999999999999</ele><time>2026-03-22T09:01:27.259Z</time></trkpt><trkpt lat="43.4006683" lon="11.68651"><ele>541.8</ele><time>2026-03-22T09:01:28.258Z</time></trkpt><trkpt lat="43.4007767" lon="11.6864483"><ele>543.0</ele><time>2026-03-22T09:01:29.262Z</time></trkpt><trkpt lat="43.400875" lon="11.6863883"><ele>544.8</ele><time>2026-03-22T09:01:30.259Z</time></trkpt><trkpt lat="43.400965" lon="11.68634"><ele>546.5999999999999</ele><time>2026-03-22T09:01:31.261Z</time></trkpt><trkpt lat="43.4010517" lon="11.6862933"><ele>548.4000000000001</ele><time>2026-03-22T09:01:32.26Z</time></trkpt><trkpt lat="43.401135" lon="11.6862467"><ele>550.2</ele><time>2026-03-22T09:01:33.26Z</time></trkpt><trkpt lat="43.4012167" lon="11.6862033"><ele>552.0</ele><time>2026-03-22T09:01:34.259Z</time></trkpt><trkpt lat="43.4012967" lon="11.686155"><ele>553.0</ele><time>2026-03-22T09:01:35.258Z</time></trkpt><trkpt lat="43.4013783" lon="11.6861067"><ele>554.0</ele><time>2026-03-22T09:01:36.265Z</time></trkpt><trkpt lat="43.4014633" lon="11.6860617"><ele>555.0</ele><time>2026-03-22T09:01:37.263Z</time></trkpt><trkpt lat="43.4015517" lon="11.6860167"><ele>556.0</ele><time>2026-03-22T09:01:38.262Z</time></trkpt><trkpt lat="43.40164" lon="11.6859683"><ele>557.0</ele><time>2026-03-22T09:01:39.258Z</time></trkpt><trkpt lat="43.4017267" lon="11.6859233"><ele>558.5</ele><time>2026-03-22T09:01:40.262Z</time></trkpt><trkpt lat="43.40181" lon="11.68588"><ele>560.0</ele><time>2026-03-22T09:01:41.257Z</time></trkpt><trkpt lat="43.4018883" lon="11.685845"><ele>561.5</ele><time>2026-03-22T09:01:42.262Z</time></trkpt><trkpt lat="43.4019683" lon="11.6858167"><ele>563.0</ele><time>2026-03-22T09:01:43.259Z</time></trkpt><trkpt lat="43.402045" lon="11.6858133"><ele>564.5</ele><time>2026-03-22T09:01:44.258Z</time></trkpt><trkpt lat="43.4021217" lon="11.6858317"><ele>566.0</ele><time>2026-03-22T09:01:45.259Z</time></trkpt><trkpt lat="43.40219" lon="11.6858517"><ele>567.8</ele><time>2026-03-22T09:01:46.261Z</time></trkpt><trkpt lat="43.4023117" lon="11.6858483"><ele>569.6</ele><time>2026-03-22T09:01:48.263Z</time></trkpt><trkpt lat="43.4023733" lon="11.6858017"><ele>571.4</ele><time>2026-03-22T09:01:49.262Z</time></trkpt><trkpt lat="43.4024333" lon="11.68572"><ele>573.2</ele><time>2026-03-22T09:01:50.26Z</time></trkpt><trkpt lat="43.4025" lon="11.68562"><ele>575.0</ele><time>2026-03-22T09:01:51.259Z</time></trkpt><trkpt lat="43.402565" lon="11.68551"><ele>575.0</ele><time>2026-03-22T09:01:52.26Z</time></trkpt><trkpt lat="43.40264" lon="11.6854033"><ele>575.0</ele><time>2026-03-22T09:01:53.262Z</time></trkpt><trkpt lat="43.4027117" lon="11.6853033"><ele>575.0</ele><time>2026-03-22T09:01:54.258Z</time></trkpt><trkpt lat="43.4027833" lon="11.685205"><ele>575.0</ele><time>2026-03-22T09:01:55.257Z</time></trkpt><trkpt lat="43.4028533" lon="11.6851033"><ele>575.0</ele><time>2026-03-22T09:01:56.259Z</time></trkpt><trkpt lat="43.4029283" lon="11.6850133"><ele>578.2</ele><time>2026-03-22T09:01:57.263Z</time></trkpt><trkpt lat="43.4030133" lon="11.6849533"><ele>581.4</ele><time>2026-03-22T09:01:58.26Z</time></trkpt><trkpt lat="43.40311" lon="11.68492"><ele>584.6</ele><time>2026-03-22T09:01:59.258Z</time></trkpt><trkpt lat="43.4032117" lon="11.6849117"><ele>587.8</ele><time>2026-03-22T09:02:00.262Z</time></trkpt><trkpt lat="43.403315" lon="11.68492"><ele>591.0</ele><time>2026-03-22T09:02:01.26Z</time></trkpt><trkpt lat="43.4034133" lon="11.6849333"><ele>591.0</ele><time>2026-03-22T09:02:02.258Z</time></trkpt><trkpt lat="43.403505" lon="11.6849483"><ele>591.0</ele><time>2026-03-22T09:02:03.261Z</time></trkpt><trkpt lat="43.4035883" lon="11.6849583"><ele>591.0</ele><time>2026-03-22T09:02:04.258Z</time></trkpt><trkpt lat="43.4036617" lon="11.6849633"><ele>591.0</ele><time>2026-03-22T09:02:05.257Z</time></trkpt><trkpt lat="43.40376" lon="11.68496"><ele>591.0</ele><time>2026-03-22T09:02:07.258Z</time></trkpt><trkpt lat="43.403835" lon="11.6849217"><ele>591.0</ele><time>2026-03-22T09:02:10.259Z</time></trkpt><trkpt lat="43.4039" lon="11.6848567"><ele>591.6666666666666</ele><time>2026-03-22T09:02:13.257Z</time></trkpt><trkpt lat="43.403965" lon="11.6848033"><ele>592.3333333333334</ele><time>2026-03-22T09:02:16.263Z</time></trkpt><trkpt lat="43.404045" lon="11.68479"><ele>593.0</ele><time>2026-03-22T09:02:19.259Z</time></trkpt><trkpt lat="43.4041417" lon="11.6847767"><ele>593.6666666666667</ele><time>2026-03-22T09:02:43.258Z</time></trkpt><trkpt lat="43.4042233" lon="11.6847517"><ele>594.3333333333334</ele><time>2026-03-22T09:02:45.26Z</time></trkpt><trkpt lat="43.4043183" lon="11.68472"><ele>595.0</ele><time>2026-03-22T09:02:47.26Z</time></trkpt><trkpt lat="43.4044033" lon="11.6846783"><ele>595.0</ele><time>2026-03-22T09:02:49.259Z</time></trkpt><trkpt lat="43.4044717" lon="11.684655"><ele>595.0</ele><time>2026-03-22T09:02:51.26Z</time></trkpt><trkpt lat="43.404535" lon="11.6846583"><ele>595.0</ele><time>2026-03-22T09:02:54.263Z</time></trkpt><trkpt lat="43.4046067" lon="11.6846583"><ele>595.0</ele><time>2026-03-22T09:03:00.258Z</time></trkpt><trkpt lat="43.4046733" lon="11.6846533"><ele>595.0</ele><time>2026-03-22T09:03:02.26Z</time></trkpt><trkpt lat="43.4047583" lon="11.684655"><ele>595.0</ele><time>2026-03-22T09:03:04.259Z</time></trkpt><trkpt lat="43.404825" lon="11.6846833"><ele>595.0</ele><time>2026-03-22T09:03:06.261Z</time></trkpt><trkpt lat="43.4048883" lon="11.6847067"><ele>593.7142857142857</ele><time>2026-03-22T09:03:08.259Z</time></trkpt><trkpt lat="43.40495" lon="11.684745"><ele>592.4285714285714</ele><time>2026-03-22T09:03:10.263Z</time></trkpt><trkpt lat="43.405015" lon="11.6848"><ele>591.1428571428571</ele><time>2026-03-22T09:03:12.258Z</time></trkpt><trkpt lat="43.4050617" lon="11.6848683"><ele>589.8571428571429</ele><time>2026-03-22T09:03:14.258Z</time></trkpt><trkpt lat="43.4051033" lon="11.684935"><ele>588.5714285714286</ele><time>2026-03-22T09:03:16.258Z</time></trkpt><trkpt lat="43.405145" lon="11.685005"><ele>587.2857142857142</ele><time>2026-03-22T09:03:18.26Z</time></trkpt><trkpt lat="43.40518" lon="11.68509"><ele>586.0</ele><time>2026-03-22T09:03:20.261Z</time></trkpt><trkpt lat="43.405225" lon="11.6851683"><ele>586.0</ele><time>2026-03-22T09:03:22.259Z</time></trkpt><trkpt lat="43.4052867" lon="11.685245"><ele>586.0</ele><time>2026-03-22T09:03:24.261Z</time></trkpt><trkpt lat="43.4053667" lon="11.6853083"><ele>586.0</ele><time>2026-03-22T09:03:26.259Z</time></trkpt><trkpt lat="43.4054617" lon="11.6853633"><ele>586.0</ele><time>2026-03-22T09:03:28.258Z</time></trkpt><trkpt lat="43.405545" lon="11.685425"><ele>586.0</ele><time>2026-03-22T09:03:30.262Z</time></trkpt><trkpt lat="43.4056167" lon="11.6854717"><ele>584.5</ele><time>2026-03-22T09:03:32.261Z</time></trkpt><trkpt lat="43.4056983" lon="11.6855117"><ele>583.0</ele><time>2026-03-22T09:03:34.26Z</time></trkpt><trkpt lat="43.4057983" lon="11.6855417"><ele>581.5</ele><time>2026-03-22T09:03:36.262Z</time></trkpt><trkpt lat="43.405885" lon="11.68556"><ele>580.0</ele><time>2026-03-22T09:03:38.261Z</time></trkpt><trkpt lat="43.4059567" lon="11.6855817"><ele>578.5</ele><time>2026-03-22T09:03:40.261Z</time></trkpt><trkpt lat="43.4060433" lon="11.685645"><ele>577.0</ele><time>2026-03-22T09:03:43.259Z</time></trkpt><trkpt lat="43.4061133" lon="11.68567"><ele>577.0</ele><time>2026-03-22T09:03:45.26Z</time></trkpt><trkpt lat="43.4061917" lon="11.68565"><ele>577.0</ele><time>2026-03-22T09:03:47.26Z</time></trkpt><trkpt lat="43.4062667" lon="11.6856517"><ele>577.0</ele><time>2026-03-22T09:03:49.261Z</time></trkpt><trkpt lat="43.406335" lon="11.6856883"><ele>577.0</ele><time>2026-03-22T09:03:51.259Z</time></trkpt><trkpt lat="43.4063983" lon="11.6857667"><ele>577.0</ele><time>2026-03-22T09:03:53.263Z</time></trkpt><trkpt lat="43.406445" lon="11.685845"><ele>577.0</ele><time>2026-03-22T09:03:55.259Z</time></trkpt><trkpt lat="43.406475" lon="11.6859317"><ele>575.3333333333334</ele><time>2026-03-22T09:03:57.259Z</time></trkpt><trkpt lat="43.4064883" lon="11.6860383"><ele>573.6666666666667</ele><time>2026-03-22T09:04:00.259Z</time></trkpt><trkpt lat="43.4065367" lon="11.6860967"><ele>572.0</ele><time>2026-03-22T09:04:03.262Z</time></trkpt><trkpt lat="43.4066117" lon="11.6861517"><ele>570.3333333333334</ele><time>2026-03-22T09:04:05.257Z</time></trkpt><trkpt lat="43.4066717" lon="11.686195"><ele>568.6666666666666</ele><time>2026-03-22T09:04:07.257Z</time></trkpt><trkpt lat="43.4067483" lon="11.6863283"><ele>567.0</ele><time>2026-03-22T09:04:22.259Z</time></trkpt><trkpt lat="43.4068283" lon="11.6863767"><ele>567.0</ele><time>2026-03-22T09:04:26.261Z</time></trkpt><trkpt lat="43.4069017" lon="11.6863733"><ele>567.0</ele><time>2026-03-22T09:04:29.26Z</time></trkpt><trkpt lat="43.406975" lon="11.6863633"><ele>567.0</ele><time>2026-03-22T09:04:35.258Z</time></trkpt><trkpt lat="43.4070683" lon="11.6863783"><ele>567.0</ele><time>2026-03-22T09:04:37.259Z</time></trkpt><trkpt lat="43.4071667" lon="11.6864133"><ele>567.0</ele><time>2026-03-22T09:04:39.261Z</time></trkpt><trkpt lat="43.4072633" lon="11.686435"><ele>567.0</ele><time>2026-03-22T09:04:41.259Z</time></trkpt><trkpt lat="43.4073783" lon="11.6864817"><ele>562.5</ele><time>2026-03-22T09:04:44.258Z</time></trkpt><trkpt lat="43.4074383" lon="11.686545"><ele>558.0</ele><time>2026-03-22T09:04:46.262Z</time></trkpt><trkpt lat="43.4074867" lon="11.6866167"><ele>553.5</ele><time>2026-03-22T09:04:48.258Z</time></trkpt><trkpt lat="43.4075517" lon="11.68665"><ele>549.0</ele><time>2026-03-22T09:04:50.26Z</time></trkpt><trkpt lat="43.40764" lon="11.6866517"><ele>544.5</ele><time>2026-03-22T09:04:52.262Z</time></trkpt><trkpt lat="43.40773" lon="11.686645"><ele>540.0</ele><time>2026-03-22T09:04:54.26Z</time></trkpt><trkpt lat="43.4078183" lon="11.6866633"><ele>540.0</ele><time>2026-03-22T09:04:56.258Z</time></trkpt><trkpt lat="43.4079033" lon="11.6867017"><ele>540.0</ele><time>2026-03-22T09:04:58.259Z</time></trkpt><trkpt lat="43.4080017" lon="11.6867617"><ele>540.0</ele><time>2026-03-22T09:05:00.259Z</time></trkpt><trkpt lat="43.40808" lon="11.6868233"><ele>540.0</ele><time>2026-03-22T09:05:02.257Z</time></trkpt><trkpt lat="43.4081467" lon="11.686915"><ele>540.0</ele><time>2026-03-22T09:05:04.258Z</time></trkpt><trkpt lat="43.408205" lon="11.687045"><ele>540.0</ele><time>2026-03-22T09:05:06.261Z</time></trkpt><trkpt lat="43.4082717" lon="11.6871583"><ele>540.0</ele><time>2026-03-22T09:05:08.258Z</time></trkpt><trkpt lat="43.4083517" lon="11.68723"><ele>540.0</ele><time>2026-03-22T09:05:10.259Z</time></trkpt><trkpt lat="43.408405" lon="11.68729"><ele>540.0</ele><time>2026-03-22T09:05:11.259Z</time></trkpt><trkpt lat="43.40846" lon="11.6873633"><ele>540.0</ele><time>2026-03-22T09:05:12.257Z</time></trkpt><trkpt lat="43.40853" lon="11.6874633"><ele>540.0</ele><time>2026-03-22T09:05:14.261Z</time></trkpt><trkpt lat="43.40858" lon="11.687545"><ele>540.0</ele><time>2026-03-22T09:05:16.26Z</time></trkpt><trkpt lat="43.4086133" lon="11.6876233"><ele>540.0</ele><time>2026-03-22T09:05:19.261Z</time></trkpt><trkpt lat="43.4085833" lon="11.6877117"><ele>540.0</ele><time>2026-03-22T09:07:31.259Z</time></trkpt><trkpt lat="43.408555" lon="11.6878033"><ele>540.0</ele><time>2026-03-22T09:07:35.258Z</time></trkpt><trkpt lat="43.4085283" lon="11.6879033"><ele>540.0</ele><time>2026-03-22T09:07:37.263Z</time></trkpt><trkpt lat="43.4085233" lon="11.688005"><ele>540.0</ele><time>2026-03-22T09:07:39.258Z</time></trkpt><trkpt lat="43.4085367" lon="11.688105"><ele>540.0</ele><time>2026-03-22T09:07:41.26Z</time></trkpt><trkpt lat="43.4085667" lon="11.6882283"><ele>542.8</ele><time>2026-03-22T09:07:43.259Z</time></trkpt><trkpt lat="43.408605" lon="11.6883617"><ele>545.6</ele><time>2026-03-22T09:07:45.259Z</time></trkpt><trkpt lat="43.4086417" lon="11.6884933"><ele>548.4</ele><time>2026-03-22T09:07:47.26Z</time></trkpt><trkpt lat="43.4086767" lon="11.6886233"><ele>551.2</ele><time>2026-03-22T09:07:49.259Z</time></trkpt><trkpt lat="43.4086883" lon="11.6887433"><ele>554.0</ele><time>2026-03-22T09:07:52.259Z</time></trkpt><trkpt lat="43.4086967" lon="11.6888417"><ele>554.4285714285714</ele><time>2026-03-22T09:16:56.261Z</time></trkpt><trkpt lat="43.4086367" lon="11.6887933"><ele>554.8571428571428</ele><time>2026-03-22T09:18:10.261Z</time></trkpt><trkpt lat="43.408635" lon="11.688895"><ele>555.2857142857142</ele><time>2026-03-22T09:18:15.26Z</time></trkpt><trkpt lat="43.408655" lon="11.688995"><ele>555.7142857142857</ele><time>2026-03-22T09:18:18.262Z</time></trkpt><trkpt lat="43.40866" lon="11.689085"><ele>556.1428571428571</ele><time>2026-03-22T09:18:20.259Z</time></trkpt><trkpt lat="43.4086767" lon="11.6891767"><ele>556.5714285714286</ele><time>2026-03-22T09:18:22.258Z</time></trkpt><trkpt lat="43.4087133" lon="11.6892717"><ele>557.0</ele><time>2026-03-22T09:18:24.26Z</time></trkpt><trkpt lat="43.40879" lon="11.68932"><ele>552.7142857142858</ele><time>2026-03-22T09:18:27.263Z</time></trkpt><trkpt lat="43.4088533" lon="11.689295"><ele>548.4285714285714</ele><time>2026-03-22T09:18:30.26Z</time></trkpt><trkpt lat="43.408925" lon="11.6892717"><ele>544.1428571428571</ele><time>2026-03-22T09:18:33.259Z</time></trkpt><trkpt lat="43.408995" lon="11.6892683"><ele>539.8571428571429</ele><time>2026-03-22T09:18:36.26Z</time></trkpt><trkpt lat="43.4090667" lon="11.6892517"><ele>535.5714285714286</ele><time>2026-03-22T09:18:40.259Z</time></trkpt><trkpt lat="43.4091333" lon="11.6892383"><ele>531.2857142857143</ele><time>2026-03-22T09:18:43.259Z</time></trkpt><trkpt lat="43.4091833" lon="11.6891817"><ele>527.0</ele><time>2026-03-22T09:18:54.259Z</time></trkpt><trkpt lat="43.40911" lon="11.6891817"><ele>527.0000000000001</ele><time>2026-03-22T09:19:26.259Z</time></trkpt><trkpt lat="43.409045" lon="11.6892033"><ele>527.0</ele><time>2026-03-22T09:19:28.259Z</time></trkpt><trkpt lat="43.4089733" lon="11.689225"><ele>527.0</ele><time>2026-03-22T09:19:30.259Z</time></trkpt><trkpt lat="43.4089033" lon="11.6892533"><ele>527.0</ele><time>2026-03-22T09:19:32.259Z</time></trkpt><trkpt lat="43.408835" lon="11.6892917"><ele>527.0</ele><time>2026-03-22T09:19:34.26Z</time></trkpt><trkpt lat="43.40877" lon="11.6893117"><ele>527.0000000000001</ele><time>2026-03-22T09:19:36.258Z</time></trkpt><trkpt lat="43.40873" lon="11.6891967"><ele>527.0</ele><time>2026-03-22T09:19:39.26Z</time></trkpt><trkpt lat="43.40872" lon="11.68905"><ele>532.4</ele><time>2026-03-22T09:19:41.26Z</time></trkpt><trkpt lat="43.4086933" lon="11.6889283"><ele>537.8000000000001</ele><time>2026-03-22T09:19:43.259Z</time></trkpt><trkpt lat="43.4087383" lon="11.68882"><ele>543.2</ele><time>2026-03-22T09:19:49.259Z</time></trkpt><trkpt lat="43.408735" lon="11.6887017"><ele>548.6</ele><time>2026-03-22T09:19:52.261Z</time></trkpt><trkpt lat="43.4087133" lon="11.6885683"><ele>554.0</ele><time>2026-03-22T09:19:55.26Z</time></trkpt><trkpt lat="43.4086917" lon="11.6884583"><ele>554.0</ele><time>2026-03-22T09:19:57.26Z</time></trkpt><trkpt lat="43.4086733" lon="11.6883633"><ele>554.0</ele><time>2026-03-22T09:19:59.258Z</time></trkpt><trkpt lat="43.40865" lon="11.6882733"><ele>554.0</ele><time>2026-03-22T09:20:01.261Z</time></trkpt><trkpt lat="43.4086183" lon="11.68817"><ele>554.0</ele><time>2026-03-22T09:20:03.263Z</time></trkpt><trkpt lat="43.408605" lon="11.6880817"><ele>554.0</ele><time>2026-03-22T09:20:05.258Z</time></trkpt><trkpt lat="43.4086217" lon="11.6879683"><ele>554.0</ele><time>2026-03-22T09:20:08.259Z</time></trkpt><trkpt lat="43.4086333" lon="11.687875"><ele>554.0</ele><time>2026-03-22T09:20:10.259Z</time></trkpt><trkpt lat="43.4086433" lon="11.68775"><ele>554.0</ele><time>2026-03-22T09:20:13.26Z</time></trkpt><trkpt lat="43.408715" lon="11.6877267"><ele>554.0</ele><time>2026-03-22T09:20:16.26Z</time></trkpt><trkpt lat="43.4087633" lon="11.6877933"><ele>554.0</ele><time>2026-03-22T09:20:18.258Z</time></trkpt><trkpt lat="43.40882" lon="11.6878783"><ele>554.0</ele><time>2026-03-22T09:20:21.26Z</time></trkpt><trkpt lat="43.40887" lon="11.6879417"><ele>554.0</ele><time>2026-03-22T09:20:24.258Z</time></trkpt><trkpt lat="43.4088983" lon="11.688045"><ele>554.0</ele><time>2026-03-22T09:20:28.258Z</time></trkpt><trkpt lat="43.4089367" lon="11.688135"><ele>548.5714285714286</ele><time>2026-03-22T09:20:33.262Z</time></trkpt><trkpt lat="43.4089733" lon="11.6882067"><ele>543.1428571428571</ele><time>2026-03-22T09:21:25.26Z</time></trkpt><trkpt lat="43.4090333" lon="11.6882467"><ele>537.7142857142857</ele><time>2026-03-22T09:21:32.262Z</time></trkpt><trkpt lat="43.4091067" lon="11.6882683"><ele>532.2857142857142</ele><time>2026-03-22T09:21:38.259Z</time></trkpt><trkpt lat="43.40918" lon="11.6882833"><ele>526.8571428571429</ele><time>2026-03-22T09:21:41.258Z</time></trkpt><trkpt lat="43.4092533" lon="11.6882767"><ele>521.4285714285713</ele><time>2026-03-22T09:21:45.261Z</time></trkpt><trkpt lat="43.409335" lon="11.6882817"><ele>516.0</ele><time>2026-03-22T09:21:49.26Z</time></trkpt><trkpt lat="43.4094233" lon="11.6882917"><ele>515.9999999999999</ele><time>2026-03-22T09:21:52.258Z</time></trkpt><trkpt lat="43.4094967" lon="11.6882933"><ele>516.0</ele><time>2026-03-22T09:21:56.257Z</time></trkpt><trkpt lat="43.4094917" lon="11.6882017"><ele>516.0</ele><time>2026-03-22T09:22:17.258Z</time></trkpt><trkpt lat="43.409445" lon="11.688105"><ele>516.0</ele><time>2026-03-22T09:22:21.26Z</time></trkpt><trkpt lat="43.4094075" lon="11.6880333"><ele>516.0</ele><time>2026-03-22T09:22:24.242Z</time></trkpt><trkpt lat="43.4093617" lon="11.6879417"><ele>515.9999999999999</ele><time>2026-03-22T09:22:32.257Z</time></trkpt><trkpt lat="43.40931" lon="11.6878683"><ele>516.0</ele><time>2026-03-22T09:22:36.259Z</time></trkpt><trkpt lat="43.409295" lon="11.6877733"><ele>513.7142857142857</ele><time>2026-03-22T09:22:40.26Z</time></trkpt><trkpt lat="43.40928" lon="11.6876767"><ele>511.42857142857144</ele><time>2026-03-22T09:22:44.26Z</time></trkpt><trkpt lat="43.4092683" lon="11.6875817"><ele>509.1428571428571</ele><time>2026-03-22T09:22:49.259Z</time></trkpt><trkpt lat="43.4093317" lon="11.687525"><ele>506.85714285714283</ele><time>2026-03-22T09:22:59.259Z</time></trkpt><trkpt lat="43.409345" lon="11.6874317"><ele>504.57142857142856</ele><time>2026-03-22T09:23:04.261Z</time></trkpt><trkpt lat="43.4092717" lon="11.68745"><ele>502.2857142857143</ele><time>2026-03-22T09:23:14.258Z</time></trkpt><trkpt lat="43.4092433" lon="11.68753"><ele>500.0</ele><time>2026-03-22T09:23:17.259Z</time></trkpt><trkpt lat="43.4092367" lon="11.6876217"><ele>499.99999999999994</ele><time>2026-03-22T09:23:20.261Z</time></trkpt><trkpt lat="43.40925" lon="11.6877267"><ele>500.0</ele><time>2026-03-22T09:23:23.259Z</time></trkpt><trkpt lat="43.409295" lon="11.68781"><ele>500.0</ele><time>2026-03-22T09:23:26.263Z</time></trkpt><trkpt lat="43.409335" lon="11.68788"><ele>500.0</ele><time>2026-03-22T09:23:29.259Z</time></trkpt><trkpt lat="43.409365" lon="11.687975"><ele>499.99999999999994</ele><time>2026-03-22T09:23:32.257Z</time></trkpt><trkpt lat="43.4094067" lon="11.68807"><ele>500.0</ele><time>2026-03-22T09:23:37.258Z</time></trkpt><trkpt lat="43.409465" lon="11.6881583"><ele>499.42857142857144</ele><time>2026-03-22T09:23:41.257Z</time></trkpt><trkpt lat="43.4095017" lon="11.6882317"><ele>498.8571428571429</ele><time>2026-03-22T09:23:45.259Z</time></trkpt><trkpt lat="43.40954" lon="11.6883217"><ele>498.28571428571433</ele><time>2026-03-22T09:24:02.258Z</time></trkpt><trkpt lat="43.409575" lon="11.688405"><ele>497.7142857142857</ele><time>2026-03-22T09:24:04.258Z</time></trkpt><trkpt lat="43.40961" lon="11.6884783"><ele>497.1428571428572</ele><time>2026-03-22T09:24:06.258Z</time></trkpt><trkpt lat="43.4096567" lon="11.6885917"><ele>496.5714285714286</ele><time>2026-03-22T09:24:09.259Z</time></trkpt><trkpt lat="43.4097" lon="11.6886633"><ele>496.0</ele><time>2026-03-22T09:24:11.258Z</time></trkpt><trkpt lat="43.4097467" lon="11.688775"><ele>496.00000000000006</ele><time>2026-03-22T09:24:14.258Z</time></trkpt><trkpt lat="43.4098183" lon="11.68883"><ele>496.0</ele><time>2026-03-22T09:24:16.258Z</time></trkpt><trkpt lat="43.4099333" lon="11.6888183"><ele>496.0</ele><time>2026-03-22T09:24:18.261Z</time></trkpt><trkpt lat="43.409995" lon="11.6887883"><ele>496.0</ele><time>2026-03-22T09:24:19.258Z</time></trkpt><trkpt lat="43.4100567" lon="11.6887533"><ele>496.00000000000006</ele><time>2026-03-22T09:24:20.258Z</time></trkpt><trkpt lat="43.4101167" lon="11.6887233"><ele>496.0</ele><time>2026-03-22T09:24:21.259Z</time></trkpt><trkpt lat="43.41021" lon="11.6886433"><ele>494.4</ele><time>2026-03-22T09:24:23.258Z</time></trkpt><trkpt lat="43.4102733" lon="11.6885567"><ele>492.8</ele><time>2026-03-22T09:24:25.263Z</time></trkpt><trkpt lat="43.4103517" lon="11.6884517"><ele>491.19999999999993</ele><time>2026-03-22T09:24:27.261Z</time></trkpt><trkpt lat="43.4104167" lon="11.6883933"><ele>489.59999999999997</ele><time>2026-03-22T09:24:29.258Z</time></trkpt><trkpt lat="43.4104483" lon="11.6883017"><ele>488.0</ele><time>2026-03-22T09:24:33.259Z</time></trkpt><trkpt lat="43.4103817" lon="11.688195"><ele>487.99999999999994</ele><time>2026-03-22T09:24:35.261Z</time></trkpt><trkpt lat="43.4103383" lon="11.6881317"><ele>488.0</ele><time>2026-03-22T09:24:36.261Z</time></trkpt><trkpt lat="43.410245" lon="11.688015"><ele>488.0</ele><time>2026-03-22T09:24:38.26Z</time></trkpt><trkpt lat="43.4101967" lon="11.6879417"><ele>488.0</ele><time>2026-03-22T09:24:39.262Z</time></trkpt><trkpt lat="43.4101517" lon="11.6878617"><ele>487.99999999999994</ele><time>2026-03-22T09:24:40.259Z</time></trkpt><trkpt lat="43.4101133" lon="11.6877717"><ele>488.0</ele><time>2026-03-22T09:24:41.258Z</time></trkpt><trkpt lat="43.4100783" lon="11.68768"><ele>486.8333333333333</ele><time>2026-03-22T09:24:42.259Z</time></trkpt><trkpt lat="43.410045" lon="11.6875917"><ele>485.66666666666663</ele><time>2026-03-22T09:24:43.258Z</time></trkpt><trkpt lat="43.4100117" lon="11.687515"><ele>484.5</ele><time>2026-03-22T09:24:44.263Z</time></trkpt><trkpt lat="43.40997" lon="11.68738"><ele>483.33333333333337</ele><time>2026-03-22T09:24:46.262Z</time></trkpt><trkpt lat="43.4099583" lon="11.6872717"><ele>482.1666666666667</ele><time>2026-03-22T09:24:49.258Z</time></trkpt><trkpt lat="43.4099667" lon="11.687185"><ele>481.0</ele><time>2026-03-22T09:24:53.262Z</time></trkpt><trkpt lat="43.4100383" lon="11.687115"><ele>481.00000000000006</ele><time>2026-03-22T09:24:59.258Z</time></trkpt><trkpt lat="43.410115" lon="11.6870633"><ele>481.0</ele><time>2026-03-22T09:25:01.263Z</time></trkpt><trkpt lat="43.4102417" lon="11.6870233"><ele>481.0</ele><time>2026-03-22T09:25:18.258Z</time></trkpt><trkpt lat="43.4103033" lon="11.6870467"><ele>481.0</ele><time>2026-03-22T09:25:22.263Z</time></trkpt><trkpt lat="43.41026" lon="11.6869833"><ele>481.00000000000006</ele><time>2026-03-22T09:25:29.26Z</time></trkpt><trkpt lat="43.4101983" lon="11.68696"><ele>481.0</ele><time>2026-03-22T09:25:37.259Z</time></trkpt><trkpt lat="43.4101283" lon="11.6870083"><ele>481.00000000000006</ele><time>2026-03-22T09:25:44.259Z</time></trkpt><trkpt lat="43.410065" lon="11.68705"><ele>481.0</ele><time>2026-03-22T09:25:46.259Z</time></trkpt><trkpt lat="43.410005" lon="11.6871067"><ele>481.0</ele><time>2026-03-22T09:25:48.257Z</time></trkpt><trkpt lat="43.40997" lon="11.6871867"><ele>481.0</ele><time>2026-03-22T09:25:50.262Z</time></trkpt><trkpt lat="43.4099717" lon="11.6872967"><ele>481.00000000000006</ele><time>2026-03-22T09:25:52.262Z</time></trkpt><trkpt lat="43.4100067" lon="11.6874683"><ele>481.0</ele><time>2026-03-22T09:25:54.26Z</time></trkpt><trkpt lat="43.4100567" lon="11.6876017"><ele>481.0</ele><time>2026-03-22T09:25:55.26Z</time></trkpt><trkpt lat="43.4101167" lon="11.6877533"><ele>481.0</ele><time>2026-03-22T09:25:56.259Z</time></trkpt><trkpt lat="43.4101833" lon="11.6878983"><ele>481.0</ele><time>2026-03-22T09:25:57.259Z</time></trkpt><trkpt lat="43.410255" lon="11.688005"><ele>481.0</ele><time>2026-03-22T09:25:58.258Z</time></trkpt><trkpt lat="43.4103283" lon="11.6881067"><ele>480.33333333333337</ele><time>2026-03-22T09:25:59.258Z</time></trkpt><trkpt lat="43.41039" lon="11.6882017"><ele>479.6666666666667</ele><time>2026-03-22T09:26:00.258Z</time></trkpt><trkpt lat="43.4104383" lon="11.6882917"><ele>479.0</ele><time>2026-03-22T09:26:01.261Z</time></trkpt><trkpt lat="43.410475" lon="11.6883883"><ele>478.33333333333337</ele><time>2026-03-22T09:26:02.259Z</time></trkpt><trkpt lat="43.4105017" lon="11.6884717"><ele>477.6666666666667</ele><time>2026-03-22T09:26:03.257Z</time></trkpt><trkpt lat="43.4105333" lon="11.6886"><ele>477.0</ele><time>2026-03-22T09:26:05.256Z</time></trkpt><trkpt lat="43.4105483" lon="11.6887517"><ele>477.0</ele><time>2026-03-22T09:26:07.258Z</time></trkpt><trkpt lat="43.410545" lon="11.688845"><ele>477.0</ele><time>2026-03-22T09:26:08.256Z</time></trkpt><trkpt lat="43.41053" lon="11.6889383"><ele>477.0</ele><time>2026-03-22T09:26:09.257Z</time></trkpt><trkpt lat="43.4105033" lon="11.689025"><ele>477.0</ele><time>2026-03-22T09:26:10.259Z</time></trkpt><trkpt lat="43.4104483" lon="11.68915"><ele>477.0</ele><time>2026-03-22T09:26:12.258Z</time></trkpt><trkpt lat="43.4104333" lon="11.6892617"><ele>477.0</ele><time>2026-03-22T09:26:15.26Z</time></trkpt><trkpt lat="43.4104767" lon="11.6893283"><ele>477.0</ele><time>2026-03-22T09:26:17.257Z</time></trkpt><trkpt lat="43.4105383" lon="11.6893683"><ele>477.00000000000006</ele><time>2026-03-22T09:26:19.261Z</time></trkpt><trkpt lat="43.410605" lon="11.6894817"><ele>477.00000000000006</ele><time>2026-03-22T09:26:21.258Z</time></trkpt><trkpt lat="43.4106717" lon="11.6896067"><ele>477.0</ele><time>2026-03-22T09:26:23.257Z</time></trkpt><trkpt lat="43.4108017" lon="11.689665"><ele>477.0</ele><time>2026-03-22T09:26:25.259Z</time></trkpt><trkpt lat="43.4109167" lon="11.6896567"><ele>482.20000000000005</ele><time>2026-03-22T09:26:26.259Z</time></trkpt><trkpt lat="43.4110217" lon="11.6896717"><ele>487.40000000000003</ele><time>2026-03-22T09:26:27.26Z</time></trkpt><trkpt lat="43.411125" lon="11.6896883"><ele>492.59999999999997</ele><time>2026-03-22T09:26:28.257Z</time></trkpt><trkpt lat="43.4112033" lon="11.6897117"><ele>497.79999999999995</ele><time>2026-03-22T09:26:29.26Z</time></trkpt><trkpt lat="43.4112833" lon="11.6897133"><ele>503.0</ele><time>2026-03-22T09:26:30.259Z</time></trkpt><trkpt lat="43.4113633" lon="11.6896967"><ele>502.99999999999994</ele><time>2026-03-22T09:26:31.259Z</time></trkpt><trkpt lat="43.4114483" lon="11.689655"><ele>503.0</ele><time>2026-03-22T09:26:32.262Z</time></trkpt><trkpt lat="43.4115317" lon="11.6896017"><ele>503.0</ele><time>2026-03-22T09:26:33.263Z</time></trkpt><trkpt lat="43.411595" lon="11.68955"><ele>503.0</ele><time>2026-03-22T09:26:34.256Z</time></trkpt><trkpt lat="43.4116967" lon="11.689545"><ele>502.99999999999994</ele><time>2026-03-22T09:26:36.259Z</time></trkpt><trkpt lat="43.4117383" lon="11.689615"><ele>503.0</ele><time>2026-03-22T09:26:37.258Z</time></trkpt><trkpt lat="43.4117883" lon="11.689685"><ele>502.99999999999994</ele><time>2026-03-22T09:26:38.257Z</time></trkpt><trkpt lat="43.4118583" lon="11.68975"><ele>503.0</ele><time>2026-03-22T09:26:39.257Z</time></trkpt><trkpt lat="43.4119367" lon="11.6898"><ele>503.0</ele><time>2026-03-22T09:26:40.262Z</time></trkpt><trkpt lat="43.4120133" lon="11.68983"><ele>503.0</ele><time>2026-03-22T09:26:41.261Z</time></trkpt><trkpt lat="43.4120967" lon="11.6898433"><ele>502.99999999999994</ele><time>2026-03-22T09:26:42.26Z</time></trkpt><trkpt lat="43.4121833" lon="11.6898367"><ele>503.0</ele><time>2026-03-22T09:26:43.257Z</time></trkpt><trkpt lat="43.41227" lon="11.6898267"><ele>502.99999999999994</ele><time>2026-03-22T09:26:44.257Z</time></trkpt><trkpt lat="43.4123433" lon="11.6898083"><ele>503.0</ele><time>2026-03-22T09:26:45.263Z</time></trkpt><trkpt lat="43.4124117" lon="11.689815"><ele>503.0</ele><time>2026-03-22T09:26:46.26Z</time></trkpt><trkpt lat="43.4124783" lon="11.6898417"><ele>503.0</ele><time>2026-03-22T09:26:47.258Z</time></trkpt><trkpt lat="43.4125583" lon="11.689895"><ele>502.99999999999994</ele><time>2026-03-22T09:26:48.256Z</time></trkpt><trkpt lat="43.4126433" lon="11.6899583"><ele>503.0</ele><time>2026-03-22T09:26:49.265Z</time></trkpt><trkpt lat="43.4127183" lon="11.6900167"><ele>502.99999999999994</ele><time>2026-03-22T09:26:50.259Z</time></trkpt><trkpt lat="43.4127783" lon="11.6900817"><ele>503.0</ele><time>2026-03-22T09:26:51.259Z</time></trkpt><trkpt lat="43.412825" lon="11.6901483"><ele>503.0</ele><time>2026-03-22T09:26:52.258Z</time></trkpt><trkpt lat="43.4128667" lon="11.690225"><ele>503.0</ele><time>2026-03-22T09:26:53.258Z</time></trkpt><trkpt lat="43.412905" lon="11.69031"><ele>502.99999999999994</ele><time>2026-03-22T09:26:54.259Z</time></trkpt><trkpt lat="43.41294" lon="11.6904133"><ele>503.0</ele><time>2026-03-22T09:26:55.259Z</time></trkpt><trkpt lat="43.4129683" lon="11.69054"><ele>501.4</ele><time>2026-03-22T09:26:56.259Z</time></trkpt><trkpt lat="43.4129817" lon="11.6906717"><ele>499.79999999999995</ele><time>2026-03-22T09:26:57.258Z</time></trkpt><trkpt lat="43.4129867" lon="11.690805"><ele>498.2</ele><time>2026-03-22T09:26:58.26Z</time></trkpt><trkpt lat="43.41299" lon="11.69093"><ele>496.6</ele><time>2026-03-22T09:26:59.257Z</time></trkpt><trkpt lat="43.412995" lon="11.691055"><ele>495.0</ele><time>2026-03-22T09:27:00.258Z</time></trkpt><trkpt lat="43.4130067" lon="11.6911867"><ele>495.0</ele><time>2026-03-22T09:27:01.259Z</time></trkpt><trkpt lat="43.4130083" lon="11.6913067"><ele>495.0</ele><time>2026-03-22T09:27:02.263Z</time></trkpt><trkpt lat="43.4130033" lon="11.6914217"><ele>495.0</ele><time>2026-03-22T09:27:03.26Z</time></trkpt><trkpt lat="43.41299" lon="11.6915183"><ele>495.0</ele><time>2026-03-22T09:27:04.26Z</time></trkpt><trkpt lat="43.412975" lon="11.691615"><ele>495.0</ele><time>2026-03-22T09:27:05.258Z</time></trkpt><trkpt lat="43.4129767" lon="11.6917033"><ele>495.0</ele><time>2026-03-22T09:27:06.258Z</time></trkpt><trkpt lat="43.413015" lon="11.6918567"><ele>499.0</ele><time>2026-03-22T09:27:08.261Z</time></trkpt><trkpt lat="43.4130383" lon="11.692015"><ele>503.0</ele><time>2026-03-22T09:27:10.257Z</time></trkpt><trkpt lat="43.4130367" lon="11.6921067"><ele>507.0</ele><time>2026-03-22T09:27:11.258Z</time></trkpt><trkpt lat="43.412995" lon="11.692245"><ele>511.0</ele><time>2026-03-22T09:27:13.258Z</time></trkpt><trkpt lat="43.4129583" lon="11.6923733"><ele>515.0</ele><time>2026-03-22T09:27:15.258Z</time></trkpt><trkpt lat="43.4129733" lon="11.6924783"><ele>515.0</ele><time>2026-03-22T09:27:17.259Z</time></trkpt><trkpt lat="43.413045" lon="11.6925833"><ele>515.0</ele><time>2026-03-22T09:27:19.257Z</time></trkpt><trkpt lat="43.413115" lon="11.6926383"><ele>515.0</ele><time>2026-03-22T09:27:20.262Z</time></trkpt><trkpt lat="43.413195" lon="11.6926783"><ele>515.0</ele><time>2026-03-22T09:27:21.26Z</time></trkpt><trkpt lat="43.4132783" lon="11.6927067"><ele>515.0</ele><time>2026-03-22T09:27:22.26Z</time></trkpt><trkpt lat="43.413355" lon="11.6927283"><ele>515.0</ele><time>2026-03-22T09:27:23.262Z</time></trkpt><trkpt lat="43.4134267" lon="11.6927633"><ele>516.0</ele><time>2026-03-22T09:27:24.261Z</time></trkpt><trkpt lat="43.4134967" lon="11.692815"><ele>517.0</ele><time>2026-03-22T09:27:25.263Z</time></trkpt><trkpt lat="43.41356" lon="11.69287"><ele>518.0</ele><time>2026-03-22T09:27:26.261Z</time></trkpt><trkpt lat="43.4136317" lon="11.6929283"><ele>519.0</ele><time>2026-03-22T09:27:27.258Z</time></trkpt><trkpt lat="43.4137017" lon="11.692965"><ele>520.0</ele><time>2026-03-22T09:27:28.258Z</time></trkpt><trkpt lat="43.413765" lon="11.6929833"><ele>521.0</ele><time>2026-03-22T09:27:29.26Z</time></trkpt><trkpt lat="43.4138267" lon="11.69301"><ele>522.0</ele><time>2026-03-22T09:27:30.261Z</time></trkpt><trkpt lat="43.4138933" lon="11.6930483"><ele>522.0</ele><time>2026-03-22T09:27:31.262Z</time></trkpt><trkpt lat="43.4139583" lon="11.69309"><ele>522.0</ele><time>2026-03-22T09:27:32.263Z</time></trkpt><trkpt lat="43.4140217" lon="11.693145"><ele>522.0</ele><time>2026-03-22T09:27:33.263Z</time></trkpt><trkpt lat="43.4140783" lon="11.6932067"><ele>522.0</ele><time>2026-03-22T09:27:34.261Z</time></trkpt><trkpt lat="43.41413" lon="11.6932633"><ele>522.0</ele><time>2026-03-22T09:27:35.259Z</time></trkpt><trkpt lat="43.4142217" lon="11.6933333"><ele>522.0</ele><time>2026-03-22T09:27:37.261Z</time></trkpt><trkpt lat="43.4142917" lon="11.69336"><ele>522.0</ele><time>2026-03-22T09:27:39.264Z</time></trkpt><trkpt lat="43.41436" lon="11.6933683"><ele>522.0</ele><time>2026-03-22T09:27:41.259Z</time></trkpt><trkpt lat="43.4144517" lon="11.69334"><ele>522.0</ele><time>2026-03-22T09:27:43.259Z</time></trkpt><trkpt lat="43.4145483" lon="11.6933033"><ele>522.0</ele><time>2026-03-22T09:27:45.259Z</time></trkpt><trkpt lat="43.41465" lon="11.69328"><ele>522.0</ele><time>2026-03-22T09:27:47.262Z</time></trkpt><trkpt lat="43.4147433" lon="11.6932583"><ele>521.0</ele><time>2026-03-22T09:27:49.259Z</time></trkpt><trkpt lat="43.414815" lon="11.6932133"><ele>520.0</ele><time>2026-03-22T09:27:51.259Z</time></trkpt><trkpt lat="43.4148883" lon="11.6931617"><ele>519.0</ele><time>2026-03-22T09:27:53.258Z</time></trkpt><trkpt lat="43.4149583" lon="11.6931067"><ele>518.0</ele><time>2026-03-22T09:27:55.264Z</time></trkpt><trkpt lat="43.4150217" lon="11.6930433"><ele>517.0</ele><time>2026-03-22T09:27:57.261Z</time></trkpt><trkpt lat="43.4150883" lon="11.6929917"><ele>516.0</ele><time>2026-03-22T09:28:00.26Z</time></trkpt><trkpt lat="43.415155" lon="11.692955"><ele>516.0</ele><time>2026-03-22T09:28:06.264Z</time></trkpt><trkpt lat="43.4152333" lon="11.6928583"><ele>516.0</ele><time>2026-03-22T09:28:09.261Z</time></trkpt><trkpt lat="43.4153033" lon="11.6927783"><ele>516.0</ele><time>2026-03-22T09:28:11.26Z</time></trkpt><trkpt lat="43.4153767" lon="11.6927067"><ele>516.0</ele><time>2026-03-22T09:28:13.257Z</time></trkpt><trkpt lat="43.4154633" lon="11.6926217"><ele>516.0</ele><time>2026-03-22T09:28:15.258Z</time></trkpt><trkpt lat="43.4155517" lon="11.692545"><ele>515.0</ele><time>2026-03-22T09:28:17.257Z</time></trkpt><trkpt lat="43.415645" lon="11.6924983"><ele>514.0</ele><time>2026-03-22T09:28:19.261Z</time></trkpt><trkpt lat="43.4157433" lon="11.69247"><ele>513.0</ele><time>2026-03-22T09:28:21.26Z</time></trkpt><trkpt lat="43.415835" lon="11.692465"><ele>512.0</ele><time>2026-03-22T09:28:23.257Z</time></trkpt><trkpt lat="43.4159233" lon="11.6924567"><ele>511.0</ele><time>2026-03-22T09:28:25.26Z</time></trkpt><trkpt lat="43.4160133" lon="11.69242"><ele>511.0</ele><time>2026-03-22T09:28:27.262Z</time></trkpt><trkpt lat="43.4160933" lon="11.6923717"><ele>511.0</ele><time>2026-03-22T09:28:29.26Z</time></trkpt><trkpt lat="43.4161333" lon="11.6922567"><ele>511.0</ele><time>2026-03-22T09:28:46.258Z</time></trkpt><trkpt lat="43.4160833" lon="11.6921617"><ele>511.0</ele><time>2026-03-22T09:28:48.258Z</time></trkpt><trkpt lat="43.415985" lon="11.6920683"><ele>511.0</ele><time>2026-03-22T09:28:50.258Z</time></trkpt><trkpt lat="43.4159167" lon="11.6920383"><ele>511.00000000000006</ele><time>2026-03-22T09:28:51.261Z</time></trkpt><trkpt lat="43.415835" lon="11.6920217"><ele>511.0</ele><time>2026-03-22T09:28:52.264Z</time></trkpt><trkpt lat="43.415765" lon="11.691995"><ele>511.0</ele><time>2026-03-22T09:28:53.262Z</time></trkpt><trkpt lat="43.4157017" lon="11.6919733"><ele>511.0</ele><time>2026-03-22T09:28:54.261Z</time></trkpt><trkpt lat="43.4156117" lon="11.691925"><ele>511.00000000000006</ele><time>2026-03-22T09:28:56.261Z</time></trkpt><trkpt lat="43.41558" lon="11.6918467"><ele>511.0</ele><time>2026-03-22T09:28:58.26Z</time></trkpt><trkpt lat="43.415665" lon="11.691795"><ele>508.4</ele><time>2026-03-22T09:29:01.259Z</time></trkpt><trkpt lat="43.4157733" lon="11.6918033"><ele>505.8</ele><time>2026-03-22T09:29:03.261Z</time></trkpt><trkpt lat="43.4158917" lon="11.6918183"><ele>503.19999999999993</ele><time>2026-03-22T09:29:05.259Z</time></trkpt><trkpt lat="43.415955" lon="11.6918217"><ele>500.59999999999997</ele><time>2026-03-22T09:29:06.258Z</time></trkpt><trkpt lat="43.4160733" lon="11.6917983"><ele>498.0</ele><time>2026-03-22T09:29:08.264Z</time></trkpt><trkpt lat="43.41617" lon="11.6917167"><ele>498.0</ele><time>2026-03-22T09:29:10.262Z</time></trkpt><trkpt lat="43.4162217" lon="11.6916033"><ele>497.99999999999994</ele><time>2026-03-22T09:29:12.259Z</time></trkpt><trkpt lat="43.4162233" lon="11.6914633"><ele>497.99999999999994</ele><time>2026-03-22T09:29:14.265Z</time></trkpt><trkpt lat="43.4162033" lon="11.6913267"><ele>498.0</ele><time>2026-03-22T09:29:16.261Z</time></trkpt><trkpt lat="43.416195" lon="11.69118"><ele>498.0</ele><time>2026-03-22T09:29:18.257Z</time></trkpt><trkpt lat="43.4161967" lon="11.6910483"><ele>495.6666666666667</ele><time>2026-03-22T09:29:20.26Z</time></trkpt><trkpt lat="43.4161867" lon="11.6909483"><ele>493.33333333333337</ele><time>2026-03-22T09:29:22.259Z</time></trkpt><trkpt lat="43.416195" lon="11.6908533"><ele>491.0</ele><time>2026-03-22T09:29:24.261Z</time></trkpt><trkpt lat="43.4162517" lon="11.6907933"><ele>488.6666666666667</ele><time>2026-03-22T09:29:26.264Z</time></trkpt><trkpt lat="43.4163483" lon="11.6907917"><ele>486.33333333333337</ele><time>2026-03-22T09:29:28.259Z</time></trkpt><trkpt lat="43.416475" lon="11.69082"><ele>484.0</ele><time>2026-03-22T09:29:30.26Z</time></trkpt><trkpt lat="43.4165883" lon="11.6907983"><ele>484.0</ele><time>2026-03-22T09:29:32.26Z</time></trkpt><trkpt lat="43.41667" lon="11.6906483"><ele>484.0</ele><time>2026-03-22T09:29:34.256Z</time></trkpt><trkpt lat="43.4167167" lon="11.690555"><ele>484.0</ele><time>2026-03-22T09:29:35.261Z</time></trkpt><trkpt lat="43.41678" lon="11.6904633"><ele>484.0</ele><time>2026-03-22T09:29:36.26Z</time></trkpt><trkpt lat="43.41685" lon="11.6903667"><ele>484.0</ele><time>2026-03-22T09:29:37.26Z</time></trkpt><trkpt lat="43.4169167" lon="11.690275"><ele>481.0</ele><time>2026-03-22T09:29:38.258Z</time></trkpt><trkpt lat="43.4169733" lon="11.690195"><ele>477.99999999999994</ele><time>2026-03-22T09:29:39.257Z</time></trkpt><trkpt lat="43.4170133" lon="11.6901233"><ele>475.0</ele><time>2026-03-22T09:29:40.266Z</time></trkpt><trkpt lat="43.4170367" lon="11.6900383"><ele>472.0</ele><time>2026-03-22T09:29:41.261Z</time></trkpt><trkpt lat="43.417055" lon="11.6899433"><ele>468.99999999999994</ele><time>2026-03-22T09:29:42.261Z</time></trkpt><trkpt lat="43.4170767" lon="11.6898517"><ele>466.0</ele><time>2026-03-22T09:29:43.258Z</time></trkpt><trkpt lat="43.4170917" lon="11.6897567"><ele>463.0</ele><time>2026-03-22T09:29:44.257Z</time></trkpt><trkpt lat="43.4171117" lon="11.689655"><ele>463.00000000000006</ele><time>2026-03-22T09:29:45.259Z</time></trkpt><trkpt lat="43.4171383" lon="11.6895517"><ele>463.0</ele><time>2026-03-22T09:29:46.262Z</time></trkpt><trkpt lat="43.4171733" lon="11.6894583"><ele>463.0</ele><time>2026-03-22T09:29:47.26Z</time></trkpt><trkpt lat="43.41721" lon="11.6893767"><ele>463.0</ele><time>2026-03-22T09:29:48.257Z</time></trkpt><trkpt lat="43.4172783" lon="11.68925"><ele>463.00000000000006</ele><time>2026-03-22T09:29:50.259Z</time></trkpt><trkpt lat="43.4173233" lon="11.6891633"><ele>463.0</ele><time>2026-03-22T09:29:52.262Z</time></trkpt><trkpt lat="43.4174033" lon="11.68914"><ele>462.59999999999997</ele><time>2026-03-22T09:30:06.261Z</time></trkpt><trkpt lat="43.4174817" lon="11.68912"><ele>462.19999999999993</ele><time>2026-03-22T09:30:08.263Z</time></trkpt><trkpt lat="43.4175983" lon="11.6890733"><ele>461.8</ele><time>2026-03-22T09:30:10.259Z</time></trkpt><trkpt lat="43.4177183" lon="11.6890133"><ele>461.4</ele><time>2026-03-22T09:30:12.257Z</time></trkpt><trkpt lat="43.417775" lon="11.6889683"><ele>461.0</ele><time>2026-03-22T09:30:13.257Z</time></trkpt><trkpt lat="43.417855" lon="11.6888417"><ele>460.99999999999994</ele><time>2026-03-22T09:30:15.262Z</time></trkpt><trkpt lat="43.4179167" lon="11.6887283"><ele>461.0</ele><time>2026-03-22T09:30:17.257Z</time></trkpt><trkpt lat="43.41797" lon="11.6886533"><ele>461.0</ele><time>2026-03-22T09:30:19.26Z</time></trkpt><trkpt lat="43.41804" lon="11.6885917"><ele>461.0</ele><time>2026-03-22T09:30:22.261Z</time></trkpt><trkpt lat="43.4181083" lon="11.6885367"><ele>460.99999999999994</ele><time>2026-03-22T09:30:25.26Z</time></trkpt><trkpt lat="43.4181867" lon="11.68849"><ele>461.0</ele><time>2026-03-22T09:30:28.262Z</time></trkpt><trkpt lat="43.4182767" lon="11.6884833"><ele>460.8</ele><time>2026-03-22T09:30:31.258Z</time></trkpt><trkpt lat="43.4183467" lon="11.6885133"><ele>460.6</ele><time>2026-03-22T09:30:33.258Z</time></trkpt><trkpt lat="43.4184317" lon="11.6885683"><ele>460.4</ele><time>2026-03-22T09:30:35.261Z</time></trkpt><trkpt lat="43.418535" lon="11.68861"><ele>460.2</ele><time>2026-03-22T09:30:37.259Z</time></trkpt><trkpt lat="43.4186583" lon="11.68864"><ele>460.0</ele><time>2026-03-22T09:30:39.26Z</time></trkpt><trkpt lat="43.4187217" lon="11.68865"><ele>458.1666666666667</ele><time>2026-03-22T09:30:40.259Z</time></trkpt><trkpt lat="43.4188283" lon="11.68867"><ele>456.33333333333337</ele><time>2026-03-22T09:30:42.257Z</time></trkpt><trkpt lat="43.4188917" lon="11.6886817"><ele>454.5</ele><time>2026-03-22T09:30:44.258Z</time></trkpt><trkpt lat="43.418935" lon="11.688585"><ele>452.66666666666663</ele><time>2026-03-22T09:31:14.258Z</time></trkpt><trkpt lat="43.4189717" lon="11.688495"><ele>450.8333333333333</ele><time>2026-03-22T09:31:16.262Z</time></trkpt><trkpt lat="43.4189917" lon="11.6884117"><ele>449.0</ele><time>2026-03-22T09:31:18.261Z</time></trkpt><trkpt lat="43.419" lon="11.68829"><ele>449.0</ele><time>2026-03-22T09:31:21.261Z</time></trkpt><trkpt lat="43.41899" lon="11.6881667"><ele>449.0</ele><time>2026-03-22T09:31:23.257Z</time></trkpt><trkpt lat="43.4189717" lon="11.6880333"><ele>449.0</ele><time>2026-03-22T09:31:25.259Z</time></trkpt><trkpt lat="43.4189367" lon="11.68791"><ele>449.0</ele><time>2026-03-22T09:31:27.26Z</time></trkpt><trkpt lat="43.4189267" lon="11.687765"><ele>449.0</ele><time>2026-03-22T09:31:29.26Z</time></trkpt><trkpt lat="43.4189267" lon="11.68763"><ele>448.3333333333333</ele><time>2026-03-22T09:31:31.262Z</time></trkpt><trkpt lat="43.41891" lon="11.6875117"><ele>447.66666666666663</ele><time>2026-03-22T09:31:33.266Z</time></trkpt><trkpt lat="43.4188867" lon="11.68741"><ele>447.0</ele><time>2026-03-22T09:31:35.259Z</time></trkpt><trkpt lat="43.4188467" lon="11.68733"><ele>446.33333333333337</ele><time>2026-03-22T09:31:37.261Z</time></trkpt><trkpt lat="43.4187883" lon="11.6872733"><ele>445.6666666666667</ele><time>2026-03-22T09:31:39.261Z</time></trkpt><trkpt lat="43.4187067" lon="11.6872583"><ele>445.0</ele><time>2026-03-22T09:31:41.259Z</time></trkpt><trkpt lat="43.4186383" lon="11.6872017"><ele>443.6666666666667</ele><time>2026-03-22T09:31:43.264Z</time></trkpt><trkpt lat="43.418635" lon="11.6871067"><ele>442.33333333333337</ele><time>2026-03-22T09:31:45.263Z</time></trkpt><trkpt lat="43.41868" lon="11.6870333"><ele>441.0</ele><time>2026-03-22T09:31:47.26Z</time></trkpt><trkpt lat="43.418725" lon="11.6869583"><ele>439.66666666666663</ele><time>2026-03-22T09:31:49.26Z</time></trkpt><trkpt lat="43.418765" lon="11.6868833"><ele>438.3333333333333</ele><time>2026-03-22T09:31:51.26Z</time></trkpt><trkpt lat="43.418815" lon="11.6867967"><ele>437.0</ele><time>2026-03-22T09:31:53.259Z</time></trkpt><trkpt lat="43.4188733" lon="11.68668"><ele>435.8</ele><time>2026-03-22T09:31:55.26Z</time></trkpt><trkpt lat="43.418935" lon="11.6865733"><ele>434.6</ele><time>2026-03-22T09:31:57.26Z</time></trkpt><trkpt lat="43.4189583" lon="11.6864483"><ele>433.40000000000003</ele><time>2026-03-22T09:31:59.269Z</time></trkpt><trkpt lat="43.41896" lon="11.686305"><ele>432.20000000000005</ele><time>2026-03-22T09:32:01.261Z</time></trkpt><trkpt lat="43.41896" lon="11.6861717"><ele>431.0</ele><time>2026-03-22T09:32:03.259Z</time></trkpt><trkpt lat="43.418965" lon="11.6860483"><ele>428.66666666666663</ele><time>2026-03-22T09:32:05.259Z</time></trkpt><trkpt lat="43.418985" lon="11.68592"><ele>426.3333333333333</ele><time>2026-03-22T09:32:07.26Z</time></trkpt><trkpt lat="43.4190283" lon="11.68579"><ele>424.0</ele><time>2026-03-22T09:32:09.258Z</time></trkpt><trkpt lat="43.419095" lon="11.6856967"><ele>421.66666666666663</ele><time>2026-03-22T09:32:11.26Z</time></trkpt><trkpt lat="43.4191567" lon="11.68564"><ele>419.3333333333333</ele><time>2026-03-22T09:32:13.26Z</time></trkpt><trkpt lat="43.41921" lon="11.68558"><ele>417.0</ele><time>2026-03-22T09:32:15.261Z</time></trkpt><trkpt lat="43.4192767" lon="11.68552"><ele>417.0</ele><time>2026-03-22T09:32:18.258Z</time></trkpt><trkpt lat="43.4193633" lon="11.685475"><ele>417.0</ele><time>2026-03-22T09:32:21.261Z</time></trkpt><trkpt lat="43.41945" lon="11.68544"><ele>417.0</ele><time>2026-03-22T09:32:24.26Z</time></trkpt><trkpt lat="43.4195083" lon="11.6853967"><ele>417.0</ele><time>2026-03-22T09:32:26.261Z</time></trkpt><trkpt lat="43.41958" lon="11.6853717"><ele>417.0</ele><time>2026-03-22T09:32:28.261Z</time></trkpt><trkpt lat="43.4196567" lon="11.6854"><ele>417.0</ele><time>2026-03-22T09:32:30.261Z</time></trkpt><trkpt lat="43.4197117" lon="11.685455"><ele>415.5714285714286</ele><time>2026-03-22T09:32:32.261Z</time></trkpt><trkpt lat="43.4197717" lon="11.685485"><ele>414.1428571428571</ele><time>2026-03-22T09:32:34.26Z</time></trkpt><trkpt lat="43.4198533" lon="11.6854567"><ele>412.7142857142857</ele><time>2026-03-22T09:32:36.263Z</time></trkpt><trkpt lat="43.4199283" lon="11.6854017"><ele>411.28571428571433</ele><time>2026-03-22T09:32:39.259Z</time></trkpt><trkpt lat="43.41996" lon="11.68532"><ele>409.8571428571429</ele><time>2026-03-22T09:32:42.259Z</time></trkpt><trkpt lat="43.419965" lon="11.6852333"><ele>408.42857142857144</ele><time>2026-03-22T09:32:44.26Z</time></trkpt><trkpt lat="43.42" lon="11.6851317"><ele>407.0</ele><time>2026-03-22T09:32:46.26Z</time></trkpt><trkpt lat="43.42007" lon="11.68505"><ele>404.6</ele><time>2026-03-22T09:32:48.258Z</time></trkpt><trkpt lat="43.4201317" lon="11.6849483"><ele>402.20000000000005</ele><time>2026-03-22T09:32:50.261Z</time></trkpt><trkpt lat="43.4201417" lon="11.6848233"><ele>399.8</ele><time>2026-03-22T09:32:52.261Z</time></trkpt><trkpt lat="43.4201217" lon="11.6846983"><ele>397.4</ele><time>2026-03-22T09:32:54.259Z</time></trkpt><trkpt lat="43.4200967" lon="11.6845683"><ele>395.0</ele><time>2026-03-22T09:32:56.257Z</time></trkpt><trkpt lat="43.420065" lon="11.6843983"><ele>393.99999999999994</ele><time>2026-03-22T09:32:58.259Z</time></trkpt><trkpt lat="43.4200533" lon="11.6843117"><ele>393.0</ele><time>2026-03-22T09:32:59.259Z</time></trkpt><trkpt lat="43.420055" lon="11.6841483"><ele>392.0</ele><time>2026-03-22T09:33:01.257Z</time></trkpt><trkpt lat="43.4200583" lon="11.6840583"><ele>391.0</ele><time>2026-03-22T09:33:02.259Z</time></trkpt><trkpt lat="43.4200533" lon="11.6839617"><ele>389.99999999999994</ele><time>2026-03-22T09:33:03.26Z</time></trkpt><trkpt lat="43.4200433" lon="11.683865"><ele>389.0</ele><time>2026-03-22T09:33:04.26Z</time></trkpt><trkpt lat="43.42003" lon="11.6837167"><ele>389.0</ele><time>2026-03-22T09:33:06.266Z</time></trkpt><trkpt lat="43.4200783" lon="11.6836267"><ele>389.0</ele><time>2026-03-22T09:33:08.261Z</time></trkpt><trkpt lat="43.4201667" lon="11.6835233"><ele>389.0</ele><time>2026-03-22T09:33:10.259Z</time></trkpt><trkpt lat="43.4202133" lon="11.683465"><ele>389.0</ele><time>2026-03-22T09:33:11.256Z</time></trkpt><trkpt lat="43.4202883" lon="11.6833617"><ele>389.0</ele><time>2026-03-22T09:33:13.258Z</time></trkpt><trkpt lat="43.4203367" lon="11.6832567"><ele>387.79999999999995</ele><time>2026-03-22T09:33:15.262Z</time></trkpt><trkpt lat="43.420385" lon="11.6831567"><ele>386.59999999999997</ele><time>2026-03-22T09:33:17.257Z</time></trkpt><trkpt lat="43.4204" lon="11.6830217"><ele>385.4</ele><time>2026-03-22T09:33:19.26Z</time></trkpt><trkpt lat="43.4204033" lon="11.68287"><ele>384.2</ele><time>2026-03-22T09:33:21.26Z</time></trkpt><trkpt lat="43.4203867" lon="11.6827383"><ele>383.0</ele><time>2026-03-22T09:33:23.258Z</time></trkpt><trkpt lat="43.4203717" lon="11.682615"><ele>382.2</ele><time>2026-03-22T09:33:25.259Z</time></trkpt><trkpt lat="43.4203483" lon="11.6824767"><ele>381.4</ele><time>2026-03-22T09:33:27.258Z</time></trkpt><trkpt lat="43.42028" lon="11.6823367"><ele>380.59999999999997</ele><time>2026-03-22T09:33:29.257Z</time></trkpt><trkpt lat="43.42024" lon="11.6822683"><ele>379.79999999999995</ele><time>2026-03-22T09:33:30.259Z</time></trkpt><trkpt lat="43.4201983" lon="11.6822017"><ele>379.0</ele><time>2026-03-22T09:33:31.258Z</time></trkpt><trkpt lat="43.4201167" lon="11.6821017"><ele>379.0</ele><time>2026-03-22T09:33:33.256Z</time></trkpt><trkpt lat="43.4200283" lon="11.68205"><ele>379.0</ele><time>2026-03-22T09:33:35.26Z</time></trkpt><trkpt lat="43.4199367" lon="11.6819933"><ele>379.0</ele><time>2026-03-22T09:33:37.258Z</time></trkpt><trkpt lat="43.4198417" lon="11.6819817"><ele>379.0</ele><time>2026-03-22T09:33:39.264Z</time></trkpt><trkpt lat="43.41976" lon="11.682035"><ele>379.0</ele><time>2026-03-22T09:33:41.258Z</time></trkpt><trkpt lat="43.4197017" lon="11.682075"><ele>379.0</ele><time>2026-03-22T09:33:43.261Z</time></trkpt><trkpt lat="43.41964" lon="11.6821283"><ele>376.66666666666663</ele><time>2026-03-22T09:33:45.259Z</time></trkpt><trkpt lat="43.41957" lon="11.6821783"><ele>374.3333333333333</ele><time>2026-03-22T09:33:47.257Z</time></trkpt><trkpt lat="43.4195" lon="11.682175"><ele>372.0</ele><time>2026-03-22T09:33:49.259Z</time></trkpt><trkpt lat="43.4194083" lon="11.6821567"><ele>369.6666666666667</ele><time>2026-03-22T09:33:51.258Z</time></trkpt><trkpt lat="43.4193133" lon="11.6821217"><ele>367.33333333333337</ele><time>2026-03-22T09:33:53.263Z</time></trkpt><trkpt lat="43.4192233" lon="11.6820583"><ele>365.0</ele><time>2026-03-22T09:33:55.258Z</time></trkpt><trkpt lat="43.4191383" lon="11.682005"><ele>364.33333333333337</ele><time>2026-03-22T09:33:57.258Z</time></trkpt><trkpt lat="43.419075" lon="11.68193"><ele>363.6666666666667</ele><time>2026-03-22T09:33:59.258Z</time></trkpt><trkpt lat="43.4190283" lon="11.68186"><ele>363.0</ele><time>2026-03-22T09:34:01.261Z</time></trkpt><trkpt lat="43.4189767" lon="11.68179"><ele>362.3333333333333</ele><time>2026-03-22T09:34:03.263Z</time></trkpt><trkpt lat="43.4189383" lon="11.6817067"><ele>361.66666666666663</ele><time>2026-03-22T09:34:05.26Z</time></trkpt><trkpt lat="43.418915" lon="11.6816217"><ele>361.0</ele><time>2026-03-22T09:34:07.26Z</time></trkpt><trkpt lat="43.418885" lon="11.6815067"><ele>361.0</ele><time>2026-03-22T09:34:10.262Z</time></trkpt><trkpt lat="43.418825" lon="11.681475"><ele>361.0</ele><time>2026-03-22T09:34:14.263Z</time></trkpt><trkpt lat="43.418755" lon="11.6815033"><ele>361.0</ele><time>2026-03-22T09:34:18.257Z</time></trkpt><trkpt lat="43.4186717" lon="11.681625"><ele>361.0</ele><time>2026-03-22T09:34:31.263Z</time></trkpt><trkpt lat="43.4186167" lon="11.6816733"><ele>361.0</ele><time>2026-03-22T09:34:35.258Z</time></trkpt><trkpt lat="43.4185583" lon="11.6817317"><ele>361.0</ele><time>2026-03-22T09:34:38.258Z</time></trkpt><trkpt lat="43.418495" lon="11.681795"><ele>359.2857142857143</ele><time>2026-03-22T09:34:42.26Z</time></trkpt><trkpt lat="43.4184283" lon="11.6818283"><ele>357.57142857142856</ele><time>2026-03-22T09:34:46.258Z</time></trkpt><trkpt lat="43.4183567" lon="11.6819067"><ele>355.85714285714283</ele><time>2026-03-22T09:34:49.26Z</time></trkpt><trkpt lat="43.418295" lon="11.681965"><ele>354.1428571428571</ele><time>2026-03-22T09:34:51.26Z</time></trkpt><trkpt lat="43.4182367" lon="11.6819317"><ele>352.42857142857144</ele><time>2026-03-22T09:34:53.259Z</time></trkpt><trkpt lat="43.418185" lon="11.6818467"><ele>350.71428571428567</ele><time>2026-03-22T09:34:55.26Z</time></trkpt><trkpt lat="43.41813" lon="11.6818"><ele>349.0</ele><time>2026-03-22T09:34:57.261Z</time></trkpt><trkpt lat="43.4180617" lon="11.681735"><ele>349.0</ele><time>2026-03-22T09:35:00.259Z</time></trkpt><trkpt lat="43.4179783" lon="11.6817317"><ele>349.0</ele><time>2026-03-22T09:35:03.261Z</time></trkpt><trkpt lat="43.4179083" lon="11.6816633"><ele>349.0</ele><time>2026-03-22T09:35:06.259Z</time></trkpt><trkpt lat="43.417945" lon="11.68156"><ele>349.0</ele><time>2026-03-22T09:35:09.26Z</time></trkpt><trkpt lat="43.4179883" lon="11.681455"><ele>349.0</ele><time>2026-03-22T09:35:12.261Z</time></trkpt><trkpt lat="43.418005" lon="11.6813633"><ele>349.0</ele><time>2026-03-22T09:35:15.263Z</time></trkpt><trkpt lat="43.4179467" lon="11.68128"><ele>345.66666666666663</ele><time>2026-03-22T09:35:19.262Z</time></trkpt><trkpt lat="43.4178867" lon="11.6812533"><ele>342.3333333333333</ele><time>2026-03-22T09:35:21.261Z</time></trkpt><trkpt lat="43.4178033" lon="11.681225"><ele>339.0</ele><time>2026-03-22T09:35:23.258Z</time></trkpt><trkpt lat="43.41772" lon="11.6812133"><ele>335.6666666666667</ele><time>2026-03-22T09:35:25.259Z</time></trkpt><trkpt lat="43.4176517" lon="11.6812017"><ele>332.33333333333337</ele><time>2026-03-22T09:35:27.26Z</time></trkpt><trkpt lat="43.4175783" lon="11.6812617"><ele>329.0</ele><time>2026-03-22T09:35:30.259Z</time></trkpt><trkpt lat="43.4175283" lon="11.68132"><ele>329.0</ele><time>2026-03-22T09:35:33.261Z</time></trkpt><trkpt lat="43.41741" lon="11.6814483"><ele>329.0</ele><time>2026-03-22T09:35:57.257Z</time></trkpt><trkpt lat="43.41734" lon="11.6814983"><ele>329.0</ele><time>2026-03-22T09:36:06.259Z</time></trkpt><trkpt lat="43.4172383" lon="11.6815133"><ele>329.0</ele><time>2026-03-22T09:36:28.259Z</time></trkpt><trkpt lat="43.417235" lon="11.6814133"><ele>329.0</ele><time>2026-03-22T09:36:35.259Z</time></trkpt><trkpt lat="43.4172283" lon="11.6813183"><ele>329.0</ele><time>2026-03-22T09:36:39.261Z</time></trkpt><trkpt lat="43.4172567" lon="11.681195"><ele>329.0</ele><time>2026-03-22T09:36:43.261Z</time></trkpt><trkpt lat="43.417285" lon="11.681095"><ele>329.0</ele><time>2026-03-22T09:36:45.259Z</time></trkpt><trkpt lat="43.4173233" lon="11.68098"><ele>329.0</ele><time>2026-03-22T09:36:47.26Z</time></trkpt><trkpt lat="43.4173583" lon="11.680835"><ele>329.0</ele><time>2026-03-22T09:36:49.261Z</time></trkpt><trkpt lat="43.4173717" lon="11.6807083"><ele>327.75</ele><time>2026-03-22T09:36:51.262Z</time></trkpt><trkpt lat="43.4173667" lon="11.6805333"><ele>326.5</ele><time>2026-03-22T09:36:53.263Z</time></trkpt><trkpt lat="43.41736" lon="11.6803767"><ele>325.25</ele><time>2026-03-22T09:36:55.26Z</time></trkpt><trkpt lat="43.41736" lon="11.6802267"><ele>324.0</ele><time>2026-03-22T09:36:57.26Z</time></trkpt><trkpt lat="43.41737" lon="11.680075"><ele>322.59999999999997</ele><time>2026-03-22T09:36:59.259Z</time></trkpt><trkpt lat="43.4174017" lon="11.679945"><ele>321.2</ele><time>2026-03-22T09:37:01.263Z</time></trkpt><trkpt lat="43.417455" lon="11.6798133"><ele>319.79999999999995</ele><time>2026-03-22T09:37:03.258Z</time></trkpt><trkpt lat="43.4174983" lon="11.679685"><ele>318.4</ele><time>2026-03-22T09:37:05.258Z</time></trkpt><trkpt lat="43.417525" lon="11.6795683"><ele>317.0</ele><time>2026-03-22T09:37:07.26Z</time></trkpt><trkpt lat="43.4175433" lon="11.6794683"><ele>316.6666666666667</ele><time>2026-03-22T09:37:09.264Z</time></trkpt><trkpt lat="43.4175783" lon="11.6793867"><ele>316.33333333333337</ele><time>2026-03-22T09:37:11.26Z</time></trkpt><trkpt lat="43.417635" lon="11.6792817"><ele>316.0</ele><time>2026-03-22T09:37:14.26Z</time></trkpt><trkpt lat="43.4176933" lon="11.679195"><ele>315.6666666666667</ele><time>2026-03-22T09:37:16.262Z</time></trkpt><trkpt lat="43.4177583" lon="11.679105"><ele>315.3333333333333</ele><time>2026-03-22T09:37:18.26Z</time></trkpt><trkpt lat="43.41783" lon="11.6790017"><ele>315.0</ele><time>2026-03-22T09:37:20.264Z</time></trkpt><trkpt lat="43.4179083" lon="11.67891"><ele>314.0</ele><time>2026-03-22T09:37:22.26Z</time></trkpt><trkpt lat="43.4180217" lon="11.6788317"><ele>313.0</ele><time>2026-03-22T09:37:24.259Z</time></trkpt><trkpt lat="43.4180917" lon="11.6788017"><ele>312.0</ele><time>2026-03-22T09:37:25.263Z</time></trkpt><trkpt lat="43.4181667" lon="11.6787867"><ele>311.0</ele><time>2026-03-22T09:37:26.259Z</time></trkpt><trkpt lat="43.4182367" lon="11.67878"><ele>310.0</ele><time>2026-03-22T09:37:27.265Z</time></trkpt><trkpt lat="43.4183017" lon="11.67877"><ele>309.0</ele><time>2026-03-22T09:37:28.259Z</time></trkpt><trkpt lat="43.418365" lon="11.67875"><ele>309.0</ele><time>2026-03-22T09:37:29.258Z</time></trkpt><trkpt lat="43.418425" lon="11.6787183"><ele>309.0</ele><time>2026-03-22T09:37:30.261Z</time></trkpt><trkpt lat="43.4184833" lon="11.67868"><ele>309.0</ele><time>2026-03-22T09:37:31.259Z</time></trkpt><trkpt lat="43.4185417" lon="11.67864"><ele>309.0</ele><time>2026-03-22T09:37:32.263Z</time></trkpt><trkpt lat="43.4186267" lon="11.6785833"><ele>309.0</ele><time>2026-03-22T09:37:34.259Z</time></trkpt><trkpt lat="43.418705" lon="11.67855"><ele>309.0</ele><time>2026-03-22T09:37:38.262Z</time></trkpt><trkpt lat="43.4187833" lon="11.6785317"><ele>307.8</ele><time>2026-03-22T09:37:40.26Z</time></trkpt><trkpt lat="43.4188917" lon="11.678465"><ele>306.59999999999997</ele><time>2026-03-22T09:37:42.26Z</time></trkpt><trkpt lat="43.4189733" lon="11.6784333"><ele>305.4</ele><time>2026-03-22T09:37:44.261Z</time></trkpt><trkpt lat="43.41905" lon="11.67841"><ele>304.2</ele><time>2026-03-22T09:37:46.259Z</time></trkpt><trkpt lat="43.4191167" lon="11.678315"><ele>303.0</ele><time>2026-03-22T09:37:48.258Z</time></trkpt><trkpt lat="43.4191783" lon="11.6781717"><ele>303.0</ele><time>2026-03-22T09:37:50.259Z</time></trkpt><trkpt lat="43.4192433" lon="11.6780267"><ele>303.0</ele><time>2026-03-22T09:37:52.258Z</time></trkpt><trkpt lat="43.4192967" lon="11.677975"><ele>303.0</ele><time>2026-03-22T09:37:53.262Z</time></trkpt><trkpt lat="43.419365" lon="11.6779567"><ele>303.0</ele><time>2026-03-22T09:37:54.258Z</time></trkpt><trkpt lat="43.4194333" lon="11.67794"><ele>303.0</ele><time>2026-03-22T09:37:55.262Z</time></trkpt><trkpt lat="43.4195367" lon="11.6778767"><ele>303.0</ele><time>2026-03-22T09:37:57.261Z</time></trkpt><trkpt lat="43.4196133" lon="11.6777733"><ele>301.0</ele><time>2026-03-22T09:37:59.258Z</time></trkpt><trkpt lat="43.4196667" lon="11.67768"><ele>299.0</ele><time>2026-03-22T09:38:01.261Z</time></trkpt><trkpt lat="43.4197317" lon="11.67763"><ele>297.0</ele><time>2026-03-22T09:38:03.259Z</time></trkpt><trkpt lat="43.4198133" lon="11.6776067"><ele>295.0</ele><time>2026-03-22T09:38:05.263Z</time></trkpt><trkpt lat="43.4199133" lon="11.677575"><ele>293.0</ele><time>2026-03-22T09:38:07.261Z</time></trkpt><trkpt lat="43.4200167" lon="11.6775183"><ele>293.0</ele><time>2026-03-22T09:38:09.262Z</time></trkpt><trkpt lat="43.420115" lon="11.6774617"><ele>293.0</ele><time>2026-03-22T09:38:11.259Z</time></trkpt><trkpt lat="43.4202033" lon="11.67741"><ele>293.0</ele><time>2026-03-22T09:38:13.26Z</time></trkpt><trkpt lat="43.4202833" lon="11.6773717"><ele>293.0</ele><time>2026-03-22T09:38:15.261Z</time></trkpt><trkpt lat="43.4203517" lon="11.677345"><ele>293.0</ele><time>2026-03-22T09:38:18.26Z</time></trkpt><trkpt lat="43.42044" lon="11.6772867"><ele>291.6666666666667</ele><time>2026-03-22T09:38:38.263Z</time></trkpt><trkpt lat="43.420515" lon="11.677255"><ele>290.33333333333337</ele><time>2026-03-22T09:38:40.26Z</time></trkpt><trkpt lat="43.42061" lon="11.6772133"><ele>289.0</ele><time>2026-03-22T09:38:42.26Z</time></trkpt><trkpt lat="43.4207183" lon="11.6771517"><ele>287.6666666666667</ele><time>2026-03-22T09:38:44.259Z</time></trkpt><trkpt lat="43.4207833" lon="11.6771183"><ele>286.3333333333333</ele><time>2026-03-22T09:38:45.259Z</time></trkpt><trkpt lat="43.4208533" lon="11.6771033"><ele>285.0</ele><time>2026-03-22T09:38:46.263Z</time></trkpt><trkpt lat="43.420925" lon="11.6770967"><ele>285.0</ele><time>2026-03-22T09:38:47.264Z</time></trkpt><trkpt lat="43.4209983" lon="11.6770933"><ele>285.0</ele><time>2026-03-22T09:38:48.26Z</time></trkpt><trkpt lat="43.421075" lon="11.6770867"><ele>285.0</ele><time>2026-03-22T09:38:49.259Z</time></trkpt><trkpt lat="43.4211517" lon="11.67707"><ele>285.0</ele><time>2026-03-22T09:38:50.261Z</time></trkpt><trkpt lat="43.4212233" lon="11.67706"><ele>285.0</ele><time>2026-03-22T09:38:51.261Z</time></trkpt><trkpt lat="43.4212917" lon="11.6770483"><ele>285.0</ele><time>2026-03-22T09:38:52.258Z</time></trkpt><trkpt lat="43.421355" lon="11.67704"><ele>285.0</ele><time>2026-03-22T09:38:53.259Z</time></trkpt><trkpt lat="43.4214217" lon="11.6770333"><ele>285.0</ele><time>2026-03-22T09:38:54.26Z</time></trkpt><trkpt lat="43.4214933" lon="11.6770217"><ele>285.0</ele><time>2026-03-22T09:38:55.26Z</time></trkpt><trkpt lat="43.4215583" lon="11.6770067"><ele>285.0</ele><time>2026-03-22T09:38:56.26Z</time></trkpt><trkpt lat="43.4216583" lon="11.6769717"><ele>285.0</ele><time>2026-03-22T09:38:58.262Z</time></trkpt><trkpt lat="43.4217283" lon="11.6769417"><ele>285.0</ele><time>2026-03-22T09:39:01.261Z</time></trkpt><trkpt lat="43.42177" lon="11.67683"><ele>285.0</ele><time>2026-03-22T09:39:20.263Z</time></trkpt><trkpt lat="43.421775" lon="11.676735"><ele>285.25</ele><time>2026-03-22T09:39:21.264Z</time></trkpt><trkpt lat="43.4217683" lon="11.6765967"><ele>285.5</ele><time>2026-03-22T09:39:22.262Z</time></trkpt><trkpt lat="43.4217467" lon="11.6764167"><ele>285.75</ele><time>2026-03-22T09:39:23.262Z</time></trkpt><trkpt lat="43.4217267" lon="11.676225"><ele>286.0</ele><time>2026-03-22T09:39:24.261Z</time></trkpt><trkpt lat="43.4217067" lon="11.67602"><ele>286.0</ele><time>2026-03-22T09:39:25.263Z</time></trkpt><trkpt lat="43.4216883" lon="11.6758083"><ele>286.0</ele><time>2026-03-22T09:39:26.258Z</time></trkpt><trkpt lat="43.4216667" lon="11.6755883"><ele>286.0</ele><time>2026-03-22T09:39:27.262Z</time></trkpt><trkpt lat="43.4216433" lon="11.675365"><ele>286.0</ele><time>2026-03-22T09:39:28.258Z</time></trkpt><trkpt lat="43.4216167" lon="11.6751433"><ele>286.0</ele><time>2026-03-22T09:39:29.257Z</time></trkpt><trkpt lat="43.4215833" lon="11.674925"><ele>286.0</ele><time>2026-03-22T09:39:30.261Z</time></trkpt><trkpt lat="43.4215467" lon="11.6747117"><ele>286.0</ele><time>2026-03-22T09:39:31.263Z</time></trkpt><trkpt lat="43.4215033" lon="11.6745017"><ele>286.0</ele><time>2026-03-22T09:39:32.259Z</time></trkpt><trkpt lat="43.42146" lon="11.6742917"><ele>286.0</ele><time>2026-03-22T09:39:33.261Z</time></trkpt><trkpt lat="43.4214167" lon="11.6740817"><ele>287.0</ele><time>2026-03-22T09:39:34.257Z</time></trkpt><trkpt lat="43.4213667" lon="11.673875"><ele>288.0</ele><time>2026-03-22T09:39:35.26Z</time></trkpt><trkpt lat="43.42132" lon="11.67367"><ele>289.0</ele><time>2026-03-22T09:39:36.258Z</time></trkpt><trkpt lat="43.42128" lon="11.6734667"><ele>287.0</ele><time>2026-03-22T09:39:37.261Z</time></trkpt><trkpt lat="43.421245" lon="11.6732583"><ele>285.0</ele><time>2026-03-22T09:39:38.262Z</time></trkpt><trkpt lat="43.4212233" lon="11.67306"><ele>283.0</ele><time>2026-03-22T09:39:39.26Z</time></trkpt><trkpt lat="43.421225" lon="11.6728667"><ele>281.0</ele><time>2026-03-22T09:39:40.258Z</time></trkpt><trkpt lat="43.421245" lon="11.6726767"><ele>280.0</ele><time>2026-03-22T09:39:41.257Z</time></trkpt><trkpt lat="43.4212867" lon="11.6724983"><ele>279.0</ele><time>2026-03-22T09:39:42.262Z</time></trkpt><trkpt lat="43.4213467" lon="11.6723267"><ele>278.0</ele><time>2026-03-22T09:39:43.26Z</time></trkpt><trkpt lat="43.4214133" lon="11.6721583"><ele>277.0</ele><time>2026-03-22T09:39:44.26Z</time></trkpt><trkpt lat="43.4214867" lon="11.671985"><ele>278.25</ele><time>2026-03-22T09:39:45.26Z</time></trkpt><trkpt lat="43.4215567" lon="11.6718083"><ele>279.5</ele><time>2026-03-22T09:39:46.26Z</time></trkpt><trkpt lat="43.4216217" lon="11.6716267"><ele>280.75</ele><time>2026-03-22T09:39:47.262Z</time></trkpt><trkpt lat="43.4216867" lon="11.6714433"><ele>282.0</ele><time>2026-03-22T09:39:48.262Z</time></trkpt><trkpt lat="43.4217567" lon="11.6712567"><ele>280.3333333333333</ele><time>2026-03-22T09:39:49.258Z</time></trkpt><trkpt lat="43.4218317" lon="11.6710683"><ele>278.66666666666663</ele><time>2026-03-22T09:39:50.259Z</time></trkpt><trkpt lat="43.4218967" lon="11.6708833"><ele>277.0</ele><time>2026-03-22T09:39:51.259Z</time></trkpt><trkpt lat="43.42196" lon="11.670695"><ele>277.0</ele><time>2026-03-22T09:39:52.259Z</time></trkpt><trkpt lat="43.4220133" lon="11.6705033"><ele>277.0</ele><time>2026-03-22T09:39:53.262Z</time></trkpt><trkpt lat="43.4220533" lon="11.6703067"><ele>277.0</ele><time>2026-03-22T09:39:54.265Z</time></trkpt><trkpt lat="43.422075" lon="11.6701033"><ele>277.0</ele><time>2026-03-22T09:39:55.263Z</time></trkpt><trkpt lat="43.4220883" lon="11.6699"><ele>276.75</ele><time>2026-03-22T09:39:56.259Z</time></trkpt><trkpt lat="43.422095" lon="11.6696967"><ele>276.5</ele><time>2026-03-22T09:39:57.262Z</time></trkpt><trkpt lat="43.4221017" lon="11.6694967"><ele>276.25</ele><time>2026-03-22T09:39:58.264Z</time></trkpt><trkpt lat="43.4221183" lon="11.6693017"><ele>276.0</ele><time>2026-03-22T09:39:59.263Z</time></trkpt><trkpt lat="43.422155" lon="11.6691067"><ele>276.75</ele><time>2026-03-22T09:40:00.262Z</time></trkpt><trkpt lat="43.4222017" lon="11.6689217"><ele>277.5</ele><time>2026-03-22T09:40:01.263Z</time></trkpt><trkpt lat="43.4222517" lon="11.6687417"><ele>278.25</ele><time>2026-03-22T09:40:02.26Z</time></trkpt><trkpt lat="43.422305" lon="11.6685617"><ele>279.0</ele><time>2026-03-22T09:40:03.259Z</time></trkpt><trkpt lat="43.42235" lon="11.6683783"><ele>279.0</ele><time>2026-03-22T09:40:04.258Z</time></trkpt><trkpt lat="43.4223933" lon="11.6682033"><ele>279.0</ele><time>2026-03-22T09:40:05.261Z</time></trkpt><trkpt lat="43.4224483" lon="11.6680467"><ele>279.0</ele><time>2026-03-22T09:40:06.261Z</time></trkpt><trkpt lat="43.4225167" lon="11.6679067"><ele>279.0</ele><time>2026-03-22T09:40:07.258Z</time></trkpt><trkpt lat="43.42259" lon="11.6677733"><ele>277.75</ele><time>2026-03-22T09:40:08.263Z</time></trkpt><trkpt lat="43.42266" lon="11.6676417"><ele>276.5</ele><time>2026-03-22T09:40:09.259Z</time></trkpt><trkpt lat="43.422735" lon="11.6675033"><ele>275.25</ele><time>2026-03-22T09:40:10.257Z</time></trkpt><trkpt lat="43.422805" lon="11.6673617"><ele>274.0</ele><time>2026-03-22T09:40:11.259Z</time></trkpt><trkpt lat="43.422875" lon="11.667215"><ele>274.0</ele><time>2026-03-22T09:40:12.257Z</time></trkpt><trkpt lat="43.4229483" lon="11.6670667"><ele>274.0</ele><time>2026-03-22T09:40:13.259Z</time></trkpt><trkpt lat="43.4230233" lon="11.6669167"><ele>274.0</ele><time>2026-03-22T09:40:14.261Z</time></trkpt><trkpt lat="43.4231" lon="11.6667617"><ele>274.0</ele><time>2026-03-22T09:40:15.26Z</time></trkpt><trkpt lat="43.4231783" lon="11.6666083"><ele>274.25</ele><time>2026-03-22T09:40:16.26Z</time></trkpt><trkpt lat="43.42325" lon="11.6664667"><ele>274.5</ele><time>2026-03-22T09:40:17.266Z</time></trkpt><trkpt lat="43.4233217" lon="11.6663267"><ele>274.75</ele><time>2026-03-22T09:40:18.258Z</time></trkpt><trkpt lat="43.4233917" lon="11.6661917"><ele>275.0</ele><time>2026-03-22T09:40:19.259Z</time></trkpt><trkpt lat="43.42346" lon="11.66606"><ele>274.0</ele><time>2026-03-22T09:40:20.261Z</time></trkpt><trkpt lat="43.42353" lon="11.6659333"><ele>273.0</ele><time>2026-03-22T09:40:21.258Z</time></trkpt><trkpt lat="43.4236083" lon="11.66581"><ele>272.0</ele><time>2026-03-22T09:40:22.259Z</time></trkpt><trkpt lat="43.423685" lon="11.6656883"><ele>271.0</ele><time>2026-03-22T09:40:23.261Z</time></trkpt><trkpt lat="43.423765" lon="11.6655733"><ele>271.8</ele><time>2026-03-22T09:40:24.261Z</time></trkpt><trkpt lat="43.42384" lon="11.6654617"><ele>272.6</ele><time>2026-03-22T09:40:25.262Z</time></trkpt><trkpt lat="43.4239167" lon="11.6653517"><ele>273.4</ele><time>2026-03-22T09:40:26.258Z</time></trkpt><trkpt lat="43.4239933" lon="11.66525"><ele>274.2</ele><time>2026-03-22T09:40:27.26Z</time></trkpt><trkpt lat="43.4240717" lon="11.665155"><ele>275.0</ele><time>2026-03-22T09:40:28.257Z</time></trkpt><trkpt lat="43.42415" lon="11.665065"><ele>273.8</ele><time>2026-03-22T09:40:29.262Z</time></trkpt><trkpt lat="43.4242333" lon="11.6649867"><ele>272.6</ele><time>2026-03-22T09:40:30.264Z</time></trkpt><trkpt lat="43.4243283" lon="11.6649267"><ele>271.4</ele><time>2026-03-22T09:40:31.259Z</time></trkpt><trkpt lat="43.424435" lon="11.6648817"><ele>270.2</ele><time>2026-03-22T09:40:32.261Z</time></trkpt><trkpt lat="43.424545" lon="11.6648433"><ele>269.0</ele><time>2026-03-22T09:40:33.266Z</time></trkpt><trkpt lat="43.4246533" lon="11.6648133"><ele>269.0</ele><time>2026-03-22T09:40:34.261Z</time></trkpt><trkpt lat="43.4247567" lon="11.664785"><ele>269.0</ele><time>2026-03-22T09:40:35.26Z</time></trkpt><trkpt lat="43.4248533" lon="11.6647583"><ele>269.0</ele><time>2026-03-22T09:40:36.258Z</time></trkpt><trkpt lat="43.4249467" lon="11.6647333"><ele>269.0</ele><time>2026-03-22T09:40:37.259Z</time></trkpt><trkpt lat="43.4250383" lon="11.6647117"><ele>269.0</ele><time>2026-03-22T09:40:38.262Z</time></trkpt><trkpt lat="43.42513" lon="11.6646917"><ele>269.0</ele><time>2026-03-22T09:40:39.259Z</time></trkpt><trkpt lat="43.425225" lon="11.664665"><ele>269.0</ele><time>2026-03-22T09:40:40.258Z</time></trkpt><trkpt lat="43.4253183" lon="11.664635"><ele>269.0</ele><time>2026-03-22T09:40:41.259Z</time></trkpt><trkpt lat="43.4254117" lon="11.6646033"><ele>269.0</ele><time>2026-03-22T09:40:42.262Z</time></trkpt><trkpt lat="43.4255017" lon="11.66457"><ele>269.0</ele><time>2026-03-22T09:40:43.259Z</time></trkpt><trkpt lat="43.4255867" lon="11.6645383"><ele>269.1666666666667</ele><time>2026-03-22T09:40:44.262Z</time></trkpt><trkpt lat="43.4256667" lon="11.6645067"><ele>269.33333333333337</ele><time>2026-03-22T09:40:45.263Z</time></trkpt><trkpt lat="43.4257433" lon="11.6644767"><ele>269.5</ele><time>2026-03-22T09:40:46.26Z</time></trkpt><trkpt lat="43.425815" lon="11.6644467"><ele>269.6666666666667</ele><time>2026-03-22T09:40:47.259Z</time></trkpt><trkpt lat="43.4258817" lon="11.66442"><ele>269.8333333333333</ele><time>2026-03-22T09:40:48.263Z</time></trkpt><trkpt lat="43.4259433" lon="11.6643933"><ele>270.0</ele><time>2026-03-22T09:40:49.259Z</time></trkpt><trkpt lat="43.4260583" lon="11.664345"><ele>270.0</ele><time>2026-03-22T09:40:51.264Z</time></trkpt><trkpt lat="43.4261417" lon="11.6642983"><ele>270.0</ele><time>2026-03-22T09:40:53.261Z</time></trkpt><trkpt lat="43.426065" lon="11.6642883"><ele>270.0</ele><time>2026-03-22T09:41:06.26Z</time></trkpt><trkpt lat="43.426065" lon="11.6644017"><ele>270.0</ele><time>2026-03-22T09:41:35.257Z</time></trkpt><trkpt lat="43.4260667" lon="11.664525"><ele>270.0</ele><time>2026-03-22T09:41:36.265Z</time></trkpt><trkpt lat="43.4260667" lon="11.664665"><ele>270.0</ele><time>2026-03-22T09:41:37.263Z</time></trkpt><trkpt lat="43.4260617" lon="11.664815"><ele>270.0</ele><time>2026-03-22T09:41:38.26Z</time></trkpt><trkpt lat="43.4260633" lon="11.6649633"><ele>270.0</ele><time>2026-03-22T09:41:39.258Z</time></trkpt><trkpt lat="43.426065" lon="11.6651"><ele>270.0</ele><time>2026-03-22T09:41:40.259Z</time></trkpt><trkpt lat="43.4260683" lon="11.6652183"><ele>270.0</ele><time>2026-03-22T09:41:41.261Z</time></trkpt><trkpt lat="43.426075" lon="11.6653183"><ele>270.0</ele><time>2026-03-22T09:41:42.257Z</time></trkpt><trkpt lat="43.4261117" lon="11.665445"><ele>271.8</ele><time>2026-03-22T09:41:44.257Z</time></trkpt><trkpt lat="43.4261833" lon="11.6654917"><ele>273.6</ele><time>2026-03-22T09:41:46.256Z</time></trkpt><trkpt lat="43.4262733" lon="11.665475"><ele>275.4</ele><time>2026-03-22T09:41:48.257Z</time></trkpt><trkpt lat="43.4264133" lon="11.66545"><ele>277.2</ele><time>2026-03-22T09:41:50.259Z</time></trkpt><trkpt lat="43.4264917" lon="11.6654567"><ele>279.0</ele><time>2026-03-22T09:41:51.26Z</time></trkpt><trkpt lat="43.426565" lon="11.6654467"><ele>279.6666666666667</ele><time>2026-03-22T09:41:52.263Z</time></trkpt><trkpt lat="43.4266283" lon="11.6654317"><ele>280.3333333333333</ele><time>2026-03-22T09:41:53.261Z</time></trkpt><trkpt lat="43.4267417" lon="11.6653917"><ele>281.0</ele><time>2026-03-22T09:41:55.262Z</time></trkpt><trkpt lat="43.4268383" lon="11.6653917"><ele>281.66666666666663</ele><time>2026-03-22T09:41:57.26Z</time></trkpt><trkpt lat="43.426895" lon="11.6654567"><ele>282.3333333333333</ele><time>2026-03-22T09:41:59.263Z</time></trkpt><trkpt lat="43.4269233" lon="11.66554"><ele>283.0</ele><time>2026-03-22T09:42:01.263Z</time></trkpt><trkpt lat="43.4269633" lon="11.665655"><ele>283.0</ele><time>2026-03-22T09:42:03.26Z</time></trkpt><trkpt lat="43.4270233" lon="11.6657983"><ele>283.0</ele><time>2026-03-22T09:42:05.262Z</time></trkpt><trkpt lat="43.4270583" lon="11.6659317"><ele>283.0</ele><time>2026-03-22T09:42:07.262Z</time></trkpt><trkpt lat="43.427045" lon="11.6660567"><ele>283.0</ele><time>2026-03-22T09:42:09.26Z</time></trkpt><trkpt lat="43.4270233" lon="11.666185"><ele>283.0</ele><time>2026-03-22T09:42:11.26Z</time></trkpt><trkpt lat="43.4270317" lon="11.6663317"><ele>284.4</ele><time>2026-03-22T09:42:13.259Z</time></trkpt><trkpt lat="43.4270233" lon="11.666495"><ele>285.8</ele><time>2026-03-22T09:42:15.258Z</time></trkpt><trkpt lat="43.42702" lon="11.6665883"><ele>287.2</ele><time>2026-03-22T09:42:16.258Z</time></trkpt><trkpt lat="43.4270167" lon="11.6666867"><ele>288.6</ele><time>2026-03-22T09:42:17.263Z</time></trkpt><trkpt lat="43.4270217" lon="11.6667833"><ele>290.0</ele><time>2026-03-22T09:42:18.264Z</time></trkpt><trkpt lat="43.4270767" lon="11.6669317"><ele>290.7142857142857</ele><time>2026-03-22T09:42:20.258Z</time></trkpt><trkpt lat="43.4271267" lon="11.6670083"><ele>291.42857142857144</ele><time>2026-03-22T09:42:21.262Z</time></trkpt><trkpt lat="43.42717" lon="11.6670933"><ele>292.14285714285717</ele><time>2026-03-22T09:42:22.261Z</time></trkpt><trkpt lat="43.42721" lon="11.667195"><ele>292.8571428571429</ele><time>2026-03-22T09:42:23.258Z</time></trkpt><trkpt lat="43.4272417" lon="11.66729"><ele>293.57142857142856</ele><time>2026-03-22T09:42:24.265Z</time></trkpt><trkpt lat="43.4272633" lon="11.667375"><ele>294.28571428571433</ele><time>2026-03-22T09:42:25.259Z</time></trkpt><trkpt lat="43.4272867" lon="11.6674667"><ele>295.0</ele><time>2026-03-22T09:42:26.26Z</time></trkpt><trkpt lat="43.4273167" lon="11.6676267"><ele>295.8</ele><time>2026-03-22T09:42:28.263Z</time></trkpt><trkpt lat="43.4273733" lon="11.667765"><ele>296.6</ele><time>2026-03-22T09:42:30.262Z</time></trkpt><trkpt lat="43.4274567" lon="11.6678733"><ele>297.4</ele><time>2026-03-22T09:42:32.26Z</time></trkpt><trkpt lat="43.427505" lon="11.6679483"><ele>298.2</ele><time>2026-03-22T09:42:33.261Z</time></trkpt><trkpt lat="43.427555" lon="11.6680417"><ele>299.0</ele><time>2026-03-22T09:42:34.266Z</time></trkpt><trkpt lat="43.4275967" lon="11.668145"><ele>299.59999999999997</ele><time>2026-03-22T09:42:35.258Z</time></trkpt><trkpt lat="43.4276317" lon="11.6682517"><ele>300.2</ele><time>2026-03-22T09:42:36.267Z</time></trkpt><trkpt lat="43.4276567" lon="11.668345"><ele>300.79999999999995</ele><time>2026-03-22T09:42:37.262Z</time></trkpt><trkpt lat="43.42772" lon="11.6684683"><ele>301.4</ele><time>2026-03-22T09:42:39.268Z</time></trkpt><trkpt lat="43.4278" lon="11.668535"><ele>302.0</ele><time>2026-03-22T09:42:41.261Z</time></trkpt><trkpt lat="43.427875" lon="11.6686117"><ele>302.6</ele><time>2026-03-22T09:42:43.262Z</time></trkpt><trkpt lat="43.4279817" lon="11.668705"><ele>303.2</ele><time>2026-03-22T09:42:45.26Z</time></trkpt><trkpt lat="43.4280683" lon="11.66878"><ele>303.8</ele><time>2026-03-22T09:42:47.26Z</time></trkpt><trkpt lat="43.4281367" lon="11.6688617"><ele>304.4</ele><time>2026-03-22T09:42:49.263Z</time></trkpt><trkpt lat="43.4282133" lon="11.6689967"><ele>305.0</ele><time>2026-03-22T09:42:51.26Z</time></trkpt><trkpt lat="43.4282867" lon="11.6691233"><ele>305.0</ele><time>2026-03-22T09:42:53.26Z</time></trkpt><trkpt lat="43.4283117" lon="11.6692467"><ele>305.0</ele><time>2026-03-22T09:42:55.259Z</time></trkpt><trkpt lat="43.428325" lon="11.6693517"><ele>305.0</ele><time>2026-03-22T09:42:57.26Z</time></trkpt><trkpt lat="43.42839" lon="11.6694067"><ele>305.0</ele><time>2026-03-22T09:43:00.258Z</time></trkpt><trkpt lat="43.4284617" lon="11.6693817"><ele>305.0</ele><time>2026-03-22T09:43:02.264Z</time></trkpt><trkpt lat="43.4285417" lon="11.6693433"><ele>305.0</ele><time>2026-03-22T09:43:04.261Z</time></trkpt><trkpt lat="43.42862" lon="11.6693083"><ele>305.0</ele><time>2026-03-22T09:43:06.26Z</time></trkpt><trkpt lat="43.428675" lon="11.6693567"><ele>305.0</ele><time>2026-03-22T09:43:24.259Z</time></trkpt><trkpt lat="43.4286683" lon="11.6694717"><ele>305.0</ele><time>2026-03-22T09:43:27.26Z</time></trkpt><trkpt lat="43.42865" lon="11.6695817"><ele>305.0</ele><time>2026-03-22T09:43:30.26Z</time></trkpt><trkpt lat="43.4286417" lon="11.66969"><ele>305.0</ele><time>2026-03-22T09:43:33.259Z</time></trkpt><trkpt lat="43.428625" lon="11.669795"><ele>305.0</ele><time>2026-03-22T09:43:36.259Z</time></trkpt><trkpt lat="43.4286467" lon="11.6698983"><ele>306.5</ele><time>2026-03-22T09:43:38.26Z</time></trkpt><trkpt lat="43.42865" lon="11.6699967"><ele>308.0</ele><time>2026-03-22T09:43:41.262Z</time></trkpt><trkpt lat="43.4286267" lon="11.6700867"><ele>309.5</ele><time>2026-03-22T09:43:50.258Z</time></trkpt><trkpt lat="43.4286" lon="11.67017"><ele>311.0</ele><time>2026-03-22T09:43:53.26Z</time></trkpt><trkpt lat="43.428545" lon="11.6702467"><ele>312.5</ele><time>2026-03-22T09:43:56.263Z</time></trkpt><trkpt lat="43.4284667" lon="11.6702983"><ele>314.0</ele><time>2026-03-22T09:43:58.261Z</time></trkpt><trkpt lat="43.4284067" lon="11.6703933"><ele>315.1428571428571</ele><time>2026-03-22T09:44:00.261Z</time></trkpt><trkpt lat="43.428365" lon="11.6704883"><ele>316.2857142857143</ele><time>2026-03-22T09:44:02.26Z</time></trkpt><trkpt lat="43.4283533" lon="11.6705867"><ele>317.42857142857144</ele><time>2026-03-22T09:44:04.259Z</time></trkpt><trkpt lat="43.4283533" lon="11.670675"><ele>318.57142857142856</ele><time>2026-03-22T09:44:06.261Z</time></trkpt><trkpt lat="43.4283717" lon="11.6707633"><ele>319.7142857142857</ele><time>2026-03-22T09:44:08.26Z</time></trkpt><trkpt lat="43.4284017" lon="11.6708567"><ele>320.85714285714283</ele><time>2026-03-22T09:44:10.26Z</time></trkpt><trkpt lat="43.4284417" lon="11.670925"><ele>322.0</ele><time>2026-03-22T09:44:12.259Z</time></trkpt><trkpt lat="43.428485" lon="11.671025"><ele>323.8333333333333</ele><time>2026-03-22T09:44:15.261Z</time></trkpt><trkpt lat="43.4284967" lon="11.6711283"><ele>325.66666666666663</ele><time>2026-03-22T09:44:18.259Z</time></trkpt><trkpt lat="43.4285317" lon="11.6712333"><ele>327.5</ele><time>2026-03-22T09:44:21.26Z</time></trkpt><trkpt lat="43.42859" lon="11.671285"><ele>329.3333333333333</ele><time>2026-03-22T09:44:23.257Z</time></trkpt><trkpt lat="43.42864" lon="11.6713883"><ele>331.1666666666667</ele><time>2026-03-22T09:44:26.26Z</time></trkpt><trkpt lat="43.4286267" lon="11.6714917"><ele>333.0</ele><time>2026-03-22T09:44:29.26Z</time></trkpt><trkpt lat="43.4286483" lon="11.671585"><ele>333.0</ele><time>2026-03-22T09:44:32.26Z</time></trkpt><trkpt lat="43.4287067" lon="11.6716233"><ele>333.0</ele><time>2026-03-22T09:44:35.258Z</time></trkpt><trkpt lat="43.42875" lon="11.6717117"><ele>333.0</ele><time>2026-03-22T09:44:39.26Z</time></trkpt><trkpt lat="43.42878" lon="11.6718067"><ele>333.0</ele><time>2026-03-22T09:44:42.259Z</time></trkpt><trkpt lat="43.4287666" lon="11.671909"><ele>333.0</ele><time>2026-03-22T09:44:46.339Z</time></trkpt><trkpt lat="43.4287965" lon="11.6720122"><ele>333.0</ele><time>2026-03-22T09:44:58.305Z</time></trkpt><trkpt lat="43.4288688" lon="11.6720839"><ele>335.8571428571429</ele><time>2026-03-22T09:45:01.386Z</time></trkpt><trkpt lat="43.4288831" lon="11.6721864"><ele>338.71428571428567</ele><time>2026-03-22T09:45:04.277Z</time></trkpt><trkpt lat="43.42886" lon="11.672275"><ele>341.57142857142856</ele><time>2026-03-22T09:45:08.264Z</time></trkpt><trkpt lat="43.4288467" lon="11.6723933"><ele>344.42857142857144</ele><time>2026-03-22T09:45:11.261Z</time></trkpt><trkpt lat="43.428865" lon="11.6724967"><ele>347.28571428571433</ele><time>2026-03-22T09:45:13.261Z</time></trkpt><trkpt lat="43.4288883" lon="11.6725967"><ele>350.1428571428571</ele><time>2026-03-22T09:45:15.263Z</time></trkpt><trkpt lat="43.4289133" lon="11.6726767"><ele>353.0</ele><time>2026-03-22T09:45:17.262Z</time></trkpt><trkpt lat="43.428955" lon="11.6727717"><ele>355.5</ele><time>2026-03-22T09:45:20.259Z</time></trkpt><trkpt lat="43.4290117" lon="11.6728717"><ele>358.0</ele><time>2026-03-22T09:45:23.261Z</time></trkpt><trkpt lat="43.4290683" lon="11.6729567"><ele>360.5</ele><time>2026-03-22T09:45:28.26Z</time></trkpt><trkpt lat="43.42912" lon="11.67305"><ele>363.0</ele><time>2026-03-22T09:45:31.26Z</time></trkpt><trkpt lat="43.42917" lon="11.67311"><ele>365.5</ele><time>2026-03-22T09:45:33.261Z</time></trkpt><trkpt lat="43.42922" lon="11.6731733"><ele>368.0</ele><time>2026-03-22T09:45:41.259Z</time></trkpt><trkpt lat="43.4292767" lon="11.6732283"><ele>368.0</ele><time>2026-03-22T09:45:44.262Z</time></trkpt><trkpt lat="43.429325" lon="11.6732917"><ele>368.0</ele><time>2026-03-22T09:45:47.26Z</time></trkpt><trkpt lat="43.4293554" lon="11.6733846"><ele>368.0</ele><time>2026-03-22T09:46:02.39Z</time></trkpt><trkpt lat="43.4293982" lon="11.6734496"><ele>368.0</ele><time>2026-03-22T09:46:07.264Z</time></trkpt><trkpt lat="43.4294459" lon="11.6735347"><ele>368.0</ele><time>2026-03-22T09:46:12.279Z</time></trkpt><trkpt lat="43.4294993" lon="11.6735901"><ele>368.0</ele><time>2026-03-22T09:46:15.405Z</time></trkpt><trkpt lat="43.4295333" lon="11.6736917"><ele>368.0</ele><time>2026-03-22T09:46:29.26Z</time></trkpt><trkpt lat="43.4295617" lon="11.6737833"><ele>370.0</ele><time>2026-03-22T09:46:32.263Z</time></trkpt><trkpt lat="43.4295667" lon="11.6738767"><ele>372.0</ele><time>2026-03-22T09:46:43.259Z</time></trkpt><trkpt lat="43.42955" lon="11.6739783"><ele>374.0</ele><time>2026-03-22T09:46:47.261Z</time></trkpt><trkpt lat="43.42956" lon="11.6740917"><ele>376.0</ele><time>2026-03-22T09:46:51.261Z</time></trkpt><trkpt lat="43.42957" lon="11.6741867"><ele>378.0</ele><time>2026-03-22T09:46:54.26Z</time></trkpt><trkpt lat="43.42959" lon="11.6743017"><ele>380.0</ele><time>2026-03-22T09:46:57.261Z</time></trkpt><trkpt lat="43.4296317" lon="11.6743917"><ele>384.33333333333337</ele><time>2026-03-22T09:47:00.261Z</time></trkpt><trkpt lat="43.429665" lon="11.6744817"><ele>388.6666666666667</ele><time>2026-03-22T09:47:03.26Z</time></trkpt><trkpt lat="43.429695" lon="11.6745817"><ele>393.0</ele><time>2026-03-22T09:47:06.26Z</time></trkpt><trkpt lat="43.429705" lon="11.674705"><ele>397.33333333333337</ele><time>2026-03-22T09:47:19.262Z</time></trkpt><trkpt lat="43.4297267" lon="11.6748033"><ele>401.6666666666667</ele><time>2026-03-22T09:47:23.262Z</time></trkpt><trkpt lat="43.42974" lon="11.6748967"><ele>406.0</ele><time>2026-03-22T09:47:26.262Z</time></trkpt><trkpt lat="43.4297467" lon="11.6750067"><ele>406.00000000000006</ele><time>2026-03-22T09:47:30.259Z</time></trkpt><trkpt lat="43.429815" lon="11.6750483"><ele>406.0</ele><time>2026-03-22T09:49:27.26Z</time></trkpt><trkpt lat="43.4299067" lon="11.675015"><ele>406.0</ele><time>2026-03-22T09:49:30.259Z</time></trkpt><trkpt lat="43.42998" lon="11.67498"><ele>406.0</ele><time>2026-03-22T09:49:32.261Z</time></trkpt><trkpt lat="43.4300567" lon="11.674965"><ele>406.00000000000006</ele><time>2026-03-22T09:49:34.261Z</time></trkpt><trkpt lat="43.4301517" lon="11.6749467"><ele>406.0</ele><time>2026-03-22T09:49:36.262Z</time></trkpt><trkpt lat="43.4302417" lon="11.6749033"><ele>406.00000000000006</ele><time>2026-03-22T09:49:38.26Z</time></trkpt><trkpt lat="43.4303317" lon="11.6748533"><ele>406.0</ele><time>2026-03-22T09:49:40.26Z</time></trkpt><trkpt lat="43.4304217" lon="11.6748033"><ele>406.0</ele><time>2026-03-22T09:49:42.259Z</time></trkpt><trkpt lat="43.4305117" lon="11.6747833"><ele>406.0</ele><time>2026-03-22T09:49:44.264Z</time></trkpt><trkpt lat="43.43058" lon="11.6747817"><ele>406.00000000000006</ele><time>2026-03-22T09:49:46.258Z</time></trkpt><trkpt lat="43.4306617" lon="11.67481"><ele>406.0</ele><time>2026-03-22T09:49:49.263Z</time></trkpt><trkpt lat="43.4307283" lon="11.6748683"><ele>405.50000000000006</ele><time>2026-03-22T09:49:51.263Z</time></trkpt><trkpt lat="43.4308117" lon="11.6749183"><ele>405.0</ele><time>2026-03-22T09:49:53.26Z</time></trkpt><trkpt lat="43.430915" lon="11.6749183"><ele>404.5</ele><time>2026-03-22T09:49:55.262Z</time></trkpt><trkpt lat="43.4309783" lon="11.6749117"><ele>404.0</ele><time>2026-03-22T09:49:56.259Z</time></trkpt><trkpt lat="43.4310433" lon="11.6749"><ele>403.50000000000006</ele><time>2026-03-22T09:49:57.261Z</time></trkpt><trkpt lat="43.4311033" lon="11.6748733"><ele>403.0</ele><time>2026-03-22T09:49:58.258Z</time></trkpt><trkpt lat="43.4311617" lon="11.6748317"><ele>403.0</ele><time>2026-03-22T09:49:59.259Z</time></trkpt><trkpt lat="43.43122" lon="11.6747833"><ele>403.0</ele><time>2026-03-22T09:50:00.259Z</time></trkpt><trkpt lat="43.431275" lon="11.6747267"><ele>403.0</ele><time>2026-03-22T09:50:01.263Z</time></trkpt><trkpt lat="43.4313283" lon="11.674655"><ele>403.0</ele><time>2026-03-22T09:50:02.259Z</time></trkpt><trkpt lat="43.4313767" lon="11.6745717"><ele>403.0</ele><time>2026-03-22T09:50:03.257Z</time></trkpt><trkpt lat="43.4314233" lon="11.67449"><ele>403.0</ele><time>2026-03-22T09:50:04.257Z</time></trkpt><trkpt lat="43.4314717" lon="11.6744183"><ele>403.0</ele><time>2026-03-22T09:50:05.258Z</time></trkpt><trkpt lat="43.4315167" lon="11.674355"><ele>401.50000000000006</ele><time>2026-03-22T09:50:06.261Z</time></trkpt><trkpt lat="43.43156" lon="11.67429"><ele>400.0</ele><time>2026-03-22T09:50:07.26Z</time></trkpt><trkpt lat="43.4316267" lon="11.6741567"><ele>398.5</ele><time>2026-03-22T09:50:09.26Z</time></trkpt><trkpt lat="43.4316767" lon="11.6740217"><ele>397.0</ele><time>2026-03-22T09:50:11.266Z</time></trkpt><trkpt lat="43.431715" lon="11.673935"><ele>395.50000000000006</ele><time>2026-03-22T09:50:13.26Z</time></trkpt><trkpt lat="43.4317783" lon="11.6739567"><ele>394.0</ele><time>2026-03-22T09:50:18.263Z</time></trkpt><trkpt lat="43.4318483" lon="11.6740083"><ele>394.00000000000006</ele><time>2026-03-22T09:50:20.259Z</time></trkpt><trkpt lat="43.4319133" lon="11.67407"><ele>394.0</ele><time>2026-03-22T09:50:22.26Z</time></trkpt><trkpt lat="43.4319617" lon="11.674165"><ele>394.0</ele><time>2026-03-22T09:50:24.258Z</time></trkpt><trkpt lat="43.4319783" lon="11.674255"><ele>394.0</ele><time>2026-03-22T09:50:26.258Z</time></trkpt><trkpt lat="43.4319433" lon="11.674355"><ele>394.00000000000006</ele><time>2026-03-22T09:50:29.258Z</time></trkpt><trkpt lat="43.431935" lon="11.6744567"><ele>394.0</ele><time>2026-03-22T09:50:32.259Z</time></trkpt><trkpt lat="43.431945" lon="11.674575"><ele>396.7142857142857</ele><time>2026-03-22T09:50:35.262Z</time></trkpt><trkpt lat="43.4319217" lon="11.6746567"><ele>399.42857142857144</ele><time>2026-03-22T09:50:37.26Z</time></trkpt><trkpt lat="43.431935" lon="11.6747617"><ele>402.1428571428571</ele><time>2026-03-22T09:50:40.257Z</time></trkpt><trkpt lat="43.43199" lon="11.6748317"><ele>404.8571428571429</ele><time>2026-03-22T09:50:43.259Z</time></trkpt><trkpt lat="43.4320533" lon="11.6748967"><ele>407.57142857142856</ele><time>2026-03-22T09:50:46.261Z</time></trkpt><trkpt lat="43.4321233" lon="11.6749367"><ele>410.2857142857143</ele><time>2026-03-22T09:50:49.258Z</time></trkpt><trkpt lat="43.4321767" lon="11.674985"><ele>413.0</ele><time>2026-03-22T09:50:51.261Z</time></trkpt><trkpt lat="43.432225" lon="11.67506"><ele>413.3333333333333</ele><time>2026-03-22T09:50:54.259Z</time></trkpt><trkpt lat="43.4322817" lon="11.6751567"><ele>413.66666666666663</ele><time>2026-03-22T09:50:57.261Z</time></trkpt><trkpt lat="43.4323133" lon="11.6752633"><ele>414.0</ele><time>2026-03-22T09:51:00.259Z</time></trkpt><trkpt lat="43.4323517" lon="11.6753733"><ele>414.33333333333337</ele><time>2026-03-22T09:51:03.259Z</time></trkpt><trkpt lat="43.432395" lon="11.6754767"><ele>414.6666666666667</ele><time>2026-03-22T09:51:05.259Z</time></trkpt><trkpt lat="43.4324483" lon="11.6755683"><ele>415.0</ele><time>2026-03-22T09:51:07.26Z</time></trkpt><trkpt lat="43.43246" lon="11.6756767"><ele>418.83333333333337</ele><time>2026-03-22T09:51:10.26Z</time></trkpt><trkpt lat="43.43237" lon="11.6756917"><ele>422.6666666666667</ele><time>2026-03-22T09:51:14.256Z</time></trkpt><trkpt lat="43.4322933" lon="11.6757217"><ele>426.5</ele><time>2026-03-22T09:51:16.262Z</time></trkpt><trkpt lat="43.4322783" lon="11.6758233"><ele>430.33333333333337</ele><time>2026-03-22T09:51:19.259Z</time></trkpt><trkpt lat="43.43232" lon="11.67591"><ele>434.1666666666667</ele><time>2026-03-22T09:51:21.259Z</time></trkpt><trkpt lat="43.432305" lon="11.676005"><ele>438.0</ele><time>2026-03-22T09:51:23.261Z</time></trkpt><trkpt lat="43.4322267" lon="11.6760517"><ele>440.6666666666667</ele><time>2026-03-22T09:51:25.262Z</time></trkpt><trkpt lat="43.43217" lon="11.67613"><ele>443.33333333333337</ele><time>2026-03-22T09:51:27.262Z</time></trkpt><trkpt lat="43.4321933" lon="11.6762117"><ele>446.0</ele><time>2026-03-22T09:51:29.258Z</time></trkpt><trkpt lat="43.4322583" lon="11.67626"><ele>448.6666666666667</ele><time>2026-03-22T09:51:31.26Z</time></trkpt><trkpt lat="43.4323" lon="11.67635"><ele>451.33333333333337</ele><time>2026-03-22T09:51:33.259Z</time></trkpt><trkpt lat="43.4323167" lon="11.676485"><ele>454.0</ele><time>2026-03-22T09:51:35.259Z</time></trkpt><trkpt lat="43.432335" lon="11.6765717"><ele>454.0</ele><time>2026-03-22T09:51:36.263Z</time></trkpt><trkpt lat="43.4323567" lon="11.6767367"><ele>454.0</ele><time>2026-03-22T09:51:38.258Z</time></trkpt><trkpt lat="43.432375" lon="11.6769117"><ele>454.0</ele><time>2026-03-22T09:51:40.259Z</time></trkpt><trkpt lat="43.4323917" lon="11.6770017"><ele>454.0</ele><time>2026-03-22T09:51:41.257Z</time></trkpt><trkpt lat="43.4324183" lon="11.6770867"><ele>454.0</ele><time>2026-03-22T09:51:42.26Z</time></trkpt><trkpt lat="43.432455" lon="11.6771633"><ele>455.14285714285717</ele><time>2026-03-22T09:51:43.26Z</time></trkpt><trkpt lat="43.4324983" lon="11.6772383"><ele>456.28571428571433</ele><time>2026-03-22T09:51:44.258Z</time></trkpt><trkpt lat="43.4325417" lon="11.6773117"><ele>457.42857142857144</ele><time>2026-03-22T09:51:45.259Z</time></trkpt><trkpt lat="43.4325867" lon="11.6773767"><ele>458.57142857142856</ele><time>2026-03-22T09:51:46.261Z</time></trkpt><trkpt lat="43.4326367" lon="11.6774417"><ele>459.7142857142857</ele><time>2026-03-22T09:51:47.258Z</time></trkpt><trkpt lat="43.4326983" lon="11.6775067"><ele>460.8571428571429</ele><time>2026-03-22T09:51:48.259Z</time></trkpt><trkpt lat="43.4327667" lon="11.67757"><ele>462.0</ele><time>2026-03-22T09:51:49.259Z</time></trkpt><trkpt lat="43.4328333" lon="11.6776283"><ele>462.0</ele><time>2026-03-22T09:51:50.261Z</time></trkpt><trkpt lat="43.4329033" lon="11.67768"><ele>462.0</ele><time>2026-03-22T09:51:51.262Z</time></trkpt><trkpt lat="43.4329733" lon="11.677725"><ele>462.0</ele><time>2026-03-22T09:51:52.265Z</time></trkpt><trkpt lat="43.4330433" lon="11.6777683"><ele>462.0</ele><time>2026-03-22T09:51:53.261Z</time></trkpt><trkpt lat="43.43311" lon="11.6778033"><ele>462.0</ele><time>2026-03-22T09:51:54.267Z</time></trkpt><trkpt lat="43.43317" lon="11.6778333"><ele>462.0</ele><time>2026-03-22T09:51:55.261Z</time></trkpt><trkpt lat="43.4332817" lon="11.6779017"><ele>465.5</ele><time>2026-03-22T09:51:57.26Z</time></trkpt><trkpt lat="43.43339" lon="11.6779333"><ele>469.0</ele><time>2026-03-22T09:51:59.259Z</time></trkpt><trkpt lat="43.4334967" lon="11.6779767"><ele>472.5</ele><time>2026-03-22T09:52:01.261Z</time></trkpt><trkpt lat="43.4336483" lon="11.6780717"><ele>476.0</ele><time>2026-03-22T09:52:04.262Z</time></trkpt><trkpt lat="43.4337383" lon="11.6781617"><ele>478.8</ele><time>2026-03-22T09:52:06.26Z</time></trkpt><trkpt lat="43.43384" lon="11.6782517"><ele>481.6</ele><time>2026-03-22T09:52:08.259Z</time></trkpt><trkpt lat="43.4338983" lon="11.6782967"><ele>484.4</ele><time>2026-03-22T09:52:09.262Z</time></trkpt><trkpt lat="43.4339917" lon="11.6783917"><ele>487.2</ele><time>2026-03-22T09:52:11.259Z</time></trkpt><trkpt lat="43.43411" lon="11.67846"><ele>490.0</ele><time>2026-03-22T09:52:13.257Z</time></trkpt><trkpt lat="43.4341733" lon="11.6784833"><ele>490.0</ele><time>2026-03-22T09:52:14.26Z</time></trkpt><trkpt lat="43.4342383" lon="11.6785033"><ele>490.0</ele><time>2026-03-22T09:52:15.254Z</time></trkpt><trkpt lat="43.4343067" lon="11.678525"><ele>490.0</ele><time>2026-03-22T09:52:16.256Z</time></trkpt><trkpt lat="43.43438" lon="11.6785483"><ele>490.0</ele><time>2026-03-22T09:52:17.255Z</time></trkpt><trkpt lat="43.434455" lon="11.67858"><ele>490.0</ele><time>2026-03-22T09:52:18.331Z</time></trkpt><trkpt lat="43.43452" lon="11.6786033"><ele>490.0</ele><time>2026-03-22T09:52:19.254Z</time></trkpt><trkpt lat="43.4345867" lon="11.6786333"><ele>490.0</ele><time>2026-03-22T09:52:20.254Z</time></trkpt><trkpt lat="43.43465" lon="11.6786583"><ele>494.4</ele><time>2026-03-22T09:52:21.255Z</time></trkpt><trkpt lat="43.4347167" lon="11.67868"><ele>498.8</ele><time>2026-03-22T09:52:22.254Z</time></trkpt><trkpt lat="43.4348317" lon="11.678725"><ele>503.20000000000005</ele><time>2026-03-22T09:52:24.254Z</time></trkpt><trkpt lat="43.4349367" lon="11.6787717"><ele>507.6</ele><time>2026-03-22T09:52:26.254Z</time></trkpt><trkpt lat="43.4350383" lon="11.678815"><ele>512.0</ele><time>2026-03-22T09:52:28.256Z</time></trkpt><trkpt lat="43.435145" lon="11.6788667"><ele>512.0</ele><time>2026-03-22T09:52:30.253Z</time></trkpt></trkseg></trk></gpx>